<?xml version="1.0"?>
<gpx
 version="1.1"
 creator="Satmap Active 20"
 xmlns:xsi="http://www.w3.org/2001/XMLSchema-instance"
 xmlns="http://www.topografix.com/GPX/1/1"
 xmlns:satmap="http://www.satmap.com/updates/xmlschemas/GpxExtensions/v2/GpxExtensions_v2.xsd"
 xsi:schemaLocation="http://www.topografix.com/GPX/1/1 http://www.topografix.com/GPX/1/1/gpx.xsd">
<metadata>
<time>2020-09-03T09:43:19Z</time>
<extensions>
<satmap:platform>43</satmap:platform>
<satmap:software version="3.12.831">SM15.exe</satmap:software>
<satmap:username>Jim Grant</satmap:username>
<satmap:network_ids>
<satmap:network_id type="wifi">00-23-A7-EC-D5-78</satmap:network_id>
<satmap:network_id type="bluetooth">80-BB-EB-D7-5B-7C</satmap:network_id>
</satmap:network_ids>
<satmap:snap_type>simple</satmap:snap_type>
</extensions>
</metadata>
<trk>
<name>2020-09-03_0943</name>
<desc>Track 1</desc>
<number>1</number>
<trkseg>
<trkpt lat="52.926524" lon="-3.418814"><ele>292</ele><time>2020-09-03T09:43:19Z</time><name>PT1</name></trkpt>
<trkpt lat="52.926528" lon="-3.418800"><ele>292</ele><time>2020-09-03T09:43:20Z</time><name>PT2</name></trkpt>
<trkpt lat="52.926531" lon="-3.418784"><ele>292</ele><time>2020-09-03T09:43:21Z</time><name>PT3</name></trkpt>
<trkpt lat="52.926534" lon="-3.418763"><ele>292</ele><time>2020-09-03T09:43:22Z</time><name>PT4</name></trkpt>
<trkpt lat="52.926538" lon="-3.418745"><ele>292</ele><time>2020-09-03T09:43:23Z</time><name>PT5</name></trkpt>
<trkpt lat="52.926543" lon="-3.418730"><ele>292</ele><time>2020-09-03T09:43:24Z</time><name>PT6</name></trkpt>
<trkpt lat="52.926546" lon="-3.418718"><ele>293</ele><time>2020-09-03T09:43:25Z</time><name>PT7</name></trkpt>
<trkpt lat="52.926551" lon="-3.418704"><ele>293</ele><time>2020-09-03T09:43:26Z</time><name>PT8</name></trkpt>
<trkpt lat="52.926558" lon="-3.418692"><ele>293</ele><time>2020-09-03T09:43:27Z</time><name>PT9</name></trkpt>
<trkpt lat="52.926566" lon="-3.418683"><ele>293</ele><time>2020-09-03T09:43:28Z</time><name>PT10</name></trkpt>
<trkpt lat="52.926573" lon="-3.418679"><ele>293</ele><time>2020-09-03T09:43:29Z</time><name>PT11</name></trkpt>
<trkpt lat="52.926583" lon="-3.418671"><ele>293</ele><time>2020-09-03T09:43:30Z</time><name>PT12</name></trkpt>
<trkpt lat="52.926592" lon="-3.418666"><ele>293</ele><time>2020-09-03T09:43:31Z</time><name>PT13</name></trkpt>
<trkpt lat="52.926598" lon="-3.418660"><ele>293</ele><time>2020-09-03T09:43:32Z</time><name>PT14</name></trkpt>
<trkpt lat="52.926605" lon="-3.418657"><ele>294</ele><time>2020-09-03T09:43:33Z</time><name>PT15</name></trkpt>
<trkpt lat="52.926615" lon="-3.418658"><ele>294</ele><time>2020-09-03T09:43:34Z</time><name>PT16</name></trkpt>
<trkpt lat="52.926622" lon="-3.418658"><ele>294</ele><time>2020-09-03T09:43:35Z</time><name>PT17</name></trkpt>
<trkpt lat="52.926630" lon="-3.418658"><ele>294</ele><time>2020-09-03T09:43:36Z</time><name>PT18</name></trkpt>
<trkpt lat="52.926636" lon="-3.418657"><ele>294</ele><time>2020-09-03T09:43:37Z</time><name>PT19</name></trkpt>
<trkpt lat="52.926642" lon="-3.418658"><ele>293</ele><time>2020-09-03T09:43:38Z</time><name>PT20</name></trkpt>
<trkpt lat="52.926647" lon="-3.418658"><ele>293</ele><time>2020-09-03T09:43:39Z</time><name>PT21</name></trkpt>
<trkpt lat="52.926651" lon="-3.418657"><ele>293</ele><time>2020-09-03T09:43:40Z</time><name>PT22</name></trkpt>
<trkpt lat="52.926658" lon="-3.418653"><ele>293</ele><time>2020-09-03T09:43:41Z</time><name>PT23</name></trkpt>
<trkpt lat="52.926674" lon="-3.418649"><ele>293</ele><time>2020-09-03T09:43:42Z</time><name>PT24</name></trkpt>
<trkpt lat="52.926683" lon="-3.418643"><ele>294</ele><time>2020-09-03T09:43:43Z</time><name>PT25</name></trkpt>
<trkpt lat="52.926690" lon="-3.418634"><ele>294</ele><time>2020-09-03T09:43:44Z</time><name>PT26</name></trkpt>
<trkpt lat="52.926696" lon="-3.418628"><ele>293</ele><time>2020-09-03T09:43:45Z</time><name>PT27</name></trkpt>
<trkpt lat="52.926701" lon="-3.418619"><ele>294</ele><time>2020-09-03T09:43:46Z</time><name>PT28</name></trkpt>
<trkpt lat="52.926709" lon="-3.418616"><ele>294</ele><time>2020-09-03T09:43:47Z</time><name>PT29</name></trkpt>
<trkpt lat="52.926717" lon="-3.418615"><ele>293</ele><time>2020-09-03T09:43:48Z</time><name>PT30</name></trkpt>
<trkpt lat="52.926732" lon="-3.418609"><ele>294</ele><time>2020-09-03T09:43:49Z</time><name>PT31</name></trkpt>
<trkpt lat="52.926747" lon="-3.418600"><ele>295</ele><time>2020-09-03T09:43:50Z</time><name>PT32</name></trkpt>
<trkpt lat="52.926760" lon="-3.418590"><ele>295</ele><time>2020-09-03T09:43:51Z</time><name>PT33</name></trkpt>
<trkpt lat="52.926761" lon="-3.418581"><ele>295</ele><time>2020-09-03T09:43:52Z</time><name>PT34</name></trkpt>
<trkpt lat="52.926765" lon="-3.418574"><ele>295</ele><time>2020-09-03T09:43:53Z</time><name>PT35</name></trkpt>
<trkpt lat="52.926768" lon="-3.418565"><ele>295</ele><time>2020-09-03T09:43:54Z</time><name>PT36</name></trkpt>
<trkpt lat="52.926772" lon="-3.418556"><ele>295</ele><time>2020-09-03T09:43:55Z</time><name>PT37</name></trkpt>
<trkpt lat="52.926779" lon="-3.418544"><ele>295</ele><time>2020-09-03T09:43:56Z</time><name>PT38</name></trkpt>
<trkpt lat="52.926782" lon="-3.418534"><ele>295</ele><time>2020-09-03T09:43:57Z</time><name>PT39</name></trkpt>
<trkpt lat="52.926783" lon="-3.418523"><ele>295</ele><time>2020-09-03T09:43:58Z</time><name>PT40</name></trkpt>
<trkpt lat="52.926789" lon="-3.418512"><ele>294</ele><time>2020-09-03T09:43:59Z</time><name>PT41</name></trkpt>
<trkpt lat="52.926793" lon="-3.418498"><ele>295</ele><time>2020-09-03T09:44:00Z</time><name>PT42</name></trkpt>
<trkpt lat="52.926797" lon="-3.418481"><ele>294</ele><time>2020-09-03T09:44:01Z</time><name>PT43</name></trkpt>
<trkpt lat="52.926805" lon="-3.418464"><ele>294</ele><time>2020-09-03T09:44:02Z</time><name>PT44</name></trkpt>
<trkpt lat="52.926814" lon="-3.418452"><ele>295</ele><time>2020-09-03T09:44:03Z</time><name>PT45</name></trkpt>
<trkpt lat="52.926822" lon="-3.418444"><ele>294</ele><time>2020-09-03T09:44:04Z</time><name>PT46</name></trkpt>
<trkpt lat="52.926831" lon="-3.418435"><ele>294</ele><time>2020-09-03T09:44:05Z</time><name>PT47</name></trkpt>
<trkpt lat="52.926836" lon="-3.418424"><ele>293</ele><time>2020-09-03T09:44:06Z</time><name>PT48</name></trkpt>
<trkpt lat="52.926841" lon="-3.418412"><ele>294</ele><time>2020-09-03T09:44:07Z</time><name>PT49</name></trkpt>
<trkpt lat="52.926846" lon="-3.418400"><ele>294</ele><time>2020-09-03T09:44:08Z</time><name>PT50</name></trkpt>
<trkpt lat="52.926854" lon="-3.418389"><ele>294</ele><time>2020-09-03T09:44:09Z</time><name>PT51</name></trkpt>
<trkpt lat="52.926860" lon="-3.418376"><ele>294</ele><time>2020-09-03T09:44:10Z</time><name>PT52</name></trkpt>
<trkpt lat="52.926867" lon="-3.418361"><ele>294</ele><time>2020-09-03T09:44:11Z</time><name>PT53</name></trkpt>
<trkpt lat="52.926877" lon="-3.418348"><ele>295</ele><time>2020-09-03T09:44:12Z</time><name>PT54</name></trkpt>
<trkpt lat="52.926883" lon="-3.418336"><ele>295</ele><time>2020-09-03T09:44:13Z</time><name>PT55</name></trkpt>
<trkpt lat="52.926891" lon="-3.418324"><ele>295</ele><time>2020-09-03T09:44:14Z</time><name>PT56</name></trkpt>
<trkpt lat="52.926899" lon="-3.418314"><ele>294</ele><time>2020-09-03T09:44:15Z</time><name>PT57</name></trkpt>
<trkpt lat="52.926904" lon="-3.418304"><ele>294</ele><time>2020-09-03T09:44:16Z</time><name>PT58</name></trkpt>
<trkpt lat="52.926911" lon="-3.418289"><ele>294</ele><time>2020-09-03T09:44:17Z</time><name>PT59</name></trkpt>
<trkpt lat="52.926918" lon="-3.418279"><ele>294</ele><time>2020-09-03T09:44:18Z</time><name>PT60</name></trkpt>
<trkpt lat="52.926927" lon="-3.418269"><ele>294</ele><time>2020-09-03T09:44:19Z</time><name>PT61</name></trkpt>
<trkpt lat="52.926932" lon="-3.418253"><ele>294</ele><time>2020-09-03T09:44:20Z</time><name>PT62</name></trkpt>
<trkpt lat="52.926936" lon="-3.418240"><ele>294</ele><time>2020-09-03T09:44:21Z</time><name>PT63</name></trkpt>
<trkpt lat="52.926941" lon="-3.418224"><ele>294</ele><time>2020-09-03T09:44:22Z</time><name>PT64</name></trkpt>
<trkpt lat="52.926947" lon="-3.418210"><ele>294</ele><time>2020-09-03T09:44:23Z</time><name>PT65</name></trkpt>
<trkpt lat="52.926954" lon="-3.418195"><ele>294</ele><time>2020-09-03T09:44:24Z</time><name>PT66</name></trkpt>
<trkpt lat="52.926959" lon="-3.418178"><ele>294</ele><time>2020-09-03T09:44:25Z</time><name>PT67</name></trkpt>
<trkpt lat="52.926964" lon="-3.418163"><ele>294</ele><time>2020-09-03T09:44:26Z</time><name>PT68</name></trkpt>
<trkpt lat="52.926969" lon="-3.418150"><ele>294</ele><time>2020-09-03T09:44:27Z</time><name>PT69</name></trkpt>
<trkpt lat="52.926974" lon="-3.418133"><ele>294</ele><time>2020-09-03T09:44:28Z</time><name>PT70</name></trkpt>
<trkpt lat="52.926977" lon="-3.418116"><ele>294</ele><time>2020-09-03T09:44:29Z</time><name>PT71</name></trkpt>
<trkpt lat="52.926982" lon="-3.418101"><ele>295</ele><time>2020-09-03T09:44:30Z</time><name>PT72</name></trkpt>
<trkpt lat="52.926985" lon="-3.418088"><ele>295</ele><time>2020-09-03T09:44:31Z</time><name>PT73</name></trkpt>
<trkpt lat="52.926988" lon="-3.418075"><ele>295</ele><time>2020-09-03T09:44:32Z</time><name>PT74</name></trkpt>
<trkpt lat="52.926990" lon="-3.418059"><ele>295</ele><time>2020-09-03T09:44:33Z</time><name>PT75</name></trkpt>
<trkpt lat="52.926991" lon="-3.418041"><ele>295</ele><time>2020-09-03T09:44:34Z</time><name>PT76</name></trkpt>
<trkpt lat="52.926993" lon="-3.418025"><ele>294</ele><time>2020-09-03T09:44:35Z</time><name>PT77</name></trkpt>
<trkpt lat="52.926999" lon="-3.418007"><ele>295</ele><time>2020-09-03T09:44:36Z</time><name>PT78</name></trkpt>
<trkpt lat="52.927001" lon="-3.417990"><ele>295</ele><time>2020-09-03T09:44:37Z</time><name>PT79</name></trkpt>
<trkpt lat="52.927004" lon="-3.417974"><ele>295</ele><time>2020-09-03T09:44:38Z</time><name>PT80</name></trkpt>
<trkpt lat="52.927006" lon="-3.417959"><ele>296</ele><time>2020-09-03T09:44:39Z</time><name>PT81</name></trkpt>
<trkpt lat="52.927007" lon="-3.417942"><ele>296</ele><time>2020-09-03T09:44:40Z</time><name>PT82</name></trkpt>
<trkpt lat="52.927011" lon="-3.417929"><ele>296</ele><time>2020-09-03T09:44:41Z</time><name>PT83</name></trkpt>
<trkpt lat="52.927013" lon="-3.417914"><ele>297</ele><time>2020-09-03T09:44:42Z</time><name>PT84</name></trkpt>
<trkpt lat="52.927015" lon="-3.417896"><ele>297</ele><time>2020-09-03T09:44:43Z</time><name>PT85</name></trkpt>
<trkpt lat="52.927017" lon="-3.417879"><ele>297</ele><time>2020-09-03T09:44:44Z</time><name>PT86</name></trkpt>
<trkpt lat="52.927018" lon="-3.417864"><ele>296</ele><time>2020-09-03T09:44:45Z</time><name>PT87</name></trkpt>
<trkpt lat="52.927019" lon="-3.417845"><ele>297</ele><time>2020-09-03T09:44:46Z</time><name>PT88</name></trkpt>
<trkpt lat="52.927020" lon="-3.417831"><ele>297</ele><time>2020-09-03T09:44:47Z</time><name>PT89</name></trkpt>
<trkpt lat="52.927024" lon="-3.417816"><ele>297</ele><time>2020-09-03T09:44:48Z</time><name>PT90</name></trkpt>
<trkpt lat="52.927029" lon="-3.417803"><ele>297</ele><time>2020-09-03T09:44:49Z</time><name>PT91</name></trkpt>
<trkpt lat="52.927029" lon="-3.417788"><ele>297</ele><time>2020-09-03T09:44:50Z</time><name>PT92</name></trkpt>
<trkpt lat="52.927027" lon="-3.417772"><ele>297</ele><time>2020-09-03T09:44:51Z</time><name>PT93</name></trkpt>
<trkpt lat="52.927028" lon="-3.417762"><ele>297</ele><time>2020-09-03T09:44:52Z</time><name>PT94</name></trkpt>
<trkpt lat="52.927032" lon="-3.417748"><ele>297</ele><time>2020-09-03T09:44:53Z</time><name>PT95</name></trkpt>
<trkpt lat="52.927033" lon="-3.417738"><ele>296</ele><time>2020-09-03T09:44:54Z</time><name>PT96</name></trkpt>
<trkpt lat="52.927036" lon="-3.417729"><ele>296</ele><time>2020-09-03T09:44:55Z</time><name>PT97</name></trkpt>
<trkpt lat="52.927040" lon="-3.417719"><ele>296</ele><time>2020-09-03T09:44:56Z</time><name>PT98</name></trkpt>
<trkpt lat="52.927040" lon="-3.417705"><ele>296</ele><time>2020-09-03T09:44:57Z</time><name>PT99</name></trkpt>
<trkpt lat="52.927040" lon="-3.417697"><ele>296</ele><time>2020-09-03T09:44:58Z</time><name>PT100</name></trkpt>
<trkpt lat="52.927041" lon="-3.417688"><ele>296</ele><time>2020-09-03T09:44:59Z</time><name>PT101</name></trkpt>
<trkpt lat="52.927046" lon="-3.417680"><ele>295</ele><time>2020-09-03T09:45:00Z</time><name>PT102</name></trkpt>
<trkpt lat="52.927052" lon="-3.417670"><ele>295</ele><time>2020-09-03T09:45:01Z</time><name>PT103</name></trkpt>
<trkpt lat="52.927059" lon="-3.417661"><ele>295</ele><time>2020-09-03T09:45:02Z</time><name>PT104</name></trkpt>
<trkpt lat="52.927067" lon="-3.417660"><ele>295</ele><time>2020-09-03T09:45:03Z</time><name>PT105</name></trkpt>
<trkpt lat="52.927075" lon="-3.417652"><ele>295</ele><time>2020-09-03T09:45:04Z</time><name>PT106</name></trkpt>
<trkpt lat="52.927087" lon="-3.417638"><ele>295</ele><time>2020-09-03T09:45:05Z</time><name>PT107</name></trkpt>
<trkpt lat="52.927096" lon="-3.417624"><ele>296</ele><time>2020-09-03T09:45:06Z</time><name>PT108</name></trkpt>
<trkpt lat="52.927104" lon="-3.417608"><ele>295</ele><time>2020-09-03T09:45:07Z</time><name>PT109</name></trkpt>
<trkpt lat="52.927111" lon="-3.417594"><ele>295</ele><time>2020-09-03T09:45:08Z</time><name>PT110</name></trkpt>
<trkpt lat="52.927120" lon="-3.417586"><ele>295</ele><time>2020-09-03T09:45:09Z</time><name>PT111</name></trkpt>
<trkpt lat="52.927126" lon="-3.417574"><ele>295</ele><time>2020-09-03T09:45:10Z</time><name>PT112</name></trkpt>
<trkpt lat="52.927132" lon="-3.417565"><ele>295</ele><time>2020-09-03T09:45:11Z</time><name>PT113</name></trkpt>
<trkpt lat="52.927138" lon="-3.417556"><ele>295</ele><time>2020-09-03T09:45:12Z</time><name>PT114</name></trkpt>
<trkpt lat="52.927144" lon="-3.417546"><ele>295</ele><time>2020-09-03T09:45:13Z</time><name>PT115</name></trkpt>
<trkpt lat="52.927152" lon="-3.417533"><ele>295</ele><time>2020-09-03T09:45:14Z</time><name>PT116</name></trkpt>
<trkpt lat="52.927158" lon="-3.417522"><ele>295</ele><time>2020-09-03T09:45:15Z</time><name>PT117</name></trkpt>
<trkpt lat="52.927164" lon="-3.417512"><ele>296</ele><time>2020-09-03T09:45:16Z</time><name>PT118</name></trkpt>
<trkpt lat="52.927173" lon="-3.417504"><ele>296</ele><time>2020-09-03T09:45:17Z</time><name>PT119</name></trkpt>
<trkpt lat="52.927179" lon="-3.417494"><ele>296</ele><time>2020-09-03T09:45:18Z</time><name>PT120</name></trkpt>
<trkpt lat="52.927187" lon="-3.417479"><ele>296</ele><time>2020-09-03T09:45:19Z</time><name>PT121</name></trkpt>
<trkpt lat="52.927193" lon="-3.417466"><ele>296</ele><time>2020-09-03T09:45:20Z</time><name>PT122</name></trkpt>
<trkpt lat="52.927197" lon="-3.417457"><ele>296</ele><time>2020-09-03T09:45:21Z</time><name>PT123</name></trkpt>
<trkpt lat="52.927201" lon="-3.417445"><ele>296</ele><time>2020-09-03T09:45:22Z</time><name>PT124</name></trkpt>
<trkpt lat="52.927207" lon="-3.417428"><ele>295</ele><time>2020-09-03T09:45:23Z</time><name>PT125</name></trkpt>
<trkpt lat="52.927211" lon="-3.417411"><ele>295</ele><time>2020-09-03T09:45:24Z</time><name>PT126</name></trkpt>
<trkpt lat="52.927215" lon="-3.417396"><ele>295</ele><time>2020-09-03T09:45:25Z</time><name>PT127</name></trkpt>
<trkpt lat="52.927218" lon="-3.417382"><ele>295</ele><time>2020-09-03T09:45:26Z</time><name>PT128</name></trkpt>
<trkpt lat="52.927222" lon="-3.417367"><ele>295</ele><time>2020-09-03T09:45:27Z</time><name>PT129</name></trkpt>
<trkpt lat="52.927227" lon="-3.417351"><ele>295</ele><time>2020-09-03T09:45:28Z</time><name>PT130</name></trkpt>
<trkpt lat="52.927235" lon="-3.417333"><ele>296</ele><time>2020-09-03T09:45:29Z</time><name>PT131</name></trkpt>
<trkpt lat="52.927237" lon="-3.417318"><ele>296</ele><time>2020-09-03T09:45:30Z</time><name>PT132</name></trkpt>
<trkpt lat="52.927240" lon="-3.417309"><ele>296</ele><time>2020-09-03T09:45:31Z</time><name>PT133</name></trkpt>
<trkpt lat="52.927243" lon="-3.417295"><ele>296</ele><time>2020-09-03T09:45:32Z</time><name>PT134</name></trkpt>
<trkpt lat="52.927247" lon="-3.417277"><ele>297</ele><time>2020-09-03T09:45:33Z</time><name>PT135</name></trkpt>
<trkpt lat="52.927250" lon="-3.417262"><ele>297</ele><time>2020-09-03T09:45:34Z</time><name>PT136</name></trkpt>
<trkpt lat="52.927252" lon="-3.417247"><ele>297</ele><time>2020-09-03T09:45:35Z</time><name>PT137</name></trkpt>
<trkpt lat="52.927257" lon="-3.417230"><ele>298</ele><time>2020-09-03T09:45:36Z</time><name>PT138</name></trkpt>
<trkpt lat="52.927259" lon="-3.417211"><ele>299</ele><time>2020-09-03T09:45:37Z</time><name>PT139</name></trkpt>
<trkpt lat="52.927260" lon="-3.417190"><ele>298</ele><time>2020-09-03T09:45:38Z</time><name>PT140</name></trkpt>
<trkpt lat="52.927261" lon="-3.417172"><ele>299</ele><time>2020-09-03T09:45:39Z</time><name>PT141</name></trkpt>
<trkpt lat="52.927263" lon="-3.417151"><ele>299</ele><time>2020-09-03T09:45:40Z</time><name>PT142</name></trkpt>
<trkpt lat="52.927264" lon="-3.417132"><ele>299</ele><time>2020-09-03T09:45:41Z</time><name>PT143</name></trkpt>
<trkpt lat="52.927266" lon="-3.417116"><ele>299</ele><time>2020-09-03T09:45:42Z</time><name>PT144</name></trkpt>
<trkpt lat="52.927266" lon="-3.417101"><ele>299</ele><time>2020-09-03T09:45:43Z</time><name>PT145</name></trkpt>
<trkpt lat="52.927266" lon="-3.417084"><ele>300</ele><time>2020-09-03T09:45:44Z</time><name>PT146</name></trkpt>
<trkpt lat="52.927267" lon="-3.417070"><ele>300</ele><time>2020-09-03T09:45:45Z</time><name>PT147</name></trkpt>
<trkpt lat="52.927269" lon="-3.417055"><ele>301</ele><time>2020-09-03T09:45:46Z</time><name>PT148</name></trkpt>
<trkpt lat="52.927270" lon="-3.417039"><ele>300</ele><time>2020-09-03T09:45:47Z</time><name>PT149</name></trkpt>
<trkpt lat="52.927270" lon="-3.417019"><ele>300</ele><time>2020-09-03T09:45:48Z</time><name>PT150</name></trkpt>
<trkpt lat="52.927270" lon="-3.417003"><ele>300</ele><time>2020-09-03T09:45:49Z</time><name>PT151</name></trkpt>
<trkpt lat="52.927269" lon="-3.416983"><ele>301</ele><time>2020-09-03T09:45:50Z</time><name>PT152</name></trkpt>
<trkpt lat="52.927272" lon="-3.416966"><ele>301</ele><time>2020-09-03T09:45:51Z</time><name>PT153</name></trkpt>
<trkpt lat="52.927274" lon="-3.416949"><ele>301</ele><time>2020-09-03T09:45:52Z</time><name>PT154</name></trkpt>
<trkpt lat="52.927277" lon="-3.416933"><ele>302</ele><time>2020-09-03T09:45:53Z</time><name>PT155</name></trkpt>
<trkpt lat="52.927278" lon="-3.416921"><ele>302</ele><time>2020-09-03T09:45:54Z</time><name>PT156</name></trkpt>
<trkpt lat="52.927277" lon="-3.416905"><ele>302</ele><time>2020-09-03T09:45:55Z</time><name>PT157</name></trkpt>
<trkpt lat="52.927276" lon="-3.416888"><ele>302</ele><time>2020-09-03T09:45:56Z</time><name>PT158</name></trkpt>
<trkpt lat="52.927276" lon="-3.416875"><ele>302</ele><time>2020-09-03T09:45:57Z</time><name>PT159</name></trkpt>
<trkpt lat="52.927275" lon="-3.416868"><ele>302</ele><time>2020-09-03T09:45:58Z</time><name>PT160</name></trkpt>
<trkpt lat="52.927272" lon="-3.416863"><ele>303</ele><time>2020-09-03T09:45:59Z</time><name>PT161</name></trkpt>
<trkpt lat="52.927267" lon="-3.416854"><ele>302</ele><time>2020-09-03T09:46:00Z</time><name>PT162</name></trkpt>
<trkpt lat="52.927266" lon="-3.416853"><ele>302</ele><time>2020-09-03T09:46:01Z</time><name>PT163</name></trkpt>
<trkpt lat="52.927265" lon="-3.416856"><ele>302</ele><time>2020-09-03T09:46:02Z</time><name>PT164</name></trkpt>
<trkpt lat="52.927266" lon="-3.416858"><ele>302</ele><time>2020-09-03T09:46:03Z</time><name>PT165</name></trkpt>
<trkpt lat="52.927269" lon="-3.416858"><ele>302</ele><time>2020-09-03T09:46:04Z</time><name>PT166</name></trkpt>
<trkpt lat="52.927272" lon="-3.416851"><ele>302</ele><time>2020-09-03T09:46:05Z</time><name>PT167</name></trkpt>
<trkpt lat="52.927275" lon="-3.416844"><ele>302</ele><time>2020-09-03T09:46:06Z</time><name>PT168</name></trkpt>
<trkpt lat="52.927280" lon="-3.416836"><ele>303</ele><time>2020-09-03T09:46:07Z</time><name>PT169</name></trkpt>
<trkpt lat="52.927281" lon="-3.416832"><ele>303</ele><time>2020-09-03T09:46:08Z</time><name>PT170</name></trkpt>
<trkpt lat="52.927281" lon="-3.416824"><ele>304</ele><time>2020-09-03T09:46:09Z</time><name>PT171</name></trkpt>
<trkpt lat="52.927279" lon="-3.416807"><ele>304</ele><time>2020-09-03T09:46:10Z</time><name>PT172</name></trkpt>
<trkpt lat="52.927277" lon="-3.416789"><ele>304</ele><time>2020-09-03T09:46:11Z</time><name>PT173</name></trkpt>
<trkpt lat="52.927276" lon="-3.416772"><ele>304</ele><time>2020-09-03T09:46:12Z</time><name>PT174</name></trkpt>
<trkpt lat="52.927273" lon="-3.416754"><ele>304</ele><time>2020-09-03T09:46:13Z</time><name>PT175</name></trkpt>
<trkpt lat="52.927270" lon="-3.416734"><ele>304</ele><time>2020-09-03T09:46:14Z</time><name>PT176</name></trkpt>
<trkpt lat="52.927266" lon="-3.416716"><ele>304</ele><time>2020-09-03T09:46:15Z</time><name>PT177</name></trkpt>
<trkpt lat="52.927263" lon="-3.416695"><ele>304</ele><time>2020-09-03T09:46:16Z</time><name>PT178</name></trkpt>
<trkpt lat="52.927262" lon="-3.416681"><ele>304</ele><time>2020-09-03T09:46:17Z</time><name>PT179</name></trkpt>
<trkpt lat="52.927258" lon="-3.416664"><ele>304</ele><time>2020-09-03T09:46:18Z</time><name>PT180</name></trkpt>
<trkpt lat="52.927256" lon="-3.416648"><ele>305</ele><time>2020-09-03T09:46:19Z</time><name>PT181</name></trkpt>
<trkpt lat="52.927251" lon="-3.416627"><ele>305</ele><time>2020-09-03T09:46:20Z</time><name>PT182</name></trkpt>
<trkpt lat="52.927249" lon="-3.416604"><ele>304</ele><time>2020-09-03T09:46:21Z</time><name>PT183</name></trkpt>
<trkpt lat="52.927247" lon="-3.416583"><ele>305</ele><time>2020-09-03T09:46:22Z</time><name>PT184</name></trkpt>
<trkpt lat="52.927244" lon="-3.416566"><ele>305</ele><time>2020-09-03T09:46:23Z</time><name>PT185</name></trkpt>
<trkpt lat="52.927242" lon="-3.416552"><ele>305</ele><time>2020-09-03T09:46:24Z</time><name>PT186</name></trkpt>
<trkpt lat="52.927241" lon="-3.416535"><ele>305</ele><time>2020-09-03T09:46:25Z</time><name>PT187</name></trkpt>
<trkpt lat="52.927238" lon="-3.416516"><ele>305</ele><time>2020-09-03T09:46:26Z</time><name>PT188</name></trkpt>
<trkpt lat="52.927231" lon="-3.416463"><ele>306</ele><time>2020-09-03T09:46:29Z</time><name>PT189</name></trkpt>
<trkpt lat="52.927223" lon="-3.416407"><ele>306</ele><time>2020-09-03T09:46:33Z</time><name>PT190</name></trkpt>
<trkpt lat="52.927220" lon="-3.416341"><ele>306</ele><time>2020-09-03T09:46:37Z</time><name>PT191</name></trkpt>
<trkpt lat="52.927219" lon="-3.416280"><ele>307</ele><time>2020-09-03T09:46:41Z</time><name>PT192</name></trkpt>
<trkpt lat="52.927221" lon="-3.416215"><ele>308</ele><time>2020-09-03T09:46:45Z</time><name>PT193</name></trkpt>
<trkpt lat="52.927226" lon="-3.416152"><ele>308</ele><time>2020-09-03T09:46:49Z</time><name>PT194</name></trkpt>
<trkpt lat="52.927234" lon="-3.416083"><ele>309</ele><time>2020-09-03T09:46:53Z</time><name>PT195</name></trkpt>
<trkpt lat="52.927241" lon="-3.416015"><ele>309</ele><time>2020-09-03T09:46:57Z</time><name>PT196</name></trkpt>
<trkpt lat="52.927251" lon="-3.415953"><ele>310</ele><time>2020-09-03T09:47:01Z</time><name>PT197</name></trkpt>
<trkpt lat="52.927262" lon="-3.415894"><ele>311</ele><time>2020-09-03T09:47:05Z</time><name>PT198</name></trkpt>
<trkpt lat="52.927267" lon="-3.415836"><ele>311</ele><time>2020-09-03T09:47:09Z</time><name>PT199</name></trkpt>
<trkpt lat="52.927270" lon="-3.415779"><ele>311</ele><time>2020-09-03T09:47:13Z</time><name>PT200</name></trkpt>
<trkpt lat="52.927269" lon="-3.415721"><ele>311</ele><time>2020-09-03T09:47:17Z</time><name>PT201</name></trkpt>
<trkpt lat="52.927268" lon="-3.415657"><ele>311</ele><time>2020-09-03T09:47:21Z</time><name>PT202</name></trkpt>
<trkpt lat="52.927271" lon="-3.415607"><ele>312</ele><time>2020-09-03T09:47:25Z</time><name>PT203</name></trkpt>
<trkpt lat="52.927276" lon="-3.415549"><ele>312</ele><time>2020-09-03T09:47:29Z</time><name>PT204</name></trkpt>
<trkpt lat="52.927281" lon="-3.415480"><ele>313</ele><time>2020-09-03T09:47:33Z</time><name>PT205</name></trkpt>
<trkpt lat="52.927286" lon="-3.415417"><ele>313</ele><time>2020-09-03T09:47:37Z</time><name>PT206</name></trkpt>
<trkpt lat="52.927289" lon="-3.415356"><ele>314</ele><time>2020-09-03T09:47:41Z</time><name>PT207</name></trkpt>
<trkpt lat="52.927294" lon="-3.415296"><ele>315</ele><time>2020-09-03T09:47:45Z</time><name>PT208</name></trkpt>
<trkpt lat="52.927299" lon="-3.415237"><ele>316</ele><time>2020-09-03T09:47:49Z</time><name>PT209</name></trkpt>
<trkpt lat="52.927303" lon="-3.415175"><ele>316</ele><time>2020-09-03T09:47:53Z</time><name>PT210</name></trkpt>
<trkpt lat="52.927310" lon="-3.415113"><ele>316</ele><time>2020-09-03T09:47:57Z</time><name>PT211</name></trkpt>
<trkpt lat="52.927319" lon="-3.415037"><ele>316</ele><time>2020-09-03T09:48:01Z</time><name>PT212</name></trkpt>
<trkpt lat="52.927322" lon="-3.414980"><ele>317</ele><time>2020-09-03T09:48:05Z</time><name>PT213</name></trkpt>
<trkpt lat="52.927326" lon="-3.414907"><ele>316</ele><time>2020-09-03T09:48:09Z</time><name>PT214</name></trkpt>
<trkpt lat="52.927329" lon="-3.414844"><ele>317</ele><time>2020-09-03T09:48:13Z</time><name>PT215</name></trkpt>
<trkpt lat="52.927328" lon="-3.414781"><ele>317</ele><time>2020-09-03T09:48:17Z</time><name>PT216</name></trkpt>
<trkpt lat="52.927327" lon="-3.414721"><ele>317</ele><time>2020-09-03T09:48:21Z</time><name>PT217</name></trkpt>
<trkpt lat="52.927336" lon="-3.414666"><ele>318</ele><time>2020-09-03T09:48:25Z</time><name>PT218</name></trkpt>
<trkpt lat="52.927350" lon="-3.414611"><ele>320</ele><time>2020-09-03T09:48:29Z</time><name>PT219</name></trkpt>
<trkpt lat="52.927359" lon="-3.414557"><ele>320</ele><time>2020-09-03T09:48:33Z</time><name>PT220</name></trkpt>
<trkpt lat="52.927372" lon="-3.414500"><ele>320</ele><time>2020-09-03T09:48:37Z</time><name>PT221</name></trkpt>
<trkpt lat="52.927389" lon="-3.414426"><ele>320</ele><time>2020-09-03T09:48:41Z</time><name>PT222</name></trkpt>
<trkpt lat="52.927401" lon="-3.414359"><ele>319</ele><time>2020-09-03T09:48:45Z</time><name>PT223</name></trkpt>
<trkpt lat="52.927413" lon="-3.414293"><ele>321</ele><time>2020-09-03T09:48:49Z</time><name>PT224</name></trkpt>
<trkpt lat="52.927416" lon="-3.414217"><ele>322</ele><time>2020-09-03T09:48:53Z</time><name>PT225</name></trkpt>
<trkpt lat="52.927413" lon="-3.414160"><ele>321</ele><time>2020-09-03T09:48:57Z</time><name>PT226</name></trkpt>
<trkpt lat="52.927408" lon="-3.414103"><ele>322</ele><time>2020-09-03T09:49:01Z</time><name>PT227</name></trkpt>
<trkpt lat="52.927405" lon="-3.414047"><ele>323</ele><time>2020-09-03T09:49:05Z</time><name>PT228</name></trkpt>
<trkpt lat="52.927401" lon="-3.413990"><ele>324</ele><time>2020-09-03T09:49:09Z</time><name>PT229</name></trkpt>
<trkpt lat="52.927400" lon="-3.413932"><ele>324</ele><time>2020-09-03T09:49:13Z</time><name>PT230</name></trkpt>
<trkpt lat="52.927395" lon="-3.413870"><ele>325</ele><time>2020-09-03T09:49:17Z</time><name>PT231</name></trkpt>
<trkpt lat="52.927391" lon="-3.413805"><ele>325</ele><time>2020-09-03T09:49:21Z</time><name>PT232</name></trkpt>
<trkpt lat="52.927391" lon="-3.413738"><ele>325</ele><time>2020-09-03T09:49:25Z</time><name>PT233</name></trkpt>
<trkpt lat="52.927390" lon="-3.413674"><ele>325</ele><time>2020-09-03T09:49:29Z</time><name>PT234</name></trkpt>
<trkpt lat="52.927392" lon="-3.413608"><ele>326</ele><time>2020-09-03T09:49:33Z</time><name>PT235</name></trkpt>
<trkpt lat="52.927391" lon="-3.413537"><ele>326</ele><time>2020-09-03T09:49:37Z</time><name>PT236</name></trkpt>
<trkpt lat="52.927395" lon="-3.413475"><ele>327</ele><time>2020-09-03T09:49:41Z</time><name>PT237</name></trkpt>
<trkpt lat="52.927394" lon="-3.413416"><ele>327</ele><time>2020-09-03T09:49:45Z</time><name>PT238</name></trkpt>
<trkpt lat="52.927393" lon="-3.413355"><ele>328</ele><time>2020-09-03T09:49:49Z</time><name>PT239</name></trkpt>
<trkpt lat="52.927390" lon="-3.413294"><ele>328</ele><time>2020-09-03T09:49:53Z</time><name>PT240</name></trkpt>
<trkpt lat="52.927385" lon="-3.413236"><ele>329</ele><time>2020-09-03T09:49:57Z</time><name>PT241</name></trkpt>
<trkpt lat="52.927373" lon="-3.413172"><ele>329</ele><time>2020-09-03T09:50:01Z</time><name>PT242</name></trkpt>
<trkpt lat="52.927366" lon="-3.413117"><ele>329</ele><time>2020-09-03T09:50:05Z</time><name>PT243</name></trkpt>
<trkpt lat="52.927360" lon="-3.413083"><ele>328</ele><time>2020-09-03T09:50:09Z</time><name>PT244</name></trkpt>
<trkpt lat="52.927355" lon="-3.413060"><ele>328</ele><time>2020-09-03T09:50:13Z</time><name>PT245</name></trkpt>
<trkpt lat="52.927330" lon="-3.413031"><ele>329</ele><time>2020-09-03T09:50:17Z</time><name>PT246</name></trkpt>
<trkpt lat="52.927320" lon="-3.413001"><ele>329</ele><time>2020-09-03T09:50:21Z</time><name>PT247</name></trkpt>
<trkpt lat="52.927295" lon="-3.412944"><ele>328</ele><time>2020-09-03T09:50:25Z</time><name>PT248</name></trkpt>
<trkpt lat="52.927286" lon="-3.412933"><ele>329</ele><time>2020-09-03T09:50:29Z</time><name>PT249</name></trkpt>
<trkpt lat="52.927247" lon="-3.412915"><ele>329</ele><time>2020-09-03T09:50:33Z</time><name>PT250</name></trkpt>
<trkpt lat="52.927217" lon="-3.412901"><ele>330</ele><time>2020-09-03T09:50:37Z</time><name>PT251</name></trkpt>
<trkpt lat="52.927187" lon="-3.412905"><ele>330</ele><time>2020-09-03T09:50:41Z</time><name>PT252</name></trkpt>
<trkpt lat="52.927162" lon="-3.412907"><ele>331</ele><time>2020-09-03T09:50:45Z</time><name>PT253</name></trkpt>
<trkpt lat="52.927129" lon="-3.412898"><ele>331</ele><time>2020-09-03T09:50:49Z</time><name>PT254</name></trkpt>
<trkpt lat="52.927099" lon="-3.412893"><ele>331</ele><time>2020-09-03T09:50:53Z</time><name>PT255</name></trkpt>
<trkpt lat="52.927069" lon="-3.412883"><ele>332</ele><time>2020-09-03T09:50:57Z</time><name>PT256</name></trkpt>
<trkpt lat="52.927035" lon="-3.412868"><ele>332</ele><time>2020-09-03T09:51:01Z</time><name>PT257</name></trkpt>
<trkpt lat="52.927002" lon="-3.412843"><ele>333</ele><time>2020-09-03T09:51:05Z</time><name>PT258</name></trkpt>
<trkpt lat="52.926968" lon="-3.412824"><ele>332</ele><time>2020-09-03T09:51:09Z</time><name>PT259</name></trkpt>
<trkpt lat="52.926934" lon="-3.412807"><ele>333</ele><time>2020-09-03T09:51:13Z</time><name>PT260</name></trkpt>
<trkpt lat="52.926901" lon="-3.412793"><ele>335</ele><time>2020-09-03T09:51:17Z</time><name>PT261</name></trkpt>
<trkpt lat="52.926876" lon="-3.412775"><ele>335</ele><time>2020-09-03T09:51:21Z</time><name>PT262</name></trkpt>
<trkpt lat="52.926847" lon="-3.412758"><ele>335</ele><time>2020-09-03T09:51:25Z</time><name>PT263</name></trkpt>
<trkpt lat="52.926819" lon="-3.412741"><ele>336</ele><time>2020-09-03T09:51:29Z</time><name>PT264</name></trkpt>
<trkpt lat="52.926783" lon="-3.412714"><ele>337</ele><time>2020-09-03T09:51:33Z</time><name>PT265</name></trkpt>
<trkpt lat="52.926752" lon="-3.412682"><ele>337</ele><time>2020-09-03T09:51:37Z</time><name>PT266</name></trkpt>
<trkpt lat="52.926723" lon="-3.412647"><ele>338</ele><time>2020-09-03T09:51:41Z</time><name>PT267</name></trkpt>
<trkpt lat="52.926701" lon="-3.412613"><ele>337</ele><time>2020-09-03T09:51:45Z</time><name>PT268</name></trkpt>
<trkpt lat="52.926676" lon="-3.412572"><ele>338</ele><time>2020-09-03T09:51:49Z</time><name>PT269</name></trkpt>
<trkpt lat="52.926654" lon="-3.412535"><ele>339</ele><time>2020-09-03T09:51:53Z</time><name>PT270</name></trkpt>
<trkpt lat="52.926630" lon="-3.412504"><ele>340</ele><time>2020-09-03T09:51:57Z</time><name>PT271</name></trkpt>
<trkpt lat="52.926607" lon="-3.412475"><ele>341</ele><time>2020-09-03T09:52:01Z</time><name>PT272</name></trkpt>
<trkpt lat="52.926585" lon="-3.412438"><ele>341</ele><time>2020-09-03T09:52:05Z</time><name>PT273</name></trkpt>
<trkpt lat="52.926565" lon="-3.412413"><ele>342</ele><time>2020-09-03T09:52:09Z</time><name>PT274</name></trkpt>
<trkpt lat="52.926539" lon="-3.412382"><ele>343</ele><time>2020-09-03T09:52:13Z</time><name>PT275</name></trkpt>
<trkpt lat="52.926510" lon="-3.412348"><ele>344</ele><time>2020-09-03T09:52:17Z</time><name>PT276</name></trkpt>
<trkpt lat="52.926486" lon="-3.412326"><ele>344</ele><time>2020-09-03T09:52:21Z</time><name>PT277</name></trkpt>
<trkpt lat="52.926461" lon="-3.412307"><ele>344</ele><time>2020-09-03T09:52:25Z</time><name>PT278</name></trkpt>
<trkpt lat="52.926434" lon="-3.412276"><ele>345</ele><time>2020-09-03T09:52:29Z</time><name>PT279</name></trkpt>
<trkpt lat="52.926415" lon="-3.412244"><ele>345</ele><time>2020-09-03T09:52:33Z</time><name>PT280</name></trkpt>
<trkpt lat="52.926391" lon="-3.412231"><ele>344</ele><time>2020-09-03T09:52:37Z</time><name>PT281</name></trkpt>
<trkpt lat="52.926373" lon="-3.412206"><ele>346</ele><time>2020-09-03T09:52:41Z</time><name>PT282</name></trkpt>
<trkpt lat="52.926349" lon="-3.412187"><ele>347</ele><time>2020-09-03T09:52:45Z</time><name>PT283</name></trkpt>
<trkpt lat="52.926329" lon="-3.412166"><ele>347</ele><time>2020-09-03T09:52:49Z</time><name>PT284</name></trkpt>
<trkpt lat="52.926308" lon="-3.412134"><ele>346</ele><time>2020-09-03T09:52:53Z</time><name>PT285</name></trkpt>
<trkpt lat="52.926279" lon="-3.412099"><ele>347</ele><time>2020-09-03T09:52:57Z</time><name>PT286</name></trkpt>
<trkpt lat="52.926259" lon="-3.412083"><ele>348</ele><time>2020-09-03T09:53:01Z</time><name>PT287</name></trkpt>
<trkpt lat="52.926228" lon="-3.412044"><ele>350</ele><time>2020-09-03T09:53:05Z</time><name>PT288</name></trkpt>
<trkpt lat="52.926205" lon="-3.412008"><ele>351</ele><time>2020-09-03T09:53:09Z</time><name>PT289</name></trkpt>
<trkpt lat="52.926183" lon="-3.411972"><ele>351</ele><time>2020-09-03T09:53:13Z</time><name>PT290</name></trkpt>
<trkpt lat="52.926163" lon="-3.411952"><ele>351</ele><time>2020-09-03T09:53:17Z</time><name>PT291</name></trkpt>
<trkpt lat="52.926135" lon="-3.411929"><ele>353</ele><time>2020-09-03T09:53:21Z</time><name>PT292</name></trkpt>
<trkpt lat="52.926106" lon="-3.411899"><ele>354</ele><time>2020-09-03T09:53:25Z</time><name>PT293</name></trkpt>
<trkpt lat="52.926074" lon="-3.411867"><ele>354</ele><time>2020-09-03T09:53:29Z</time><name>PT294</name></trkpt>
<trkpt lat="52.926040" lon="-3.411840"><ele>355</ele><time>2020-09-03T09:53:33Z</time><name>PT295</name></trkpt>
<trkpt lat="52.926010" lon="-3.411815"><ele>356</ele><time>2020-09-03T09:53:37Z</time><name>PT296</name></trkpt>
<trkpt lat="52.925974" lon="-3.411785"><ele>356</ele><time>2020-09-03T09:53:41Z</time><name>PT297</name></trkpt>
<trkpt lat="52.925939" lon="-3.411759"><ele>357</ele><time>2020-09-03T09:53:45Z</time><name>PT298</name></trkpt>
<trkpt lat="52.925908" lon="-3.411745"><ele>357</ele><time>2020-09-03T09:53:49Z</time><name>PT299</name></trkpt>
<trkpt lat="52.925883" lon="-3.411736"><ele>356</ele><time>2020-09-03T09:53:53Z</time><name>PT300</name></trkpt>
<trkpt lat="52.925853" lon="-3.411724"><ele>355</ele><time>2020-09-03T09:53:57Z</time><name>PT301</name></trkpt>
<trkpt lat="52.925817" lon="-3.411716"><ele>355</ele><time>2020-09-03T09:54:01Z</time><name>PT302</name></trkpt>
<trkpt lat="52.925784" lon="-3.411710"><ele>356</ele><time>2020-09-03T09:54:05Z</time><name>PT303</name></trkpt>
<trkpt lat="52.925751" lon="-3.411707"><ele>356</ele><time>2020-09-03T09:54:09Z</time><name>PT304</name></trkpt>
<trkpt lat="52.925712" lon="-3.411703"><ele>356</ele><time>2020-09-03T09:54:13Z</time><name>PT305</name></trkpt>
<trkpt lat="52.925682" lon="-3.411701"><ele>355</ele><time>2020-09-03T09:54:17Z</time><name>PT306</name></trkpt>
<trkpt lat="52.925646" lon="-3.411693"><ele>356</ele><time>2020-09-03T09:54:21Z</time><name>PT307</name></trkpt>
<trkpt lat="52.925613" lon="-3.411696"><ele>356</ele><time>2020-09-03T09:54:25Z</time><name>PT308</name></trkpt>
<trkpt lat="52.925580" lon="-3.411698"><ele>356</ele><time>2020-09-03T09:54:29Z</time><name>PT309</name></trkpt>
<trkpt lat="52.925561" lon="-3.411693"><ele>356</ele><time>2020-09-03T09:54:33Z</time><name>PT310</name></trkpt>
<trkpt lat="52.925530" lon="-3.411676"><ele>357</ele><time>2020-09-03T09:54:37Z</time><name>PT311</name></trkpt>
<trkpt lat="52.925486" lon="-3.411671"><ele>359</ele><time>2020-09-03T09:54:41Z</time><name>PT312</name></trkpt>
<trkpt lat="52.925456" lon="-3.411659"><ele>359</ele><time>2020-09-03T09:54:45Z</time><name>PT313</name></trkpt>
<trkpt lat="52.925423" lon="-3.411647"><ele>360</ele><time>2020-09-03T09:54:49Z</time><name>PT314</name></trkpt>
<trkpt lat="52.925390" lon="-3.411640"><ele>360</ele><time>2020-09-03T09:54:53Z</time><name>PT315</name></trkpt>
<trkpt lat="52.925355" lon="-3.411628"><ele>362</ele><time>2020-09-03T09:54:57Z</time><name>PT316</name></trkpt>
<trkpt lat="52.925327" lon="-3.411617"><ele>363</ele><time>2020-09-03T09:55:01Z</time><name>PT317</name></trkpt>
<trkpt lat="52.925298" lon="-3.411598"><ele>363</ele><time>2020-09-03T09:55:05Z</time><name>PT318</name></trkpt>
<trkpt lat="52.925271" lon="-3.411580"><ele>364</ele><time>2020-09-03T09:55:09Z</time><name>PT319</name></trkpt>
<trkpt lat="52.925245" lon="-3.411563"><ele>363</ele><time>2020-09-03T09:55:13Z</time><name>PT320</name></trkpt>
<trkpt lat="52.925207" lon="-3.411545"><ele>363</ele><time>2020-09-03T09:55:17Z</time><name>PT321</name></trkpt>
<trkpt lat="52.925178" lon="-3.411522"><ele>363</ele><time>2020-09-03T09:55:21Z</time><name>PT322</name></trkpt>
<trkpt lat="52.925144" lon="-3.411502"><ele>363</ele><time>2020-09-03T09:55:25Z</time><name>PT323</name></trkpt>
<trkpt lat="52.925117" lon="-3.411494"><ele>363</ele><time>2020-09-03T09:55:29Z</time><name>PT324</name></trkpt>
<trkpt lat="52.925087" lon="-3.411486"><ele>365</ele><time>2020-09-03T09:55:33Z</time><name>PT325</name></trkpt>
<trkpt lat="52.925058" lon="-3.411478"><ele>365</ele><time>2020-09-03T09:55:37Z</time><name>PT326</name></trkpt>
<trkpt lat="52.925041" lon="-3.411472"><ele>364</ele><time>2020-09-03T09:55:41Z</time><name>PT327</name></trkpt>
<trkpt lat="52.925015" lon="-3.411464"><ele>365</ele><time>2020-09-03T09:55:45Z</time><name>PT328</name></trkpt>
<trkpt lat="52.924980" lon="-3.411456"><ele>366</ele><time>2020-09-03T09:55:49Z</time><name>PT329</name></trkpt>
<trkpt lat="52.924944" lon="-3.411463"><ele>366</ele><time>2020-09-03T09:55:53Z</time><name>PT330</name></trkpt>
<trkpt lat="52.924911" lon="-3.411457"><ele>367</ele><time>2020-09-03T09:55:57Z</time><name>PT331</name></trkpt>
<trkpt lat="52.924873" lon="-3.411451"><ele>367</ele><time>2020-09-03T09:56:01Z</time><name>PT332</name></trkpt>
<trkpt lat="52.924834" lon="-3.411448"><ele>367</ele><time>2020-09-03T09:56:05Z</time><name>PT333</name></trkpt>
<trkpt lat="52.924794" lon="-3.411440"><ele>368</ele><time>2020-09-03T09:56:09Z</time><name>PT334</name></trkpt>
<trkpt lat="52.924762" lon="-3.411439"><ele>369</ele><time>2020-09-03T09:56:13Z</time><name>PT335</name></trkpt>
<trkpt lat="52.924730" lon="-3.411441"><ele>369</ele><time>2020-09-03T09:56:17Z</time><name>PT336</name></trkpt>
<trkpt lat="52.924696" lon="-3.411437"><ele>369</ele><time>2020-09-03T09:56:21Z</time><name>PT337</name></trkpt>
<trkpt lat="52.924669" lon="-3.411437"><ele>369</ele><time>2020-09-03T09:56:25Z</time><name>PT338</name></trkpt>
<trkpt lat="52.924641" lon="-3.411436"><ele>368</ele><time>2020-09-03T09:56:29Z</time><name>PT339</name></trkpt>
<trkpt lat="52.924616" lon="-3.411435"><ele>369</ele><time>2020-09-03T09:56:33Z</time><name>PT340</name></trkpt>
<trkpt lat="52.924586" lon="-3.411428"><ele>370</ele><time>2020-09-03T09:56:37Z</time><name>PT341</name></trkpt>
<trkpt lat="52.924559" lon="-3.411427"><ele>370</ele><time>2020-09-03T09:56:41Z</time><name>PT342</name></trkpt>
<trkpt lat="52.924547" lon="-3.411415"><ele>369</ele><time>2020-09-03T09:56:45Z</time><name>PT343</name></trkpt>
<trkpt lat="52.924541" lon="-3.411391"><ele>370</ele><time>2020-09-03T09:57:21Z</time><name>PT344</name></trkpt>
<trkpt lat="52.924482" lon="-3.411336"><ele>372</ele><time>2020-09-03T09:57:25Z</time><name>PT345</name></trkpt>
<trkpt lat="52.924439" lon="-3.411288"><ele>374</ele><time>2020-09-03T09:57:29Z</time><name>PT346</name></trkpt>
<trkpt lat="52.924408" lon="-3.411242"><ele>374</ele><time>2020-09-03T09:57:33Z</time><name>PT347</name></trkpt>
<trkpt lat="52.924385" lon="-3.411188"><ele>376</ele><time>2020-09-03T09:57:37Z</time><name>PT348</name></trkpt>
<trkpt lat="52.924375" lon="-3.411137"><ele>376</ele><time>2020-09-03T09:57:41Z</time><name>PT349</name></trkpt>
<trkpt lat="52.924365" lon="-3.411091"><ele>377</ele><time>2020-09-03T09:57:45Z</time><name>PT350</name></trkpt>
<trkpt lat="52.924358" lon="-3.411038"><ele>377</ele><time>2020-09-03T09:57:49Z</time><name>PT351</name></trkpt>
<trkpt lat="52.924348" lon="-3.410985"><ele>377</ele><time>2020-09-03T09:57:53Z</time><name>PT352</name></trkpt>
<trkpt lat="52.924335" lon="-3.410941"><ele>378</ele><time>2020-09-03T09:57:57Z</time><name>PT353</name></trkpt>
<trkpt lat="52.924323" lon="-3.410902"><ele>380</ele><time>2020-09-03T09:58:01Z</time><name>PT354</name></trkpt>
<trkpt lat="52.924312" lon="-3.410868"><ele>381</ele><time>2020-09-03T09:58:05Z</time><name>PT355</name></trkpt>
<trkpt lat="52.924296" lon="-3.410850"><ele>381</ele><time>2020-09-03T09:58:09Z</time><name>PT356</name></trkpt>
<trkpt lat="52.924280" lon="-3.410824"><ele>381</ele><time>2020-09-03T09:58:13Z</time><name>PT357</name></trkpt>
<trkpt lat="52.924262" lon="-3.410787"><ele>382</ele><time>2020-09-03T09:58:17Z</time><name>PT358</name></trkpt>
<trkpt lat="52.924246" lon="-3.410764"><ele>382</ele><time>2020-09-03T09:58:21Z</time><name>PT359</name></trkpt>
<trkpt lat="52.924222" lon="-3.410733"><ele>383</ele><time>2020-09-03T09:58:25Z</time><name>PT360</name></trkpt>
<trkpt lat="52.924199" lon="-3.410701"><ele>383</ele><time>2020-09-03T09:58:29Z</time><name>PT361</name></trkpt>
<trkpt lat="52.924175" lon="-3.410664"><ele>385</ele><time>2020-09-03T09:58:33Z</time><name>PT362</name></trkpt>
<trkpt lat="52.924154" lon="-3.410627"><ele>385</ele><time>2020-09-03T09:58:37Z</time><name>PT363</name></trkpt>
<trkpt lat="52.924135" lon="-3.410598"><ele>386</ele><time>2020-09-03T09:58:41Z</time><name>PT364</name></trkpt>
<trkpt lat="52.924112" lon="-3.410559"><ele>386</ele><time>2020-09-03T09:58:45Z</time><name>PT365</name></trkpt>
<trkpt lat="52.924092" lon="-3.410529"><ele>387</ele><time>2020-09-03T09:58:49Z</time><name>PT366</name></trkpt>
<trkpt lat="52.924069" lon="-3.410487"><ele>388</ele><time>2020-09-03T09:58:53Z</time><name>PT367</name></trkpt>
<trkpt lat="52.924050" lon="-3.410457"><ele>389</ele><time>2020-09-03T09:58:57Z</time><name>PT368</name></trkpt>
<trkpt lat="52.924035" lon="-3.410428"><ele>389</ele><time>2020-09-03T09:59:01Z</time><name>PT369</name></trkpt>
<trkpt lat="52.924016" lon="-3.410390"><ele>389</ele><time>2020-09-03T09:59:05Z</time><name>PT370</name></trkpt>
<trkpt lat="52.923994" lon="-3.410340"><ele>391</ele><time>2020-09-03T09:59:09Z</time><name>PT371</name></trkpt>
<trkpt lat="52.923973" lon="-3.410301"><ele>391</ele><time>2020-09-03T09:59:13Z</time><name>PT372</name></trkpt>
<trkpt lat="52.923957" lon="-3.410262"><ele>392</ele><time>2020-09-03T09:59:17Z</time><name>PT373</name></trkpt>
<trkpt lat="52.923944" lon="-3.410228"><ele>394</ele><time>2020-09-03T09:59:21Z</time><name>PT374</name></trkpt>
<trkpt lat="52.923940" lon="-3.410196"><ele>394</ele><time>2020-09-03T09:59:25Z</time><name>PT375</name></trkpt>
<trkpt lat="52.923926" lon="-3.410152"><ele>395</ele><time>2020-09-03T09:59:29Z</time><name>PT376</name></trkpt>
<trkpt lat="52.923911" lon="-3.410114"><ele>395</ele><time>2020-09-03T09:59:33Z</time><name>PT377</name></trkpt>
<trkpt lat="52.923895" lon="-3.410078"><ele>396</ele><time>2020-09-03T09:59:37Z</time><name>PT378</name></trkpt>
<trkpt lat="52.923874" lon="-3.410030"><ele>397</ele><time>2020-09-03T09:59:41Z</time><name>PT379</name></trkpt>
<trkpt lat="52.923850" lon="-3.409996"><ele>397</ele><time>2020-09-03T09:59:45Z</time><name>PT380</name></trkpt>
<trkpt lat="52.923826" lon="-3.409962"><ele>398</ele><time>2020-09-03T09:59:49Z</time><name>PT381</name></trkpt>
<trkpt lat="52.923803" lon="-3.409928"><ele>397</ele><time>2020-09-03T09:59:53Z</time><name>PT382</name></trkpt>
<trkpt lat="52.923769" lon="-3.409895"><ele>396</ele><time>2020-09-03T09:59:57Z</time><name>PT383</name></trkpt>
<trkpt lat="52.923742" lon="-3.409866"><ele>397</ele><time>2020-09-03T10:00:01Z</time><name>PT384</name></trkpt>
<trkpt lat="52.923712" lon="-3.409830"><ele>398</ele><time>2020-09-03T10:00:05Z</time><name>PT385</name></trkpt>
<trkpt lat="52.923697" lon="-3.409794"><ele>398</ele><time>2020-09-03T10:00:09Z</time><name>PT386</name></trkpt>
<trkpt lat="52.923703" lon="-3.409745"><ele>398</ele><time>2020-09-03T10:00:13Z</time><name>PT387</name></trkpt>
<trkpt lat="52.923698" lon="-3.409682"><ele>399</ele><time>2020-09-03T10:00:17Z</time><name>PT388</name></trkpt>
<trkpt lat="52.923706" lon="-3.409622"><ele>400</ele><time>2020-09-03T10:00:21Z</time><name>PT389</name></trkpt>
<trkpt lat="52.923709" lon="-3.409573"><ele>401</ele><time>2020-09-03T10:00:25Z</time><name>PT390</name></trkpt>
<trkpt lat="52.923710" lon="-3.409519"><ele>402</ele><time>2020-09-03T10:00:29Z</time><name>PT391</name></trkpt>
<trkpt lat="52.923712" lon="-3.409479"><ele>403</ele><time>2020-09-03T10:00:33Z</time><name>PT392</name></trkpt>
<trkpt lat="52.923715" lon="-3.409441"><ele>404</ele><time>2020-09-03T10:00:37Z</time><name>PT393</name></trkpt>
<trkpt lat="52.923724" lon="-3.409402"><ele>404</ele><time>2020-09-03T10:00:41Z</time><name>PT394</name></trkpt>
<trkpt lat="52.923728" lon="-3.409371"><ele>405</ele><time>2020-09-03T10:00:45Z</time><name>PT395</name></trkpt>
<trkpt lat="52.923732" lon="-3.409324"><ele>406</ele><time>2020-09-03T10:00:49Z</time><name>PT396</name></trkpt>
<trkpt lat="52.923741" lon="-3.409268"><ele>408</ele><time>2020-09-03T10:00:53Z</time><name>PT397</name></trkpt>
<trkpt lat="52.923752" lon="-3.409208"><ele>409</ele><time>2020-09-03T10:00:57Z</time><name>PT398</name></trkpt>
<trkpt lat="52.923757" lon="-3.409151"><ele>410</ele><time>2020-09-03T10:01:01Z</time><name>PT399</name></trkpt>
<trkpt lat="52.923765" lon="-3.409093"><ele>410</ele><time>2020-09-03T10:01:05Z</time><name>PT400</name></trkpt>
<trkpt lat="52.923769" lon="-3.409046"><ele>411</ele><time>2020-09-03T10:01:09Z</time><name>PT401</name></trkpt>
<trkpt lat="52.923771" lon="-3.409002"><ele>411</ele><time>2020-09-03T10:01:13Z</time><name>PT402</name></trkpt>
<trkpt lat="52.923775" lon="-3.408955"><ele>412</ele><time>2020-09-03T10:01:17Z</time><name>PT403</name></trkpt>
<trkpt lat="52.923777" lon="-3.408916"><ele>412</ele><time>2020-09-03T10:01:21Z</time><name>PT404</name></trkpt>
<trkpt lat="52.923789" lon="-3.408874"><ele>413</ele><time>2020-09-03T10:01:25Z</time><name>PT405</name></trkpt>
<trkpt lat="52.923798" lon="-3.408833"><ele>414</ele><time>2020-09-03T10:01:29Z</time><name>PT406</name></trkpt>
<trkpt lat="52.923802" lon="-3.408779"><ele>415</ele><time>2020-09-03T10:01:33Z</time><name>PT407</name></trkpt>
<trkpt lat="52.923801" lon="-3.408727"><ele>416</ele><time>2020-09-03T10:01:37Z</time><name>PT408</name></trkpt>
<trkpt lat="52.923800" lon="-3.408683"><ele>417</ele><time>2020-09-03T10:01:41Z</time><name>PT409</name></trkpt>
<trkpt lat="52.923796" lon="-3.408635"><ele>418</ele><time>2020-09-03T10:01:45Z</time><name>PT410</name></trkpt>
<trkpt lat="52.923798" lon="-3.408584"><ele>418</ele><time>2020-09-03T10:01:49Z</time><name>PT411</name></trkpt>
<trkpt lat="52.923801" lon="-3.408532"><ele>419</ele><time>2020-09-03T10:01:53Z</time><name>PT412</name></trkpt>
<trkpt lat="52.923797" lon="-3.408477"><ele>420</ele><time>2020-09-03T10:01:57Z</time><name>PT413</name></trkpt>
<trkpt lat="52.923793" lon="-3.408430"><ele>420</ele><time>2020-09-03T10:02:01Z</time><name>PT414</name></trkpt>
<trkpt lat="52.923797" lon="-3.408405"><ele>420</ele><time>2020-09-03T10:02:05Z</time><name>PT415</name></trkpt>
<trkpt lat="52.923811" lon="-3.408360"><ele>420</ele><time>2020-09-03T10:02:09Z</time><name>PT416</name></trkpt>
<trkpt lat="52.923821" lon="-3.408324"><ele>420</ele><time>2020-09-03T10:02:13Z</time><name>PT417</name></trkpt>
<trkpt lat="52.923819" lon="-3.408277"><ele>421</ele><time>2020-09-03T10:02:17Z</time><name>PT418</name></trkpt>
<trkpt lat="52.923822" lon="-3.408235"><ele>421</ele><time>2020-09-03T10:02:21Z</time><name>PT419</name></trkpt>
<trkpt lat="52.923826" lon="-3.408207"><ele>421</ele><time>2020-09-03T10:02:25Z</time><name>PT420</name></trkpt>
<trkpt lat="52.923829" lon="-3.408161"><ele>422</ele><time>2020-09-03T10:02:29Z</time><name>PT421</name></trkpt>
<trkpt lat="52.923832" lon="-3.408111"><ele>423</ele><time>2020-09-03T10:02:33Z</time><name>PT422</name></trkpt>
<trkpt lat="52.923834" lon="-3.408055"><ele>423</ele><time>2020-09-03T10:02:37Z</time><name>PT423</name></trkpt>
<trkpt lat="52.923838" lon="-3.407995"><ele>425</ele><time>2020-09-03T10:02:41Z</time><name>PT424</name></trkpt>
<trkpt lat="52.923824" lon="-3.407961"><ele>425</ele><time>2020-09-03T10:02:45Z</time><name>PT425</name></trkpt>
<trkpt lat="52.923807" lon="-3.407922"><ele>425</ele><time>2020-09-03T10:02:49Z</time><name>PT426</name></trkpt>
<trkpt lat="52.923790" lon="-3.407881"><ele>425</ele><time>2020-09-03T10:02:53Z</time><name>PT427</name></trkpt>
<trkpt lat="52.923771" lon="-3.407842"><ele>426</ele><time>2020-09-03T10:02:57Z</time><name>PT428</name></trkpt>
<trkpt lat="52.923761" lon="-3.407802"><ele>427</ele><time>2020-09-03T10:03:01Z</time><name>PT429</name></trkpt>
<trkpt lat="52.923757" lon="-3.407761"><ele>428</ele><time>2020-09-03T10:03:05Z</time><name>PT430</name></trkpt>
<trkpt lat="52.923749" lon="-3.407720"><ele>428</ele><time>2020-09-03T10:03:09Z</time><name>PT431</name></trkpt>
<trkpt lat="52.923745" lon="-3.407672"><ele>429</ele><time>2020-09-03T10:03:13Z</time><name>PT432</name></trkpt>
<trkpt lat="52.923746" lon="-3.407618"><ele>430</ele><time>2020-09-03T10:03:17Z</time><name>PT433</name></trkpt>
<trkpt lat="52.923749" lon="-3.407578"><ele>430</ele><time>2020-09-03T10:03:21Z</time><name>PT434</name></trkpt>
<trkpt lat="52.923750" lon="-3.407535"><ele>431</ele><time>2020-09-03T10:03:25Z</time><name>PT435</name></trkpt>
<trkpt lat="52.923753" lon="-3.407483"><ele>432</ele><time>2020-09-03T10:03:29Z</time><name>PT436</name></trkpt>
<trkpt lat="52.923752" lon="-3.407430"><ele>433</ele><time>2020-09-03T10:03:33Z</time><name>PT437</name></trkpt>
<trkpt lat="52.923750" lon="-3.407377"><ele>434</ele><time>2020-09-03T10:03:37Z</time><name>PT438</name></trkpt>
<trkpt lat="52.923741" lon="-3.407328"><ele>434</ele><time>2020-09-03T10:03:41Z</time><name>PT439</name></trkpt>
<trkpt lat="52.923736" lon="-3.407276"><ele>435</ele><time>2020-09-03T10:03:45Z</time><name>PT440</name></trkpt>
<trkpt lat="52.923723" lon="-3.407225"><ele>436</ele><time>2020-09-03T10:03:49Z</time><name>PT441</name></trkpt>
<trkpt lat="52.923705" lon="-3.407177"><ele>436</ele><time>2020-09-03T10:03:53Z</time><name>PT442</name></trkpt>
<trkpt lat="52.923687" lon="-3.407138"><ele>436</ele><time>2020-09-03T10:03:57Z</time><name>PT443</name></trkpt>
<trkpt lat="52.923669" lon="-3.407091"><ele>437</ele><time>2020-09-03T10:04:01Z</time><name>PT444</name></trkpt>
<trkpt lat="52.923654" lon="-3.407040"><ele>438</ele><time>2020-09-03T10:04:05Z</time><name>PT445</name></trkpt>
<trkpt lat="52.923652" lon="-3.406987"><ele>439</ele><time>2020-09-03T10:04:09Z</time><name>PT446</name></trkpt>
<trkpt lat="52.923656" lon="-3.406930"><ele>439</ele><time>2020-09-03T10:04:13Z</time><name>PT447</name></trkpt>
<trkpt lat="52.923663" lon="-3.406873"><ele>440</ele><time>2020-09-03T10:04:17Z</time><name>PT448</name></trkpt>
<trkpt lat="52.923672" lon="-3.406813"><ele>440</ele><time>2020-09-03T10:04:21Z</time><name>PT449</name></trkpt>
<trkpt lat="52.923676" lon="-3.406760"><ele>440</ele><time>2020-09-03T10:04:25Z</time><name>PT450</name></trkpt>
<trkpt lat="52.923675" lon="-3.406707"><ele>441</ele><time>2020-09-03T10:04:29Z</time><name>PT451</name></trkpt>
<trkpt lat="52.923679" lon="-3.406647"><ele>441</ele><time>2020-09-03T10:04:33Z</time><name>PT452</name></trkpt>
<trkpt lat="52.923684" lon="-3.406586"><ele>442</ele><time>2020-09-03T10:04:37Z</time><name>PT453</name></trkpt>
<trkpt lat="52.923684" lon="-3.406519"><ele>443</ele><time>2020-09-03T10:04:41Z</time><name>PT454</name></trkpt>
<trkpt lat="52.923683" lon="-3.406456"><ele>443</ele><time>2020-09-03T10:04:45Z</time><name>PT455</name></trkpt>
<trkpt lat="52.923675" lon="-3.406395"><ele>444</ele><time>2020-09-03T10:04:49Z</time><name>PT456</name></trkpt>
<trkpt lat="52.923675" lon="-3.406335"><ele>445</ele><time>2020-09-03T10:04:53Z</time><name>PT457</name></trkpt>
<trkpt lat="52.923671" lon="-3.406271"><ele>445</ele><time>2020-09-03T10:04:57Z</time><name>PT458</name></trkpt>
<trkpt lat="52.923664" lon="-3.406211"><ele>445</ele><time>2020-09-03T10:05:01Z</time><name>PT459</name></trkpt>
<trkpt lat="52.923663" lon="-3.406138"><ele>446</ele><time>2020-09-03T10:05:05Z</time><name>PT460</name></trkpt>
<trkpt lat="52.923663" lon="-3.406085"><ele>445</ele><time>2020-09-03T10:05:09Z</time><name>PT461</name></trkpt>
<trkpt lat="52.923662" lon="-3.406034"><ele>445</ele><time>2020-09-03T10:05:13Z</time><name>PT462</name></trkpt>
<trkpt lat="52.923659" lon="-3.405975"><ele>445</ele><time>2020-09-03T10:05:17Z</time><name>PT463</name></trkpt>
<trkpt lat="52.923654" lon="-3.405917"><ele>445</ele><time>2020-09-03T10:05:21Z</time><name>PT464</name></trkpt>
<trkpt lat="52.923651" lon="-3.405846"><ele>446</ele><time>2020-09-03T10:05:25Z</time><name>PT465</name></trkpt>
<trkpt lat="52.923655" lon="-3.405783"><ele>447</ele><time>2020-09-03T10:05:29Z</time><name>PT466</name></trkpt>
<trkpt lat="52.923655" lon="-3.405720"><ele>447</ele><time>2020-09-03T10:05:33Z</time><name>PT467</name></trkpt>
<trkpt lat="52.923650" lon="-3.405661"><ele>447</ele><time>2020-09-03T10:05:37Z</time><name>PT468</name></trkpt>
<trkpt lat="52.923656" lon="-3.405601"><ele>448</ele><time>2020-09-03T10:05:41Z</time><name>PT469</name></trkpt>
<trkpt lat="52.923655" lon="-3.405589"><ele>448</ele><time>2020-09-03T10:05:45Z</time><name>PT470</name></trkpt>
<trkpt lat="52.923662" lon="-3.405575"><ele>449</ele><time>2020-09-03T10:05:57Z</time><name>PT471</name></trkpt>
<trkpt lat="52.923670" lon="-3.405527"><ele>449</ele><time>2020-09-03T10:06:01Z</time><name>PT472</name></trkpt>
<trkpt lat="52.923671" lon="-3.405503"><ele>449</ele><time>2020-09-03T10:06:05Z</time><name>PT473</name></trkpt>
<trkpt lat="52.923670" lon="-3.405501"><ele>449</ele><time>2020-09-03T10:06:09Z</time><name>PT474</name></trkpt>
<trkpt lat="52.923667" lon="-3.405487"><ele>449</ele><time>2020-09-03T10:06:41Z</time><name>PT475</name></trkpt>
<trkpt lat="52.923671" lon="-3.405483"><ele>449</ele><time>2020-09-03T10:06:57Z</time><name>PT476</name></trkpt>
<trkpt lat="52.923671" lon="-3.405480"><ele>449</ele><time>2020-09-03T10:07:01Z</time><name>PT477</name></trkpt>
<trkpt lat="52.923670" lon="-3.405444"><ele>448</ele><time>2020-09-03T10:07:25Z</time><name>PT478</name></trkpt>
<trkpt lat="52.923663" lon="-3.405420"><ele>448</ele><time>2020-09-03T10:07:29Z</time><name>PT479</name></trkpt>
<trkpt lat="52.923639" lon="-3.405420"><ele>447</ele><time>2020-09-03T10:07:49Z</time><name>PT480</name></trkpt>
<trkpt lat="52.923612" lon="-3.405385"><ele>447</ele><time>2020-09-03T10:07:53Z</time><name>PT481</name></trkpt>
<trkpt lat="52.923614" lon="-3.405384"><ele>447</ele><time>2020-09-03T10:07:57Z</time><name>PT482</name></trkpt>
<trkpt lat="52.923633" lon="-3.405394"><ele>447</ele><time>2020-09-03T10:08:05Z</time><name>PT483</name></trkpt>
<trkpt lat="52.923642" lon="-3.405388"><ele>447</ele><time>2020-09-03T10:08:09Z</time><name>PT484</name></trkpt>
<trkpt lat="52.923641" lon="-3.405386"><ele>447</ele><time>2020-09-03T10:08:13Z</time><name>PT485</name></trkpt>
<trkpt lat="52.923634" lon="-3.405408"><ele>447</ele><time>2020-09-03T10:08:25Z</time><name>PT486</name></trkpt>
<trkpt lat="52.923615" lon="-3.405455"><ele>446</ele><time>2020-09-03T10:08:29Z</time><name>PT487</name></trkpt>
<trkpt lat="52.923609" lon="-3.405518"><ele>446</ele><time>2020-09-03T10:08:33Z</time><name>PT488</name></trkpt>
<trkpt lat="52.923619" lon="-3.405562"><ele>446</ele><time>2020-09-03T10:08:37Z</time><name>PT489</name></trkpt>
<trkpt lat="52.923620" lon="-3.405575"><ele>446</ele><time>2020-09-03T10:08:41Z</time><name>PT490</name></trkpt>
<trkpt lat="52.923620" lon="-3.405563"><ele>448</ele><time>2020-09-03T10:08:57Z</time><name>PT491</name></trkpt>
<trkpt lat="52.923616" lon="-3.405500"><ele>448</ele><time>2020-09-03T10:09:01Z</time><name>PT492</name></trkpt>
<trkpt lat="52.923626" lon="-3.405447"><ele>449</ele><time>2020-09-03T10:09:05Z</time><name>PT493</name></trkpt>
<trkpt lat="52.923630" lon="-3.405434"><ele>449</ele><time>2020-09-03T10:09:09Z</time><name>PT494</name></trkpt>
<trkpt lat="52.923635" lon="-3.405433"><ele>448</ele><time>2020-09-03T10:09:13Z</time><name>PT495</name></trkpt>
<trkpt lat="52.923633" lon="-3.405432"><ele>449</ele><time>2020-09-03T10:09:17Z</time><name>PT496</name></trkpt>
<trkpt lat="52.923630" lon="-3.405408"><ele>449</ele><time>2020-09-03T10:09:20Z</time><name>PT497</name></trkpt>
<trkpt lat="52.923624" lon="-3.405405"><ele>449</ele><time>2020-09-03T10:09:21Z</time><name>PT498</name></trkpt>
<trkpt lat="52.923625" lon="-3.405407"><ele>449</ele><time>2020-09-03T10:09:26Z</time><name>PT499</name></trkpt>
<trkpt lat="52.923626" lon="-3.405407"><ele>449</ele><time>2020-09-03T10:09:27Z</time><name>PT500</name></trkpt>
<trkpt lat="52.923625" lon="-3.405407"><ele>449</ele><time>2020-09-03T10:09:28Z</time><name>PT501</name></trkpt>
<trkpt lat="52.923625" lon="-3.405411"><ele>449</ele><time>2020-09-03T10:09:44Z</time><name>PT502</name></trkpt>
<trkpt lat="52.923625" lon="-3.405413"><ele>449</ele><time>2020-09-03T10:09:45Z</time><name>PT503</name></trkpt>
<trkpt lat="52.923626" lon="-3.405418"><ele>449</ele><time>2020-09-03T10:09:54Z</time><name>PT504</name></trkpt>
<trkpt lat="52.923622" lon="-3.405424"><ele>448</ele><time>2020-09-03T10:09:55Z</time><name>PT505</name></trkpt>
<trkpt lat="52.923617" lon="-3.405425"><ele>448</ele><time>2020-09-03T10:09:56Z</time><name>PT506</name></trkpt>
<trkpt lat="52.923615" lon="-3.405426"><ele>448</ele><time>2020-09-03T10:09:57Z</time><name>PT507</name></trkpt>
<trkpt lat="52.923614" lon="-3.405419"><ele>447</ele><time>2020-09-03T10:09:58Z</time><name>PT508</name></trkpt>
<trkpt lat="52.923612" lon="-3.405417"><ele>446</ele><time>2020-09-03T10:09:59Z</time><name>PT509</name></trkpt>
<trkpt lat="52.923603" lon="-3.405410"><ele>446</ele><time>2020-09-03T10:10:00Z</time><name>PT510</name></trkpt>
<trkpt lat="52.923591" lon="-3.405403"><ele>446</ele><time>2020-09-03T10:10:01Z</time><name>PT511</name></trkpt>
<trkpt lat="52.923583" lon="-3.405398"><ele>445</ele><time>2020-09-03T10:10:02Z</time><name>PT512</name></trkpt>
<trkpt lat="52.923573" lon="-3.405393"><ele>445</ele><time>2020-09-03T10:10:03Z</time><name>PT513</name></trkpt>
<trkpt lat="52.923560" lon="-3.405385"><ele>445</ele><time>2020-09-03T10:10:04Z</time><name>PT514</name></trkpt>
<trkpt lat="52.923550" lon="-3.405377"><ele>445</ele><time>2020-09-03T10:10:05Z</time><name>PT515</name></trkpt>
<trkpt lat="52.923539" lon="-3.405372"><ele>445</ele><time>2020-09-03T10:10:06Z</time><name>PT516</name></trkpt>
<trkpt lat="52.923531" lon="-3.405367"><ele>445</ele><time>2020-09-03T10:10:07Z</time><name>PT517</name></trkpt>
<trkpt lat="52.923522" lon="-3.405366"><ele>444</ele><time>2020-09-03T10:10:08Z</time><name>PT518</name></trkpt>
<trkpt lat="52.923513" lon="-3.405365"><ele>444</ele><time>2020-09-03T10:10:09Z</time><name>PT519</name></trkpt>
<trkpt lat="52.923503" lon="-3.405365"><ele>444</ele><time>2020-09-03T10:10:10Z</time><name>PT520</name></trkpt>
<trkpt lat="52.923496" lon="-3.405361"><ele>444</ele><time>2020-09-03T10:10:11Z</time><name>PT521</name></trkpt>
<trkpt lat="52.923489" lon="-3.405359"><ele>444</ele><time>2020-09-03T10:10:12Z</time><name>PT522</name></trkpt>
<trkpt lat="52.923483" lon="-3.405362"><ele>443</ele><time>2020-09-03T10:10:13Z</time><name>PT523</name></trkpt>
<trkpt lat="52.923481" lon="-3.405376"><ele>443</ele><time>2020-09-03T10:10:14Z</time><name>PT524</name></trkpt>
<trkpt lat="52.923475" lon="-3.405380"><ele>442</ele><time>2020-09-03T10:10:15Z</time><name>PT525</name></trkpt>
<trkpt lat="52.923467" lon="-3.405388"><ele>442</ele><time>2020-09-03T10:10:16Z</time><name>PT526</name></trkpt>
<trkpt lat="52.923461" lon="-3.405391"><ele>442</ele><time>2020-09-03T10:10:17Z</time><name>PT527</name></trkpt>
<trkpt lat="52.923456" lon="-3.405389"><ele>441</ele><time>2020-09-03T10:10:18Z</time><name>PT528</name></trkpt>
<trkpt lat="52.923447" lon="-3.405395"><ele>441</ele><time>2020-09-03T10:10:19Z</time><name>PT529</name></trkpt>
<trkpt lat="52.923441" lon="-3.405398"><ele>441</ele><time>2020-09-03T10:10:20Z</time><name>PT530</name></trkpt>
<trkpt lat="52.923433" lon="-3.405408"><ele>441</ele><time>2020-09-03T10:10:21Z</time><name>PT531</name></trkpt>
<trkpt lat="52.923429" lon="-3.405409"><ele>440</ele><time>2020-09-03T10:10:22Z</time><name>PT532</name></trkpt>
<trkpt lat="52.923426" lon="-3.405408"><ele>440</ele><time>2020-09-03T10:10:23Z</time><name>PT533</name></trkpt>
<trkpt lat="52.923422" lon="-3.405406"><ele>440</ele><time>2020-09-03T10:10:24Z</time><name>PT534</name></trkpt>
<trkpt lat="52.923418" lon="-3.405400"><ele>441</ele><time>2020-09-03T10:10:25Z</time><name>PT535</name></trkpt>
<trkpt lat="52.923416" lon="-3.405398"><ele>441</ele><time>2020-09-03T10:10:26Z</time><name>PT536</name></trkpt>
<trkpt lat="52.923416" lon="-3.405396"><ele>441</ele><time>2020-09-03T10:10:27Z</time><name>PT537</name></trkpt>
<trkpt lat="52.923414" lon="-3.405396"><ele>441</ele><time>2020-09-03T10:10:28Z</time><name>PT538</name></trkpt>
<trkpt lat="52.923410" lon="-3.405392"><ele>441</ele><time>2020-09-03T10:10:29Z</time><name>PT539</name></trkpt>
<trkpt lat="52.923402" lon="-3.405387"><ele>440</ele><time>2020-09-03T10:10:30Z</time><name>PT540</name></trkpt>
<trkpt lat="52.923397" lon="-3.405379"><ele>439</ele><time>2020-09-03T10:10:31Z</time><name>PT541</name></trkpt>
<trkpt lat="52.923395" lon="-3.405373"><ele>439</ele><time>2020-09-03T10:10:32Z</time><name>PT542</name></trkpt>
<trkpt lat="52.923391" lon="-3.405370"><ele>438</ele><time>2020-09-03T10:10:33Z</time><name>PT543</name></trkpt>
<trkpt lat="52.923385" lon="-3.405368"><ele>438</ele><time>2020-09-03T10:10:34Z</time><name>PT544</name></trkpt>
<trkpt lat="52.923379" lon="-3.405366"><ele>438</ele><time>2020-09-03T10:10:35Z</time><name>PT545</name></trkpt>
<trkpt lat="52.923369" lon="-3.405361"><ele>438</ele><time>2020-09-03T10:10:36Z</time><name>PT546</name></trkpt>
<trkpt lat="52.923359" lon="-3.405359"><ele>438</ele><time>2020-09-03T10:10:37Z</time><name>PT547</name></trkpt>
<trkpt lat="52.923349" lon="-3.405362"><ele>438</ele><time>2020-09-03T10:10:38Z</time><name>PT548</name></trkpt>
<trkpt lat="52.923337" lon="-3.405364"><ele>438</ele><time>2020-09-03T10:10:39Z</time><name>PT549</name></trkpt>
<trkpt lat="52.923328" lon="-3.405365"><ele>438</ele><time>2020-09-03T10:10:40Z</time><name>PT550</name></trkpt>
<trkpt lat="52.923319" lon="-3.405363"><ele>437</ele><time>2020-09-03T10:10:41Z</time><name>PT551</name></trkpt>
<trkpt lat="52.923312" lon="-3.405364"><ele>437</ele><time>2020-09-03T10:10:42Z</time><name>PT552</name></trkpt>
<trkpt lat="52.923304" lon="-3.405370"><ele>436</ele><time>2020-09-03T10:10:43Z</time><name>PT553</name></trkpt>
<trkpt lat="52.923295" lon="-3.405375"><ele>436</ele><time>2020-09-03T10:10:44Z</time><name>PT554</name></trkpt>
<trkpt lat="52.923288" lon="-3.405381"><ele>436</ele><time>2020-09-03T10:10:45Z</time><name>PT555</name></trkpt>
<trkpt lat="52.923280" lon="-3.405385"><ele>436</ele><time>2020-09-03T10:10:46Z</time><name>PT556</name></trkpt>
<trkpt lat="52.923271" lon="-3.405385"><ele>436</ele><time>2020-09-03T10:10:47Z</time><name>PT557</name></trkpt>
<trkpt lat="52.923258" lon="-3.405384"><ele>436</ele><time>2020-09-03T10:10:48Z</time><name>PT558</name></trkpt>
<trkpt lat="52.923247" lon="-3.405385"><ele>436</ele><time>2020-09-03T10:10:49Z</time><name>PT559</name></trkpt>
<trkpt lat="52.923238" lon="-3.405385"><ele>436</ele><time>2020-09-03T10:10:50Z</time><name>PT560</name></trkpt>
<trkpt lat="52.923224" lon="-3.405386"><ele>436</ele><time>2020-09-03T10:10:51Z</time><name>PT561</name></trkpt>
<trkpt lat="52.923212" lon="-3.405387"><ele>436</ele><time>2020-09-03T10:10:52Z</time><name>PT562</name></trkpt>
<trkpt lat="52.923199" lon="-3.405385"><ele>437</ele><time>2020-09-03T10:10:53Z</time><name>PT563</name></trkpt>
<trkpt lat="52.923187" lon="-3.405386"><ele>437</ele><time>2020-09-03T10:10:54Z</time><name>PT564</name></trkpt>
<trkpt lat="52.923179" lon="-3.405386"><ele>437</ele><time>2020-09-03T10:10:55Z</time><name>PT565</name></trkpt>
<trkpt lat="52.923167" lon="-3.405382"><ele>437</ele><time>2020-09-03T10:10:56Z</time><name>PT566</name></trkpt>
<trkpt lat="52.923156" lon="-3.405380"><ele>437</ele><time>2020-09-03T10:10:57Z</time><name>PT567</name></trkpt>
<trkpt lat="52.923148" lon="-3.405378"><ele>436</ele><time>2020-09-03T10:10:58Z</time><name>PT568</name></trkpt>
<trkpt lat="52.923142" lon="-3.405377"><ele>436</ele><time>2020-09-03T10:10:59Z</time><name>PT569</name></trkpt>
<trkpt lat="52.923128" lon="-3.405376"><ele>436</ele><time>2020-09-03T10:11:00Z</time><name>PT570</name></trkpt>
<trkpt lat="52.923116" lon="-3.405379"><ele>437</ele><time>2020-09-03T10:11:01Z</time><name>PT571</name></trkpt>
<trkpt lat="52.923106" lon="-3.405378"><ele>436</ele><time>2020-09-03T10:11:02Z</time><name>PT572</name></trkpt>
<trkpt lat="52.923096" lon="-3.405374"><ele>436</ele><time>2020-09-03T10:11:03Z</time><name>PT573</name></trkpt>
<trkpt lat="52.923083" lon="-3.405370"><ele>436</ele><time>2020-09-03T10:11:04Z</time><name>PT574</name></trkpt>
<trkpt lat="52.923074" lon="-3.405371"><ele>437</ele><time>2020-09-03T10:11:05Z</time><name>PT575</name></trkpt>
<trkpt lat="52.923065" lon="-3.405372"><ele>437</ele><time>2020-09-03T10:11:06Z</time><name>PT576</name></trkpt>
<trkpt lat="52.923054" lon="-3.405369"><ele>437</ele><time>2020-09-03T10:11:07Z</time><name>PT577</name></trkpt>
<trkpt lat="52.923040" lon="-3.405369"><ele>437</ele><time>2020-09-03T10:11:08Z</time><name>PT578</name></trkpt>
<trkpt lat="52.923029" lon="-3.405369"><ele>437</ele><time>2020-09-03T10:11:09Z</time><name>PT579</name></trkpt>
<trkpt lat="52.923019" lon="-3.405365"><ele>437</ele><time>2020-09-03T10:11:10Z</time><name>PT580</name></trkpt>
<trkpt lat="52.923009" lon="-3.405359"><ele>437</ele><time>2020-09-03T10:11:11Z</time><name>PT581</name></trkpt>
<trkpt lat="52.922999" lon="-3.405355"><ele>437</ele><time>2020-09-03T10:11:12Z</time><name>PT582</name></trkpt>
<trkpt lat="52.922987" lon="-3.405357"><ele>437</ele><time>2020-09-03T10:11:13Z</time><name>PT583</name></trkpt>
<trkpt lat="52.922973" lon="-3.405363"><ele>437</ele><time>2020-09-03T10:11:14Z</time><name>PT584</name></trkpt>
<trkpt lat="52.922965" lon="-3.405359"><ele>436</ele><time>2020-09-03T10:11:15Z</time><name>PT585</name></trkpt>
<trkpt lat="52.922960" lon="-3.405357"><ele>435</ele><time>2020-09-03T10:11:16Z</time><name>PT586</name></trkpt>
<trkpt lat="52.922952" lon="-3.405354"><ele>434</ele><time>2020-09-03T10:11:17Z</time><name>PT587</name></trkpt>
<trkpt lat="52.922941" lon="-3.405355"><ele>435</ele><time>2020-09-03T10:11:18Z</time><name>PT588</name></trkpt>
<trkpt lat="52.922930" lon="-3.405356"><ele>435</ele><time>2020-09-03T10:11:19Z</time><name>PT589</name></trkpt>
<trkpt lat="52.922921" lon="-3.405353"><ele>434</ele><time>2020-09-03T10:11:20Z</time><name>PT590</name></trkpt>
<trkpt lat="52.922912" lon="-3.405355"><ele>434</ele><time>2020-09-03T10:11:21Z</time><name>PT591</name></trkpt>
<trkpt lat="52.922899" lon="-3.405355"><ele>434</ele><time>2020-09-03T10:11:22Z</time><name>PT592</name></trkpt>
<trkpt lat="52.922889" lon="-3.405355"><ele>433</ele><time>2020-09-03T10:11:23Z</time><name>PT593</name></trkpt>
<trkpt lat="52.922878" lon="-3.405357"><ele>433</ele><time>2020-09-03T10:11:24Z</time><name>PT594</name></trkpt>
<trkpt lat="52.922866" lon="-3.405357"><ele>432</ele><time>2020-09-03T10:11:25Z</time><name>PT595</name></trkpt>
<trkpt lat="52.922853" lon="-3.405355"><ele>432</ele><time>2020-09-03T10:11:26Z</time><name>PT596</name></trkpt>
<trkpt lat="52.922842" lon="-3.405355"><ele>432</ele><time>2020-09-03T10:11:27Z</time><name>PT597</name></trkpt>
<trkpt lat="52.922830" lon="-3.405346"><ele>432</ele><time>2020-09-03T10:11:28Z</time><name>PT598</name></trkpt>
<trkpt lat="52.922818" lon="-3.405340"><ele>432</ele><time>2020-09-03T10:11:29Z</time><name>PT599</name></trkpt>
<trkpt lat="52.922804" lon="-3.405338"><ele>432</ele><time>2020-09-03T10:11:30Z</time><name>PT600</name></trkpt>
<trkpt lat="52.922790" lon="-3.405336"><ele>431</ele><time>2020-09-03T10:11:31Z</time><name>PT601</name></trkpt>
<trkpt lat="52.922777" lon="-3.405335"><ele>432</ele><time>2020-09-03T10:11:32Z</time><name>PT602</name></trkpt>
<trkpt lat="52.922764" lon="-3.405333"><ele>431</ele><time>2020-09-03T10:11:33Z</time><name>PT603</name></trkpt>
<trkpt lat="52.922747" lon="-3.405334"><ele>432</ele><time>2020-09-03T10:11:34Z</time><name>PT604</name></trkpt>
<trkpt lat="52.922733" lon="-3.405343"><ele>432</ele><time>2020-09-03T10:11:35Z</time><name>PT605</name></trkpt>
<trkpt lat="52.922721" lon="-3.405347"><ele>432</ele><time>2020-09-03T10:11:36Z</time><name>PT606</name></trkpt>
<trkpt lat="52.922710" lon="-3.405346"><ele>433</ele><time>2020-09-03T10:11:37Z</time><name>PT607</name></trkpt>
<trkpt lat="52.922700" lon="-3.405347"><ele>433</ele><time>2020-09-03T10:11:38Z</time><name>PT608</name></trkpt>
<trkpt lat="52.922693" lon="-3.405346"><ele>432</ele><time>2020-09-03T10:11:39Z</time><name>PT609</name></trkpt>
<trkpt lat="52.922684" lon="-3.405341"><ele>432</ele><time>2020-09-03T10:11:40Z</time><name>PT610</name></trkpt>
<trkpt lat="52.922674" lon="-3.405334"><ele>431</ele><time>2020-09-03T10:11:41Z</time><name>PT611</name></trkpt>
<trkpt lat="52.922667" lon="-3.405328"><ele>431</ele><time>2020-09-03T10:11:42Z</time><name>PT612</name></trkpt>
<trkpt lat="52.922656" lon="-3.405325"><ele>431</ele><time>2020-09-03T10:11:43Z</time><name>PT613</name></trkpt>
<trkpt lat="52.922645" lon="-3.405327"><ele>431</ele><time>2020-09-03T10:11:44Z</time><name>PT614</name></trkpt>
<trkpt lat="52.922635" lon="-3.405333"><ele>431</ele><time>2020-09-03T10:11:45Z</time><name>PT615</name></trkpt>
<trkpt lat="52.922621" lon="-3.405337"><ele>432</ele><time>2020-09-03T10:11:46Z</time><name>PT616</name></trkpt>
<trkpt lat="52.922610" lon="-3.405339"><ele>432</ele><time>2020-09-03T10:11:47Z</time><name>PT617</name></trkpt>
<trkpt lat="52.922601" lon="-3.405339"><ele>432</ele><time>2020-09-03T10:11:48Z</time><name>PT618</name></trkpt>
<trkpt lat="52.922589" lon="-3.405339"><ele>432</ele><time>2020-09-03T10:11:49Z</time><name>PT619</name></trkpt>
<trkpt lat="52.922579" lon="-3.405342"><ele>433</ele><time>2020-09-03T10:11:50Z</time><name>PT620</name></trkpt>
<trkpt lat="52.922566" lon="-3.405343"><ele>434</ele><time>2020-09-03T10:11:51Z</time><name>PT621</name></trkpt>
<trkpt lat="52.922554" lon="-3.405343"><ele>434</ele><time>2020-09-03T10:11:52Z</time><name>PT622</name></trkpt>
<trkpt lat="52.922545" lon="-3.405343"><ele>435</ele><time>2020-09-03T10:11:53Z</time><name>PT623</name></trkpt>
<trkpt lat="52.922535" lon="-3.405342"><ele>435</ele><time>2020-09-03T10:11:54Z</time><name>PT624</name></trkpt>
<trkpt lat="52.922525" lon="-3.405341"><ele>435</ele><time>2020-09-03T10:11:55Z</time><name>PT625</name></trkpt>
<trkpt lat="52.922513" lon="-3.405341"><ele>436</ele><time>2020-09-03T10:11:56Z</time><name>PT626</name></trkpt>
<trkpt lat="52.922503" lon="-3.405339"><ele>437</ele><time>2020-09-03T10:11:57Z</time><name>PT627</name></trkpt>
<trkpt lat="52.922494" lon="-3.405338"><ele>437</ele><time>2020-09-03T10:11:58Z</time><name>PT628</name></trkpt>
<trkpt lat="52.922488" lon="-3.405342"><ele>437</ele><time>2020-09-03T10:11:59Z</time><name>PT629</name></trkpt>
<trkpt lat="52.922480" lon="-3.405344"><ele>437</ele><time>2020-09-03T10:12:00Z</time><name>PT630</name></trkpt>
<trkpt lat="52.922474" lon="-3.405343"><ele>437</ele><time>2020-09-03T10:12:01Z</time><name>PT631</name></trkpt>
<trkpt lat="52.922461" lon="-3.405340"><ele>437</ele><time>2020-09-03T10:12:02Z</time><name>PT632</name></trkpt>
<trkpt lat="52.922453" lon="-3.405335"><ele>437</ele><time>2020-09-03T10:12:03Z</time><name>PT633</name></trkpt>
<trkpt lat="52.922442" lon="-3.405335"><ele>438</ele><time>2020-09-03T10:12:04Z</time><name>PT634</name></trkpt>
<trkpt lat="52.922431" lon="-3.405336"><ele>438</ele><time>2020-09-03T10:12:05Z</time><name>PT635</name></trkpt>
<trkpt lat="52.922419" lon="-3.405337"><ele>439</ele><time>2020-09-03T10:12:06Z</time><name>PT636</name></trkpt>
<trkpt lat="52.922405" lon="-3.405339"><ele>439</ele><time>2020-09-03T10:12:07Z</time><name>PT637</name></trkpt>
<trkpt lat="52.922396" lon="-3.405342"><ele>440</ele><time>2020-09-03T10:12:08Z</time><name>PT638</name></trkpt>
<trkpt lat="52.922385" lon="-3.405347"><ele>440</ele><time>2020-09-03T10:12:09Z</time><name>PT639</name></trkpt>
<trkpt lat="52.922375" lon="-3.405348"><ele>440</ele><time>2020-09-03T10:12:10Z</time><name>PT640</name></trkpt>
<trkpt lat="52.922366" lon="-3.405349"><ele>440</ele><time>2020-09-03T10:12:11Z</time><name>PT641</name></trkpt>
<trkpt lat="52.922358" lon="-3.405353"><ele>440</ele><time>2020-09-03T10:12:12Z</time><name>PT642</name></trkpt>
<trkpt lat="52.922355" lon="-3.405356"><ele>440</ele><time>2020-09-03T10:12:13Z</time><name>PT643</name></trkpt>
<trkpt lat="52.922350" lon="-3.405367"><ele>439</ele><time>2020-09-03T10:12:14Z</time><name>PT644</name></trkpt>
<trkpt lat="52.922344" lon="-3.405368"><ele>438</ele><time>2020-09-03T10:12:15Z</time><name>PT645</name></trkpt>
<trkpt lat="52.922336" lon="-3.405366"><ele>439</ele><time>2020-09-03T10:12:16Z</time><name>PT646</name></trkpt>
<trkpt lat="52.922330" lon="-3.405360"><ele>438</ele><time>2020-09-03T10:12:17Z</time><name>PT647</name></trkpt>
<trkpt lat="52.922321" lon="-3.405357"><ele>438</ele><time>2020-09-03T10:12:18Z</time><name>PT648</name></trkpt>
<trkpt lat="52.922314" lon="-3.405354"><ele>438</ele><time>2020-09-03T10:12:19Z</time><name>PT649</name></trkpt>
<trkpt lat="52.922302" lon="-3.405357"><ele>438</ele><time>2020-09-03T10:12:20Z</time><name>PT650</name></trkpt>
<trkpt lat="52.922294" lon="-3.405359"><ele>438</ele><time>2020-09-03T10:12:21Z</time><name>PT651</name></trkpt>
<trkpt lat="52.922286" lon="-3.405359"><ele>438</ele><time>2020-09-03T10:12:22Z</time><name>PT652</name></trkpt>
<trkpt lat="52.922276" lon="-3.405358"><ele>438</ele><time>2020-09-03T10:12:23Z</time><name>PT653</name></trkpt>
<trkpt lat="52.922266" lon="-3.405359"><ele>438</ele><time>2020-09-03T10:12:24Z</time><name>PT654</name></trkpt>
<trkpt lat="52.922257" lon="-3.405361"><ele>439</ele><time>2020-09-03T10:12:25Z</time><name>PT655</name></trkpt>
<trkpt lat="52.922246" lon="-3.405364"><ele>439</ele><time>2020-09-03T10:12:26Z</time><name>PT656</name></trkpt>
<trkpt lat="52.922237" lon="-3.405367"><ele>438</ele><time>2020-09-03T10:12:27Z</time><name>PT657</name></trkpt>
<trkpt lat="52.922230" lon="-3.405369"><ele>438</ele><time>2020-09-03T10:12:28Z</time><name>PT658</name></trkpt>
<trkpt lat="52.922220" lon="-3.405370"><ele>438</ele><time>2020-09-03T10:12:29Z</time><name>PT659</name></trkpt>
<trkpt lat="52.922210" lon="-3.405368"><ele>437</ele><time>2020-09-03T10:12:30Z</time><name>PT660</name></trkpt>
<trkpt lat="52.922200" lon="-3.405366"><ele>436</ele><time>2020-09-03T10:12:31Z</time><name>PT661</name></trkpt>
<trkpt lat="52.922189" lon="-3.405367"><ele>437</ele><time>2020-09-03T10:12:32Z</time><name>PT662</name></trkpt>
<trkpt lat="52.922179" lon="-3.405368"><ele>436</ele><time>2020-09-03T10:12:33Z</time><name>PT663</name></trkpt>
<trkpt lat="52.922169" lon="-3.405366"><ele>437</ele><time>2020-09-03T10:12:34Z</time><name>PT664</name></trkpt>
<trkpt lat="52.922160" lon="-3.405367"><ele>437</ele><time>2020-09-03T10:12:35Z</time><name>PT665</name></trkpt>
<trkpt lat="52.922149" lon="-3.405368"><ele>437</ele><time>2020-09-03T10:12:36Z</time><name>PT666</name></trkpt>
<trkpt lat="52.922139" lon="-3.405368"><ele>437</ele><time>2020-09-03T10:12:37Z</time><name>PT667</name></trkpt>
<trkpt lat="52.922130" lon="-3.405369"><ele>437</ele><time>2020-09-03T10:12:38Z</time><name>PT668</name></trkpt>
<trkpt lat="52.922097" lon="-3.405366"><ele>436</ele><time>2020-09-03T10:12:41Z</time><name>PT669</name></trkpt>
<trkpt lat="52.922054" lon="-3.405372"><ele>437</ele><time>2020-09-03T10:12:45Z</time><name>PT670</name></trkpt>
<trkpt lat="52.922007" lon="-3.405384"><ele>437</ele><time>2020-09-03T10:12:49Z</time><name>PT671</name></trkpt>
<trkpt lat="52.921979" lon="-3.405400"><ele>438</ele><time>2020-09-03T10:12:53Z</time><name>PT672</name></trkpt>
<trkpt lat="52.921949" lon="-3.405418"><ele>438</ele><time>2020-09-03T10:12:57Z</time><name>PT673</name></trkpt>
<trkpt lat="52.921916" lon="-3.405422"><ele>440</ele><time>2020-09-03T10:13:01Z</time><name>PT674</name></trkpt>
<trkpt lat="52.921882" lon="-3.405431"><ele>440</ele><time>2020-09-03T10:13:05Z</time><name>PT675</name></trkpt>
<trkpt lat="52.921846" lon="-3.405436"><ele>440</ele><time>2020-09-03T10:13:09Z</time><name>PT676</name></trkpt>
<trkpt lat="52.921800" lon="-3.405432"><ele>440</ele><time>2020-09-03T10:13:13Z</time><name>PT677</name></trkpt>
<trkpt lat="52.921755" lon="-3.405433"><ele>441</ele><time>2020-09-03T10:13:17Z</time><name>PT678</name></trkpt>
<trkpt lat="52.921714" lon="-3.405437"><ele>442</ele><time>2020-09-03T10:13:21Z</time><name>PT679</name></trkpt>
<trkpt lat="52.921670" lon="-3.405446"><ele>442</ele><time>2020-09-03T10:13:25Z</time><name>PT680</name></trkpt>
<trkpt lat="52.921630" lon="-3.405454"><ele>443</ele><time>2020-09-03T10:13:29Z</time><name>PT681</name></trkpt>
<trkpt lat="52.921585" lon="-3.405463"><ele>444</ele><time>2020-09-03T10:13:33Z</time><name>PT682</name></trkpt>
<trkpt lat="52.921548" lon="-3.405493"><ele>445</ele><time>2020-09-03T10:13:37Z</time><name>PT683</name></trkpt>
<trkpt lat="52.921515" lon="-3.405530"><ele>445</ele><time>2020-09-03T10:13:41Z</time><name>PT684</name></trkpt>
<trkpt lat="52.921481" lon="-3.405564"><ele>447</ele><time>2020-09-03T10:13:45Z</time><name>PT685</name></trkpt>
<trkpt lat="52.921447" lon="-3.405549"><ele>446</ele><time>2020-09-03T10:13:49Z</time><name>PT686</name></trkpt>
<trkpt lat="52.921417" lon="-3.405531"><ele>445</ele><time>2020-09-03T10:13:53Z</time><name>PT687</name></trkpt>
<trkpt lat="52.921387" lon="-3.405510"><ele>445</ele><time>2020-09-03T10:13:57Z</time><name>PT688</name></trkpt>
<trkpt lat="52.921365" lon="-3.405504"><ele>445</ele><time>2020-09-03T10:14:01Z</time><name>PT689</name></trkpt>
<trkpt lat="52.921373" lon="-3.405502"><ele>445</ele><time>2020-09-03T10:14:05Z</time><name>PT690</name></trkpt>
<trkpt lat="52.921341" lon="-3.405483"><ele>445</ele><time>2020-09-03T10:14:09Z</time><name>PT691</name></trkpt>
<trkpt lat="52.921309" lon="-3.405454"><ele>444</ele><time>2020-09-03T10:14:13Z</time><name>PT692</name></trkpt>
<trkpt lat="52.921280" lon="-3.405421"><ele>444</ele><time>2020-09-03T10:14:17Z</time><name>PT693</name></trkpt>
<trkpt lat="52.921243" lon="-3.405397"><ele>444</ele><time>2020-09-03T10:14:21Z</time><name>PT694</name></trkpt>
<trkpt lat="52.921210" lon="-3.405371"><ele>444</ele><time>2020-09-03T10:14:25Z</time><name>PT695</name></trkpt>
<trkpt lat="52.921171" lon="-3.405332"><ele>446</ele><time>2020-09-03T10:14:29Z</time><name>PT696</name></trkpt>
<trkpt lat="52.921133" lon="-3.405306"><ele>446</ele><time>2020-09-03T10:14:33Z</time><name>PT697</name></trkpt>
<trkpt lat="52.921095" lon="-3.405275"><ele>447</ele><time>2020-09-03T10:14:37Z</time><name>PT698</name></trkpt>
<trkpt lat="52.921065" lon="-3.405236"><ele>447</ele><time>2020-09-03T10:14:41Z</time><name>PT699</name></trkpt>
<trkpt lat="52.921037" lon="-3.405211"><ele>446</ele><time>2020-09-03T10:14:45Z</time><name>PT700</name></trkpt>
<trkpt lat="52.921011" lon="-3.405179"><ele>445</ele><time>2020-09-03T10:14:49Z</time><name>PT701</name></trkpt>
<trkpt lat="52.920981" lon="-3.405134"><ele>445</ele><time>2020-09-03T10:14:53Z</time><name>PT702</name></trkpt>
<trkpt lat="52.920945" lon="-3.405091"><ele>445</ele><time>2020-09-03T10:14:57Z</time><name>PT703</name></trkpt>
<trkpt lat="52.920913" lon="-3.405061"><ele>445</ele><time>2020-09-03T10:15:01Z</time><name>PT704</name></trkpt>
<trkpt lat="52.920864" lon="-3.405019"><ele>448</ele><time>2020-09-03T10:15:05Z</time><name>PT705</name></trkpt>
<trkpt lat="52.920830" lon="-3.404984"><ele>448</ele><time>2020-09-03T10:15:09Z</time><name>PT706</name></trkpt>
<trkpt lat="52.920796" lon="-3.404956"><ele>448</ele><time>2020-09-03T10:15:13Z</time><name>PT707</name></trkpt>
<trkpt lat="52.920770" lon="-3.404918"><ele>448</ele><time>2020-09-03T10:15:17Z</time><name>PT708</name></trkpt>
<trkpt lat="52.920730" lon="-3.404890"><ele>449</ele><time>2020-09-03T10:15:21Z</time><name>PT709</name></trkpt>
<trkpt lat="52.920696" lon="-3.404864"><ele>450</ele><time>2020-09-03T10:15:25Z</time><name>PT710</name></trkpt>
<trkpt lat="52.920660" lon="-3.404833"><ele>450</ele><time>2020-09-03T10:15:29Z</time><name>PT711</name></trkpt>
<trkpt lat="52.920624" lon="-3.404805"><ele>454</ele><time>2020-09-03T10:15:33Z</time><name>PT712</name></trkpt>
<trkpt lat="52.920591" lon="-3.404776"><ele>454</ele><time>2020-09-03T10:15:37Z</time><name>PT713</name></trkpt>
<trkpt lat="52.920554" lon="-3.404738"><ele>455</ele><time>2020-09-03T10:15:41Z</time><name>PT714</name></trkpt>
<trkpt lat="52.920519" lon="-3.404700"><ele>455</ele><time>2020-09-03T10:15:45Z</time><name>PT715</name></trkpt>
<trkpt lat="52.920479" lon="-3.404662"><ele>456</ele><time>2020-09-03T10:15:49Z</time><name>PT716</name></trkpt>
<trkpt lat="52.920452" lon="-3.404629"><ele>455</ele><time>2020-09-03T10:15:53Z</time><name>PT717</name></trkpt>
<trkpt lat="52.920417" lon="-3.404592"><ele>454</ele><time>2020-09-03T10:15:57Z</time><name>PT718</name></trkpt>
<trkpt lat="52.920388" lon="-3.404544"><ele>453</ele><time>2020-09-03T10:16:01Z</time><name>PT719</name></trkpt>
<trkpt lat="52.920377" lon="-3.404525"><ele>454</ele><time>2020-09-03T10:16:05Z</time><name>PT720</name></trkpt>
<trkpt lat="52.920366" lon="-3.404497"><ele>455</ele><time>2020-09-03T10:16:09Z</time><name>PT721</name></trkpt>
<trkpt lat="52.920340" lon="-3.404489"><ele>454</ele><time>2020-09-03T10:16:13Z</time><name>PT722</name></trkpt>
<trkpt lat="52.920316" lon="-3.404489"><ele>455</ele><time>2020-09-03T10:16:17Z</time><name>PT723</name></trkpt>
<trkpt lat="52.920297" lon="-3.404476"><ele>458</ele><time>2020-09-03T10:16:21Z</time><name>PT724</name></trkpt>
<trkpt lat="52.920261" lon="-3.404444"><ele>458</ele><time>2020-09-03T10:16:25Z</time><name>PT725</name></trkpt>
<trkpt lat="52.920235" lon="-3.404418"><ele>458</ele><time>2020-09-03T10:16:29Z</time><name>PT726</name></trkpt>
<trkpt lat="52.920206" lon="-3.404386"><ele>458</ele><time>2020-09-03T10:16:33Z</time><name>PT727</name></trkpt>
<trkpt lat="52.920179" lon="-3.404344"><ele>458</ele><time>2020-09-03T10:16:37Z</time><name>PT728</name></trkpt>
<trkpt lat="52.920153" lon="-3.404307"><ele>458</ele><time>2020-09-03T10:16:41Z</time><name>PT729</name></trkpt>
<trkpt lat="52.920129" lon="-3.404280"><ele>458</ele><time>2020-09-03T10:16:45Z</time><name>PT730</name></trkpt>
<trkpt lat="52.920098" lon="-3.404246"><ele>459</ele><time>2020-09-03T10:16:49Z</time><name>PT731</name></trkpt>
<trkpt lat="52.920070" lon="-3.404211"><ele>460</ele><time>2020-09-03T10:16:53Z</time><name>PT732</name></trkpt>
<trkpt lat="52.920037" lon="-3.404172"><ele>460</ele><time>2020-09-03T10:16:57Z</time><name>PT733</name></trkpt>
<trkpt lat="52.920001" lon="-3.404132"><ele>460</ele><time>2020-09-03T10:17:01Z</time><name>PT734</name></trkpt>
<trkpt lat="52.919963" lon="-3.404103"><ele>461</ele><time>2020-09-03T10:17:05Z</time><name>PT735</name></trkpt>
<trkpt lat="52.919925" lon="-3.404076"><ele>461</ele><time>2020-09-03T10:17:09Z</time><name>PT736</name></trkpt>
<trkpt lat="52.919886" lon="-3.404046"><ele>461</ele><time>2020-09-03T10:17:13Z</time><name>PT737</name></trkpt>
<trkpt lat="52.919848" lon="-3.404025"><ele>462</ele><time>2020-09-03T10:17:17Z</time><name>PT738</name></trkpt>
<trkpt lat="52.919808" lon="-3.404003"><ele>462</ele><time>2020-09-03T10:17:21Z</time><name>PT739</name></trkpt>
<trkpt lat="52.919769" lon="-3.403993"><ele>462</ele><time>2020-09-03T10:17:25Z</time><name>PT740</name></trkpt>
<trkpt lat="52.919732" lon="-3.403985"><ele>463</ele><time>2020-09-03T10:17:29Z</time><name>PT741</name></trkpt>
<trkpt lat="52.919697" lon="-3.403984"><ele>463</ele><time>2020-09-03T10:17:33Z</time><name>PT742</name></trkpt>
<trkpt lat="52.919655" lon="-3.403980"><ele>464</ele><time>2020-09-03T10:17:37Z</time><name>PT743</name></trkpt>
<trkpt lat="52.919614" lon="-3.403982"><ele>465</ele><time>2020-09-03T10:17:41Z</time><name>PT744</name></trkpt>
<trkpt lat="52.919575" lon="-3.403983"><ele>467</ele><time>2020-09-03T10:17:45Z</time><name>PT745</name></trkpt>
<trkpt lat="52.919550" lon="-3.403983"><ele>466</ele><time>2020-09-03T10:17:49Z</time><name>PT746</name></trkpt>
<trkpt lat="52.919512" lon="-3.403968"><ele>467</ele><time>2020-09-03T10:17:53Z</time><name>PT747</name></trkpt>
<trkpt lat="52.919484" lon="-3.403954"><ele>467</ele><time>2020-09-03T10:17:57Z</time><name>PT748</name></trkpt>
<trkpt lat="52.919444" lon="-3.403932"><ele>468</ele><time>2020-09-03T10:18:01Z</time><name>PT749</name></trkpt>
<trkpt lat="52.919397" lon="-3.403921"><ele>470</ele><time>2020-09-03T10:18:05Z</time><name>PT750</name></trkpt>
<trkpt lat="52.919369" lon="-3.403910"><ele>471</ele><time>2020-09-03T10:18:08Z</time><name>PT751</name></trkpt>
<trkpt lat="52.919325" lon="-3.403898"><ele>472</ele><time>2020-09-03T10:18:12Z</time><name>PT752</name></trkpt>
<trkpt lat="52.919294" lon="-3.403887"><ele>473</ele><time>2020-09-03T10:18:15Z</time><name>PT753</name></trkpt>
<trkpt lat="52.919251" lon="-3.403879"><ele>475</ele><time>2020-09-03T10:18:19Z</time><name>PT754</name></trkpt>
<trkpt lat="52.919215" lon="-3.403868"><ele>476</ele><time>2020-09-03T10:18:23Z</time><name>PT755</name></trkpt>
<trkpt lat="52.919178" lon="-3.403857"><ele>476</ele><time>2020-09-03T10:18:27Z</time><name>PT756</name></trkpt>
<trkpt lat="52.919140" lon="-3.403853"><ele>480</ele><time>2020-09-03T10:18:31Z</time><name>PT757</name></trkpt>
<trkpt lat="52.919114" lon="-3.403838"><ele>480</ele><time>2020-09-03T10:18:35Z</time><name>PT758</name></trkpt>
<trkpt lat="52.919075" lon="-3.403835"><ele>481</ele><time>2020-09-03T10:18:39Z</time><name>PT759</name></trkpt>
<trkpt lat="52.919037" lon="-3.403831"><ele>482</ele><time>2020-09-03T10:18:43Z</time><name>PT760</name></trkpt>
<trkpt lat="52.919010" lon="-3.403827"><ele>482</ele><time>2020-09-03T10:18:47Z</time><name>PT761</name></trkpt>
<trkpt lat="52.918982" lon="-3.403839"><ele>482</ele><time>2020-09-03T10:18:51Z</time><name>PT762</name></trkpt>
<trkpt lat="52.918953" lon="-3.403842"><ele>482</ele><time>2020-09-03T10:18:55Z</time><name>PT763</name></trkpt>
<trkpt lat="52.918918" lon="-3.403841"><ele>484</ele><time>2020-09-03T10:18:59Z</time><name>PT764</name></trkpt>
<trkpt lat="52.918885" lon="-3.403840"><ele>485</ele><time>2020-09-03T10:19:03Z</time><name>PT765</name></trkpt>
<trkpt lat="52.918848" lon="-3.403837"><ele>486</ele><time>2020-09-03T10:19:07Z</time><name>PT766</name></trkpt>
<trkpt lat="52.918809" lon="-3.403832"><ele>487</ele><time>2020-09-03T10:19:11Z</time><name>PT767</name></trkpt>
<trkpt lat="52.918774" lon="-3.403838"><ele>487</ele><time>2020-09-03T10:19:15Z</time><name>PT768</name></trkpt>
<trkpt lat="52.918735" lon="-3.403836"><ele>489</ele><time>2020-09-03T10:19:19Z</time><name>PT769</name></trkpt>
<trkpt lat="52.918691" lon="-3.403817"><ele>490</ele><time>2020-09-03T10:19:23Z</time><name>PT770</name></trkpt>
<trkpt lat="52.918655" lon="-3.403804"><ele>490</ele><time>2020-09-03T10:19:27Z</time><name>PT771</name></trkpt>
<trkpt lat="52.918615" lon="-3.403790"><ele>489</ele><time>2020-09-03T10:19:31Z</time><name>PT772</name></trkpt>
<trkpt lat="52.918576" lon="-3.403779"><ele>488</ele><time>2020-09-03T10:19:35Z</time><name>PT773</name></trkpt>
<trkpt lat="52.918532" lon="-3.403771"><ele>489</ele><time>2020-09-03T10:19:39Z</time><name>PT774</name></trkpt>
<trkpt lat="52.918490" lon="-3.403764"><ele>489</ele><time>2020-09-03T10:19:43Z</time><name>PT775</name></trkpt>
<trkpt lat="52.918447" lon="-3.403748"><ele>489</ele><time>2020-09-03T10:19:47Z</time><name>PT776</name></trkpt>
<trkpt lat="52.918404" lon="-3.403733"><ele>489</ele><time>2020-09-03T10:19:51Z</time><name>PT777</name></trkpt>
<trkpt lat="52.918363" lon="-3.403717"><ele>490</ele><time>2020-09-03T10:19:55Z</time><name>PT778</name></trkpt>
<trkpt lat="52.918327" lon="-3.403707"><ele>491</ele><time>2020-09-03T10:19:59Z</time><name>PT779</name></trkpt>
<trkpt lat="52.918319" lon="-3.403702"><ele>492</ele><time>2020-09-03T10:20:03Z</time><name>PT780</name></trkpt>
<trkpt lat="52.918290" lon="-3.403694"><ele>492</ele><time>2020-09-03T10:20:07Z</time><name>PT781</name></trkpt>
<trkpt lat="52.918254" lon="-3.403677"><ele>493</ele><time>2020-09-03T10:20:11Z</time><name>PT782</name></trkpt>
<trkpt lat="52.918216" lon="-3.403671"><ele>493</ele><time>2020-09-03T10:20:15Z</time><name>PT783</name></trkpt>
<trkpt lat="52.918177" lon="-3.403667"><ele>494</ele><time>2020-09-03T10:20:19Z</time><name>PT784</name></trkpt>
<trkpt lat="52.918137" lon="-3.403656"><ele>495</ele><time>2020-09-03T10:20:23Z</time><name>PT785</name></trkpt>
<trkpt lat="52.918108" lon="-3.403650"><ele>496</ele><time>2020-09-03T10:20:27Z</time><name>PT786</name></trkpt>
<trkpt lat="52.918081" lon="-3.403644"><ele>496</ele><time>2020-09-03T10:20:31Z</time><name>PT787</name></trkpt>
<trkpt lat="52.918048" lon="-3.403643"><ele>496</ele><time>2020-09-03T10:20:35Z</time><name>PT788</name></trkpt>
<trkpt lat="52.918018" lon="-3.403621"><ele>495</ele><time>2020-09-03T10:20:39Z</time><name>PT789</name></trkpt>
<trkpt lat="52.917988" lon="-3.403610"><ele>495</ele><time>2020-09-03T10:20:43Z</time><name>PT790</name></trkpt>
<trkpt lat="52.917948" lon="-3.403601"><ele>497</ele><time>2020-09-03T10:20:47Z</time><name>PT791</name></trkpt>
<trkpt lat="52.917909" lon="-3.403591"><ele>497</ele><time>2020-09-03T10:20:51Z</time><name>PT792</name></trkpt>
<trkpt lat="52.917876" lon="-3.403577"><ele>495</ele><time>2020-09-03T10:20:55Z</time><name>PT793</name></trkpt>
<trkpt lat="52.917837" lon="-3.403565"><ele>496</ele><time>2020-09-03T10:20:59Z</time><name>PT794</name></trkpt>
<trkpt lat="52.917796" lon="-3.403557"><ele>496</ele><time>2020-09-03T10:21:03Z</time><name>PT795</name></trkpt>
<trkpt lat="52.917762" lon="-3.403536"><ele>496</ele><time>2020-09-03T10:21:07Z</time><name>PT796</name></trkpt>
<trkpt lat="52.917717" lon="-3.403518"><ele>496</ele><time>2020-09-03T10:21:11Z</time><name>PT797</name></trkpt>
<trkpt lat="52.917679" lon="-3.403505"><ele>497</ele><time>2020-09-03T10:21:15Z</time><name>PT798</name></trkpt>
<trkpt lat="52.917629" lon="-3.403496"><ele>498</ele><time>2020-09-03T10:21:19Z</time><name>PT799</name></trkpt>
<trkpt lat="52.917585" lon="-3.403487"><ele>500</ele><time>2020-09-03T10:21:23Z</time><name>PT800</name></trkpt>
<trkpt lat="52.917548" lon="-3.403474"><ele>501</ele><time>2020-09-03T10:21:27Z</time><name>PT801</name></trkpt>
<trkpt lat="52.917512" lon="-3.403449"><ele>501</ele><time>2020-09-03T10:21:31Z</time><name>PT802</name></trkpt>
<trkpt lat="52.917470" lon="-3.403428"><ele>502</ele><time>2020-09-03T10:21:35Z</time><name>PT803</name></trkpt>
<trkpt lat="52.917435" lon="-3.403408"><ele>501</ele><time>2020-09-03T10:21:39Z</time><name>PT804</name></trkpt>
<trkpt lat="52.917406" lon="-3.403377"><ele>501</ele><time>2020-09-03T10:21:43Z</time><name>PT805</name></trkpt>
<trkpt lat="52.917377" lon="-3.403337"><ele>500</ele><time>2020-09-03T10:21:47Z</time><name>PT806</name></trkpt>
<trkpt lat="52.917346" lon="-3.403290"><ele>501</ele><time>2020-09-03T10:21:51Z</time><name>PT807</name></trkpt>
<trkpt lat="52.917316" lon="-3.403249"><ele>501</ele><time>2020-09-03T10:21:55Z</time><name>PT808</name></trkpt>
<trkpt lat="52.917285" lon="-3.403204"><ele>501</ele><time>2020-09-03T10:21:59Z</time><name>PT809</name></trkpt>
<trkpt lat="52.917256" lon="-3.403156"><ele>501</ele><time>2020-09-03T10:22:03Z</time><name>PT810</name></trkpt>
<trkpt lat="52.917223" lon="-3.403112"><ele>501</ele><time>2020-09-03T10:22:07Z</time><name>PT811</name></trkpt>
<trkpt lat="52.917186" lon="-3.403069"><ele>501</ele><time>2020-09-03T10:22:11Z</time><name>PT812</name></trkpt>
<trkpt lat="52.917159" lon="-3.403023"><ele>502</ele><time>2020-09-03T10:22:15Z</time><name>PT813</name></trkpt>
<trkpt lat="52.917127" lon="-3.402979"><ele>502</ele><time>2020-09-03T10:22:19Z</time><name>PT814</name></trkpt>
<trkpt lat="52.917092" lon="-3.402938"><ele>502</ele><time>2020-09-03T10:22:23Z</time><name>PT815</name></trkpt>
<trkpt lat="52.917054" lon="-3.402900"><ele>502</ele><time>2020-09-03T10:22:27Z</time><name>PT816</name></trkpt>
<trkpt lat="52.917016" lon="-3.402864"><ele>502</ele><time>2020-09-03T10:22:31Z</time><name>PT817</name></trkpt>
<trkpt lat="52.916980" lon="-3.402823"><ele>502</ele><time>2020-09-03T10:22:35Z</time><name>PT818</name></trkpt>
<trkpt lat="52.916941" lon="-3.402788"><ele>503</ele><time>2020-09-03T10:22:39Z</time><name>PT819</name></trkpt>
<trkpt lat="52.916897" lon="-3.402760"><ele>504</ele><time>2020-09-03T10:22:43Z</time><name>PT820</name></trkpt>
<trkpt lat="52.916866" lon="-3.402733"><ele>503</ele><time>2020-09-03T10:22:47Z</time><name>PT821</name></trkpt>
<trkpt lat="52.916827" lon="-3.402710"><ele>503</ele><time>2020-09-03T10:22:51Z</time><name>PT822</name></trkpt>
<trkpt lat="52.916791" lon="-3.402685"><ele>504</ele><time>2020-09-03T10:22:55Z</time><name>PT823</name></trkpt>
<trkpt lat="52.916748" lon="-3.402657"><ele>504</ele><time>2020-09-03T10:22:59Z</time><name>PT824</name></trkpt>
<trkpt lat="52.916715" lon="-3.402630"><ele>504</ele><time>2020-09-03T10:23:03Z</time><name>PT825</name></trkpt>
<trkpt lat="52.916683" lon="-3.402598"><ele>504</ele><time>2020-09-03T10:23:07Z</time><name>PT826</name></trkpt>
<trkpt lat="52.916652" lon="-3.402576"><ele>504</ele><time>2020-09-03T10:23:11Z</time><name>PT827</name></trkpt>
<trkpt lat="52.916618" lon="-3.402547"><ele>504</ele><time>2020-09-03T10:23:15Z</time><name>PT828</name></trkpt>
<trkpt lat="52.916576" lon="-3.402521"><ele>504</ele><time>2020-09-03T10:23:19Z</time><name>PT829</name></trkpt>
<trkpt lat="52.916564" lon="-3.402510"><ele>505</ele><time>2020-09-03T10:23:23Z</time><name>PT830</name></trkpt>
<trkpt lat="52.916538" lon="-3.402493"><ele>506</ele><time>2020-09-03T10:23:27Z</time><name>PT831</name></trkpt>
<trkpt lat="52.916502" lon="-3.402469"><ele>505</ele><time>2020-09-03T10:23:31Z</time><name>PT832</name></trkpt>
<trkpt lat="52.916462" lon="-3.402432"><ele>505</ele><time>2020-09-03T10:23:35Z</time><name>PT833</name></trkpt>
<trkpt lat="52.916414" lon="-3.402411"><ele>507</ele><time>2020-09-03T10:23:39Z</time><name>PT834</name></trkpt>
<trkpt lat="52.916368" lon="-3.402392"><ele>508</ele><time>2020-09-03T10:23:43Z</time><name>PT835</name></trkpt>
<trkpt lat="52.916329" lon="-3.402379"><ele>509</ele><time>2020-09-03T10:23:47Z</time><name>PT836</name></trkpt>
<trkpt lat="52.916284" lon="-3.402380"><ele>511</ele><time>2020-09-03T10:23:51Z</time><name>PT837</name></trkpt>
<trkpt lat="52.916247" lon="-3.402367"><ele>511</ele><time>2020-09-03T10:23:55Z</time><name>PT838</name></trkpt>
<trkpt lat="52.916210" lon="-3.402345"><ele>510</ele><time>2020-09-03T10:23:59Z</time><name>PT839</name></trkpt>
<trkpt lat="52.916174" lon="-3.402321"><ele>510</ele><time>2020-09-03T10:24:03Z</time><name>PT840</name></trkpt>
<trkpt lat="52.916133" lon="-3.402309"><ele>510</ele><time>2020-09-03T10:24:07Z</time><name>PT841</name></trkpt>
<trkpt lat="52.916089" lon="-3.402276"><ele>510</ele><time>2020-09-03T10:24:11Z</time><name>PT842</name></trkpt>
<trkpt lat="52.916058" lon="-3.402230"><ele>509</ele><time>2020-09-03T10:24:15Z</time><name>PT843</name></trkpt>
<trkpt lat="52.916026" lon="-3.402177"><ele>510</ele><time>2020-09-03T10:24:19Z</time><name>PT844</name></trkpt>
<trkpt lat="52.916004" lon="-3.402121"><ele>509</ele><time>2020-09-03T10:24:23Z</time><name>PT845</name></trkpt>
<trkpt lat="52.915975" lon="-3.402068"><ele>509</ele><time>2020-09-03T10:24:27Z</time><name>PT846</name></trkpt>
<trkpt lat="52.915946" lon="-3.402018"><ele>509</ele><time>2020-09-03T10:24:31Z</time><name>PT847</name></trkpt>
<trkpt lat="52.915914" lon="-3.401963"><ele>509</ele><time>2020-09-03T10:24:35Z</time><name>PT848</name></trkpt>
<trkpt lat="52.915883" lon="-3.401914"><ele>509</ele><time>2020-09-03T10:24:39Z</time><name>PT849</name></trkpt>
<trkpt lat="52.915851" lon="-3.401857"><ele>510</ele><time>2020-09-03T10:24:43Z</time><name>PT850</name></trkpt>
<trkpt lat="52.915819" lon="-3.401811"><ele>510</ele><time>2020-09-03T10:24:47Z</time><name>PT851</name></trkpt>
<trkpt lat="52.915792" lon="-3.401759"><ele>511</ele><time>2020-09-03T10:24:51Z</time><name>PT852</name></trkpt>
<trkpt lat="52.915762" lon="-3.401713"><ele>511</ele><time>2020-09-03T10:24:55Z</time><name>PT853</name></trkpt>
<trkpt lat="52.915730" lon="-3.401678"><ele>510</ele><time>2020-09-03T10:24:59Z</time><name>PT854</name></trkpt>
<trkpt lat="52.915696" lon="-3.401637"><ele>511</ele><time>2020-09-03T10:25:03Z</time><name>PT855</name></trkpt>
<trkpt lat="52.915657" lon="-3.401599"><ele>511</ele><time>2020-09-03T10:25:07Z</time><name>PT856</name></trkpt>
<trkpt lat="52.915619" lon="-3.401563"><ele>512</ele><time>2020-09-03T10:25:11Z</time><name>PT857</name></trkpt>
<trkpt lat="52.915590" lon="-3.401510"><ele>513</ele><time>2020-09-03T10:25:15Z</time><name>PT858</name></trkpt>
<trkpt lat="52.915573" lon="-3.401463"><ele>512</ele><time>2020-09-03T10:25:19Z</time><name>PT859</name></trkpt>
<trkpt lat="52.915560" lon="-3.401420"><ele>511</ele><time>2020-09-03T10:25:23Z</time><name>PT860</name></trkpt>
<trkpt lat="52.915548" lon="-3.401391"><ele>511</ele><time>2020-09-03T10:25:27Z</time><name>PT861</name></trkpt>
<trkpt lat="52.915542" lon="-3.401373"><ele>512</ele><time>2020-09-03T10:25:31Z</time><name>PT862</name></trkpt>
<trkpt lat="52.915537" lon="-3.401368"><ele>512</ele><time>2020-09-03T10:25:35Z</time><name>PT863</name></trkpt>
<trkpt lat="52.915533" lon="-3.401359"><ele>512</ele><time>2020-09-03T10:25:43Z</time><name>PT864</name></trkpt>
<trkpt lat="52.915518" lon="-3.401337"><ele>512</ele><time>2020-09-03T10:25:47Z</time><name>PT865</name></trkpt>
<trkpt lat="52.915498" lon="-3.401299"><ele>513</ele><time>2020-09-03T10:25:51Z</time><name>PT866</name></trkpt>
<trkpt lat="52.915470" lon="-3.401277"><ele>514</ele><time>2020-09-03T10:25:55Z</time><name>PT867</name></trkpt>
<trkpt lat="52.915445" lon="-3.401229"><ele>514</ele><time>2020-09-03T10:25:59Z</time><name>PT868</name></trkpt>
<trkpt lat="52.915425" lon="-3.401182"><ele>514</ele><time>2020-09-03T10:26:03Z</time><name>PT869</name></trkpt>
<trkpt lat="52.915399" lon="-3.401133"><ele>514</ele><time>2020-09-03T10:26:07Z</time><name>PT870</name></trkpt>
<trkpt lat="52.915370" lon="-3.401095"><ele>513</ele><time>2020-09-03T10:26:11Z</time><name>PT871</name></trkpt>
<trkpt lat="52.915357" lon="-3.401087"><ele>513</ele><time>2020-09-03T10:26:15Z</time><name>PT872</name></trkpt>
<trkpt lat="52.915358" lon="-3.401088"><ele>513</ele><time>2020-09-03T10:26:19Z</time><name>PT873</name></trkpt>
<trkpt lat="52.915363" lon="-3.401090"><ele>513</ele><time>2020-09-03T10:26:27Z</time><name>PT874</name></trkpt>
<trkpt lat="52.915367" lon="-3.401099"><ele>513</ele><time>2020-09-03T10:26:31Z</time><name>PT875</name></trkpt>
<trkpt lat="52.915371" lon="-3.401101"><ele>514</ele><time>2020-09-03T10:26:35Z</time><name>PT876</name></trkpt>
<trkpt lat="52.915380" lon="-3.401105"><ele>513</ele><time>2020-09-03T10:26:39Z</time><name>PT877</name></trkpt>
<trkpt lat="52.915355" lon="-3.401075"><ele>514</ele><time>2020-09-03T10:27:03Z</time><name>PT878</name></trkpt>
<trkpt lat="52.915332" lon="-3.401014"><ele>513</ele><time>2020-09-03T10:27:07Z</time><name>PT879</name></trkpt>
<trkpt lat="52.915304" lon="-3.400976"><ele>513</ele><time>2020-09-03T10:27:11Z</time><name>PT880</name></trkpt>
<trkpt lat="52.915287" lon="-3.400949"><ele>513</ele><time>2020-09-03T10:27:15Z</time><name>PT881</name></trkpt>
<trkpt lat="52.915264" lon="-3.400907"><ele>513</ele><time>2020-09-03T10:27:19Z</time><name>PT882</name></trkpt>
<trkpt lat="52.915232" lon="-3.400854"><ele>513</ele><time>2020-09-03T10:27:23Z</time><name>PT883</name></trkpt>
<trkpt lat="52.915202" lon="-3.400797"><ele>514</ele><time>2020-09-03T10:27:27Z</time><name>PT884</name></trkpt>
<trkpt lat="52.915176" lon="-3.400739"><ele>513</ele><time>2020-09-03T10:27:31Z</time><name>PT885</name></trkpt>
<trkpt lat="52.915150" lon="-3.400680"><ele>513</ele><time>2020-09-03T10:27:35Z</time><name>PT886</name></trkpt>
<trkpt lat="52.915129" lon="-3.400613"><ele>514</ele><time>2020-09-03T10:27:39Z</time><name>PT887</name></trkpt>
<trkpt lat="52.915120" lon="-3.400570"><ele>513</ele><time>2020-09-03T10:27:43Z</time><name>PT888</name></trkpt>
<trkpt lat="52.915104" lon="-3.400539"><ele>512</ele><time>2020-09-03T10:27:47Z</time><name>PT889</name></trkpt>
<trkpt lat="52.915087" lon="-3.400478"><ele>512</ele><time>2020-09-03T10:27:51Z</time><name>PT890</name></trkpt>
<trkpt lat="52.915059" lon="-3.400420"><ele>514</ele><time>2020-09-03T10:27:55Z</time><name>PT891</name></trkpt>
<trkpt lat="52.915043" lon="-3.400367"><ele>514</ele><time>2020-09-03T10:27:59Z</time><name>PT892</name></trkpt>
<trkpt lat="52.915020" lon="-3.400312"><ele>514</ele><time>2020-09-03T10:28:03Z</time><name>PT893</name></trkpt>
<trkpt lat="52.914993" lon="-3.400260"><ele>514</ele><time>2020-09-03T10:28:07Z</time><name>PT894</name></trkpt>
<trkpt lat="52.914965" lon="-3.400221"><ele>515</ele><time>2020-09-03T10:28:11Z</time><name>PT895</name></trkpt>
<trkpt lat="52.914931" lon="-3.400205"><ele>515</ele><time>2020-09-03T10:28:15Z</time><name>PT896</name></trkpt>
<trkpt lat="52.914900" lon="-3.400175"><ele>516</ele><time>2020-09-03T10:28:19Z</time><name>PT897</name></trkpt>
<trkpt lat="52.914869" lon="-3.400141"><ele>516</ele><time>2020-09-03T10:28:23Z</time><name>PT898</name></trkpt>
<trkpt lat="52.914861" lon="-3.400126"><ele>517</ele><time>2020-09-03T10:28:27Z</time><name>PT899</name></trkpt>
<trkpt lat="52.914853" lon="-3.400116"><ele>518</ele><time>2020-09-03T10:28:31Z</time><name>PT900</name></trkpt>
<trkpt lat="52.914814" lon="-3.400108"><ele>519</ele><time>2020-09-03T10:28:35Z</time><name>PT901</name></trkpt>
<trkpt lat="52.914768" lon="-3.400103"><ele>520</ele><time>2020-09-03T10:28:39Z</time><name>PT902</name></trkpt>
<trkpt lat="52.914730" lon="-3.400111"><ele>521</ele><time>2020-09-03T10:28:43Z</time><name>PT903</name></trkpt>
<trkpt lat="52.914699" lon="-3.400108"><ele>521</ele><time>2020-09-03T10:28:47Z</time><name>PT904</name></trkpt>
<trkpt lat="52.914666" lon="-3.400120"><ele>520</ele><time>2020-09-03T10:28:51Z</time><name>PT905</name></trkpt>
<trkpt lat="52.914628" lon="-3.400131"><ele>521</ele><time>2020-09-03T10:28:55Z</time><name>PT906</name></trkpt>
<trkpt lat="52.914596" lon="-3.400130"><ele>522</ele><time>2020-09-03T10:28:59Z</time><name>PT907</name></trkpt>
<trkpt lat="52.914559" lon="-3.400111"><ele>522</ele><time>2020-09-03T10:29:03Z</time><name>PT908</name></trkpt>
<trkpt lat="52.914529" lon="-3.400082"><ele>522</ele><time>2020-09-03T10:29:07Z</time><name>PT909</name></trkpt>
<trkpt lat="52.914502" lon="-3.400045"><ele>523</ele><time>2020-09-03T10:29:11Z</time><name>PT910</name></trkpt>
<trkpt lat="52.914470" lon="-3.400000"><ele>522</ele><time>2020-09-03T10:29:15Z</time><name>PT911</name></trkpt>
<trkpt lat="52.914443" lon="-3.399957"><ele>522</ele><time>2020-09-03T10:29:19Z</time><name>PT912</name></trkpt>
<trkpt lat="52.914416" lon="-3.399944"><ele>522</ele><time>2020-09-03T10:29:23Z</time><name>PT913</name></trkpt>
<trkpt lat="52.914385" lon="-3.399911"><ele>522</ele><time>2020-09-03T10:29:27Z</time><name>PT914</name></trkpt>
<trkpt lat="52.914362" lon="-3.399874"><ele>523</ele><time>2020-09-03T10:29:31Z</time><name>PT915</name></trkpt>
<trkpt lat="52.914329" lon="-3.399843"><ele>523</ele><time>2020-09-03T10:29:35Z</time><name>PT916</name></trkpt>
<trkpt lat="52.914303" lon="-3.399810"><ele>523</ele><time>2020-09-03T10:29:39Z</time><name>PT917</name></trkpt>
<trkpt lat="52.914266" lon="-3.399774"><ele>524</ele><time>2020-09-03T10:29:43Z</time><name>PT918</name></trkpt>
<trkpt lat="52.914230" lon="-3.399743"><ele>525</ele><time>2020-09-03T10:29:47Z</time><name>PT919</name></trkpt>
<trkpt lat="52.914202" lon="-3.399712"><ele>525</ele><time>2020-09-03T10:29:51Z</time><name>PT920</name></trkpt>
<trkpt lat="52.914173" lon="-3.399696"><ele>525</ele><time>2020-09-03T10:29:55Z</time><name>PT921</name></trkpt>
<trkpt lat="52.914139" lon="-3.399671"><ele>526</ele><time>2020-09-03T10:29:59Z</time><name>PT922</name></trkpt>
<trkpt lat="52.914104" lon="-3.399649"><ele>527</ele><time>2020-09-03T10:30:03Z</time><name>PT923</name></trkpt>
<trkpt lat="52.914074" lon="-3.399627"><ele>527</ele><time>2020-09-03T10:30:07Z</time><name>PT924</name></trkpt>
<trkpt lat="52.914042" lon="-3.399603"><ele>528</ele><time>2020-09-03T10:30:11Z</time><name>PT925</name></trkpt>
<trkpt lat="52.914018" lon="-3.399602"><ele>527</ele><time>2020-09-03T10:30:15Z</time><name>PT926</name></trkpt>
<trkpt lat="52.913994" lon="-3.399584"><ele>527</ele><time>2020-09-03T10:30:19Z</time><name>PT927</name></trkpt>
<trkpt lat="52.913960" lon="-3.399559"><ele>527</ele><time>2020-09-03T10:30:23Z</time><name>PT928</name></trkpt>
<trkpt lat="52.913919" lon="-3.399548"><ele>528</ele><time>2020-09-03T10:30:27Z</time><name>PT929</name></trkpt>
<trkpt lat="52.913888" lon="-3.399510"><ele>529</ele><time>2020-09-03T10:30:31Z</time><name>PT930</name></trkpt>
<trkpt lat="52.913855" lon="-3.399495"><ele>530</ele><time>2020-09-03T10:30:35Z</time><name>PT931</name></trkpt>
<trkpt lat="52.913824" lon="-3.399475"><ele>530</ele><time>2020-09-03T10:30:39Z</time><name>PT932</name></trkpt>
<trkpt lat="52.913800" lon="-3.399444"><ele>530</ele><time>2020-09-03T10:30:43Z</time><name>PT933</name></trkpt>
<trkpt lat="52.913769" lon="-3.399422"><ele>531</ele><time>2020-09-03T10:30:47Z</time><name>PT934</name></trkpt>
<trkpt lat="52.913733" lon="-3.399395"><ele>532</ele><time>2020-09-03T10:30:51Z</time><name>PT935</name></trkpt>
<trkpt lat="52.913700" lon="-3.399373"><ele>533</ele><time>2020-09-03T10:30:55Z</time><name>PT936</name></trkpt>
<trkpt lat="52.913665" lon="-3.399368"><ele>534</ele><time>2020-09-03T10:30:59Z</time><name>PT937</name></trkpt>
<trkpt lat="52.913621" lon="-3.399354"><ele>534</ele><time>2020-09-03T10:31:03Z</time><name>PT938</name></trkpt>
<trkpt lat="52.913579" lon="-3.399342"><ele>535</ele><time>2020-09-03T10:31:07Z</time><name>PT939</name></trkpt>
<trkpt lat="52.913548" lon="-3.399332"><ele>535</ele><time>2020-09-03T10:31:11Z</time><name>PT940</name></trkpt>
<trkpt lat="52.913515" lon="-3.399308"><ele>535</ele><time>2020-09-03T10:31:15Z</time><name>PT941</name></trkpt>
<trkpt lat="52.913487" lon="-3.399286"><ele>535</ele><time>2020-09-03T10:31:19Z</time><name>PT942</name></trkpt>
<trkpt lat="52.913456" lon="-3.399263"><ele>535</ele><time>2020-09-03T10:31:23Z</time><name>PT943</name></trkpt>
<trkpt lat="52.913420" lon="-3.399251"><ele>535</ele><time>2020-09-03T10:31:27Z</time><name>PT944</name></trkpt>
<trkpt lat="52.913388" lon="-3.399226"><ele>535</ele><time>2020-09-03T10:31:31Z</time><name>PT945</name></trkpt>
<trkpt lat="52.913358" lon="-3.399204"><ele>535</ele><time>2020-09-03T10:31:35Z</time><name>PT946</name></trkpt>
<trkpt lat="52.913333" lon="-3.399191"><ele>535</ele><time>2020-09-03T10:31:39Z</time><name>PT947</name></trkpt>
<trkpt lat="52.913303" lon="-3.399168"><ele>535</ele><time>2020-09-03T10:31:43Z</time><name>PT948</name></trkpt>
<trkpt lat="52.913272" lon="-3.399147"><ele>535</ele><time>2020-09-03T10:31:47Z</time><name>PT949</name></trkpt>
<trkpt lat="52.913237" lon="-3.399120"><ele>536</ele><time>2020-09-03T10:31:51Z</time><name>PT950</name></trkpt>
<trkpt lat="52.913205" lon="-3.399103"><ele>538</ele><time>2020-09-03T10:31:55Z</time><name>PT951</name></trkpt>
<trkpt lat="52.913168" lon="-3.399081"><ele>539</ele><time>2020-09-03T10:31:59Z</time><name>PT952</name></trkpt>
<trkpt lat="52.913138" lon="-3.399067"><ele>541</ele><time>2020-09-03T10:32:02Z</time><name>PT953</name></trkpt>
<trkpt lat="52.913111" lon="-3.399048"><ele>541</ele><time>2020-09-03T10:32:05Z</time><name>PT954</name></trkpt>
<trkpt lat="52.913082" lon="-3.399011"><ele>543</ele><time>2020-09-03T10:32:09Z</time><name>PT955</name></trkpt>
<trkpt lat="52.913050" lon="-3.398984"><ele>543</ele><time>2020-09-03T10:32:13Z</time><name>PT956</name></trkpt>
<trkpt lat="52.913013" lon="-3.398961"><ele>544</ele><time>2020-09-03T10:32:17Z</time><name>PT957</name></trkpt>
<trkpt lat="52.912978" lon="-3.398939"><ele>545</ele><time>2020-09-03T10:32:21Z</time><name>PT958</name></trkpt>
<trkpt lat="52.912940" lon="-3.398920"><ele>546</ele><time>2020-09-03T10:32:25Z</time><name>PT959</name></trkpt>
<trkpt lat="52.912904" lon="-3.398902"><ele>548</ele><time>2020-09-03T10:32:29Z</time><name>PT960</name></trkpt>
<trkpt lat="52.912873" lon="-3.398879"><ele>548</ele><time>2020-09-03T10:32:33Z</time><name>PT961</name></trkpt>
<trkpt lat="52.912834" lon="-3.398871"><ele>548</ele><time>2020-09-03T10:32:37Z</time><name>PT962</name></trkpt>
<trkpt lat="52.912788" lon="-3.398860"><ele>548</ele><time>2020-09-03T10:32:41Z</time><name>PT963</name></trkpt>
<trkpt lat="52.912748" lon="-3.398839"><ele>549</ele><time>2020-09-03T10:32:45Z</time><name>PT964</name></trkpt>
<trkpt lat="52.912709" lon="-3.398809"><ele>550</ele><time>2020-09-03T10:32:49Z</time><name>PT965</name></trkpt>
<trkpt lat="52.912677" lon="-3.398789"><ele>551</ele><time>2020-09-03T10:32:53Z</time><name>PT966</name></trkpt>
<trkpt lat="52.912641" lon="-3.398750"><ele>552</ele><time>2020-09-03T10:32:57Z</time><name>PT967</name></trkpt>
<trkpt lat="52.912609" lon="-3.398711"><ele>554</ele><time>2020-09-03T10:33:01Z</time><name>PT968</name></trkpt>
<trkpt lat="52.912577" lon="-3.398686"><ele>554</ele><time>2020-09-03T10:33:05Z</time><name>PT969</name></trkpt>
<trkpt lat="52.912532" lon="-3.398658"><ele>554</ele><time>2020-09-03T10:33:09Z</time><name>PT970</name></trkpt>
<trkpt lat="52.912496" lon="-3.398634"><ele>554</ele><time>2020-09-03T10:33:13Z</time><name>PT971</name></trkpt>
<trkpt lat="52.912465" lon="-3.398605"><ele>554</ele><time>2020-09-03T10:33:17Z</time><name>PT972</name></trkpt>
<trkpt lat="52.912430" lon="-3.398577"><ele>553</ele><time>2020-09-03T10:33:21Z</time><name>PT973</name></trkpt>
<trkpt lat="52.912397" lon="-3.398549"><ele>553</ele><time>2020-09-03T10:33:25Z</time><name>PT974</name></trkpt>
<trkpt lat="52.912361" lon="-3.398519"><ele>554</ele><time>2020-09-03T10:33:29Z</time><name>PT975</name></trkpt>
<trkpt lat="52.912326" lon="-3.398492"><ele>554</ele><time>2020-09-03T10:33:33Z</time><name>PT976</name></trkpt>
<trkpt lat="52.912291" lon="-3.398470"><ele>554</ele><time>2020-09-03T10:33:37Z</time><name>PT977</name></trkpt>
<trkpt lat="52.912262" lon="-3.398444"><ele>554</ele><time>2020-09-03T10:33:41Z</time><name>PT978</name></trkpt>
<trkpt lat="52.912227" lon="-3.398420"><ele>555</ele><time>2020-09-03T10:33:45Z</time><name>PT979</name></trkpt>
<trkpt lat="52.912188" lon="-3.398391"><ele>556</ele><time>2020-09-03T10:33:49Z</time><name>PT980</name></trkpt>
<trkpt lat="52.912151" lon="-3.398373"><ele>555</ele><time>2020-09-03T10:33:53Z</time><name>PT981</name></trkpt>
<trkpt lat="52.912118" lon="-3.398340"><ele>555</ele><time>2020-09-03T10:33:57Z</time><name>PT982</name></trkpt>
<trkpt lat="52.912081" lon="-3.398322"><ele>557</ele><time>2020-09-03T10:34:01Z</time><name>PT983</name></trkpt>
<trkpt lat="52.912060" lon="-3.398321"><ele>558</ele><time>2020-09-03T10:34:05Z</time><name>PT984</name></trkpt>
<trkpt lat="52.912039" lon="-3.398306"><ele>558</ele><time>2020-09-03T10:34:09Z</time><name>PT985</name></trkpt>
<trkpt lat="52.912005" lon="-3.398281"><ele>558</ele><time>2020-09-03T10:34:13Z</time><name>PT986</name></trkpt>
<trkpt lat="52.911974" lon="-3.398257"><ele>558</ele><time>2020-09-03T10:34:17Z</time><name>PT987</name></trkpt>
<trkpt lat="52.911940" lon="-3.398232"><ele>558</ele><time>2020-09-03T10:34:21Z</time><name>PT988</name></trkpt>
<trkpt lat="52.911906" lon="-3.398213"><ele>558</ele><time>2020-09-03T10:34:25Z</time><name>PT989</name></trkpt>
<trkpt lat="52.911866" lon="-3.398198"><ele>559</ele><time>2020-09-03T10:34:29Z</time><name>PT990</name></trkpt>
<trkpt lat="52.911833" lon="-3.398184"><ele>559</ele><time>2020-09-03T10:34:33Z</time><name>PT991</name></trkpt>
<trkpt lat="52.911797" lon="-3.398168"><ele>558</ele><time>2020-09-03T10:34:37Z</time><name>PT992</name></trkpt>
<trkpt lat="52.911756" lon="-3.398146"><ele>560</ele><time>2020-09-03T10:34:41Z</time><name>PT993</name></trkpt>
<trkpt lat="52.911727" lon="-3.398119"><ele>560</ele><time>2020-09-03T10:34:45Z</time><name>PT994</name></trkpt>
<trkpt lat="52.911694" lon="-3.398088"><ele>561</ele><time>2020-09-03T10:34:49Z</time><name>PT995</name></trkpt>
<trkpt lat="52.911662" lon="-3.398060"><ele>561</ele><time>2020-09-03T10:34:53Z</time><name>PT996</name></trkpt>
<trkpt lat="52.911625" lon="-3.398034"><ele>563</ele><time>2020-09-03T10:34:57Z</time><name>PT997</name></trkpt>
<trkpt lat="52.911594" lon="-3.398012"><ele>563</ele><time>2020-09-03T10:35:01Z</time><name>PT998</name></trkpt>
<trkpt lat="52.911553" lon="-3.397981"><ele>563</ele><time>2020-09-03T10:35:05Z</time><name>PT999</name></trkpt>
<trkpt lat="52.911524" lon="-3.397962"><ele>563</ele><time>2020-09-03T10:35:09Z</time><name>PT1000</name></trkpt>
<trkpt lat="52.911491" lon="-3.397930"><ele>565</ele><time>2020-09-03T10:35:13Z</time><name>PT1001</name></trkpt>
<trkpt lat="52.911457" lon="-3.397902"><ele>566</ele><time>2020-09-03T10:35:17Z</time><name>PT1002</name></trkpt>
<trkpt lat="52.911422" lon="-3.397875"><ele>567</ele><time>2020-09-03T10:35:21Z</time><name>PT1003</name></trkpt>
<trkpt lat="52.911385" lon="-3.397847"><ele>567</ele><time>2020-09-03T10:35:25Z</time><name>PT1004</name></trkpt>
<trkpt lat="52.911339" lon="-3.397821"><ele>568</ele><time>2020-09-03T10:35:29Z</time><name>PT1005</name></trkpt>
<trkpt lat="52.911297" lon="-3.397796"><ele>570</ele><time>2020-09-03T10:35:33Z</time><name>PT1006</name></trkpt>
<trkpt lat="52.911254" lon="-3.397764"><ele>572</ele><time>2020-09-03T10:35:37Z</time><name>PT1007</name></trkpt>
<trkpt lat="52.911223" lon="-3.397741"><ele>571</ele><time>2020-09-03T10:35:41Z</time><name>PT1008</name></trkpt>
<trkpt lat="52.911183" lon="-3.397711"><ele>571</ele><time>2020-09-03T10:35:45Z</time><name>PT1009</name></trkpt>
<trkpt lat="52.911147" lon="-3.397683"><ele>572</ele><time>2020-09-03T10:35:49Z</time><name>PT1010</name></trkpt>
<trkpt lat="52.911111" lon="-3.397653"><ele>573</ele><time>2020-09-03T10:35:53Z</time><name>PT1011</name></trkpt>
<trkpt lat="52.911076" lon="-3.397627"><ele>574</ele><time>2020-09-03T10:35:57Z</time><name>PT1012</name></trkpt>
<trkpt lat="52.911036" lon="-3.397602"><ele>574</ele><time>2020-09-03T10:36:01Z</time><name>PT1013</name></trkpt>
<trkpt lat="52.910997" lon="-3.397571"><ele>576</ele><time>2020-09-03T10:36:05Z</time><name>PT1014</name></trkpt>
<trkpt lat="52.910959" lon="-3.397545"><ele>576</ele><time>2020-09-03T10:36:09Z</time><name>PT1015</name></trkpt>
<trkpt lat="52.910930" lon="-3.397522"><ele>576</ele><time>2020-09-03T10:36:13Z</time><name>PT1016</name></trkpt>
<trkpt lat="52.910896" lon="-3.397493"><ele>577</ele><time>2020-09-03T10:36:17Z</time><name>PT1017</name></trkpt>
<trkpt lat="52.910862" lon="-3.397456"><ele>577</ele><time>2020-09-03T10:36:21Z</time><name>PT1018</name></trkpt>
<trkpt lat="52.910830" lon="-3.397424"><ele>577</ele><time>2020-09-03T10:36:25Z</time><name>PT1019</name></trkpt>
<trkpt lat="52.910797" lon="-3.397391"><ele>578</ele><time>2020-09-03T10:36:29Z</time><name>PT1020</name></trkpt>
<trkpt lat="52.910766" lon="-3.397358"><ele>578</ele><time>2020-09-03T10:36:33Z</time><name>PT1021</name></trkpt>
<trkpt lat="52.910739" lon="-3.397319"><ele>579</ele><time>2020-09-03T10:36:37Z</time><name>PT1022</name></trkpt>
<trkpt lat="52.910704" lon="-3.397271"><ele>579</ele><time>2020-09-03T10:36:41Z</time><name>PT1023</name></trkpt>
<trkpt lat="52.910677" lon="-3.397227"><ele>580</ele><time>2020-09-03T10:36:45Z</time><name>PT1024</name></trkpt>
<trkpt lat="52.910643" lon="-3.397188"><ele>582</ele><time>2020-09-03T10:36:49Z</time><name>PT1025</name></trkpt>
<trkpt lat="52.910607" lon="-3.397155"><ele>583</ele><time>2020-09-03T10:36:53Z</time><name>PT1026</name></trkpt>
<trkpt lat="52.910570" lon="-3.397133"><ele>584</ele><time>2020-09-03T10:36:57Z</time><name>PT1027</name></trkpt>
<trkpt lat="52.910530" lon="-3.397097"><ele>585</ele><time>2020-09-03T10:37:01Z</time><name>PT1028</name></trkpt>
<trkpt lat="52.910495" lon="-3.397062"><ele>585</ele><time>2020-09-03T10:37:05Z</time><name>PT1029</name></trkpt>
<trkpt lat="52.910461" lon="-3.397017"><ele>585</ele><time>2020-09-03T10:37:09Z</time><name>PT1030</name></trkpt>
<trkpt lat="52.910427" lon="-3.396977"><ele>588</ele><time>2020-09-03T10:37:13Z</time><name>PT1031</name></trkpt>
<trkpt lat="52.910394" lon="-3.396937"><ele>589</ele><time>2020-09-03T10:37:17Z</time><name>PT1032</name></trkpt>
<trkpt lat="52.910361" lon="-3.396895"><ele>590</ele><time>2020-09-03T10:37:21Z</time><name>PT1033</name></trkpt>
<trkpt lat="52.910334" lon="-3.396855"><ele>591</ele><time>2020-09-03T10:37:25Z</time><name>PT1034</name></trkpt>
<trkpt lat="52.910306" lon="-3.396806"><ele>591</ele><time>2020-09-03T10:37:29Z</time><name>PT1035</name></trkpt>
<trkpt lat="52.910271" lon="-3.396760"><ele>590</ele><time>2020-09-03T10:37:33Z</time><name>PT1036</name></trkpt>
<trkpt lat="52.910238" lon="-3.396713"><ele>590</ele><time>2020-09-03T10:37:37Z</time><name>PT1037</name></trkpt>
<trkpt lat="52.910201" lon="-3.396668"><ele>591</ele><time>2020-09-03T10:37:41Z</time><name>PT1038</name></trkpt>
<trkpt lat="52.910192" lon="-3.396658"><ele>591</ele><time>2020-09-03T10:37:45Z</time><name>PT1039</name></trkpt>
<trkpt lat="52.910186" lon="-3.396659"><ele>591</ele><time>2020-09-03T10:37:49Z</time><name>PT1040</name></trkpt>
<trkpt lat="52.910159" lon="-3.396618"><ele>591</ele><time>2020-09-03T10:37:53Z</time><name>PT1041</name></trkpt>
<trkpt lat="52.910130" lon="-3.396566"><ele>591</ele><time>2020-09-03T10:37:57Z</time><name>PT1042</name></trkpt>
<trkpt lat="52.910099" lon="-3.396509"><ele>592</ele><time>2020-09-03T10:38:01Z</time><name>PT1043</name></trkpt>
<trkpt lat="52.910074" lon="-3.396467"><ele>593</ele><time>2020-09-03T10:38:05Z</time><name>PT1044</name></trkpt>
<trkpt lat="52.910047" lon="-3.396407"><ele>592</ele><time>2020-09-03T10:38:09Z</time><name>PT1045</name></trkpt>
<trkpt lat="52.910021" lon="-3.396346"><ele>592</ele><time>2020-09-03T10:38:13Z</time><name>PT1046</name></trkpt>
<trkpt lat="52.910000" lon="-3.396292"><ele>592</ele><time>2020-09-03T10:38:17Z</time><name>PT1047</name></trkpt>
<trkpt lat="52.909975" lon="-3.396238"><ele>593</ele><time>2020-09-03T10:38:21Z</time><name>PT1048</name></trkpt>
<trkpt lat="52.909950" lon="-3.396184"><ele>593</ele><time>2020-09-03T10:38:25Z</time><name>PT1049</name></trkpt>
<trkpt lat="52.909916" lon="-3.396136"><ele>593</ele><time>2020-09-03T10:38:29Z</time><name>PT1050</name></trkpt>
<trkpt lat="52.909877" lon="-3.396079"><ele>594</ele><time>2020-09-03T10:38:33Z</time><name>PT1051</name></trkpt>
<trkpt lat="52.909845" lon="-3.396022"><ele>594</ele><time>2020-09-03T10:38:37Z</time><name>PT1052</name></trkpt>
<trkpt lat="52.909812" lon="-3.395967"><ele>594</ele><time>2020-09-03T10:38:41Z</time><name>PT1053</name></trkpt>
<trkpt lat="52.909785" lon="-3.395912"><ele>594</ele><time>2020-09-03T10:38:45Z</time><name>PT1054</name></trkpt>
<trkpt lat="52.909757" lon="-3.395855"><ele>595</ele><time>2020-09-03T10:38:49Z</time><name>PT1055</name></trkpt>
<trkpt lat="52.909727" lon="-3.395795"><ele>594</ele><time>2020-09-03T10:38:53Z</time><name>PT1056</name></trkpt>
<trkpt lat="52.909700" lon="-3.395734"><ele>594</ele><time>2020-09-03T10:38:57Z</time><name>PT1057</name></trkpt>
<trkpt lat="52.909672" lon="-3.395682"><ele>594</ele><time>2020-09-03T10:39:01Z</time><name>PT1058</name></trkpt>
<trkpt lat="52.909667" lon="-3.395654"><ele>594</ele><time>2020-09-03T10:39:05Z</time><name>PT1059</name></trkpt>
<trkpt lat="52.909666" lon="-3.395659"><ele>595</ele><time>2020-09-03T10:39:09Z</time><name>PT1060</name></trkpt>
<trkpt lat="52.909653" lon="-3.395648"><ele>595</ele><time>2020-09-03T10:39:13Z</time><name>PT1061</name></trkpt>
<trkpt lat="52.909652" lon="-3.395647"><ele>596</ele><time>2020-09-03T10:39:17Z</time><name>PT1062</name></trkpt>
<trkpt lat="52.909649" lon="-3.395633"><ele>596</ele><time>2020-09-03T10:39:21Z</time><name>PT1063</name></trkpt>
<trkpt lat="52.909638" lon="-3.395635"><ele>595</ele><time>2020-09-03T10:39:25Z</time><name>PT1064</name></trkpt>
<trkpt lat="52.909639" lon="-3.395629"><ele>596</ele><time>2020-09-03T10:39:33Z</time><name>PT1065</name></trkpt>
<trkpt lat="52.909637" lon="-3.395628"><ele>596</ele><time>2020-09-03T10:39:37Z</time><name>PT1066</name></trkpt>
<trkpt lat="52.909633" lon="-3.395627"><ele>597</ele><time>2020-09-03T10:39:41Z</time><name>PT1067</name></trkpt>
<trkpt lat="52.909626" lon="-3.395632"><ele>598</ele><time>2020-09-03T10:39:45Z</time><name>PT1068</name></trkpt>
<trkpt lat="52.909626" lon="-3.395630"><ele>598</ele><time>2020-09-03T10:40:03Z</time><name>PT1069</name></trkpt>
<trkpt lat="52.909628" lon="-3.395628"><ele>598</ele><time>2020-09-03T10:40:05Z</time><name>PT1070</name></trkpt>
<trkpt lat="52.909629" lon="-3.395627"><ele>598</ele><time>2020-09-03T10:40:05Z</time><name>PT1071</name></trkpt>
<trkpt lat="52.909628" lon="-3.395628"><ele>598</ele><time>2020-09-03T10:40:07Z</time><name>PT1072</name></trkpt>
<trkpt lat="52.909628" lon="-3.395630"><ele>598</ele><time>2020-09-03T10:40:07Z</time><name>PT1073</name></trkpt>
<trkpt lat="52.909628" lon="-3.395627"><ele>598</ele><time>2020-09-03T10:40:21Z</time><name>PT1074</name></trkpt>
<trkpt lat="52.909627" lon="-3.395628"><ele>598</ele><time>2020-09-03T10:40:23Z</time><name>PT1075</name></trkpt>
<trkpt lat="52.909625" lon="-3.395628"><ele>598</ele><time>2020-09-03T10:40:23Z</time><name>PT1076</name></trkpt>
<trkpt lat="52.909625" lon="-3.395626"><ele>598</ele><time>2020-09-03T10:40:25Z</time><name>PT1077</name></trkpt>
<trkpt lat="52.909622" lon="-3.395624"><ele>599</ele><time>2020-09-03T10:40:27Z</time><name>PT1078</name></trkpt>
<trkpt lat="52.909621" lon="-3.395621"><ele>598</ele><time>2020-09-03T10:40:27Z</time><name>PT1079</name></trkpt>
<trkpt lat="52.909618" lon="-3.395616"><ele>598</ele><time>2020-09-03T10:40:29Z</time><name>PT1080</name></trkpt>
<trkpt lat="52.909615" lon="-3.395613"><ele>598</ele><time>2020-09-03T10:40:29Z</time><name>PT1081</name></trkpt>
<trkpt lat="52.909608" lon="-3.395605"><ele>598</ele><time>2020-09-03T10:40:31Z</time><name>PT1082</name></trkpt>
<trkpt lat="52.909596" lon="-3.395598"><ele>598</ele><time>2020-09-03T10:40:31Z</time><name>PT1083</name></trkpt>
<trkpt lat="52.909589" lon="-3.395590"><ele>598</ele><time>2020-09-03T10:40:33Z</time><name>PT1084</name></trkpt>
<trkpt lat="52.909583" lon="-3.395570"><ele>598</ele><time>2020-09-03T10:40:33Z</time><name>PT1085</name></trkpt>
<trkpt lat="52.909581" lon="-3.395564"><ele>598</ele><time>2020-09-03T10:40:35Z</time><name>PT1086</name></trkpt>
<trkpt lat="52.909576" lon="-3.395560"><ele>598</ele><time>2020-09-03T10:40:35Z</time><name>PT1087</name></trkpt>
<trkpt lat="52.909570" lon="-3.395554"><ele>598</ele><time>2020-09-03T10:40:37Z</time><name>PT1088</name></trkpt>
<trkpt lat="52.909563" lon="-3.395551"><ele>598</ele><time>2020-09-03T10:40:37Z</time><name>PT1089</name></trkpt>
<trkpt lat="52.909559" lon="-3.395540"><ele>598</ele><time>2020-09-03T10:40:39Z</time><name>PT1090</name></trkpt>
<trkpt lat="52.909552" lon="-3.395532"><ele>597</ele><time>2020-09-03T10:40:39Z</time><name>PT1091</name></trkpt>
<trkpt lat="52.909544" lon="-3.395522"><ele>597</ele><time>2020-09-03T10:40:41Z</time><name>PT1092</name></trkpt>
<trkpt lat="52.909539" lon="-3.395510"><ele>597</ele><time>2020-09-03T10:40:41Z</time><name>PT1093</name></trkpt>
<trkpt lat="52.909531" lon="-3.395496"><ele>597</ele><time>2020-09-03T10:40:43Z</time><name>PT1094</name></trkpt>
<trkpt lat="52.909523" lon="-3.395487"><ele>597</ele><time>2020-09-03T10:40:43Z</time><name>PT1095</name></trkpt>
<trkpt lat="52.909514" lon="-3.395477"><ele>598</ele><time>2020-09-03T10:40:45Z</time><name>PT1096</name></trkpt>
<trkpt lat="52.909511" lon="-3.395471"><ele>598</ele><time>2020-09-03T10:40:45Z</time><name>PT1097</name></trkpt>
<trkpt lat="52.909503" lon="-3.395454"><ele>598</ele><time>2020-09-03T10:40:47Z</time><name>PT1098</name></trkpt>
<trkpt lat="52.909496" lon="-3.395441"><ele>598</ele><time>2020-09-03T10:40:47Z</time><name>PT1099</name></trkpt>
<trkpt lat="52.909489" lon="-3.395424"><ele>598</ele><time>2020-09-03T10:40:49Z</time><name>PT1100</name></trkpt>
<trkpt lat="52.909482" lon="-3.395408"><ele>598</ele><time>2020-09-03T10:40:49Z</time><name>PT1101</name></trkpt>
<trkpt lat="52.909475" lon="-3.395390"><ele>598</ele><time>2020-09-03T10:40:51Z</time><name>PT1102</name></trkpt>
<trkpt lat="52.909469" lon="-3.395372"><ele>597</ele><time>2020-09-03T10:40:52Z</time><name>PT1103</name></trkpt>
<trkpt lat="52.909463" lon="-3.395355"><ele>597</ele><time>2020-09-03T10:40:53Z</time><name>PT1104</name></trkpt>
<trkpt lat="52.909458" lon="-3.395340"><ele>597</ele><time>2020-09-03T10:40:53Z</time><name>PT1105</name></trkpt>
<trkpt lat="52.909454" lon="-3.395329"><ele>598</ele><time>2020-09-03T10:40:55Z</time><name>PT1106</name></trkpt>
<trkpt lat="52.909450" lon="-3.395317"><ele>598</ele><time>2020-09-03T10:40:55Z</time><name>PT1107</name></trkpt>
<trkpt lat="52.909443" lon="-3.395305"><ele>598</ele><time>2020-09-03T10:40:57Z</time><name>PT1108</name></trkpt>
<trkpt lat="52.909437" lon="-3.395293"><ele>598</ele><time>2020-09-03T10:40:57Z</time><name>PT1109</name></trkpt>
<trkpt lat="52.909434" lon="-3.395284"><ele>598</ele><time>2020-09-03T10:40:59Z</time><name>PT1110</name></trkpt>
<trkpt lat="52.909432" lon="-3.395272"><ele>598</ele><time>2020-09-03T10:40:59Z</time><name>PT1111</name></trkpt>
<trkpt lat="52.909429" lon="-3.395256"><ele>598</ele><time>2020-09-03T10:41:01Z</time><name>PT1112</name></trkpt>
<trkpt lat="52.909425" lon="-3.395240"><ele>598</ele><time>2020-09-03T10:41:02Z</time><name>PT1113</name></trkpt>
<trkpt lat="52.909424" lon="-3.395227"><ele>598</ele><time>2020-09-03T10:41:03Z</time><name>PT1114</name></trkpt>
<trkpt lat="52.909418" lon="-3.395213"><ele>598</ele><time>2020-09-03T10:41:03Z</time><name>PT1115</name></trkpt>
<trkpt lat="52.909414" lon="-3.395200"><ele>598</ele><time>2020-09-03T10:41:05Z</time><name>PT1116</name></trkpt>
<trkpt lat="52.909409" lon="-3.395179"><ele>598</ele><time>2020-09-03T10:41:05Z</time><name>PT1117</name></trkpt>
<trkpt lat="52.909404" lon="-3.395160"><ele>597</ele><time>2020-09-03T10:41:07Z</time><name>PT1118</name></trkpt>
<trkpt lat="52.909400" lon="-3.395144"><ele>597</ele><time>2020-09-03T10:41:07Z</time><name>PT1119</name></trkpt>
<trkpt lat="52.909396" lon="-3.395125"><ele>597</ele><time>2020-09-03T10:41:09Z</time><name>PT1120</name></trkpt>
<trkpt lat="52.909393" lon="-3.395108"><ele>598</ele><time>2020-09-03T10:41:09Z</time><name>PT1121</name></trkpt>
<trkpt lat="52.909388" lon="-3.395089"><ele>597</ele><time>2020-09-03T10:41:11Z</time><name>PT1122</name></trkpt>
<trkpt lat="52.909383" lon="-3.395074"><ele>598</ele><time>2020-09-03T10:41:12Z</time><name>PT1123</name></trkpt>
<trkpt lat="52.909379" lon="-3.395058"><ele>598</ele><time>2020-09-03T10:41:13Z</time><name>PT1124</name></trkpt>
<trkpt lat="52.909377" lon="-3.395040"><ele>597</ele><time>2020-09-03T10:41:14Z</time><name>PT1125</name></trkpt>
<trkpt lat="52.909372" lon="-3.395027"><ele>597</ele><time>2020-09-03T10:41:15Z</time><name>PT1126</name></trkpt>
<trkpt lat="52.909370" lon="-3.395018"><ele>597</ele><time>2020-09-03T10:41:16Z</time><name>PT1127</name></trkpt>
<trkpt lat="52.909367" lon="-3.395006"><ele>597</ele><time>2020-09-03T10:41:17Z</time><name>PT1128</name></trkpt>
<trkpt lat="52.909361" lon="-3.394989"><ele>597</ele><time>2020-09-03T10:41:18Z</time><name>PT1129</name></trkpt>
<trkpt lat="52.909355" lon="-3.394970"><ele>597</ele><time>2020-09-03T10:41:19Z</time><name>PT1130</name></trkpt>
<trkpt lat="52.909351" lon="-3.394955"><ele>597</ele><time>2020-09-03T10:41:20Z</time><name>PT1131</name></trkpt>
<trkpt lat="52.909347" lon="-3.394942"><ele>597</ele><time>2020-09-03T10:41:21Z</time><name>PT1132</name></trkpt>
<trkpt lat="52.909343" lon="-3.394925"><ele>597</ele><time>2020-09-03T10:41:22Z</time><name>PT1133</name></trkpt>
<trkpt lat="52.909336" lon="-3.394913"><ele>597</ele><time>2020-09-03T10:41:23Z</time><name>PT1134</name></trkpt>
<trkpt lat="52.909333" lon="-3.394900"><ele>597</ele><time>2020-09-03T10:41:24Z</time><name>PT1135</name></trkpt>
<trkpt lat="52.909330" lon="-3.394887"><ele>597</ele><time>2020-09-03T10:41:25Z</time><name>PT1136</name></trkpt>
<trkpt lat="52.909326" lon="-3.394874"><ele>597</ele><time>2020-09-03T10:41:26Z</time><name>PT1137</name></trkpt>
<trkpt lat="52.909321" lon="-3.394859"><ele>596</ele><time>2020-09-03T10:41:27Z</time><name>PT1138</name></trkpt>
<trkpt lat="52.909316" lon="-3.394840"><ele>596</ele><time>2020-09-03T10:41:28Z</time><name>PT1139</name></trkpt>
<trkpt lat="52.909310" lon="-3.394823"><ele>596</ele><time>2020-09-03T10:41:29Z</time><name>PT1140</name></trkpt>
<trkpt lat="52.909307" lon="-3.394810"><ele>596</ele><time>2020-09-03T10:41:30Z</time><name>PT1141</name></trkpt>
<trkpt lat="52.909304" lon="-3.394793"><ele>596</ele><time>2020-09-03T10:41:31Z</time><name>PT1142</name></trkpt>
<trkpt lat="52.909300" lon="-3.394779"><ele>595</ele><time>2020-09-03T10:41:32Z</time><name>PT1143</name></trkpt>
<trkpt lat="52.909293" lon="-3.394760"><ele>595</ele><time>2020-09-03T10:41:33Z</time><name>PT1144</name></trkpt>
<trkpt lat="52.909288" lon="-3.394743"><ele>596</ele><time>2020-09-03T10:41:34Z</time><name>PT1145</name></trkpt>
<trkpt lat="52.909285" lon="-3.394727"><ele>595</ele><time>2020-09-03T10:41:35Z</time><name>PT1146</name></trkpt>
<trkpt lat="52.909282" lon="-3.394716"><ele>595</ele><time>2020-09-03T10:41:36Z</time><name>PT1147</name></trkpt>
<trkpt lat="52.909279" lon="-3.394705"><ele>595</ele><time>2020-09-03T10:41:37Z</time><name>PT1148</name></trkpt>
<trkpt lat="52.909276" lon="-3.394691"><ele>595</ele><time>2020-09-03T10:41:38Z</time><name>PT1149</name></trkpt>
<trkpt lat="52.909276" lon="-3.394692"><ele>595</ele><time>2020-09-03T10:41:39Z</time><name>PT1150</name></trkpt>
<trkpt lat="52.909276" lon="-3.394692"><ele>595</ele><time>2020-09-03T10:41:39Z</time><name>PT1151</name></trkpt>
<trkpt lat="52.909276" lon="-3.394682"><ele>595</ele><time>2020-09-03T10:41:41Z</time><name>PT1152</name></trkpt>
<trkpt lat="52.909273" lon="-3.394665"><ele>595</ele><time>2020-09-03T10:41:41Z</time><name>PT1153</name></trkpt>
<trkpt lat="52.909272" lon="-3.394649"><ele>595</ele><time>2020-09-03T10:41:43Z</time><name>PT1154</name></trkpt>
<trkpt lat="52.909267" lon="-3.394629"><ele>595</ele><time>2020-09-03T10:41:43Z</time><name>PT1155</name></trkpt>
<trkpt lat="52.909261" lon="-3.394609"><ele>596</ele><time>2020-09-03T10:41:45Z</time><name>PT1156</name></trkpt>
<trkpt lat="52.909259" lon="-3.394596"><ele>596</ele><time>2020-09-03T10:41:45Z</time><name>PT1157</name></trkpt>
<trkpt lat="52.909256" lon="-3.394577"><ele>596</ele><time>2020-09-03T10:41:47Z</time><name>PT1158</name></trkpt>
<trkpt lat="52.909256" lon="-3.394563"><ele>596</ele><time>2020-09-03T10:41:47Z</time><name>PT1159</name></trkpt>
<trkpt lat="52.909257" lon="-3.394545"><ele>596</ele><time>2020-09-03T10:41:49Z</time><name>PT1160</name></trkpt>
<trkpt lat="52.909254" lon="-3.394522"><ele>597</ele><time>2020-09-03T10:41:49Z</time><name>PT1161</name></trkpt>
<trkpt lat="52.909253" lon="-3.394500"><ele>597</ele><time>2020-09-03T10:41:51Z</time><name>PT1162</name></trkpt>
<trkpt lat="52.909251" lon="-3.394483"><ele>597</ele><time>2020-09-03T10:41:51Z</time><name>PT1163</name></trkpt>
<trkpt lat="52.909248" lon="-3.394464"><ele>597</ele><time>2020-09-03T10:41:53Z</time><name>PT1164</name></trkpt>
<trkpt lat="52.909247" lon="-3.394445"><ele>597</ele><time>2020-09-03T10:41:53Z</time><name>PT1165</name></trkpt>
<trkpt lat="52.909245" lon="-3.394423"><ele>597</ele><time>2020-09-03T10:41:55Z</time><name>PT1166</name></trkpt>
<trkpt lat="52.909244" lon="-3.394397"><ele>597</ele><time>2020-09-03T10:41:55Z</time><name>PT1167</name></trkpt>
<trkpt lat="52.909238" lon="-3.394374"><ele>598</ele><time>2020-09-03T10:41:57Z</time><name>PT1168</name></trkpt>
<trkpt lat="52.909237" lon="-3.394357"><ele>598</ele><time>2020-09-03T10:41:57Z</time><name>PT1169</name></trkpt>
<trkpt lat="52.909234" lon="-3.394339"><ele>598</ele><time>2020-09-03T10:41:59Z</time><name>PT1170</name></trkpt>
<trkpt lat="52.909231" lon="-3.394323"><ele>598</ele><time>2020-09-03T10:41:59Z</time><name>PT1171</name></trkpt>
<trkpt lat="52.909229" lon="-3.394306"><ele>598</ele><time>2020-09-03T10:42:01Z</time><name>PT1172</name></trkpt>
<trkpt lat="52.909227" lon="-3.394289"><ele>598</ele><time>2020-09-03T10:42:01Z</time><name>PT1173</name></trkpt>
<trkpt lat="52.909225" lon="-3.394274"><ele>598</ele><time>2020-09-03T10:42:03Z</time><name>PT1174</name></trkpt>
<trkpt lat="52.909222" lon="-3.394259"><ele>598</ele><time>2020-09-03T10:42:03Z</time><name>PT1175</name></trkpt>
<trkpt lat="52.909220" lon="-3.394245"><ele>598</ele><time>2020-09-03T10:42:05Z</time><name>PT1176</name></trkpt>
<trkpt lat="52.909216" lon="-3.394229"><ele>598</ele><time>2020-09-03T10:42:05Z</time><name>PT1177</name></trkpt>
<trkpt lat="52.909213" lon="-3.394215"><ele>598</ele><time>2020-09-03T10:42:07Z</time><name>PT1178</name></trkpt>
<trkpt lat="52.909210" lon="-3.394200"><ele>598</ele><time>2020-09-03T10:42:07Z</time><name>PT1179</name></trkpt>
<trkpt lat="52.909208" lon="-3.394182"><ele>598</ele><time>2020-09-03T10:42:09Z</time><name>PT1180</name></trkpt>
<trkpt lat="52.909204" lon="-3.394164"><ele>598</ele><time>2020-09-03T10:42:09Z</time><name>PT1181</name></trkpt>
<trkpt lat="52.909201" lon="-3.394146"><ele>598</ele><time>2020-09-03T10:42:11Z</time><name>PT1182</name></trkpt>
<trkpt lat="52.909197" lon="-3.394123"><ele>598</ele><time>2020-09-03T10:42:11Z</time><name>PT1183</name></trkpt>
<trkpt lat="52.909193" lon="-3.394104"><ele>598</ele><time>2020-09-03T10:42:13Z</time><name>PT1184</name></trkpt>
<trkpt lat="52.909190" lon="-3.394084"><ele>598</ele><time>2020-09-03T10:42:14Z</time><name>PT1185</name></trkpt>
<trkpt lat="52.909187" lon="-3.394062"><ele>598</ele><time>2020-09-03T10:42:15Z</time><name>PT1186</name></trkpt>
<trkpt lat="52.909182" lon="-3.394045"><ele>598</ele><time>2020-09-03T10:42:16Z</time><name>PT1187</name></trkpt>
<trkpt lat="52.909178" lon="-3.394026"><ele>598</ele><time>2020-09-03T10:42:17Z</time><name>PT1188</name></trkpt>
<trkpt lat="52.909177" lon="-3.394011"><ele>598</ele><time>2020-09-03T10:42:18Z</time><name>PT1189</name></trkpt>
<trkpt lat="52.909177" lon="-3.393998"><ele>598</ele><time>2020-09-03T10:42:19Z</time><name>PT1190</name></trkpt>
<trkpt lat="52.909173" lon="-3.393985"><ele>597</ele><time>2020-09-03T10:42:20Z</time><name>PT1191</name></trkpt>
<trkpt lat="52.909170" lon="-3.393968"><ele>597</ele><time>2020-09-03T10:42:21Z</time><name>PT1192</name></trkpt>
<trkpt lat="52.909162" lon="-3.393952"><ele>597</ele><time>2020-09-03T10:42:22Z</time><name>PT1193</name></trkpt>
<trkpt lat="52.909155" lon="-3.393937"><ele>597</ele><time>2020-09-03T10:42:23Z</time><name>PT1194</name></trkpt>
<trkpt lat="52.909149" lon="-3.393920"><ele>598</ele><time>2020-09-03T10:42:24Z</time><name>PT1195</name></trkpt>
<trkpt lat="52.909143" lon="-3.393905"><ele>598</ele><time>2020-09-03T10:42:25Z</time><name>PT1196</name></trkpt>
<trkpt lat="52.909134" lon="-3.393889"><ele>598</ele><time>2020-09-03T10:42:26Z</time><name>PT1197</name></trkpt>
<trkpt lat="52.909128" lon="-3.393873"><ele>598</ele><time>2020-09-03T10:42:27Z</time><name>PT1198</name></trkpt>
<trkpt lat="52.909124" lon="-3.393856"><ele>598</ele><time>2020-09-03T10:42:28Z</time><name>PT1199</name></trkpt>
<trkpt lat="52.909119" lon="-3.393842"><ele>598</ele><time>2020-09-03T10:42:29Z</time><name>PT1200</name></trkpt>
<trkpt lat="52.909113" lon="-3.393825"><ele>598</ele><time>2020-09-03T10:42:30Z</time><name>PT1201</name></trkpt>
<trkpt lat="52.909109" lon="-3.393805"><ele>598</ele><time>2020-09-03T10:42:31Z</time><name>PT1202</name></trkpt>
<trkpt lat="52.909106" lon="-3.393789"><ele>599</ele><time>2020-09-03T10:42:32Z</time><name>PT1203</name></trkpt>
<trkpt lat="52.909103" lon="-3.393771"><ele>599</ele><time>2020-09-03T10:42:33Z</time><name>PT1204</name></trkpt>
<trkpt lat="52.909099" lon="-3.393747"><ele>598</ele><time>2020-09-03T10:42:34Z</time><name>PT1205</name></trkpt>
<trkpt lat="52.909092" lon="-3.393729"><ele>599</ele><time>2020-09-03T10:42:35Z</time><name>PT1206</name></trkpt>
<trkpt lat="52.909086" lon="-3.393714"><ele>598</ele><time>2020-09-03T10:42:36Z</time><name>PT1207</name></trkpt>
<trkpt lat="52.909081" lon="-3.393695"><ele>598</ele><time>2020-09-03T10:42:37Z</time><name>PT1208</name></trkpt>
<trkpt lat="52.909073" lon="-3.393679"><ele>598</ele><time>2020-09-03T10:42:38Z</time><name>PT1209</name></trkpt>
<trkpt lat="52.909065" lon="-3.393667"><ele>599</ele><time>2020-09-03T10:42:39Z</time><name>PT1210</name></trkpt>
<trkpt lat="52.909059" lon="-3.393651"><ele>598</ele><time>2020-09-03T10:42:40Z</time><name>PT1211</name></trkpt>
<trkpt lat="52.909063" lon="-3.393635"><ele>598</ele><time>2020-09-03T10:42:41Z</time><name>PT1212</name></trkpt>
<trkpt lat="52.909063" lon="-3.393616"><ele>598</ele><time>2020-09-03T10:42:42Z</time><name>PT1213</name></trkpt>
<trkpt lat="52.909061" lon="-3.393599"><ele>598</ele><time>2020-09-03T10:42:42Z</time><name>PT1214</name></trkpt>
<trkpt lat="52.909059" lon="-3.393582"><ele>598</ele><time>2020-09-03T10:42:44Z</time><name>PT1215</name></trkpt>
<trkpt lat="52.909056" lon="-3.393569"><ele>598</ele><time>2020-09-03T10:42:44Z</time><name>PT1216</name></trkpt>
<trkpt lat="52.909053" lon="-3.393553"><ele>598</ele><time>2020-09-03T10:42:46Z</time><name>PT1217</name></trkpt>
<trkpt lat="52.909045" lon="-3.393491"><ele>598</ele><time>2020-09-03T10:42:50Z</time><name>PT1218</name></trkpt>
<trkpt lat="52.909040" lon="-3.393429"><ele>599</ele><time>2020-09-03T10:42:54Z</time><name>PT1219</name></trkpt>
<trkpt lat="52.909027" lon="-3.393348"><ele>600</ele><time>2020-09-03T10:42:58Z</time><name>PT1220</name></trkpt>
<trkpt lat="52.909013" lon="-3.393285"><ele>600</ele><time>2020-09-03T10:43:02Z</time><name>PT1221</name></trkpt>
<trkpt lat="52.909003" lon="-3.393232"><ele>599</ele><time>2020-09-03T10:43:06Z</time><name>PT1222</name></trkpt>
<trkpt lat="52.908990" lon="-3.393175"><ele>599</ele><time>2020-09-03T10:43:10Z</time><name>PT1223</name></trkpt>
<trkpt lat="52.908971" lon="-3.393108"><ele>598</ele><time>2020-09-03T10:43:14Z</time><name>PT1224</name></trkpt>
<trkpt lat="52.908948" lon="-3.393055"><ele>598</ele><time>2020-09-03T10:43:18Z</time><name>PT1225</name></trkpt>
<trkpt lat="52.908918" lon="-3.392999"><ele>598</ele><time>2020-09-03T10:43:22Z</time><name>PT1226</name></trkpt>
<trkpt lat="52.908888" lon="-3.392931"><ele>598</ele><time>2020-09-03T10:43:26Z</time><name>PT1227</name></trkpt>
<trkpt lat="52.908860" lon="-3.392877"><ele>598</ele><time>2020-09-03T10:43:30Z</time><name>PT1228</name></trkpt>
<trkpt lat="52.908834" lon="-3.392828"><ele>598</ele><time>2020-09-03T10:43:34Z</time><name>PT1229</name></trkpt>
<trkpt lat="52.908806" lon="-3.392772"><ele>598</ele><time>2020-09-03T10:43:38Z</time><name>PT1230</name></trkpt>
<trkpt lat="52.908774" lon="-3.392710"><ele>599</ele><time>2020-09-03T10:43:42Z</time><name>PT1231</name></trkpt>
<trkpt lat="52.908744" lon="-3.392653"><ele>599</ele><time>2020-09-03T10:43:46Z</time><name>PT1232</name></trkpt>
<trkpt lat="52.908719" lon="-3.392595"><ele>599</ele><time>2020-09-03T10:43:50Z</time><name>PT1233</name></trkpt>
<trkpt lat="52.908695" lon="-3.392527"><ele>600</ele><time>2020-09-03T10:43:54Z</time><name>PT1234</name></trkpt>
<trkpt lat="52.908673" lon="-3.392462"><ele>599</ele><time>2020-09-03T10:43:58Z</time><name>PT1235</name></trkpt>
<trkpt lat="52.908649" lon="-3.392395"><ele>599</ele><time>2020-09-03T10:44:02Z</time><name>PT1236</name></trkpt>
<trkpt lat="52.908638" lon="-3.392374"><ele>600</ele><time>2020-09-03T10:44:06Z</time><name>PT1237</name></trkpt>
<trkpt lat="52.908627" lon="-3.392361"><ele>600</ele><time>2020-09-03T10:44:14Z</time><name>PT1238</name></trkpt>
<trkpt lat="52.908607" lon="-3.392282"><ele>599</ele><time>2020-09-03T10:44:18Z</time><name>PT1239</name></trkpt>
<trkpt lat="52.908595" lon="-3.392223"><ele>599</ele><time>2020-09-03T10:44:22Z</time><name>PT1240</name></trkpt>
<trkpt lat="52.908572" lon="-3.392158"><ele>599</ele><time>2020-09-03T10:44:26Z</time><name>PT1241</name></trkpt>
<trkpt lat="52.908552" lon="-3.392093"><ele>599</ele><time>2020-09-03T10:44:30Z</time><name>PT1242</name></trkpt>
<trkpt lat="52.908535" lon="-3.392035"><ele>599</ele><time>2020-09-03T10:44:34Z</time><name>PT1243</name></trkpt>
<trkpt lat="52.908517" lon="-3.391971"><ele>600</ele><time>2020-09-03T10:44:38Z</time><name>PT1244</name></trkpt>
<trkpt lat="52.908489" lon="-3.391903"><ele>603</ele><time>2020-09-03T10:44:42Z</time><name>PT1245</name></trkpt>
<trkpt lat="52.908469" lon="-3.391838"><ele>604</ele><time>2020-09-03T10:44:46Z</time><name>PT1246</name></trkpt>
<trkpt lat="52.908446" lon="-3.391770"><ele>603</ele><time>2020-09-03T10:44:50Z</time><name>PT1247</name></trkpt>
<trkpt lat="52.908430" lon="-3.391702"><ele>602</ele><time>2020-09-03T10:44:54Z</time><name>PT1248</name></trkpt>
<trkpt lat="52.908413" lon="-3.391643"><ele>602</ele><time>2020-09-03T10:44:58Z</time><name>PT1249</name></trkpt>
<trkpt lat="52.908389" lon="-3.391589"><ele>602</ele><time>2020-09-03T10:45:02Z</time><name>PT1250</name></trkpt>
<trkpt lat="52.908369" lon="-3.391539"><ele>602</ele><time>2020-09-03T10:45:06Z</time><name>PT1251</name></trkpt>
<trkpt lat="52.908350" lon="-3.391490"><ele>602</ele><time>2020-09-03T10:45:10Z</time><name>PT1252</name></trkpt>
<trkpt lat="52.908328" lon="-3.391434"><ele>603</ele><time>2020-09-03T10:45:14Z</time><name>PT1253</name></trkpt>
<trkpt lat="52.908309" lon="-3.391366"><ele>603</ele><time>2020-09-03T10:45:18Z</time><name>PT1254</name></trkpt>
<trkpt lat="52.908283" lon="-3.391317"><ele>604</ele><time>2020-09-03T10:45:22Z</time><name>PT1255</name></trkpt>
<trkpt lat="52.908253" lon="-3.391257"><ele>606</ele><time>2020-09-03T10:45:26Z</time><name>PT1256</name></trkpt>
<trkpt lat="52.908224" lon="-3.391191"><ele>607</ele><time>2020-09-03T10:45:30Z</time><name>PT1257</name></trkpt>
<trkpt lat="52.908200" lon="-3.391131"><ele>607</ele><time>2020-09-03T10:45:34Z</time><name>PT1258</name></trkpt>
<trkpt lat="52.908177" lon="-3.391072"><ele>608</ele><time>2020-09-03T10:45:38Z</time><name>PT1259</name></trkpt>
<trkpt lat="52.908155" lon="-3.391011"><ele>609</ele><time>2020-09-03T10:45:42Z</time><name>PT1260</name></trkpt>
<trkpt lat="52.908135" lon="-3.390967"><ele>610</ele><time>2020-09-03T10:45:46Z</time><name>PT1261</name></trkpt>
<trkpt lat="52.908106" lon="-3.390915"><ele>610</ele><time>2020-09-03T10:45:50Z</time><name>PT1262</name></trkpt>
<trkpt lat="52.908082" lon="-3.390863"><ele>611</ele><time>2020-09-03T10:45:54Z</time><name>PT1263</name></trkpt>
<trkpt lat="52.908058" lon="-3.390828"><ele>611</ele><time>2020-09-03T10:45:57Z</time><name>PT1264</name></trkpt>
<trkpt lat="52.908037" lon="-3.390783"><ele>612</ele><time>2020-09-03T10:46:00Z</time><name>PT1265</name></trkpt>
<trkpt lat="52.908019" lon="-3.390758"><ele>612</ele><time>2020-09-03T10:46:04Z</time><name>PT1266</name></trkpt>
<trkpt lat="52.907996" lon="-3.390717"><ele>611</ele><time>2020-09-03T10:46:08Z</time><name>PT1267</name></trkpt>
<trkpt lat="52.907976" lon="-3.390685"><ele>611</ele><time>2020-09-03T10:46:12Z</time><name>PT1268</name></trkpt>
<trkpt lat="52.907961" lon="-3.390637"><ele>612</ele><time>2020-09-03T10:46:16Z</time><name>PT1269</name></trkpt>
<trkpt lat="52.907944" lon="-3.390600"><ele>612</ele><time>2020-09-03T10:46:20Z</time><name>PT1270</name></trkpt>
<trkpt lat="52.907926" lon="-3.390566"><ele>613</ele><time>2020-09-03T10:46:24Z</time><name>PT1271</name></trkpt>
<trkpt lat="52.907899" lon="-3.390519"><ele>614</ele><time>2020-09-03T10:46:28Z</time><name>PT1272</name></trkpt>
<trkpt lat="52.907874" lon="-3.390475"><ele>614</ele><time>2020-09-03T10:46:32Z</time><name>PT1273</name></trkpt>
<trkpt lat="52.907856" lon="-3.390421"><ele>615</ele><time>2020-09-03T10:46:36Z</time><name>PT1274</name></trkpt>
<trkpt lat="52.907845" lon="-3.390382"><ele>615</ele><time>2020-09-03T10:46:40Z</time><name>PT1275</name></trkpt>
<trkpt lat="52.907829" lon="-3.390342"><ele>615</ele><time>2020-09-03T10:46:44Z</time><name>PT1276</name></trkpt>
<trkpt lat="52.907806" lon="-3.390307"><ele>616</ele><time>2020-09-03T10:46:48Z</time><name>PT1277</name></trkpt>
<trkpt lat="52.907791" lon="-3.390275"><ele>616</ele><time>2020-09-03T10:46:52Z</time><name>PT1278</name></trkpt>
<trkpt lat="52.907766" lon="-3.390237"><ele>616</ele><time>2020-09-03T10:46:56Z</time><name>PT1279</name></trkpt>
<trkpt lat="52.907744" lon="-3.390195"><ele>616</ele><time>2020-09-03T10:47:00Z</time><name>PT1280</name></trkpt>
<trkpt lat="52.907722" lon="-3.390137"><ele>617</ele><time>2020-09-03T10:47:04Z</time><name>PT1281</name></trkpt>
<trkpt lat="52.907706" lon="-3.390078"><ele>617</ele><time>2020-09-03T10:47:08Z</time><name>PT1282</name></trkpt>
<trkpt lat="52.907695" lon="-3.390019"><ele>617</ele><time>2020-09-03T10:47:12Z</time><name>PT1283</name></trkpt>
<trkpt lat="52.907682" lon="-3.389963"><ele>617</ele><time>2020-09-03T10:47:16Z</time><name>PT1284</name></trkpt>
<trkpt lat="52.907665" lon="-3.389905"><ele>617</ele><time>2020-09-03T10:47:20Z</time><name>PT1285</name></trkpt>
<trkpt lat="52.907648" lon="-3.389835"><ele>617</ele><time>2020-09-03T10:47:24Z</time><name>PT1286</name></trkpt>
<trkpt lat="52.907625" lon="-3.389777"><ele>617</ele><time>2020-09-03T10:47:28Z</time><name>PT1287</name></trkpt>
<trkpt lat="52.907602" lon="-3.389719"><ele>617</ele><time>2020-09-03T10:47:32Z</time><name>PT1288</name></trkpt>
<trkpt lat="52.907580" lon="-3.389659"><ele>619</ele><time>2020-09-03T10:47:36Z</time><name>PT1289</name></trkpt>
<trkpt lat="52.907560" lon="-3.389598"><ele>620</ele><time>2020-09-03T10:47:40Z</time><name>PT1290</name></trkpt>
<trkpt lat="52.907535" lon="-3.389543"><ele>620</ele><time>2020-09-03T10:47:44Z</time><name>PT1291</name></trkpt>
<trkpt lat="52.907519" lon="-3.389475"><ele>620</ele><time>2020-09-03T10:47:48Z</time><name>PT1292</name></trkpt>
<trkpt lat="52.907495" lon="-3.389411"><ele>621</ele><time>2020-09-03T10:47:52Z</time><name>PT1293</name></trkpt>
<trkpt lat="52.907475" lon="-3.389350"><ele>622</ele><time>2020-09-03T10:47:56Z</time><name>PT1294</name></trkpt>
<trkpt lat="52.907452" lon="-3.389287"><ele>622</ele><time>2020-09-03T10:48:00Z</time><name>PT1295</name></trkpt>
<trkpt lat="52.907430" lon="-3.389227"><ele>622</ele><time>2020-09-03T10:48:04Z</time><name>PT1296</name></trkpt>
<trkpt lat="52.907404" lon="-3.389164"><ele>622</ele><time>2020-09-03T10:48:08Z</time><name>PT1297</name></trkpt>
<trkpt lat="52.907382" lon="-3.389102"><ele>622</ele><time>2020-09-03T10:48:12Z</time><name>PT1298</name></trkpt>
<trkpt lat="52.907352" lon="-3.389042"><ele>623</ele><time>2020-09-03T10:48:16Z</time><name>PT1299</name></trkpt>
<trkpt lat="52.907325" lon="-3.388983"><ele>624</ele><time>2020-09-03T10:48:20Z</time><name>PT1300</name></trkpt>
<trkpt lat="52.907295" lon="-3.388931"><ele>624</ele><time>2020-09-03T10:48:24Z</time><name>PT1301</name></trkpt>
<trkpt lat="52.907271" lon="-3.388875"><ele>625</ele><time>2020-09-03T10:48:28Z</time><name>PT1302</name></trkpt>
<trkpt lat="52.907249" lon="-3.388823"><ele>625</ele><time>2020-09-03T10:48:32Z</time><name>PT1303</name></trkpt>
<trkpt lat="52.907228" lon="-3.388770"><ele>626</ele><time>2020-09-03T10:48:36Z</time><name>PT1304</name></trkpt>
<trkpt lat="52.907207" lon="-3.388712"><ele>627</ele><time>2020-09-03T10:48:40Z</time><name>PT1305</name></trkpt>
<trkpt lat="52.907170" lon="-3.388664"><ele>628</ele><time>2020-09-03T10:48:44Z</time><name>PT1306</name></trkpt>
<trkpt lat="52.907149" lon="-3.388613"><ele>628</ele><time>2020-09-03T10:48:48Z</time><name>PT1307</name></trkpt>
<trkpt lat="52.907127" lon="-3.388556"><ele>628</ele><time>2020-09-03T10:48:52Z</time><name>PT1308</name></trkpt>
<trkpt lat="52.907101" lon="-3.388500"><ele>628</ele><time>2020-09-03T10:48:56Z</time><name>PT1309</name></trkpt>
<trkpt lat="52.907073" lon="-3.388444"><ele>629</ele><time>2020-09-03T10:49:00Z</time><name>PT1310</name></trkpt>
<trkpt lat="52.907047" lon="-3.388399"><ele>631</ele><time>2020-09-03T10:49:04Z</time><name>PT1311</name></trkpt>
<trkpt lat="52.907027" lon="-3.388362"><ele>630</ele><time>2020-09-03T10:49:08Z</time><name>PT1312</name></trkpt>
<trkpt lat="52.907006" lon="-3.388326"><ele>631</ele><time>2020-09-03T10:49:12Z</time><name>PT1313</name></trkpt>
<trkpt lat="52.906983" lon="-3.388294"><ele>631</ele><time>2020-09-03T10:49:16Z</time><name>PT1314</name></trkpt>
<trkpt lat="52.906963" lon="-3.388265"><ele>632</ele><time>2020-09-03T10:49:20Z</time><name>PT1315</name></trkpt>
<trkpt lat="52.906937" lon="-3.388218"><ele>632</ele><time>2020-09-03T10:49:24Z</time><name>PT1316</name></trkpt>
<trkpt lat="52.906909" lon="-3.388190"><ele>632</ele><time>2020-09-03T10:49:28Z</time><name>PT1317</name></trkpt>
<trkpt lat="52.906881" lon="-3.388159"><ele>633</ele><time>2020-09-03T10:49:32Z</time><name>PT1318</name></trkpt>
<trkpt lat="52.906855" lon="-3.388112"><ele>634</ele><time>2020-09-03T10:49:36Z</time><name>PT1319</name></trkpt>
<trkpt lat="52.906827" lon="-3.388071"><ele>634</ele><time>2020-09-03T10:49:40Z</time><name>PT1320</name></trkpt>
<trkpt lat="52.906805" lon="-3.388035"><ele>635</ele><time>2020-09-03T10:49:44Z</time><name>PT1321</name></trkpt>
<trkpt lat="52.906781" lon="-3.388002"><ele>636</ele><time>2020-09-03T10:49:48Z</time><name>PT1322</name></trkpt>
<trkpt lat="52.906759" lon="-3.387969"><ele>636</ele><time>2020-09-03T10:49:52Z</time><name>PT1323</name></trkpt>
<trkpt lat="52.906732" lon="-3.387943"><ele>637</ele><time>2020-09-03T10:49:56Z</time><name>PT1324</name></trkpt>
<trkpt lat="52.906718" lon="-3.387908"><ele>637</ele><time>2020-09-03T10:50:00Z</time><name>PT1325</name></trkpt>
<trkpt lat="52.906695" lon="-3.387864"><ele>638</ele><time>2020-09-03T10:50:04Z</time><name>PT1326</name></trkpt>
<trkpt lat="52.906675" lon="-3.387825"><ele>639</ele><time>2020-09-03T10:50:08Z</time><name>PT1327</name></trkpt>
<trkpt lat="52.906654" lon="-3.387791"><ele>640</ele><time>2020-09-03T10:50:12Z</time><name>PT1328</name></trkpt>
<trkpt lat="52.906630" lon="-3.387756"><ele>640</ele><time>2020-09-03T10:50:16Z</time><name>PT1329</name></trkpt>
<trkpt lat="52.906612" lon="-3.387702"><ele>641</ele><time>2020-09-03T10:50:20Z</time><name>PT1330</name></trkpt>
<trkpt lat="52.906583" lon="-3.387672"><ele>641</ele><time>2020-09-03T10:50:24Z</time><name>PT1331</name></trkpt>
<trkpt lat="52.906558" lon="-3.387629"><ele>641</ele><time>2020-09-03T10:50:28Z</time><name>PT1332</name></trkpt>
<trkpt lat="52.906522" lon="-3.387578"><ele>642</ele><time>2020-09-03T10:50:32Z</time><name>PT1333</name></trkpt>
<trkpt lat="52.906495" lon="-3.387541"><ele>643</ele><time>2020-09-03T10:50:36Z</time><name>PT1334</name></trkpt>
<trkpt lat="52.906474" lon="-3.387500"><ele>644</ele><time>2020-09-03T10:50:40Z</time><name>PT1335</name></trkpt>
<trkpt lat="52.906438" lon="-3.387467"><ele>644</ele><time>2020-09-03T10:50:44Z</time><name>PT1336</name></trkpt>
<trkpt lat="52.906418" lon="-3.387422"><ele>644</ele><time>2020-09-03T10:50:48Z</time><name>PT1337</name></trkpt>
<trkpt lat="52.906392" lon="-3.387382"><ele>644</ele><time>2020-09-03T10:50:52Z</time><name>PT1338</name></trkpt>
<trkpt lat="52.906370" lon="-3.387368"><ele>645</ele><time>2020-09-03T10:50:56Z</time><name>PT1339</name></trkpt>
<trkpt lat="52.906341" lon="-3.387349"><ele>646</ele><time>2020-09-03T10:51:00Z</time><name>PT1340</name></trkpt>
<trkpt lat="52.906314" lon="-3.387329"><ele>645</ele><time>2020-09-03T10:51:04Z</time><name>PT1341</name></trkpt>
<trkpt lat="52.906294" lon="-3.387309"><ele>647</ele><time>2020-09-03T10:51:08Z</time><name>PT1342</name></trkpt>
<trkpt lat="52.906270" lon="-3.387281"><ele>647</ele><time>2020-09-03T10:51:12Z</time><name>PT1343</name></trkpt>
<trkpt lat="52.906247" lon="-3.387246"><ele>648</ele><time>2020-09-03T10:51:16Z</time><name>PT1344</name></trkpt>
<trkpt lat="52.906223" lon="-3.387217"><ele>648</ele><time>2020-09-03T10:51:20Z</time><name>PT1345</name></trkpt>
<trkpt lat="52.906207" lon="-3.387188"><ele>650</ele><time>2020-09-03T10:51:24Z</time><name>PT1346</name></trkpt>
<trkpt lat="52.906188" lon="-3.387154"><ele>649</ele><time>2020-09-03T10:51:28Z</time><name>PT1347</name></trkpt>
<trkpt lat="52.906168" lon="-3.387126"><ele>650</ele><time>2020-09-03T10:51:32Z</time><name>PT1348</name></trkpt>
<trkpt lat="52.906152" lon="-3.387116"><ele>651</ele><time>2020-09-03T10:51:36Z</time><name>PT1349</name></trkpt>
<trkpt lat="52.906125" lon="-3.387082"><ele>651</ele><time>2020-09-03T10:51:40Z</time><name>PT1350</name></trkpt>
<trkpt lat="52.906100" lon="-3.387055"><ele>653</ele><time>2020-09-03T10:51:44Z</time><name>PT1351</name></trkpt>
<trkpt lat="52.906074" lon="-3.387036"><ele>654</ele><time>2020-09-03T10:51:46Z</time><name>PT1352</name></trkpt>
<trkpt lat="52.906066" lon="-3.387026"><ele>654</ele><time>2020-09-03T10:51:48Z</time><name>PT1353</name></trkpt>
<trkpt lat="52.906056" lon="-3.387021"><ele>654</ele><time>2020-09-03T10:51:48Z</time><name>PT1354</name></trkpt>
<trkpt lat="52.906047" lon="-3.387016"><ele>655</ele><time>2020-09-03T10:51:50Z</time><name>PT1355</name></trkpt>
<trkpt lat="52.906040" lon="-3.387011"><ele>655</ele><time>2020-09-03T10:51:50Z</time><name>PT1356</name></trkpt>
<trkpt lat="52.906035" lon="-3.387006"><ele>655</ele><time>2020-09-03T10:51:52Z</time><name>PT1357</name></trkpt>
<trkpt lat="52.906030" lon="-3.387002"><ele>655</ele><time>2020-09-03T10:51:52Z</time><name>PT1358</name></trkpt>
<trkpt lat="52.906024" lon="-3.386997"><ele>656</ele><time>2020-09-03T10:51:54Z</time><name>PT1359</name></trkpt>
<trkpt lat="52.906019" lon="-3.386990"><ele>656</ele><time>2020-09-03T10:51:54Z</time><name>PT1360</name></trkpt>
<trkpt lat="52.906015" lon="-3.386979"><ele>656</ele><time>2020-09-03T10:51:56Z</time><name>PT1361</name></trkpt>
<trkpt lat="52.906008" lon="-3.386972"><ele>656</ele><time>2020-09-03T10:51:56Z</time><name>PT1362</name></trkpt>
<trkpt lat="52.906001" lon="-3.386965"><ele>656</ele><time>2020-09-03T10:51:58Z</time><name>PT1363</name></trkpt>
<trkpt lat="52.905995" lon="-3.386957"><ele>657</ele><time>2020-09-03T10:51:58Z</time><name>PT1364</name></trkpt>
<trkpt lat="52.905989" lon="-3.386949"><ele>657</ele><time>2020-09-03T10:52:00Z</time><name>PT1365</name></trkpt>
<trkpt lat="52.905982" lon="-3.386944"><ele>657</ele><time>2020-09-03T10:52:00Z</time><name>PT1366</name></trkpt>
<trkpt lat="52.905975" lon="-3.386937"><ele>658</ele><time>2020-09-03T10:52:02Z</time><name>PT1367</name></trkpt>
<trkpt lat="52.905968" lon="-3.386930"><ele>658</ele><time>2020-09-03T10:52:02Z</time><name>PT1368</name></trkpt>
<trkpt lat="52.905961" lon="-3.386923"><ele>658</ele><time>2020-09-03T10:52:04Z</time><name>PT1369</name></trkpt>
<trkpt lat="52.905952" lon="-3.386914"><ele>658</ele><time>2020-09-03T10:52:04Z</time><name>PT1370</name></trkpt>
<trkpt lat="52.905946" lon="-3.386904"><ele>658</ele><time>2020-09-03T10:52:06Z</time><name>PT1371</name></trkpt>
<trkpt lat="52.905940" lon="-3.386896"><ele>659</ele><time>2020-09-03T10:52:06Z</time><name>PT1372</name></trkpt>
<trkpt lat="52.905934" lon="-3.386887"><ele>659</ele><time>2020-09-03T10:52:08Z</time><name>PT1373</name></trkpt>
<trkpt lat="52.905928" lon="-3.386876"><ele>659</ele><time>2020-09-03T10:52:09Z</time><name>PT1374</name></trkpt>
<trkpt lat="52.905922" lon="-3.386865"><ele>659</ele><time>2020-09-03T10:52:10Z</time><name>PT1375</name></trkpt>
<trkpt lat="52.905916" lon="-3.386855"><ele>660</ele><time>2020-09-03T10:52:11Z</time><name>PT1376</name></trkpt>
<trkpt lat="52.905912" lon="-3.386845"><ele>660</ele><time>2020-09-03T10:52:12Z</time><name>PT1377</name></trkpt>
<trkpt lat="52.905908" lon="-3.386834"><ele>660</ele><time>2020-09-03T10:52:13Z</time><name>PT1378</name></trkpt>
<trkpt lat="52.905907" lon="-3.386826"><ele>660</ele><time>2020-09-03T10:52:14Z</time><name>PT1379</name></trkpt>
<trkpt lat="52.905903" lon="-3.386818"><ele>660</ele><time>2020-09-03T10:52:15Z</time><name>PT1380</name></trkpt>
<trkpt lat="52.905899" lon="-3.386810"><ele>661</ele><time>2020-09-03T10:52:16Z</time><name>PT1381</name></trkpt>
<trkpt lat="52.905899" lon="-3.386796"><ele>661</ele><time>2020-09-03T10:52:16Z</time><name>PT1382</name></trkpt>
<trkpt lat="52.905899" lon="-3.386782"><ele>661</ele><time>2020-09-03T10:52:18Z</time><name>PT1383</name></trkpt>
<trkpt lat="52.905898" lon="-3.386772"><ele>661</ele><time>2020-09-03T10:52:18Z</time><name>PT1384</name></trkpt>
<trkpt lat="52.905894" lon="-3.386765"><ele>662</ele><time>2020-09-03T10:52:20Z</time><name>PT1385</name></trkpt>
<trkpt lat="52.905891" lon="-3.386754"><ele>662</ele><time>2020-09-03T10:52:20Z</time><name>PT1386</name></trkpt>
<trkpt lat="52.905889" lon="-3.386740"><ele>662</ele><time>2020-09-03T10:52:22Z</time><name>PT1387</name></trkpt>
<trkpt lat="52.905887" lon="-3.386728"><ele>663</ele><time>2020-09-03T10:52:22Z</time><name>PT1388</name></trkpt>
<trkpt lat="52.905883" lon="-3.386715"><ele>663</ele><time>2020-09-03T10:52:24Z</time><name>PT1389</name></trkpt>
<trkpt lat="52.905879" lon="-3.386703"><ele>663</ele><time>2020-09-03T10:52:24Z</time><name>PT1390</name></trkpt>
<trkpt lat="52.905878" lon="-3.386693"><ele>664</ele><time>2020-09-03T10:52:26Z</time><name>PT1391</name></trkpt>
<trkpt lat="52.905877" lon="-3.386683"><ele>664</ele><time>2020-09-03T10:52:26Z</time><name>PT1392</name></trkpt>
<trkpt lat="52.905874" lon="-3.386671"><ele>665</ele><time>2020-09-03T10:52:28Z</time><name>PT1393</name></trkpt>
<trkpt lat="52.905871" lon="-3.386669"><ele>665</ele><time>2020-09-03T10:52:28Z</time><name>PT1394</name></trkpt>
<trkpt lat="52.905870" lon="-3.386667"><ele>665</ele><time>2020-09-03T10:52:30Z</time><name>PT1395</name></trkpt>
<trkpt lat="52.905869" lon="-3.386668"><ele>665</ele><time>2020-09-03T10:52:30Z</time><name>PT1396</name></trkpt>
<trkpt lat="52.905869" lon="-3.386669"><ele>665</ele><time>2020-09-03T10:52:32Z</time><name>PT1397</name></trkpt>
<trkpt lat="52.905871" lon="-3.386668"><ele>665</ele><time>2020-09-03T10:52:32Z</time><name>PT1398</name></trkpt>
<trkpt lat="52.905869" lon="-3.386666"><ele>665</ele><time>2020-09-03T10:52:34Z</time><name>PT1399</name></trkpt>
<trkpt lat="52.905870" lon="-3.386659"><ele>665</ele><time>2020-09-03T10:52:34Z</time><name>PT1400</name></trkpt>
<trkpt lat="52.905867" lon="-3.386646"><ele>666</ele><time>2020-09-03T10:52:36Z</time><name>PT1401</name></trkpt>
<trkpt lat="52.905865" lon="-3.386633"><ele>666</ele><time>2020-09-03T10:52:36Z</time><name>PT1402</name></trkpt>
<trkpt lat="52.905863" lon="-3.386616"><ele>666</ele><time>2020-09-03T10:52:38Z</time><name>PT1403</name></trkpt>
<trkpt lat="52.905858" lon="-3.386603"><ele>666</ele><time>2020-09-03T10:52:38Z</time><name>PT1404</name></trkpt>
<trkpt lat="52.905857" lon="-3.386590"><ele>667</ele><time>2020-09-03T10:52:40Z</time><name>PT1405</name></trkpt>
<trkpt lat="52.905856" lon="-3.386582"><ele>667</ele><time>2020-09-03T10:52:40Z</time><name>PT1406</name></trkpt>
<trkpt lat="52.905852" lon="-3.386574"><ele>666</ele><time>2020-09-03T10:52:42Z</time><name>PT1407</name></trkpt>
<trkpt lat="52.905851" lon="-3.386561"><ele>667</ele><time>2020-09-03T10:52:42Z</time><name>PT1408</name></trkpt>
<trkpt lat="52.905850" lon="-3.386548"><ele>667</ele><time>2020-09-03T10:52:44Z</time><name>PT1409</name></trkpt>
<trkpt lat="52.905849" lon="-3.386540"><ele>667</ele><time>2020-09-03T10:52:44Z</time><name>PT1410</name></trkpt>
<trkpt lat="52.905847" lon="-3.386530"><ele>667</ele><time>2020-09-03T10:52:46Z</time><name>PT1411</name></trkpt>
<trkpt lat="52.905846" lon="-3.386521"><ele>666</ele><time>2020-09-03T10:52:46Z</time><name>PT1412</name></trkpt>
<trkpt lat="52.905845" lon="-3.386506"><ele>666</ele><time>2020-09-03T10:52:48Z</time><name>PT1413</name></trkpt>
<trkpt lat="52.905843" lon="-3.386494"><ele>666</ele><time>2020-09-03T10:52:48Z</time><name>PT1414</name></trkpt>
<trkpt lat="52.905839" lon="-3.386480"><ele>666</ele><time>2020-09-03T10:52:50Z</time><name>PT1415</name></trkpt>
<trkpt lat="52.905836" lon="-3.386468"><ele>666</ele><time>2020-09-03T10:52:50Z</time><name>PT1416</name></trkpt>
<trkpt lat="52.905834" lon="-3.386456"><ele>666</ele><time>2020-09-03T10:52:52Z</time><name>PT1417</name></trkpt>
<trkpt lat="52.905831" lon="-3.386441"><ele>666</ele><time>2020-09-03T10:52:52Z</time><name>PT1418</name></trkpt>
<trkpt lat="52.905828" lon="-3.386428"><ele>666</ele><time>2020-09-03T10:52:54Z</time><name>PT1419</name></trkpt>
<trkpt lat="52.905824" lon="-3.386415"><ele>666</ele><time>2020-09-03T10:52:54Z</time><name>PT1420</name></trkpt>
<trkpt lat="52.905821" lon="-3.386407"><ele>667</ele><time>2020-09-03T10:52:56Z</time><name>PT1421</name></trkpt>
<trkpt lat="52.905815" lon="-3.386394"><ele>667</ele><time>2020-09-03T10:52:56Z</time><name>PT1422</name></trkpt>
<trkpt lat="52.905814" lon="-3.386384"><ele>667</ele><time>2020-09-03T10:52:58Z</time><name>PT1423</name></trkpt>
<trkpt lat="52.905812" lon="-3.386371"><ele>667</ele><time>2020-09-03T10:52:58Z</time><name>PT1424</name></trkpt>
<trkpt lat="52.905809" lon="-3.386357"><ele>667</ele><time>2020-09-03T10:53:00Z</time><name>PT1425</name></trkpt>
<trkpt lat="52.905804" lon="-3.386342"><ele>667</ele><time>2020-09-03T10:53:00Z</time><name>PT1426</name></trkpt>
<trkpt lat="52.905801" lon="-3.386329"><ele>667</ele><time>2020-09-03T10:53:02Z</time><name>PT1427</name></trkpt>
<trkpt lat="52.905799" lon="-3.386312"><ele>668</ele><time>2020-09-03T10:53:02Z</time><name>PT1428</name></trkpt>
<trkpt lat="52.905805" lon="-3.386289"><ele>669</ele><time>2020-09-03T10:53:04Z</time><name>PT1429</name></trkpt>
<trkpt lat="52.905806" lon="-3.386270"><ele>669</ele><time>2020-09-03T10:53:04Z</time><name>PT1430</name></trkpt>
<trkpt lat="52.905801" lon="-3.386255"><ele>669</ele><time>2020-09-03T10:53:06Z</time><name>PT1431</name></trkpt>
<trkpt lat="52.905797" lon="-3.386241"><ele>669</ele><time>2020-09-03T10:53:06Z</time><name>PT1432</name></trkpt>
<trkpt lat="52.905791" lon="-3.386226"><ele>669</ele><time>2020-09-03T10:53:08Z</time><name>PT1433</name></trkpt>
<trkpt lat="52.905785" lon="-3.386210"><ele>669</ele><time>2020-09-03T10:53:09Z</time><name>PT1434</name></trkpt>
<trkpt lat="52.905779" lon="-3.386197"><ele>669</ele><time>2020-09-03T10:53:10Z</time><name>PT1435</name></trkpt>
<trkpt lat="52.905776" lon="-3.386194"><ele>670</ele><time>2020-09-03T10:53:10Z</time><name>PT1436</name></trkpt>
<trkpt lat="52.905774" lon="-3.386193"><ele>670</ele><time>2020-09-03T10:53:12Z</time><name>PT1437</name></trkpt>
<trkpt lat="52.905773" lon="-3.386187"><ele>669</ele><time>2020-09-03T10:53:12Z</time><name>PT1438</name></trkpt>
<trkpt lat="52.905775" lon="-3.386187"><ele>669</ele><time>2020-09-03T10:53:14Z</time><name>PT1439</name></trkpt>
<trkpt lat="52.905773" lon="-3.386182"><ele>668</ele><time>2020-09-03T10:53:14Z</time><name>PT1440</name></trkpt>
<trkpt lat="52.905770" lon="-3.386176"><ele>668</ele><time>2020-09-03T10:53:16Z</time><name>PT1441</name></trkpt>
<trkpt lat="52.905763" lon="-3.386162"><ele>668</ele><time>2020-09-03T10:53:16Z</time><name>PT1442</name></trkpt>
<trkpt lat="52.905758" lon="-3.386149"><ele>668</ele><time>2020-09-03T10:53:18Z</time><name>PT1443</name></trkpt>
<trkpt lat="52.905753" lon="-3.386137"><ele>668</ele><time>2020-09-03T10:53:19Z</time><name>PT1444</name></trkpt>
<trkpt lat="52.905747" lon="-3.386125"><ele>668</ele><time>2020-09-03T10:53:20Z</time><name>PT1445</name></trkpt>
<trkpt lat="52.905741" lon="-3.386111"><ele>668</ele><time>2020-09-03T10:53:20Z</time><name>PT1446</name></trkpt>
<trkpt lat="52.905738" lon="-3.386101"><ele>668</ele><time>2020-09-03T10:53:22Z</time><name>PT1447</name></trkpt>
<trkpt lat="52.905733" lon="-3.386092"><ele>668</ele><time>2020-09-03T10:53:23Z</time><name>PT1448</name></trkpt>
<trkpt lat="52.905728" lon="-3.386082"><ele>668</ele><time>2020-09-03T10:53:24Z</time><name>PT1449</name></trkpt>
<trkpt lat="52.905723" lon="-3.386073"><ele>668</ele><time>2020-09-03T10:53:25Z</time><name>PT1450</name></trkpt>
<trkpt lat="52.905718" lon="-3.386064"><ele>668</ele><time>2020-09-03T10:53:26Z</time><name>PT1451</name></trkpt>
<trkpt lat="52.905715" lon="-3.386054"><ele>668</ele><time>2020-09-03T10:53:27Z</time><name>PT1452</name></trkpt>
<trkpt lat="52.905710" lon="-3.386042"><ele>669</ele><time>2020-09-03T10:53:28Z</time><name>PT1453</name></trkpt>
<trkpt lat="52.905707" lon="-3.386028"><ele>669</ele><time>2020-09-03T10:53:29Z</time><name>PT1454</name></trkpt>
<trkpt lat="52.905700" lon="-3.386009"><ele>670</ele><time>2020-09-03T10:53:30Z</time><name>PT1455</name></trkpt>
<trkpt lat="52.905694" lon="-3.385998"><ele>670</ele><time>2020-09-03T10:53:31Z</time><name>PT1456</name></trkpt>
<trkpt lat="52.905678" lon="-3.385993"><ele>669</ele><time>2020-09-03T10:53:32Z</time><name>PT1457</name></trkpt>
<trkpt lat="52.905669" lon="-3.385985"><ele>670</ele><time>2020-09-03T10:53:33Z</time><name>PT1458</name></trkpt>
<trkpt lat="52.905663" lon="-3.385975"><ele>670</ele><time>2020-09-03T10:53:34Z</time><name>PT1459</name></trkpt>
<trkpt lat="52.905657" lon="-3.385963"><ele>670</ele><time>2020-09-03T10:53:35Z</time><name>PT1460</name></trkpt>
<trkpt lat="52.905651" lon="-3.385948"><ele>670</ele><time>2020-09-03T10:53:36Z</time><name>PT1461</name></trkpt>
<trkpt lat="52.905646" lon="-3.385934"><ele>670</ele><time>2020-09-03T10:53:37Z</time><name>PT1462</name></trkpt>
<trkpt lat="52.905644" lon="-3.385922"><ele>671</ele><time>2020-09-03T10:53:38Z</time><name>PT1463</name></trkpt>
<trkpt lat="52.905640" lon="-3.385904"><ele>671</ele><time>2020-09-03T10:53:39Z</time><name>PT1464</name></trkpt>
<trkpt lat="52.905634" lon="-3.385887"><ele>672</ele><time>2020-09-03T10:53:40Z</time><name>PT1465</name></trkpt>
<trkpt lat="52.905629" lon="-3.385873"><ele>672</ele><time>2020-09-03T10:53:41Z</time><name>PT1466</name></trkpt>
<trkpt lat="52.905624" lon="-3.385862"><ele>672</ele><time>2020-09-03T10:53:42Z</time><name>PT1467</name></trkpt>
<trkpt lat="52.905618" lon="-3.385849"><ele>673</ele><time>2020-09-03T10:53:43Z</time><name>PT1468</name></trkpt>
<trkpt lat="52.905612" lon="-3.385836"><ele>673</ele><time>2020-09-03T10:53:44Z</time><name>PT1469</name></trkpt>
<trkpt lat="52.905607" lon="-3.385823"><ele>673</ele><time>2020-09-03T10:53:45Z</time><name>PT1470</name></trkpt>
<trkpt lat="52.905602" lon="-3.385809"><ele>673</ele><time>2020-09-03T10:53:46Z</time><name>PT1471</name></trkpt>
<trkpt lat="52.905596" lon="-3.385794"><ele>674</ele><time>2020-09-03T10:53:46Z</time><name>PT1472</name></trkpt>
<trkpt lat="52.905593" lon="-3.385786"><ele>673</ele><time>2020-09-03T10:53:48Z</time><name>PT1473</name></trkpt>
<trkpt lat="52.905590" lon="-3.385771"><ele>673</ele><time>2020-09-03T10:53:48Z</time><name>PT1474</name></trkpt>
<trkpt lat="52.905586" lon="-3.385758"><ele>673</ele><time>2020-09-03T10:53:50Z</time><name>PT1475</name></trkpt>
<trkpt lat="52.905582" lon="-3.385749"><ele>673</ele><time>2020-09-03T10:53:50Z</time><name>PT1476</name></trkpt>
<trkpt lat="52.905575" lon="-3.385736"><ele>673</ele><time>2020-09-03T10:53:52Z</time><name>PT1477</name></trkpt>
<trkpt lat="52.905571" lon="-3.385721"><ele>673</ele><time>2020-09-03T10:53:52Z</time><name>PT1478</name></trkpt>
<trkpt lat="52.905564" lon="-3.385709"><ele>673</ele><time>2020-09-03T10:53:54Z</time><name>PT1479</name></trkpt>
<trkpt lat="52.905557" lon="-3.385691"><ele>674</ele><time>2020-09-03T10:53:54Z</time><name>PT1480</name></trkpt>
<trkpt lat="52.905550" lon="-3.385678"><ele>674</ele><time>2020-09-03T10:53:56Z</time><name>PT1481</name></trkpt>
<trkpt lat="52.905543" lon="-3.385665"><ele>674</ele><time>2020-09-03T10:53:56Z</time><name>PT1482</name></trkpt>
<trkpt lat="52.905536" lon="-3.385654"><ele>674</ele><time>2020-09-03T10:53:58Z</time><name>PT1483</name></trkpt>
<trkpt lat="52.905531" lon="-3.385645"><ele>673</ele><time>2020-09-03T10:53:58Z</time><name>PT1484</name></trkpt>
<trkpt lat="52.905526" lon="-3.385634"><ele>673</ele><time>2020-09-03T10:54:00Z</time><name>PT1485</name></trkpt>
<trkpt lat="52.905521" lon="-3.385616"><ele>674</ele><time>2020-09-03T10:54:01Z</time><name>PT1486</name></trkpt>
<trkpt lat="52.905514" lon="-3.385602"><ele>674</ele><time>2020-09-03T10:54:02Z</time><name>PT1487</name></trkpt>
<trkpt lat="52.905507" lon="-3.385591"><ele>674</ele><time>2020-09-03T10:54:02Z</time><name>PT1488</name></trkpt>
<trkpt lat="52.905501" lon="-3.385580"><ele>674</ele><time>2020-09-03T10:54:04Z</time><name>PT1489</name></trkpt>
<trkpt lat="52.905492" lon="-3.385567"><ele>674</ele><time>2020-09-03T10:54:04Z</time><name>PT1490</name></trkpt>
<trkpt lat="52.905486" lon="-3.385554"><ele>674</ele><time>2020-09-03T10:54:06Z</time><name>PT1491</name></trkpt>
<trkpt lat="52.905480" lon="-3.385544"><ele>674</ele><time>2020-09-03T10:54:06Z</time><name>PT1492</name></trkpt>
<trkpt lat="52.905474" lon="-3.385534"><ele>674</ele><time>2020-09-03T10:54:08Z</time><name>PT1493</name></trkpt>
<trkpt lat="52.905467" lon="-3.385521"><ele>674</ele><time>2020-09-03T10:54:08Z</time><name>PT1494</name></trkpt>
<trkpt lat="52.905461" lon="-3.385508"><ele>674</ele><time>2020-09-03T10:54:10Z</time><name>PT1495</name></trkpt>
<trkpt lat="52.905453" lon="-3.385492"><ele>675</ele><time>2020-09-03T10:54:10Z</time><name>PT1496</name></trkpt>
<trkpt lat="52.905446" lon="-3.385481"><ele>675</ele><time>2020-09-03T10:54:12Z</time><name>PT1497</name></trkpt>
<trkpt lat="52.905439" lon="-3.385468"><ele>675</ele><time>2020-09-03T10:54:12Z</time><name>PT1498</name></trkpt>
<trkpt lat="52.905432" lon="-3.385453"><ele>675</ele><time>2020-09-03T10:54:14Z</time><name>PT1499</name></trkpt>
<trkpt lat="52.905427" lon="-3.385443"><ele>674</ele><time>2020-09-03T10:54:14Z</time><name>PT1500</name></trkpt>
<trkpt lat="52.905424" lon="-3.385435"><ele>675</ele><time>2020-09-03T10:54:16Z</time><name>PT1501</name></trkpt>
<trkpt lat="52.905418" lon="-3.385431"><ele>674</ele><time>2020-09-03T10:54:16Z</time><name>PT1502</name></trkpt>
<trkpt lat="52.905412" lon="-3.385418"><ele>674</ele><time>2020-09-03T10:54:18Z</time><name>PT1503</name></trkpt>
<trkpt lat="52.905408" lon="-3.385405"><ele>674</ele><time>2020-09-03T10:54:18Z</time><name>PT1504</name></trkpt>
<trkpt lat="52.905404" lon="-3.385394"><ele>675</ele><time>2020-09-03T10:54:20Z</time><name>PT1505</name></trkpt>
<trkpt lat="52.905398" lon="-3.385386"><ele>675</ele><time>2020-09-03T10:54:20Z</time><name>PT1506</name></trkpt>
<trkpt lat="52.905393" lon="-3.385379"><ele>675</ele><time>2020-09-03T10:54:22Z</time><name>PT1507</name></trkpt>
<trkpt lat="52.905387" lon="-3.385366"><ele>675</ele><time>2020-09-03T10:54:22Z</time><name>PT1508</name></trkpt>
<trkpt lat="52.905383" lon="-3.385359"><ele>674</ele><time>2020-09-03T10:54:24Z</time><name>PT1509</name></trkpt>
<trkpt lat="52.905378" lon="-3.385348"><ele>675</ele><time>2020-09-03T10:54:24Z</time><name>PT1510</name></trkpt>
<trkpt lat="52.905373" lon="-3.385337"><ele>675</ele><time>2020-09-03T10:54:26Z</time><name>PT1511</name></trkpt>
<trkpt lat="52.905371" lon="-3.385326"><ele>675</ele><time>2020-09-03T10:54:26Z</time><name>PT1512</name></trkpt>
<trkpt lat="52.905367" lon="-3.385309"><ele>675</ele><time>2020-09-03T10:54:28Z</time><name>PT1513</name></trkpt>
<trkpt lat="52.905364" lon="-3.385296"><ele>675</ele><time>2020-09-03T10:54:28Z</time><name>PT1514</name></trkpt>
<trkpt lat="52.905360" lon="-3.385288"><ele>675</ele><time>2020-09-03T10:54:30Z</time><name>PT1515</name></trkpt>
<trkpt lat="52.905358" lon="-3.385283"><ele>676</ele><time>2020-09-03T10:54:30Z</time><name>PT1516</name></trkpt>
<trkpt lat="52.905353" lon="-3.385283"><ele>675</ele><time>2020-09-03T10:54:32Z</time><name>PT1517</name></trkpt>
<trkpt lat="52.905344" lon="-3.385283"><ele>675</ele><time>2020-09-03T10:54:32Z</time><name>PT1518</name></trkpt>
<trkpt lat="52.905338" lon="-3.385278"><ele>675</ele><time>2020-09-03T10:54:34Z</time><name>PT1519</name></trkpt>
<trkpt lat="52.905328" lon="-3.385265"><ele>675</ele><time>2020-09-03T10:54:34Z</time><name>PT1520</name></trkpt>
<trkpt lat="52.905320" lon="-3.385256"><ele>675</ele><time>2020-09-03T10:54:36Z</time><name>PT1521</name></trkpt>
<trkpt lat="52.905310" lon="-3.385245"><ele>675</ele><time>2020-09-03T10:54:36Z</time><name>PT1522</name></trkpt>
<trkpt lat="52.905300" lon="-3.385232"><ele>675</ele><time>2020-09-03T10:54:38Z</time><name>PT1523</name></trkpt>
<trkpt lat="52.905294" lon="-3.385219"><ele>675</ele><time>2020-09-03T10:54:38Z</time><name>PT1524</name></trkpt>
<trkpt lat="52.905288" lon="-3.385204"><ele>675</ele><time>2020-09-03T10:54:40Z</time><name>PT1525</name></trkpt>
<trkpt lat="52.905281" lon="-3.385189"><ele>675</ele><time>2020-09-03T10:54:41Z</time><name>PT1526</name></trkpt>
<trkpt lat="52.905275" lon="-3.385175"><ele>676</ele><time>2020-09-03T10:54:42Z</time><name>PT1527</name></trkpt>
<trkpt lat="52.905268" lon="-3.385163"><ele>676</ele><time>2020-09-03T10:54:43Z</time><name>PT1528</name></trkpt>
<trkpt lat="52.905262" lon="-3.385149"><ele>676</ele><time>2020-09-03T10:54:44Z</time><name>PT1529</name></trkpt>
<trkpt lat="52.905255" lon="-3.385140"><ele>676</ele><time>2020-09-03T10:54:45Z</time><name>PT1530</name></trkpt>
<trkpt lat="52.905247" lon="-3.385129"><ele>676</ele><time>2020-09-03T10:54:46Z</time><name>PT1531</name></trkpt>
<trkpt lat="52.905241" lon="-3.385114"><ele>676</ele><time>2020-09-03T10:54:47Z</time><name>PT1532</name></trkpt>
<trkpt lat="52.905222" lon="-3.385078"><ele>676</ele><time>2020-09-03T10:54:50Z</time><name>PT1533</name></trkpt>
<trkpt lat="52.905187" lon="-3.385044"><ele>677</ele><time>2020-09-03T10:54:54Z</time><name>PT1534</name></trkpt>
<trkpt lat="52.905155" lon="-3.385008"><ele>677</ele><time>2020-09-03T10:54:58Z</time><name>PT1535</name></trkpt>
<trkpt lat="52.905117" lon="-3.384990"><ele>678</ele><time>2020-09-03T10:55:02Z</time><name>PT1536</name></trkpt>
<trkpt lat="52.905078" lon="-3.384985"><ele>678</ele><time>2020-09-03T10:55:06Z</time><name>PT1537</name></trkpt>
<trkpt lat="52.905044" lon="-3.384983"><ele>678</ele><time>2020-09-03T10:55:10Z</time><name>PT1538</name></trkpt>
<trkpt lat="52.905014" lon="-3.384977"><ele>678</ele><time>2020-09-03T10:55:14Z</time><name>PT1539</name></trkpt>
<trkpt lat="52.904977" lon="-3.384963"><ele>678</ele><time>2020-09-03T10:55:18Z</time><name>PT1540</name></trkpt>
<trkpt lat="52.904941" lon="-3.384952"><ele>677</ele><time>2020-09-03T10:55:22Z</time><name>PT1541</name></trkpt>
<trkpt lat="52.904898" lon="-3.384933"><ele>677</ele><time>2020-09-03T10:55:26Z</time><name>PT1542</name></trkpt>
<trkpt lat="52.904853" lon="-3.384921"><ele>678</ele><time>2020-09-03T10:55:30Z</time><name>PT1543</name></trkpt>
<trkpt lat="52.904817" lon="-3.384893"><ele>680</ele><time>2020-09-03T10:55:34Z</time><name>PT1544</name></trkpt>
<trkpt lat="52.904798" lon="-3.384867"><ele>681</ele><time>2020-09-03T10:55:36Z</time><name>PT1545</name></trkpt>
<trkpt lat="52.904787" lon="-3.384858"><ele>681</ele><time>2020-09-03T10:55:36Z</time><name>PT1546</name></trkpt>
<trkpt lat="52.904779" lon="-3.384849"><ele>681</ele><time>2020-09-03T10:55:38Z</time><name>PT1547</name></trkpt>
<trkpt lat="52.904771" lon="-3.384842"><ele>681</ele><time>2020-09-03T10:55:38Z</time><name>PT1548</name></trkpt>
<trkpt lat="52.904758" lon="-3.384834"><ele>681</ele><time>2020-09-03T10:55:40Z</time><name>PT1549</name></trkpt>
<trkpt lat="52.904747" lon="-3.384830"><ele>681</ele><time>2020-09-03T10:55:41Z</time><name>PT1550</name></trkpt>
<trkpt lat="52.904742" lon="-3.384823"><ele>681</ele><time>2020-09-03T10:55:42Z</time><name>PT1551</name></trkpt>
<trkpt lat="52.904734" lon="-3.384808"><ele>681</ele><time>2020-09-03T10:55:43Z</time><name>PT1552</name></trkpt>
<trkpt lat="52.904729" lon="-3.384796"><ele>681</ele><time>2020-09-03T10:55:44Z</time><name>PT1553</name></trkpt>
<trkpt lat="52.904723" lon="-3.384784"><ele>681</ele><time>2020-09-03T10:55:45Z</time><name>PT1554</name></trkpt>
<trkpt lat="52.904711" lon="-3.384771"><ele>681</ele><time>2020-09-03T10:55:46Z</time><name>PT1555</name></trkpt>
<trkpt lat="52.904702" lon="-3.384761"><ele>681</ele><time>2020-09-03T10:55:47Z</time><name>PT1556</name></trkpt>
<trkpt lat="52.904695" lon="-3.384753"><ele>681</ele><time>2020-09-03T10:55:48Z</time><name>PT1557</name></trkpt>
<trkpt lat="52.904687" lon="-3.384743"><ele>681</ele><time>2020-09-03T10:55:49Z</time><name>PT1558</name></trkpt>
<trkpt lat="52.904681" lon="-3.384735"><ele>681</ele><time>2020-09-03T10:55:50Z</time><name>PT1559</name></trkpt>
<trkpt lat="52.904671" lon="-3.384721"><ele>681</ele><time>2020-09-03T10:55:51Z</time><name>PT1560</name></trkpt>
<trkpt lat="52.904666" lon="-3.384719"><ele>681</ele><time>2020-09-03T10:55:52Z</time><name>PT1561</name></trkpt>
<trkpt lat="52.904660" lon="-3.384714"><ele>681</ele><time>2020-09-03T10:55:53Z</time><name>PT1562</name></trkpt>
<trkpt lat="52.904655" lon="-3.384703"><ele>681</ele><time>2020-09-03T10:55:54Z</time><name>PT1563</name></trkpt>
<trkpt lat="52.904648" lon="-3.384688"><ele>681</ele><time>2020-09-03T10:55:55Z</time><name>PT1564</name></trkpt>
<trkpt lat="52.904642" lon="-3.384677"><ele>681</ele><time>2020-09-03T10:55:56Z</time><name>PT1565</name></trkpt>
<trkpt lat="52.904633" lon="-3.384667"><ele>681</ele><time>2020-09-03T10:55:57Z</time><name>PT1566</name></trkpt>
<trkpt lat="52.904623" lon="-3.384660"><ele>680</ele><time>2020-09-03T10:55:58Z</time><name>PT1567</name></trkpt>
<trkpt lat="52.904613" lon="-3.384657"><ele>680</ele><time>2020-09-03T10:55:59Z</time><name>PT1568</name></trkpt>
<trkpt lat="52.904600" lon="-3.384646"><ele>680</ele><time>2020-09-03T10:56:00Z</time><name>PT1569</name></trkpt>
<trkpt lat="52.904591" lon="-3.384632"><ele>681</ele><time>2020-09-03T10:56:01Z</time><name>PT1570</name></trkpt>
<trkpt lat="52.904582" lon="-3.384619"><ele>680</ele><time>2020-09-03T10:56:02Z</time><name>PT1571</name></trkpt>
<trkpt lat="52.904571" lon="-3.384608"><ele>680</ele><time>2020-09-03T10:56:02Z</time><name>PT1572</name></trkpt>
<trkpt lat="52.904562" lon="-3.384608"><ele>680</ele><time>2020-09-03T10:56:04Z</time><name>PT1573</name></trkpt>
<trkpt lat="52.904554" lon="-3.384602"><ele>681</ele><time>2020-09-03T10:56:04Z</time><name>PT1574</name></trkpt>
<trkpt lat="52.904547" lon="-3.384600"><ele>680</ele><time>2020-09-03T10:56:06Z</time><name>PT1575</name></trkpt>
<trkpt lat="52.904541" lon="-3.384592"><ele>680</ele><time>2020-09-03T10:56:06Z</time><name>PT1576</name></trkpt>
<trkpt lat="52.904533" lon="-3.384579"><ele>680</ele><time>2020-09-03T10:56:08Z</time><name>PT1577</name></trkpt>
<trkpt lat="52.904528" lon="-3.384567"><ele>679</ele><time>2020-09-03T10:56:08Z</time><name>PT1578</name></trkpt>
<trkpt lat="52.904518" lon="-3.384552"><ele>679</ele><time>2020-09-03T10:56:10Z</time><name>PT1579</name></trkpt>
<trkpt lat="52.904511" lon="-3.384542"><ele>679</ele><time>2020-09-03T10:56:10Z</time><name>PT1580</name></trkpt>
<trkpt lat="52.904504" lon="-3.384533"><ele>678</ele><time>2020-09-03T10:56:12Z</time><name>PT1581</name></trkpt>
<trkpt lat="52.904499" lon="-3.384523"><ele>678</ele><time>2020-09-03T10:56:12Z</time><name>PT1582</name></trkpt>
<trkpt lat="52.904494" lon="-3.384510"><ele>679</ele><time>2020-09-03T10:56:14Z</time><name>PT1583</name></trkpt>
<trkpt lat="52.904487" lon="-3.384494"><ele>679</ele><time>2020-09-03T10:56:14Z</time><name>PT1584</name></trkpt>
<trkpt lat="52.904479" lon="-3.384480"><ele>679</ele><time>2020-09-03T10:56:16Z</time><name>PT1585</name></trkpt>
<trkpt lat="52.904472" lon="-3.384465"><ele>679</ele><time>2020-09-03T10:56:16Z</time><name>PT1586</name></trkpt>
<trkpt lat="52.904465" lon="-3.384454"><ele>680</ele><time>2020-09-03T10:56:18Z</time><name>PT1587</name></trkpt>
<trkpt lat="52.904461" lon="-3.384447"><ele>680</ele><time>2020-09-03T10:56:18Z</time><name>PT1588</name></trkpt>
<trkpt lat="52.904457" lon="-3.384443"><ele>680</ele><time>2020-09-03T10:56:20Z</time><name>PT1589</name></trkpt>
<trkpt lat="52.904458" lon="-3.384438"><ele>680</ele><time>2020-09-03T10:56:20Z</time><name>PT1590</name></trkpt>
<trkpt lat="52.904459" lon="-3.384439"><ele>680</ele><time>2020-09-03T10:56:22Z</time><name>PT1591</name></trkpt>
<trkpt lat="52.904456" lon="-3.384435"><ele>680</ele><time>2020-09-03T10:56:22Z</time><name>PT1592</name></trkpt>
<trkpt lat="52.904453" lon="-3.384427"><ele>680</ele><time>2020-09-03T10:56:24Z</time><name>PT1593</name></trkpt>
<trkpt lat="52.904450" lon="-3.384415"><ele>679</ele><time>2020-09-03T10:56:24Z</time><name>PT1594</name></trkpt>
<trkpt lat="52.904445" lon="-3.384405"><ele>680</ele><time>2020-09-03T10:56:26Z</time><name>PT1595</name></trkpt>
<trkpt lat="52.904442" lon="-3.384396"><ele>679</ele><time>2020-09-03T10:56:26Z</time><name>PT1596</name></trkpt>
<trkpt lat="52.904439" lon="-3.384384"><ele>680</ele><time>2020-09-03T10:56:28Z</time><name>PT1597</name></trkpt>
<trkpt lat="52.904434" lon="-3.384371"><ele>680</ele><time>2020-09-03T10:56:28Z</time><name>PT1598</name></trkpt>
<trkpt lat="52.904428" lon="-3.384359"><ele>679</ele><time>2020-09-03T10:56:30Z</time><name>PT1599</name></trkpt>
<trkpt lat="52.904422" lon="-3.384349"><ele>680</ele><time>2020-09-03T10:56:30Z</time><name>PT1600</name></trkpt>
<trkpt lat="52.904418" lon="-3.384335"><ele>679</ele><time>2020-09-03T10:56:32Z</time><name>PT1601</name></trkpt>
<trkpt lat="52.904414" lon="-3.384320"><ele>679</ele><time>2020-09-03T10:56:32Z</time><name>PT1602</name></trkpt>
<trkpt lat="52.904408" lon="-3.384309"><ele>679</ele><time>2020-09-03T10:56:34Z</time><name>PT1603</name></trkpt>
<trkpt lat="52.904405" lon="-3.384295"><ele>679</ele><time>2020-09-03T10:56:34Z</time><name>PT1604</name></trkpt>
<trkpt lat="52.904401" lon="-3.384284"><ele>679</ele><time>2020-09-03T10:56:36Z</time><name>PT1605</name></trkpt>
<trkpt lat="52.904398" lon="-3.384273"><ele>678</ele><time>2020-09-03T10:56:36Z</time><name>PT1606</name></trkpt>
<trkpt lat="52.904395" lon="-3.384262"><ele>678</ele><time>2020-09-03T10:56:38Z</time><name>PT1607</name></trkpt>
<trkpt lat="52.904390" lon="-3.384252"><ele>678</ele><time>2020-09-03T10:56:38Z</time><name>PT1608</name></trkpt>
<trkpt lat="52.904388" lon="-3.384244"><ele>678</ele><time>2020-09-03T10:56:40Z</time><name>PT1609</name></trkpt>
<trkpt lat="52.904384" lon="-3.384233"><ele>678</ele><time>2020-09-03T10:56:40Z</time><name>PT1610</name></trkpt>
<trkpt lat="52.904377" lon="-3.384223"><ele>678</ele><time>2020-09-03T10:56:42Z</time><name>PT1611</name></trkpt>
<trkpt lat="52.904372" lon="-3.384215"><ele>677</ele><time>2020-09-03T10:56:42Z</time><name>PT1612</name></trkpt>
<trkpt lat="52.904369" lon="-3.384206"><ele>677</ele><time>2020-09-03T10:56:44Z</time><name>PT1613</name></trkpt>
<trkpt lat="52.904364" lon="-3.384194"><ele>677</ele><time>2020-09-03T10:56:44Z</time><name>PT1614</name></trkpt>
<trkpt lat="52.904359" lon="-3.384181"><ele>677</ele><time>2020-09-03T10:56:46Z</time><name>PT1615</name></trkpt>
<trkpt lat="52.904352" lon="-3.384170"><ele>677</ele><time>2020-09-03T10:56:46Z</time><name>PT1616</name></trkpt>
<trkpt lat="52.904345" lon="-3.384155"><ele>677</ele><time>2020-09-03T10:56:48Z</time><name>PT1617</name></trkpt>
<trkpt lat="52.904342" lon="-3.384147"><ele>677</ele><time>2020-09-03T10:56:48Z</time><name>PT1618</name></trkpt>
<trkpt lat="52.904336" lon="-3.384134"><ele>677</ele><time>2020-09-03T10:56:50Z</time><name>PT1619</name></trkpt>
<trkpt lat="52.904332" lon="-3.384124"><ele>677</ele><time>2020-09-03T10:56:50Z</time><name>PT1620</name></trkpt>
<trkpt lat="52.904329" lon="-3.384114"><ele>677</ele><time>2020-09-03T10:56:52Z</time><name>PT1621</name></trkpt>
<trkpt lat="52.904324" lon="-3.384097"><ele>677</ele><time>2020-09-03T10:56:52Z</time><name>PT1622</name></trkpt>
<trkpt lat="52.904320" lon="-3.384087"><ele>677</ele><time>2020-09-03T10:56:54Z</time><name>PT1623</name></trkpt>
<trkpt lat="52.904317" lon="-3.384074"><ele>677</ele><time>2020-09-03T10:56:55Z</time><name>PT1624</name></trkpt>
<trkpt lat="52.904313" lon="-3.384061"><ele>677</ele><time>2020-09-03T10:56:56Z</time><name>PT1625</name></trkpt>
<trkpt lat="52.904312" lon="-3.384051"><ele>676</ele><time>2020-09-03T10:56:56Z</time><name>PT1626</name></trkpt>
<trkpt lat="52.904307" lon="-3.384036"><ele>676</ele><time>2020-09-03T10:56:58Z</time><name>PT1627</name></trkpt>
<trkpt lat="52.904304" lon="-3.384024"><ele>676</ele><time>2020-09-03T10:56:59Z</time><name>PT1628</name></trkpt>
<trkpt lat="52.904300" lon="-3.384006"><ele>676</ele><time>2020-09-03T10:57:00Z</time><name>PT1629</name></trkpt>
<trkpt lat="52.904295" lon="-3.383995"><ele>676</ele><time>2020-09-03T10:57:00Z</time><name>PT1630</name></trkpt>
<trkpt lat="52.904291" lon="-3.383984"><ele>676</ele><time>2020-09-03T10:57:02Z</time><name>PT1631</name></trkpt>
<trkpt lat="52.904285" lon="-3.383968"><ele>676</ele><time>2020-09-03T10:57:02Z</time><name>PT1632</name></trkpt>
<trkpt lat="52.904279" lon="-3.383954"><ele>676</ele><time>2020-09-03T10:57:04Z</time><name>PT1633</name></trkpt>
<trkpt lat="52.904275" lon="-3.383934"><ele>677</ele><time>2020-09-03T10:57:04Z</time><name>PT1634</name></trkpt>
<trkpt lat="52.904271" lon="-3.383924"><ele>677</ele><time>2020-09-03T10:57:06Z</time><name>PT1635</name></trkpt>
<trkpt lat="52.904267" lon="-3.383910"><ele>677</ele><time>2020-09-03T10:57:06Z</time><name>PT1636</name></trkpt>
<trkpt lat="52.904263" lon="-3.383897"><ele>677</ele><time>2020-09-03T10:57:08Z</time><name>PT1637</name></trkpt>
<trkpt lat="52.904260" lon="-3.383881"><ele>677</ele><time>2020-09-03T10:57:09Z</time><name>PT1638</name></trkpt>
<trkpt lat="52.904255" lon="-3.383868"><ele>677</ele><time>2020-09-03T10:57:10Z</time><name>PT1639</name></trkpt>
<trkpt lat="52.904249" lon="-3.383855"><ele>677</ele><time>2020-09-03T10:57:10Z</time><name>PT1640</name></trkpt>
<trkpt lat="52.904244" lon="-3.383843"><ele>677</ele><time>2020-09-03T10:57:12Z</time><name>PT1641</name></trkpt>
<trkpt lat="52.904238" lon="-3.383825"><ele>677</ele><time>2020-09-03T10:57:12Z</time><name>PT1642</name></trkpt>
<trkpt lat="52.904231" lon="-3.383809"><ele>676</ele><time>2020-09-03T10:57:14Z</time><name>PT1643</name></trkpt>
<trkpt lat="52.904226" lon="-3.383797"><ele>676</ele><time>2020-09-03T10:57:15Z</time><name>PT1644</name></trkpt>
<trkpt lat="52.904222" lon="-3.383784"><ele>676</ele><time>2020-09-03T10:57:16Z</time><name>PT1645</name></trkpt>
<trkpt lat="52.904219" lon="-3.383769"><ele>676</ele><time>2020-09-03T10:57:16Z</time><name>PT1646</name></trkpt>
<trkpt lat="52.904216" lon="-3.383752"><ele>675</ele><time>2020-09-03T10:57:18Z</time><name>PT1647</name></trkpt>
<trkpt lat="52.904212" lon="-3.383738"><ele>675</ele><time>2020-09-03T10:57:19Z</time><name>PT1648</name></trkpt>
<trkpt lat="52.904207" lon="-3.383725"><ele>675</ele><time>2020-09-03T10:57:20Z</time><name>PT1649</name></trkpt>
<trkpt lat="52.904202" lon="-3.383710"><ele>675</ele><time>2020-09-03T10:57:20Z</time><name>PT1650</name></trkpt>
<trkpt lat="52.904199" lon="-3.383698"><ele>675</ele><time>2020-09-03T10:57:22Z</time><name>PT1651</name></trkpt>
<trkpt lat="52.904197" lon="-3.383686"><ele>674</ele><time>2020-09-03T10:57:22Z</time><name>PT1652</name></trkpt>
<trkpt lat="52.904191" lon="-3.383669"><ele>675</ele><time>2020-09-03T10:57:24Z</time><name>PT1653</name></trkpt>
<trkpt lat="52.904185" lon="-3.383652"><ele>675</ele><time>2020-09-03T10:57:25Z</time><name>PT1654</name></trkpt>
<trkpt lat="52.904179" lon="-3.383635"><ele>675</ele><time>2020-09-03T10:57:26Z</time><name>PT1655</name></trkpt>
<trkpt lat="52.904173" lon="-3.383623"><ele>675</ele><time>2020-09-03T10:57:26Z</time><name>PT1656</name></trkpt>
<trkpt lat="52.904166" lon="-3.383607"><ele>674</ele><time>2020-09-03T10:57:28Z</time><name>PT1657</name></trkpt>
<trkpt lat="52.904161" lon="-3.383593"><ele>675</ele><time>2020-09-03T10:57:29Z</time><name>PT1658</name></trkpt>
<trkpt lat="52.904156" lon="-3.383577"><ele>674</ele><time>2020-09-03T10:57:30Z</time><name>PT1659</name></trkpt>
<trkpt lat="52.904151" lon="-3.383563"><ele>674</ele><time>2020-09-03T10:57:30Z</time><name>PT1660</name></trkpt>
<trkpt lat="52.904144" lon="-3.383548"><ele>675</ele><time>2020-09-03T10:57:32Z</time><name>PT1661</name></trkpt>
<trkpt lat="52.904138" lon="-3.383535"><ele>675</ele><time>2020-09-03T10:57:32Z</time><name>PT1662</name></trkpt>
<trkpt lat="52.904133" lon="-3.383519"><ele>675</ele><time>2020-09-03T10:57:34Z</time><name>PT1663</name></trkpt>
<trkpt lat="52.904129" lon="-3.383503"><ele>675</ele><time>2020-09-03T10:57:35Z</time><name>PT1664</name></trkpt>
<trkpt lat="52.904125" lon="-3.383487"><ele>675</ele><time>2020-09-03T10:57:36Z</time><name>PT1665</name></trkpt>
<trkpt lat="52.904125" lon="-3.383479"><ele>674</ele><time>2020-09-03T10:57:36Z</time><name>PT1666</name></trkpt>
<trkpt lat="52.904120" lon="-3.383463"><ele>674</ele><time>2020-09-03T10:57:38Z</time><name>PT1667</name></trkpt>
<trkpt lat="52.904115" lon="-3.383443"><ele>674</ele><time>2020-09-03T10:57:39Z</time><name>PT1668</name></trkpt>
<trkpt lat="52.904111" lon="-3.383428"><ele>674</ele><time>2020-09-03T10:57:40Z</time><name>PT1669</name></trkpt>
<trkpt lat="52.904110" lon="-3.383418"><ele>674</ele><time>2020-09-03T10:57:40Z</time><name>PT1670</name></trkpt>
<trkpt lat="52.904107" lon="-3.383405"><ele>674</ele><time>2020-09-03T10:57:42Z</time><name>PT1671</name></trkpt>
<trkpt lat="52.904103" lon="-3.383395"><ele>673</ele><time>2020-09-03T10:57:42Z</time><name>PT1672</name></trkpt>
<trkpt lat="52.904097" lon="-3.383381"><ele>674</ele><time>2020-09-03T10:57:44Z</time><name>PT1673</name></trkpt>
<trkpt lat="52.904094" lon="-3.383371"><ele>673</ele><time>2020-09-03T10:57:45Z</time><name>PT1674</name></trkpt>
<trkpt lat="52.904093" lon="-3.383366"><ele>673</ele><time>2020-09-03T10:57:46Z</time><name>PT1675</name></trkpt>
<trkpt lat="52.904092" lon="-3.383364"><ele>673</ele><time>2020-09-03T10:57:46Z</time><name>PT1676</name></trkpt>
<trkpt lat="52.904092" lon="-3.383359"><ele>674</ele><time>2020-09-03T10:57:48Z</time><name>PT1677</name></trkpt>
<trkpt lat="52.904097" lon="-3.383343"><ele>674</ele><time>2020-09-03T10:57:52Z</time><name>PT1678</name></trkpt>
<trkpt lat="52.904089" lon="-3.383329"><ele>674</ele><time>2020-09-03T10:57:54Z</time><name>PT1679</name></trkpt>
<trkpt lat="52.904086" lon="-3.383310"><ele>674</ele><time>2020-09-03T10:57:55Z</time><name>PT1680</name></trkpt>
<trkpt lat="52.904083" lon="-3.383294"><ele>674</ele><time>2020-09-03T10:57:56Z</time><name>PT1681</name></trkpt>
<trkpt lat="52.904082" lon="-3.383279"><ele>674</ele><time>2020-09-03T10:57:56Z</time><name>PT1682</name></trkpt>
<trkpt lat="52.904079" lon="-3.383262"><ele>673</ele><time>2020-09-03T10:57:58Z</time><name>PT1683</name></trkpt>
<trkpt lat="52.904075" lon="-3.383245"><ele>673</ele><time>2020-09-03T10:57:59Z</time><name>PT1684</name></trkpt>
<trkpt lat="52.904073" lon="-3.383223"><ele>673</ele><time>2020-09-03T10:58:00Z</time><name>PT1685</name></trkpt>
<trkpt lat="52.904068" lon="-3.383206"><ele>673</ele><time>2020-09-03T10:58:00Z</time><name>PT1686</name></trkpt>
<trkpt lat="52.904065" lon="-3.383189"><ele>673</ele><time>2020-09-03T10:58:02Z</time><name>PT1687</name></trkpt>
<trkpt lat="52.904065" lon="-3.383172"><ele>673</ele><time>2020-09-03T10:58:02Z</time><name>PT1688</name></trkpt>
<trkpt lat="52.904061" lon="-3.383159"><ele>672</ele><time>2020-09-03T10:58:04Z</time><name>PT1689</name></trkpt>
<trkpt lat="52.904057" lon="-3.383140"><ele>672</ele><time>2020-09-03T10:58:05Z</time><name>PT1690</name></trkpt>
<trkpt lat="52.904053" lon="-3.383118"><ele>672</ele><time>2020-09-03T10:58:06Z</time><name>PT1691</name></trkpt>
<trkpt lat="52.904047" lon="-3.383106"><ele>672</ele><time>2020-09-03T10:58:06Z</time><name>PT1692</name></trkpt>
<trkpt lat="52.904038" lon="-3.383093"><ele>672</ele><time>2020-09-03T10:58:08Z</time><name>PT1693</name></trkpt>
<trkpt lat="52.904032" lon="-3.383078"><ele>672</ele><time>2020-09-03T10:58:09Z</time><name>PT1694</name></trkpt>
<trkpt lat="52.904028" lon="-3.383064"><ele>672</ele><time>2020-09-03T10:58:10Z</time><name>PT1695</name></trkpt>
<trkpt lat="52.904023" lon="-3.383044"><ele>672</ele><time>2020-09-03T10:58:10Z</time><name>PT1696</name></trkpt>
<trkpt lat="52.904015" lon="-3.383026"><ele>672</ele><time>2020-09-03T10:58:12Z</time><name>PT1697</name></trkpt>
<trkpt lat="52.904009" lon="-3.383013"><ele>672</ele><time>2020-09-03T10:58:12Z</time><name>PT1698</name></trkpt>
<trkpt lat="52.904005" lon="-3.383000"><ele>672</ele><time>2020-09-03T10:58:14Z</time><name>PT1699</name></trkpt>
<trkpt lat="52.904002" lon="-3.382988"><ele>672</ele><time>2020-09-03T10:58:14Z</time><name>PT1700</name></trkpt>
<trkpt lat="52.903997" lon="-3.382971"><ele>671</ele><time>2020-09-03T10:58:16Z</time><name>PT1701</name></trkpt>
<trkpt lat="52.903993" lon="-3.382959"><ele>671</ele><time>2020-09-03T10:58:16Z</time><name>PT1702</name></trkpt>
<trkpt lat="52.903986" lon="-3.382946"><ele>671</ele><time>2020-09-03T10:58:18Z</time><name>PT1703</name></trkpt>
<trkpt lat="52.903981" lon="-3.382934"><ele>672</ele><time>2020-09-03T10:58:19Z</time><name>PT1704</name></trkpt>
<trkpt lat="52.903977" lon="-3.382920"><ele>671</ele><time>2020-09-03T10:58:20Z</time><name>PT1705</name></trkpt>
<trkpt lat="52.903972" lon="-3.382906"><ele>671</ele><time>2020-09-03T10:58:20Z</time><name>PT1706</name></trkpt>
<trkpt lat="52.903968" lon="-3.382893"><ele>671</ele><time>2020-09-03T10:58:22Z</time><name>PT1707</name></trkpt>
<trkpt lat="52.903963" lon="-3.382875"><ele>671</ele><time>2020-09-03T10:58:22Z</time><name>PT1708</name></trkpt>
<trkpt lat="52.903958" lon="-3.382860"><ele>671</ele><time>2020-09-03T10:58:24Z</time><name>PT1709</name></trkpt>
<trkpt lat="52.903954" lon="-3.382846"><ele>670</ele><time>2020-09-03T10:58:25Z</time><name>PT1710</name></trkpt>
<trkpt lat="52.903950" lon="-3.382834"><ele>670</ele><time>2020-09-03T10:58:26Z</time><name>PT1711</name></trkpt>
<trkpt lat="52.903946" lon="-3.382820"><ele>670</ele><time>2020-09-03T10:58:26Z</time><name>PT1712</name></trkpt>
<trkpt lat="52.903941" lon="-3.382803"><ele>670</ele><time>2020-09-03T10:58:28Z</time><name>PT1713</name></trkpt>
<trkpt lat="52.903935" lon="-3.382783"><ele>670</ele><time>2020-09-03T10:58:28Z</time><name>PT1714</name></trkpt>
<trkpt lat="52.903931" lon="-3.382766"><ele>670</ele><time>2020-09-03T10:58:30Z</time><name>PT1715</name></trkpt>
<trkpt lat="52.903927" lon="-3.382751"><ele>669</ele><time>2020-09-03T10:58:30Z</time><name>PT1716</name></trkpt>
<trkpt lat="52.903923" lon="-3.382737"><ele>669</ele><time>2020-09-03T10:58:32Z</time><name>PT1717</name></trkpt>
<trkpt lat="52.903921" lon="-3.382722"><ele>669</ele><time>2020-09-03T10:58:32Z</time><name>PT1718</name></trkpt>
<trkpt lat="52.903916" lon="-3.382700"><ele>669</ele><time>2020-09-03T10:58:34Z</time><name>PT1719</name></trkpt>
<trkpt lat="52.903912" lon="-3.382685"><ele>669</ele><time>2020-09-03T10:58:35Z</time><name>PT1720</name></trkpt>
<trkpt lat="52.903900" lon="-3.382644"><ele>669</ele><time>2020-09-03T10:58:38Z</time><name>PT1721</name></trkpt>
<trkpt lat="52.903884" lon="-3.382580"><ele>668</ele><time>2020-09-03T10:58:42Z</time><name>PT1722</name></trkpt>
<trkpt lat="52.903874" lon="-3.382522"><ele>668</ele><time>2020-09-03T10:58:46Z</time><name>PT1723</name></trkpt>
<trkpt lat="52.903866" lon="-3.382456"><ele>667</ele><time>2020-09-03T10:58:50Z</time><name>PT1724</name></trkpt>
<trkpt lat="52.903864" lon="-3.382405"><ele>667</ele><time>2020-09-03T10:58:54Z</time><name>PT1725</name></trkpt>
<trkpt lat="52.903868" lon="-3.382369"><ele>667</ele><time>2020-09-03T10:58:58Z</time><name>PT1726</name></trkpt>
<trkpt lat="52.903856" lon="-3.382321"><ele>667</ele><time>2020-09-03T10:59:02Z</time><name>PT1727</name></trkpt>
<trkpt lat="52.903841" lon="-3.382248"><ele>667</ele><time>2020-09-03T10:59:06Z</time><name>PT1728</name></trkpt>
<trkpt lat="52.903829" lon="-3.382180"><ele>668</ele><time>2020-09-03T10:59:10Z</time><name>PT1729</name></trkpt>
<trkpt lat="52.903812" lon="-3.382129"><ele>668</ele><time>2020-09-03T10:59:14Z</time><name>PT1730</name></trkpt>
<trkpt lat="52.903794" lon="-3.382070"><ele>667</ele><time>2020-09-03T10:59:18Z</time><name>PT1731</name></trkpt>
<trkpt lat="52.903770" lon="-3.382009"><ele>667</ele><time>2020-09-03T10:59:22Z</time><name>PT1732</name></trkpt>
<trkpt lat="52.903753" lon="-3.381961"><ele>666</ele><time>2020-09-03T10:59:25Z</time><name>PT1733</name></trkpt>
<trkpt lat="52.903730" lon="-3.381906"><ele>667</ele><time>2020-09-03T10:59:28Z</time><name>PT1734</name></trkpt>
<trkpt lat="52.903717" lon="-3.381863"><ele>666</ele><time>2020-09-03T10:59:32Z</time><name>PT1735</name></trkpt>
<trkpt lat="52.903703" lon="-3.381801"><ele>666</ele><time>2020-09-03T10:59:36Z</time><name>PT1736</name></trkpt>
<trkpt lat="52.903687" lon="-3.381742"><ele>665</ele><time>2020-09-03T10:59:40Z</time><name>PT1737</name></trkpt>
<trkpt lat="52.903666" lon="-3.381683"><ele>665</ele><time>2020-09-03T10:59:44Z</time><name>PT1738</name></trkpt>
<trkpt lat="52.903647" lon="-3.381628"><ele>665</ele><time>2020-09-03T10:59:48Z</time><name>PT1739</name></trkpt>
<trkpt lat="52.903621" lon="-3.381566"><ele>665</ele><time>2020-09-03T10:59:52Z</time><name>PT1740</name></trkpt>
<trkpt lat="52.903604" lon="-3.381507"><ele>664</ele><time>2020-09-03T10:59:56Z</time><name>PT1741</name></trkpt>
<trkpt lat="52.903579" lon="-3.381444"><ele>664</ele><time>2020-09-03T11:00:00Z</time><name>PT1742</name></trkpt>
<trkpt lat="52.903561" lon="-3.381389"><ele>664</ele><time>2020-09-03T11:00:04Z</time><name>PT1743</name></trkpt>
<trkpt lat="52.903541" lon="-3.381332"><ele>664</ele><time>2020-09-03T11:00:08Z</time><name>PT1744</name></trkpt>
<trkpt lat="52.903521" lon="-3.381284"><ele>663</ele><time>2020-09-03T11:00:12Z</time><name>PT1745</name></trkpt>
<trkpt lat="52.903500" lon="-3.381228"><ele>664</ele><time>2020-09-03T11:00:16Z</time><name>PT1746</name></trkpt>
<trkpt lat="52.903472" lon="-3.381166"><ele>664</ele><time>2020-09-03T11:00:20Z</time><name>PT1747</name></trkpt>
<trkpt lat="52.903448" lon="-3.381107"><ele>662</ele><time>2020-09-03T11:00:24Z</time><name>PT1748</name></trkpt>
<trkpt lat="52.903422" lon="-3.381050"><ele>662</ele><time>2020-09-03T11:00:28Z</time><name>PT1749</name></trkpt>
<trkpt lat="52.903398" lon="-3.380992"><ele>662</ele><time>2020-09-03T11:00:32Z</time><name>PT1750</name></trkpt>
<trkpt lat="52.903371" lon="-3.380946"><ele>661</ele><time>2020-09-03T11:00:36Z</time><name>PT1751</name></trkpt>
<trkpt lat="52.903335" lon="-3.380895"><ele>661</ele><time>2020-09-03T11:00:40Z</time><name>PT1752</name></trkpt>
<trkpt lat="52.903304" lon="-3.380839"><ele>660</ele><time>2020-09-03T11:00:44Z</time><name>PT1753</name></trkpt>
<trkpt lat="52.903277" lon="-3.380785"><ele>661</ele><time>2020-09-03T11:00:48Z</time><name>PT1754</name></trkpt>
<trkpt lat="52.903254" lon="-3.380734"><ele>661</ele><time>2020-09-03T11:00:52Z</time><name>PT1755</name></trkpt>
<trkpt lat="52.903229" lon="-3.380677"><ele>661</ele><time>2020-09-03T11:00:56Z</time><name>PT1756</name></trkpt>
<trkpt lat="52.903209" lon="-3.380633"><ele>661</ele><time>2020-09-03T11:01:00Z</time><name>PT1757</name></trkpt>
<trkpt lat="52.903183" lon="-3.380590"><ele>661</ele><time>2020-09-03T11:01:04Z</time><name>PT1758</name></trkpt>
<trkpt lat="52.903148" lon="-3.380543"><ele>661</ele><time>2020-09-03T11:01:08Z</time><name>PT1759</name></trkpt>
<trkpt lat="52.903120" lon="-3.380494"><ele>661</ele><time>2020-09-03T11:01:12Z</time><name>PT1760</name></trkpt>
<trkpt lat="52.903090" lon="-3.380449"><ele>661</ele><time>2020-09-03T11:01:16Z</time><name>PT1761</name></trkpt>
<trkpt lat="52.903070" lon="-3.380414"><ele>662</ele><time>2020-09-03T11:01:20Z</time><name>PT1762</name></trkpt>
<trkpt lat="52.903035" lon="-3.380376"><ele>662</ele><time>2020-09-03T11:01:24Z</time><name>PT1763</name></trkpt>
<trkpt lat="52.903000" lon="-3.380327"><ele>661</ele><time>2020-09-03T11:01:28Z</time><name>PT1764</name></trkpt>
<trkpt lat="52.902967" lon="-3.380280"><ele>661</ele><time>2020-09-03T11:01:32Z</time><name>PT1765</name></trkpt>
<trkpt lat="52.902932" lon="-3.380237"><ele>661</ele><time>2020-09-03T11:01:36Z</time><name>PT1766</name></trkpt>
<trkpt lat="52.902908" lon="-3.380196"><ele>662</ele><time>2020-09-03T11:01:40Z</time><name>PT1767</name></trkpt>
<trkpt lat="52.902877" lon="-3.380156"><ele>662</ele><time>2020-09-03T11:01:44Z</time><name>PT1768</name></trkpt>
<trkpt lat="52.902841" lon="-3.380105"><ele>663</ele><time>2020-09-03T11:01:48Z</time><name>PT1769</name></trkpt>
<trkpt lat="52.902804" lon="-3.380093"><ele>663</ele><time>2020-09-03T11:01:52Z</time><name>PT1770</name></trkpt>
<trkpt lat="52.902765" lon="-3.380088"><ele>663</ele><time>2020-09-03T11:01:56Z</time><name>PT1771</name></trkpt>
<trkpt lat="52.902731" lon="-3.380086"><ele>662</ele><time>2020-09-03T11:02:00Z</time><name>PT1772</name></trkpt>
<trkpt lat="52.902714" lon="-3.380069"><ele>662</ele><time>2020-09-03T11:02:04Z</time><name>PT1773</name></trkpt>
<trkpt lat="52.902705" lon="-3.380048"><ele>662</ele><time>2020-09-03T11:02:08Z</time><name>PT1774</name></trkpt>
<trkpt lat="52.902682" lon="-3.380014"><ele>664</ele><time>2020-09-03T11:02:12Z</time><name>PT1775</name></trkpt>
<trkpt lat="52.902651" lon="-3.379976"><ele>665</ele><time>2020-09-03T11:02:16Z</time><name>PT1776</name></trkpt>
<trkpt lat="52.902629" lon="-3.379956"><ele>666</ele><time>2020-09-03T11:02:20Z</time><name>PT1777</name></trkpt>
<trkpt lat="52.902606" lon="-3.379940"><ele>664</ele><time>2020-09-03T11:02:24Z</time><name>PT1778</name></trkpt>
<trkpt lat="52.902570" lon="-3.379972"><ele>666</ele><time>2020-09-03T11:02:28Z</time><name>PT1779</name></trkpt>
<trkpt lat="52.902543" lon="-3.380004"><ele>665</ele><time>2020-09-03T11:02:32Z</time><name>PT1780</name></trkpt>
<trkpt lat="52.902518" lon="-3.380043"><ele>666</ele><time>2020-09-03T11:02:36Z</time><name>PT1781</name></trkpt>
<trkpt lat="52.902486" lon="-3.380074"><ele>666</ele><time>2020-09-03T11:02:40Z</time><name>PT1782</name></trkpt>
<trkpt lat="52.902448" lon="-3.380112"><ele>665</ele><time>2020-09-03T11:02:44Z</time><name>PT1783</name></trkpt>
<trkpt lat="52.902408" lon="-3.380136"><ele>664</ele><time>2020-09-03T11:02:48Z</time><name>PT1784</name></trkpt>
<trkpt lat="52.902369" lon="-3.380162"><ele>664</ele><time>2020-09-03T11:02:52Z</time><name>PT1785</name></trkpt>
<trkpt lat="52.902340" lon="-3.380184"><ele>663</ele><time>2020-09-03T11:02:56Z</time><name>PT1786</name></trkpt>
<trkpt lat="52.902304" lon="-3.380200"><ele>662</ele><time>2020-09-03T11:03:00Z</time><name>PT1787</name></trkpt>
<trkpt lat="52.902274" lon="-3.380217"><ele>662</ele><time>2020-09-03T11:03:04Z</time><name>PT1788</name></trkpt>
<trkpt lat="52.902236" lon="-3.380227"><ele>662</ele><time>2020-09-03T11:03:08Z</time><name>PT1789</name></trkpt>
<trkpt lat="52.902198" lon="-3.380252"><ele>662</ele><time>2020-09-03T11:03:12Z</time><name>PT1790</name></trkpt>
<trkpt lat="52.902174" lon="-3.380259"><ele>661</ele><time>2020-09-03T11:03:16Z</time><name>PT1791</name></trkpt>
<trkpt lat="52.902161" lon="-3.380259"><ele>660</ele><time>2020-09-03T11:03:20Z</time><name>PT1792</name></trkpt>
<trkpt lat="52.902131" lon="-3.380263"><ele>661</ele><time>2020-09-03T11:03:24Z</time><name>PT1793</name></trkpt>
<trkpt lat="52.902102" lon="-3.380291"><ele>661</ele><time>2020-09-03T11:03:28Z</time><name>PT1794</name></trkpt>
<trkpt lat="52.902061" lon="-3.380320"><ele>662</ele><time>2020-09-03T11:03:32Z</time><name>PT1795</name></trkpt>
<trkpt lat="52.902023" lon="-3.380348"><ele>662</ele><time>2020-09-03T11:03:36Z</time><name>PT1796</name></trkpt>
<trkpt lat="52.901988" lon="-3.380381"><ele>662</ele><time>2020-09-03T11:03:40Z</time><name>PT1797</name></trkpt>
<trkpt lat="52.901946" lon="-3.380403"><ele>662</ele><time>2020-09-03T11:03:44Z</time><name>PT1798</name></trkpt>
<trkpt lat="52.901902" lon="-3.380421"><ele>662</ele><time>2020-09-03T11:03:48Z</time><name>PT1799</name></trkpt>
<trkpt lat="52.901859" lon="-3.380454"><ele>663</ele><time>2020-09-03T11:03:52Z</time><name>PT1800</name></trkpt>
<trkpt lat="52.901823" lon="-3.380472"><ele>664</ele><time>2020-09-03T11:03:56Z</time><name>PT1801</name></trkpt>
<trkpt lat="52.901786" lon="-3.380461"><ele>663</ele><time>2020-09-03T11:04:00Z</time><name>PT1802</name></trkpt>
<trkpt lat="52.901748" lon="-3.380486"><ele>663</ele><time>2020-09-03T11:04:04Z</time><name>PT1803</name></trkpt>
<trkpt lat="52.901712" lon="-3.380518"><ele>663</ele><time>2020-09-03T11:04:08Z</time><name>PT1804</name></trkpt>
<trkpt lat="52.901678" lon="-3.380545"><ele>662</ele><time>2020-09-03T11:04:12Z</time><name>PT1805</name></trkpt>
<trkpt lat="52.901641" lon="-3.380566"><ele>662</ele><time>2020-09-03T11:04:16Z</time><name>PT1806</name></trkpt>
<trkpt lat="52.901600" lon="-3.380593"><ele>662</ele><time>2020-09-03T11:04:20Z</time><name>PT1807</name></trkpt>
<trkpt lat="52.901555" lon="-3.380617"><ele>663</ele><time>2020-09-03T11:04:24Z</time><name>PT1808</name></trkpt>
<trkpt lat="52.901516" lon="-3.380657"><ele>664</ele><time>2020-09-03T11:04:28Z</time><name>PT1809</name></trkpt>
<trkpt lat="52.901473" lon="-3.380680"><ele>664</ele><time>2020-09-03T11:04:32Z</time><name>PT1810</name></trkpt>
<trkpt lat="52.901437" lon="-3.380716"><ele>663</ele><time>2020-09-03T11:04:36Z</time><name>PT1811</name></trkpt>
<trkpt lat="52.901399" lon="-3.380745"><ele>663</ele><time>2020-09-03T11:04:40Z</time><name>PT1812</name></trkpt>
<trkpt lat="52.901356" lon="-3.380761"><ele>667</ele><time>2020-09-03T11:04:44Z</time><name>PT1813</name></trkpt>
<trkpt lat="52.901329" lon="-3.380785"><ele>666</ele><time>2020-09-03T11:04:47Z</time><name>PT1814</name></trkpt>
<trkpt lat="52.901307" lon="-3.380820"><ele>664</ele><time>2020-09-03T11:04:51Z</time><name>PT1815</name></trkpt>
<trkpt lat="52.901265" lon="-3.380863"><ele>663</ele><time>2020-09-03T11:04:55Z</time><name>PT1816</name></trkpt>
<trkpt lat="52.901223" lon="-3.380906"><ele>661</ele><time>2020-09-03T11:04:59Z</time><name>PT1817</name></trkpt>
<trkpt lat="52.901178" lon="-3.380942"><ele>662</ele><time>2020-09-03T11:05:03Z</time><name>PT1818</name></trkpt>
<trkpt lat="52.901138" lon="-3.380955"><ele>661</ele><time>2020-09-03T11:05:07Z</time><name>PT1819</name></trkpt>
<trkpt lat="52.901101" lon="-3.380967"><ele>660</ele><time>2020-09-03T11:05:11Z</time><name>PT1820</name></trkpt>
<trkpt lat="52.901052" lon="-3.380995"><ele>660</ele><time>2020-09-03T11:05:15Z</time><name>PT1821</name></trkpt>
<trkpt lat="52.901007" lon="-3.381010"><ele>661</ele><time>2020-09-03T11:05:19Z</time><name>PT1822</name></trkpt>
<trkpt lat="52.900965" lon="-3.381035"><ele>662</ele><time>2020-09-03T11:05:23Z</time><name>PT1823</name></trkpt>
<trkpt lat="52.900920" lon="-3.381057"><ele>662</ele><time>2020-09-03T11:05:27Z</time><name>PT1824</name></trkpt>
<trkpt lat="52.900879" lon="-3.381085"><ele>664</ele><time>2020-09-03T11:05:31Z</time><name>PT1825</name></trkpt>
<trkpt lat="52.900842" lon="-3.381120"><ele>664</ele><time>2020-09-03T11:05:35Z</time><name>PT1826</name></trkpt>
<trkpt lat="52.900810" lon="-3.381147"><ele>663</ele><time>2020-09-03T11:05:39Z</time><name>PT1827</name></trkpt>
<trkpt lat="52.900774" lon="-3.381155"><ele>663</ele><time>2020-09-03T11:05:43Z</time><name>PT1828</name></trkpt>
<trkpt lat="52.900730" lon="-3.381167"><ele>664</ele><time>2020-09-03T11:05:47Z</time><name>PT1829</name></trkpt>
<trkpt lat="52.900686" lon="-3.381164"><ele>665</ele><time>2020-09-03T11:05:51Z</time><name>PT1830</name></trkpt>
<trkpt lat="52.900637" lon="-3.381160"><ele>665</ele><time>2020-09-03T11:05:55Z</time><name>PT1831</name></trkpt>
<trkpt lat="52.900597" lon="-3.381147"><ele>666</ele><time>2020-09-03T11:05:59Z</time><name>PT1832</name></trkpt>
<trkpt lat="52.900553" lon="-3.381127"><ele>666</ele><time>2020-09-03T11:06:03Z</time><name>PT1833</name></trkpt>
<trkpt lat="52.900512" lon="-3.381106"><ele>667</ele><time>2020-09-03T11:06:07Z</time><name>PT1834</name></trkpt>
<trkpt lat="52.900467" lon="-3.381094"><ele>666</ele><time>2020-09-03T11:06:11Z</time><name>PT1835</name></trkpt>
<trkpt lat="52.900426" lon="-3.381082"><ele>667</ele><time>2020-09-03T11:06:15Z</time><name>PT1836</name></trkpt>
<trkpt lat="52.900382" lon="-3.381077"><ele>668</ele><time>2020-09-03T11:06:19Z</time><name>PT1837</name></trkpt>
<trkpt lat="52.900341" lon="-3.381077"><ele>667</ele><time>2020-09-03T11:06:23Z</time><name>PT1838</name></trkpt>
<trkpt lat="52.900294" lon="-3.381065"><ele>666</ele><time>2020-09-03T11:06:27Z</time><name>PT1839</name></trkpt>
<trkpt lat="52.900254" lon="-3.381045"><ele>667</ele><time>2020-09-03T11:06:31Z</time><name>PT1840</name></trkpt>
<trkpt lat="52.900217" lon="-3.381039"><ele>668</ele><time>2020-09-03T11:06:35Z</time><name>PT1841</name></trkpt>
<trkpt lat="52.900172" lon="-3.381023"><ele>668</ele><time>2020-09-03T11:06:39Z</time><name>PT1842</name></trkpt>
<trkpt lat="52.900130" lon="-3.381007"><ele>668</ele><time>2020-09-03T11:06:43Z</time><name>PT1843</name></trkpt>
<trkpt lat="52.900086" lon="-3.380976"><ele>669</ele><time>2020-09-03T11:06:47Z</time><name>PT1844</name></trkpt>
<trkpt lat="52.900042" lon="-3.380949"><ele>669</ele><time>2020-09-03T11:06:51Z</time><name>PT1845</name></trkpt>
<trkpt lat="52.900004" lon="-3.380911"><ele>668</ele><time>2020-09-03T11:06:55Z</time><name>PT1846</name></trkpt>
<trkpt lat="52.899956" lon="-3.380890"><ele>668</ele><time>2020-09-03T11:06:59Z</time><name>PT1847</name></trkpt>
<trkpt lat="52.899916" lon="-3.380864"><ele>667</ele><time>2020-09-03T11:07:03Z</time><name>PT1848</name></trkpt>
<trkpt lat="52.899874" lon="-3.380826"><ele>668</ele><time>2020-09-03T11:07:07Z</time><name>PT1849</name></trkpt>
<trkpt lat="52.899839" lon="-3.380788"><ele>668</ele><time>2020-09-03T11:07:11Z</time><name>PT1850</name></trkpt>
<trkpt lat="52.899806" lon="-3.380752"><ele>668</ele><time>2020-09-03T11:07:15Z</time><name>PT1851</name></trkpt>
<trkpt lat="52.899776" lon="-3.380717"><ele>671</ele><time>2020-09-03T11:07:19Z</time><name>PT1852</name></trkpt>
<trkpt lat="52.899748" lon="-3.380683"><ele>672</ele><time>2020-09-03T11:07:23Z</time><name>PT1853</name></trkpt>
<trkpt lat="52.899711" lon="-3.380642"><ele>672</ele><time>2020-09-03T11:07:27Z</time><name>PT1854</name></trkpt>
<trkpt lat="52.899675" lon="-3.380592"><ele>672</ele><time>2020-09-03T11:07:31Z</time><name>PT1855</name></trkpt>
<trkpt lat="52.899636" lon="-3.380541"><ele>672</ele><time>2020-09-03T11:07:35Z</time><name>PT1856</name></trkpt>
<trkpt lat="52.899604" lon="-3.380487"><ele>672</ele><time>2020-09-03T11:07:39Z</time><name>PT1857</name></trkpt>
<trkpt lat="52.899565" lon="-3.380437"><ele>671</ele><time>2020-09-03T11:07:43Z</time><name>PT1858</name></trkpt>
<trkpt lat="52.899531" lon="-3.380388"><ele>671</ele><time>2020-09-03T11:07:47Z</time><name>PT1859</name></trkpt>
<trkpt lat="52.899502" lon="-3.380327"><ele>671</ele><time>2020-09-03T11:07:51Z</time><name>PT1860</name></trkpt>
<trkpt lat="52.899472" lon="-3.380280"><ele>671</ele><time>2020-09-03T11:07:55Z</time><name>PT1861</name></trkpt>
<trkpt lat="52.899438" lon="-3.380232"><ele>671</ele><time>2020-09-03T11:07:59Z</time><name>PT1862</name></trkpt>
<trkpt lat="52.899407" lon="-3.380181"><ele>671</ele><time>2020-09-03T11:08:03Z</time><name>PT1863</name></trkpt>
<trkpt lat="52.899380" lon="-3.380121"><ele>671</ele><time>2020-09-03T11:08:07Z</time><name>PT1864</name></trkpt>
<trkpt lat="52.899354" lon="-3.380076"><ele>671</ele><time>2020-09-03T11:08:11Z</time><name>PT1865</name></trkpt>
<trkpt lat="52.899322" lon="-3.380021"><ele>672</ele><time>2020-09-03T11:08:15Z</time><name>PT1866</name></trkpt>
<trkpt lat="52.899292" lon="-3.379965"><ele>672</ele><time>2020-09-03T11:08:19Z</time><name>PT1867</name></trkpt>
<trkpt lat="52.899264" lon="-3.379885"><ele>671</ele><time>2020-09-03T11:08:23Z</time><name>PT1868</name></trkpt>
<trkpt lat="52.899248" lon="-3.379840"><ele>673</ele><time>2020-09-03T11:08:27Z</time><name>PT1869</name></trkpt>
<trkpt lat="52.899223" lon="-3.379788"><ele>672</ele><time>2020-09-03T11:08:31Z</time><name>PT1870</name></trkpt>
<trkpt lat="52.899185" lon="-3.379734"><ele>673</ele><time>2020-09-03T11:08:35Z</time><name>PT1871</name></trkpt>
<trkpt lat="52.899157" lon="-3.379686"><ele>673</ele><time>2020-09-03T11:08:39Z</time><name>PT1872</name></trkpt>
<trkpt lat="52.899131" lon="-3.379632"><ele>673</ele><time>2020-09-03T11:08:43Z</time><name>PT1873</name></trkpt>
<trkpt lat="52.899105" lon="-3.379580"><ele>672</ele><time>2020-09-03T11:08:47Z</time><name>PT1874</name></trkpt>
<trkpt lat="52.899081" lon="-3.379519"><ele>672</ele><time>2020-09-03T11:08:51Z</time><name>PT1875</name></trkpt>
<trkpt lat="52.899063" lon="-3.379470"><ele>672</ele><time>2020-09-03T11:08:55Z</time><name>PT1876</name></trkpt>
<trkpt lat="52.899035" lon="-3.379413"><ele>672</ele><time>2020-09-03T11:08:59Z</time><name>PT1877</name></trkpt>
<trkpt lat="52.899006" lon="-3.379351"><ele>673</ele><time>2020-09-03T11:09:03Z</time><name>PT1878</name></trkpt>
<trkpt lat="52.898993" lon="-3.379295"><ele>673</ele><time>2020-09-03T11:09:07Z</time><name>PT1879</name></trkpt>
<trkpt lat="52.898961" lon="-3.379270"><ele>673</ele><time>2020-09-03T11:09:11Z</time><name>PT1880</name></trkpt>
<trkpt lat="52.898935" lon="-3.379218"><ele>673</ele><time>2020-09-03T11:09:15Z</time><name>PT1881</name></trkpt>
<trkpt lat="52.898909" lon="-3.379177"><ele>674</ele><time>2020-09-03T11:09:19Z</time><name>PT1882</name></trkpt>
<trkpt lat="52.898891" lon="-3.379134"><ele>672</ele><time>2020-09-03T11:09:23Z</time><name>PT1883</name></trkpt>
<trkpt lat="52.898875" lon="-3.379097"><ele>670</ele><time>2020-09-03T11:09:27Z</time><name>PT1884</name></trkpt>
<trkpt lat="52.898855" lon="-3.379059"><ele>671</ele><time>2020-09-03T11:09:31Z</time><name>PT1885</name></trkpt>
<trkpt lat="52.898833" lon="-3.379019"><ele>671</ele><time>2020-09-03T11:09:35Z</time><name>PT1886</name></trkpt>
<trkpt lat="52.898797" lon="-3.378973"><ele>671</ele><time>2020-09-03T11:09:39Z</time><name>PT1887</name></trkpt>
<trkpt lat="52.898771" lon="-3.378931"><ele>669</ele><time>2020-09-03T11:09:43Z</time><name>PT1888</name></trkpt>
<trkpt lat="52.898744" lon="-3.378881"><ele>669</ele><time>2020-09-03T11:09:47Z</time><name>PT1889</name></trkpt>
<trkpt lat="52.898728" lon="-3.378826"><ele>669</ele><time>2020-09-03T11:09:51Z</time><name>PT1890</name></trkpt>
<trkpt lat="52.898717" lon="-3.378786"><ele>669</ele><time>2020-09-03T11:09:55Z</time><name>PT1891</name></trkpt>
<trkpt lat="52.898688" lon="-3.378728"><ele>668</ele><time>2020-09-03T11:09:59Z</time><name>PT1892</name></trkpt>
<trkpt lat="52.898652" lon="-3.378690"><ele>669</ele><time>2020-09-03T11:10:03Z</time><name>PT1893</name></trkpt>
<trkpt lat="52.898622" lon="-3.378657"><ele>668</ele><time>2020-09-03T11:10:07Z</time><name>PT1894</name></trkpt>
<trkpt lat="52.898591" lon="-3.378600"><ele>668</ele><time>2020-09-03T11:10:11Z</time><name>PT1895</name></trkpt>
<trkpt lat="52.898566" lon="-3.378540"><ele>668</ele><time>2020-09-03T11:10:15Z</time><name>PT1896</name></trkpt>
<trkpt lat="52.898541" lon="-3.378473"><ele>667</ele><time>2020-09-03T11:10:19Z</time><name>PT1897</name></trkpt>
<trkpt lat="52.898517" lon="-3.378415"><ele>667</ele><time>2020-09-03T11:10:23Z</time><name>PT1898</name></trkpt>
<trkpt lat="52.898495" lon="-3.378343"><ele>667</ele><time>2020-09-03T11:10:27Z</time><name>PT1899</name></trkpt>
<trkpt lat="52.898470" lon="-3.378290"><ele>666</ele><time>2020-09-03T11:10:31Z</time><name>PT1900</name></trkpt>
<trkpt lat="52.898439" lon="-3.378254"><ele>665</ele><time>2020-09-03T11:10:35Z</time><name>PT1901</name></trkpt>
<trkpt lat="52.898402" lon="-3.378215"><ele>665</ele><time>2020-09-03T11:10:39Z</time><name>PT1902</name></trkpt>
<trkpt lat="52.898377" lon="-3.378141"><ele>665</ele><time>2020-09-03T11:10:43Z</time><name>PT1903</name></trkpt>
<trkpt lat="52.898350" lon="-3.378074"><ele>666</ele><time>2020-09-03T11:10:47Z</time><name>PT1904</name></trkpt>
<trkpt lat="52.898316" lon="-3.378019"><ele>667</ele><time>2020-09-03T11:10:51Z</time><name>PT1905</name></trkpt>
<trkpt lat="52.898289" lon="-3.377953"><ele>667</ele><time>2020-09-03T11:10:55Z</time><name>PT1906</name></trkpt>
<trkpt lat="52.898256" lon="-3.377899"><ele>667</ele><time>2020-09-03T11:10:59Z</time><name>PT1907</name></trkpt>
<trkpt lat="52.898230" lon="-3.377857"><ele>667</ele><time>2020-09-03T11:11:03Z</time><name>PT1908</name></trkpt>
<trkpt lat="52.898196" lon="-3.377838"><ele>666</ele><time>2020-09-03T11:11:07Z</time><name>PT1909</name></trkpt>
<trkpt lat="52.898181" lon="-3.377831"><ele>666</ele><time>2020-09-03T11:11:11Z</time><name>PT1910</name></trkpt>
<trkpt lat="52.898172" lon="-3.377809"><ele>665</ele><time>2020-09-03T11:11:15Z</time><name>PT1911</name></trkpt>
<trkpt lat="52.898145" lon="-3.377807"><ele>666</ele><time>2020-09-03T11:11:19Z</time><name>PT1912</name></trkpt>
<trkpt lat="52.898097" lon="-3.377798"><ele>667</ele><time>2020-09-03T11:11:23Z</time><name>PT1913</name></trkpt>
<trkpt lat="52.898050" lon="-3.377771"><ele>666</ele><time>2020-09-03T11:11:27Z</time><name>PT1914</name></trkpt>
<trkpt lat="52.898009" lon="-3.377766"><ele>666</ele><time>2020-09-03T11:11:31Z</time><name>PT1915</name></trkpt>
<trkpt lat="52.897972" lon="-3.377757"><ele>667</ele><time>2020-09-03T11:11:35Z</time><name>PT1916</name></trkpt>
<trkpt lat="52.897932" lon="-3.377737"><ele>667</ele><time>2020-09-03T11:11:39Z</time><name>PT1917</name></trkpt>
<trkpt lat="52.897891" lon="-3.377722"><ele>668</ele><time>2020-09-03T11:11:43Z</time><name>PT1918</name></trkpt>
<trkpt lat="52.897863" lon="-3.377704"><ele>667</ele><time>2020-09-03T11:11:47Z</time><name>PT1919</name></trkpt>
<trkpt lat="52.897821" lon="-3.377682"><ele>668</ele><time>2020-09-03T11:11:51Z</time><name>PT1920</name></trkpt>
<trkpt lat="52.897778" lon="-3.377661"><ele>669</ele><time>2020-09-03T11:11:55Z</time><name>PT1921</name></trkpt>
<trkpt lat="52.897755" lon="-3.377637"><ele>668</ele><time>2020-09-03T11:11:59Z</time><name>PT1922</name></trkpt>
<trkpt lat="52.897718" lon="-3.377623"><ele>669</ele><time>2020-09-03T11:12:03Z</time><name>PT1923</name></trkpt>
<trkpt lat="52.897677" lon="-3.377596"><ele>669</ele><time>2020-09-03T11:12:07Z</time><name>PT1924</name></trkpt>
<trkpt lat="52.897641" lon="-3.377566"><ele>670</ele><time>2020-09-03T11:12:11Z</time><name>PT1925</name></trkpt>
<trkpt lat="52.897611" lon="-3.377532"><ele>670</ele><time>2020-09-03T11:12:15Z</time><name>PT1926</name></trkpt>
<trkpt lat="52.897578" lon="-3.377504"><ele>670</ele><time>2020-09-03T11:12:19Z</time><name>PT1927</name></trkpt>
<trkpt lat="52.897544" lon="-3.377468"><ele>671</ele><time>2020-09-03T11:12:23Z</time><name>PT1928</name></trkpt>
<trkpt lat="52.897523" lon="-3.377436"><ele>671</ele><time>2020-09-03T11:12:27Z</time><name>PT1929</name></trkpt>
<trkpt lat="52.897499" lon="-3.377398"><ele>672</ele><time>2020-09-03T11:12:31Z</time><name>PT1930</name></trkpt>
<trkpt lat="52.897473" lon="-3.377365"><ele>673</ele><time>2020-09-03T11:12:35Z</time><name>PT1931</name></trkpt>
<trkpt lat="52.897446" lon="-3.377323"><ele>674</ele><time>2020-09-03T11:12:39Z</time><name>PT1932</name></trkpt>
<trkpt lat="52.897413" lon="-3.377290"><ele>675</ele><time>2020-09-03T11:12:43Z</time><name>PT1933</name></trkpt>
<trkpt lat="52.897375" lon="-3.377263"><ele>677</ele><time>2020-09-03T11:12:47Z</time><name>PT1934</name></trkpt>
<trkpt lat="52.897345" lon="-3.377228"><ele>678</ele><time>2020-09-03T11:12:51Z</time><name>PT1935</name></trkpt>
<trkpt lat="52.897318" lon="-3.377199"><ele>678</ele><time>2020-09-03T11:12:55Z</time><name>PT1936</name></trkpt>
<trkpt lat="52.897302" lon="-3.377149"><ele>679</ele><time>2020-09-03T11:12:59Z</time><name>PT1937</name></trkpt>
<trkpt lat="52.897280" lon="-3.377110"><ele>680</ele><time>2020-09-03T11:13:03Z</time><name>PT1938</name></trkpt>
<trkpt lat="52.897250" lon="-3.377081"><ele>681</ele><time>2020-09-03T11:13:06Z</time><name>PT1939</name></trkpt>
<trkpt lat="52.897217" lon="-3.377056"><ele>681</ele><time>2020-09-03T11:13:09Z</time><name>PT1940</name></trkpt>
<trkpt lat="52.897204" lon="-3.377035"><ele>682</ele><time>2020-09-03T11:13:13Z</time><name>PT1941</name></trkpt>
<trkpt lat="52.897179" lon="-3.376996"><ele>683</ele><time>2020-09-03T11:13:17Z</time><name>PT1942</name></trkpt>
<trkpt lat="52.897149" lon="-3.376961"><ele>684</ele><time>2020-09-03T11:13:21Z</time><name>PT1943</name></trkpt>
<trkpt lat="52.897121" lon="-3.376925"><ele>684</ele><time>2020-09-03T11:13:25Z</time><name>PT1944</name></trkpt>
<trkpt lat="52.897091" lon="-3.376895"><ele>684</ele><time>2020-09-03T11:13:29Z</time><name>PT1945</name></trkpt>
<trkpt lat="52.897062" lon="-3.376860"><ele>684</ele><time>2020-09-03T11:13:33Z</time><name>PT1946</name></trkpt>
<trkpt lat="52.897033" lon="-3.376809"><ele>684</ele><time>2020-09-03T11:13:37Z</time><name>PT1947</name></trkpt>
<trkpt lat="52.897006" lon="-3.376767"><ele>686</ele><time>2020-09-03T11:13:41Z</time><name>PT1948</name></trkpt>
<trkpt lat="52.896991" lon="-3.376751"><ele>686</ele><time>2020-09-03T11:13:45Z</time><name>PT1949</name></trkpt>
<trkpt lat="52.896977" lon="-3.376719"><ele>686</ele><time>2020-09-03T11:13:49Z</time><name>PT1950</name></trkpt>
<trkpt lat="52.896954" lon="-3.376684"><ele>688</ele><time>2020-09-03T11:13:53Z</time><name>PT1951</name></trkpt>
<trkpt lat="52.896945" lon="-3.376655"><ele>689</ele><time>2020-09-03T11:13:57Z</time><name>PT1952</name></trkpt>
<trkpt lat="52.896927" lon="-3.376621"><ele>690</ele><time>2020-09-03T11:14:01Z</time><name>PT1953</name></trkpt>
<trkpt lat="52.896911" lon="-3.376585"><ele>691</ele><time>2020-09-03T11:14:05Z</time><name>PT1954</name></trkpt>
<trkpt lat="52.896894" lon="-3.376548"><ele>692</ele><time>2020-09-03T11:14:09Z</time><name>PT1955</name></trkpt>
<trkpt lat="52.896884" lon="-3.376502"><ele>693</ele><time>2020-09-03T11:14:13Z</time><name>PT1956</name></trkpt>
<trkpt lat="52.896863" lon="-3.376468"><ele>694</ele><time>2020-09-03T11:14:17Z</time><name>PT1957</name></trkpt>
<trkpt lat="52.896850" lon="-3.376430"><ele>694</ele><time>2020-09-03T11:14:21Z</time><name>PT1958</name></trkpt>
<trkpt lat="52.896840" lon="-3.376400"><ele>694</ele><time>2020-09-03T11:14:25Z</time><name>PT1959</name></trkpt>
<trkpt lat="52.896821" lon="-3.376355"><ele>694</ele><time>2020-09-03T11:14:29Z</time><name>PT1960</name></trkpt>
<trkpt lat="52.896802" lon="-3.376306"><ele>696</ele><time>2020-09-03T11:14:33Z</time><name>PT1961</name></trkpt>
<trkpt lat="52.896778" lon="-3.376279"><ele>697</ele><time>2020-09-03T11:14:37Z</time><name>PT1962</name></trkpt>
<trkpt lat="52.896761" lon="-3.376262"><ele>697</ele><time>2020-09-03T11:14:41Z</time><name>PT1963</name></trkpt>
<trkpt lat="52.896740" lon="-3.376228"><ele>697</ele><time>2020-09-03T11:14:45Z</time><name>PT1964</name></trkpt>
<trkpt lat="52.896725" lon="-3.376197"><ele>698</ele><time>2020-09-03T11:14:49Z</time><name>PT1965</name></trkpt>
<trkpt lat="52.896706" lon="-3.376170"><ele>696</ele><time>2020-09-03T11:14:53Z</time><name>PT1966</name></trkpt>
<trkpt lat="52.896691" lon="-3.376125"><ele>696</ele><time>2020-09-03T11:14:57Z</time><name>PT1967</name></trkpt>
<trkpt lat="52.896679" lon="-3.376087"><ele>696</ele><time>2020-09-03T11:15:01Z</time><name>PT1968</name></trkpt>
<trkpt lat="52.896664" lon="-3.376045"><ele>697</ele><time>2020-09-03T11:15:05Z</time><name>PT1969</name></trkpt>
<trkpt lat="52.896650" lon="-3.376010"><ele>699</ele><time>2020-09-03T11:15:09Z</time><name>PT1970</name></trkpt>
<trkpt lat="52.896633" lon="-3.375968"><ele>700</ele><time>2020-09-03T11:15:13Z</time><name>PT1971</name></trkpt>
<trkpt lat="52.896617" lon="-3.375924"><ele>701</ele><time>2020-09-03T11:15:17Z</time><name>PT1972</name></trkpt>
<trkpt lat="52.896599" lon="-3.375890"><ele>699</ele><time>2020-09-03T11:15:21Z</time><name>PT1973</name></trkpt>
<trkpt lat="52.896575" lon="-3.375849"><ele>701</ele><time>2020-09-03T11:15:25Z</time><name>PT1974</name></trkpt>
<trkpt lat="52.896555" lon="-3.375806"><ele>701</ele><time>2020-09-03T11:15:29Z</time><name>PT1975</name></trkpt>
<trkpt lat="52.896545" lon="-3.375762"><ele>702</ele><time>2020-09-03T11:15:33Z</time><name>PT1976</name></trkpt>
<trkpt lat="52.896533" lon="-3.375723"><ele>702</ele><time>2020-09-03T11:15:37Z</time><name>PT1977</name></trkpt>
<trkpt lat="52.896522" lon="-3.375707"><ele>701</ele><time>2020-09-03T11:15:40Z</time><name>PT1978</name></trkpt>
<trkpt lat="52.896503" lon="-3.375661"><ele>703</ele><time>2020-09-03T11:15:44Z</time><name>PT1979</name></trkpt>
<trkpt lat="52.896492" lon="-3.375629"><ele>705</ele><time>2020-09-03T11:15:47Z</time><name>PT1980</name></trkpt>
<trkpt lat="52.896472" lon="-3.375580"><ele>706</ele><time>2020-09-03T11:15:51Z</time><name>PT1981</name></trkpt>
<trkpt lat="52.896451" lon="-3.375539"><ele>707</ele><time>2020-09-03T11:15:55Z</time><name>PT1982</name></trkpt>
<trkpt lat="52.896431" lon="-3.375490"><ele>707</ele><time>2020-09-03T11:15:59Z</time><name>PT1983</name></trkpt>
<trkpt lat="52.896423" lon="-3.375457"><ele>708</ele><time>2020-09-03T11:16:02Z</time><name>PT1984</name></trkpt>
<trkpt lat="52.896411" lon="-3.375420"><ele>708</ele><time>2020-09-03T11:16:06Z</time><name>PT1985</name></trkpt>
<trkpt lat="52.896398" lon="-3.375373"><ele>708</ele><time>2020-09-03T11:16:10Z</time><name>PT1986</name></trkpt>
<trkpt lat="52.896387" lon="-3.375332"><ele>708</ele><time>2020-09-03T11:16:14Z</time><name>PT1987</name></trkpt>
<trkpt lat="52.896377" lon="-3.375282"><ele>708</ele><time>2020-09-03T11:16:18Z</time><name>PT1988</name></trkpt>
<trkpt lat="52.896373" lon="-3.375237"><ele>708</ele><time>2020-09-03T11:16:22Z</time><name>PT1989</name></trkpt>
<trkpt lat="52.896367" lon="-3.375191"><ele>709</ele><time>2020-09-03T11:16:26Z</time><name>PT1990</name></trkpt>
<trkpt lat="52.896357" lon="-3.375147"><ele>711</ele><time>2020-09-03T11:16:30Z</time><name>PT1991</name></trkpt>
<trkpt lat="52.896345" lon="-3.375087"><ele>713</ele><time>2020-09-03T11:16:34Z</time><name>PT1992</name></trkpt>
<trkpt lat="52.896343" lon="-3.375047"><ele>713</ele><time>2020-09-03T11:16:36Z</time><name>PT1993</name></trkpt>
<trkpt lat="52.896342" lon="-3.375041"><ele>713</ele><time>2020-09-03T11:16:38Z</time><name>PT1994</name></trkpt>
<trkpt lat="52.896342" lon="-3.375039"><ele>714</ele><time>2020-09-03T11:16:38Z</time><name>PT1995</name></trkpt>
<trkpt lat="52.896340" lon="-3.375036"><ele>714</ele><time>2020-09-03T11:16:40Z</time><name>PT1996</name></trkpt>
<trkpt lat="52.896337" lon="-3.375034"><ele>714</ele><time>2020-09-03T11:16:42Z</time><name>PT1997</name></trkpt>
<trkpt lat="52.896335" lon="-3.375024"><ele>714</ele><time>2020-09-03T11:16:42Z</time><name>PT1998</name></trkpt>
<trkpt lat="52.896331" lon="-3.375016"><ele>714</ele><time>2020-09-03T11:16:44Z</time><name>PT1999</name></trkpt>
<trkpt lat="52.896329" lon="-3.375009"><ele>714</ele><time>2020-09-03T11:16:44Z</time><name>PT2000</name></trkpt>
<trkpt lat="52.896325" lon="-3.375005"><ele>714</ele><time>2020-09-03T11:16:46Z</time><name>PT2001</name></trkpt>
<trkpt lat="52.896315" lon="-3.374992"><ele>714</ele><time>2020-09-03T11:16:46Z</time><name>PT2002</name></trkpt>
<trkpt lat="52.896315" lon="-3.374981"><ele>714</ele><time>2020-09-03T11:16:48Z</time><name>PT2003</name></trkpt>
<trkpt lat="52.896312" lon="-3.374973"><ele>715</ele><time>2020-09-03T11:16:48Z</time><name>PT2004</name></trkpt>
<trkpt lat="52.896310" lon="-3.374969"><ele>715</ele><time>2020-09-03T11:16:50Z</time><name>PT2005</name></trkpt>
<trkpt lat="52.896311" lon="-3.374963"><ele>715</ele><time>2020-09-03T11:16:50Z</time><name>PT2006</name></trkpt>
<trkpt lat="52.896309" lon="-3.374953"><ele>714</ele><time>2020-09-03T11:16:52Z</time><name>PT2007</name></trkpt>
<trkpt lat="52.896309" lon="-3.374948"><ele>714</ele><time>2020-09-03T11:16:52Z</time><name>PT2008</name></trkpt>
<trkpt lat="52.896310" lon="-3.374939"><ele>714</ele><time>2020-09-03T11:16:54Z</time><name>PT2009</name></trkpt>
<trkpt lat="52.896310" lon="-3.374932"><ele>714</ele><time>2020-09-03T11:16:54Z</time><name>PT2010</name></trkpt>
<trkpt lat="52.896310" lon="-3.374927"><ele>713</ele><time>2020-09-03T11:16:56Z</time><name>PT2011</name></trkpt>
<trkpt lat="52.896316" lon="-3.374928"><ele>713</ele><time>2020-09-03T11:16:56Z</time><name>PT2012</name></trkpt>
<trkpt lat="52.896313" lon="-3.374931"><ele>713</ele><time>2020-09-03T11:16:58Z</time><name>PT2013</name></trkpt>
<trkpt lat="52.896311" lon="-3.374921"><ele>713</ele><time>2020-09-03T11:16:58Z</time><name>PT2014</name></trkpt>
<trkpt lat="52.896311" lon="-3.374912"><ele>713</ele><time>2020-09-03T11:17:00Z</time><name>PT2015</name></trkpt>
<trkpt lat="52.896311" lon="-3.374898"><ele>713</ele><time>2020-09-03T11:17:00Z</time><name>PT2016</name></trkpt>
<trkpt lat="52.896312" lon="-3.374885"><ele>712</ele><time>2020-09-03T11:17:02Z</time><name>PT2017</name></trkpt>
<trkpt lat="52.896309" lon="-3.374874"><ele>712</ele><time>2020-09-03T11:17:02Z</time><name>PT2018</name></trkpt>
<trkpt lat="52.896304" lon="-3.374853"><ele>712</ele><time>2020-09-03T11:17:04Z</time><name>PT2019</name></trkpt>
<trkpt lat="52.896301" lon="-3.374833"><ele>713</ele><time>2020-09-03T11:17:04Z</time><name>PT2020</name></trkpt>
<trkpt lat="52.896301" lon="-3.374820"><ele>713</ele><time>2020-09-03T11:17:06Z</time><name>PT2021</name></trkpt>
<trkpt lat="52.896300" lon="-3.374806"><ele>713</ele><time>2020-09-03T11:17:06Z</time><name>PT2022</name></trkpt>
<trkpt lat="52.896303" lon="-3.374797"><ele>713</ele><time>2020-09-03T11:17:08Z</time><name>PT2023</name></trkpt>
<trkpt lat="52.896298" lon="-3.374786"><ele>713</ele><time>2020-09-03T11:17:08Z</time><name>PT2024</name></trkpt>
<trkpt lat="52.896294" lon="-3.374775"><ele>713</ele><time>2020-09-03T11:17:10Z</time><name>PT2025</name></trkpt>
<trkpt lat="52.896289" lon="-3.374759"><ele>713</ele><time>2020-09-03T11:17:10Z</time><name>PT2026</name></trkpt>
<trkpt lat="52.896290" lon="-3.374748"><ele>713</ele><time>2020-09-03T11:17:12Z</time><name>PT2027</name></trkpt>
<trkpt lat="52.896290" lon="-3.374740"><ele>713</ele><time>2020-09-03T11:17:12Z</time><name>PT2028</name></trkpt>
<trkpt lat="52.896286" lon="-3.374729"><ele>713</ele><time>2020-09-03T11:17:14Z</time><name>PT2029</name></trkpt>
<trkpt lat="52.896282" lon="-3.374723"><ele>714</ele><time>2020-09-03T11:17:14Z</time><name>PT2030</name></trkpt>
<trkpt lat="52.896282" lon="-3.374714"><ele>713</ele><time>2020-09-03T11:17:16Z</time><name>PT2031</name></trkpt>
<trkpt lat="52.896280" lon="-3.374701"><ele>713</ele><time>2020-09-03T11:17:16Z</time><name>PT2032</name></trkpt>
<trkpt lat="52.896278" lon="-3.374687"><ele>713</ele><time>2020-09-03T11:17:18Z</time><name>PT2033</name></trkpt>
<trkpt lat="52.896274" lon="-3.374673"><ele>713</ele><time>2020-09-03T11:17:18Z</time><name>PT2034</name></trkpt>
<trkpt lat="52.896272" lon="-3.374661"><ele>713</ele><time>2020-09-03T11:17:20Z</time><name>PT2035</name></trkpt>
<trkpt lat="52.896268" lon="-3.374649"><ele>713</ele><time>2020-09-03T11:17:20Z</time><name>PT2036</name></trkpt>
<trkpt lat="52.896267" lon="-3.374639"><ele>712</ele><time>2020-09-03T11:17:22Z</time><name>PT2037</name></trkpt>
<trkpt lat="52.896270" lon="-3.374633"><ele>712</ele><time>2020-09-03T11:17:22Z</time><name>PT2038</name></trkpt>
<trkpt lat="52.896270" lon="-3.374624"><ele>712</ele><time>2020-09-03T11:17:24Z</time><name>PT2039</name></trkpt>
<trkpt lat="52.896269" lon="-3.374614"><ele>711</ele><time>2020-09-03T11:17:24Z</time><name>PT2040</name></trkpt>
<trkpt lat="52.896267" lon="-3.374606"><ele>711</ele><time>2020-09-03T11:17:26Z</time><name>PT2041</name></trkpt>
<trkpt lat="52.896263" lon="-3.374596"><ele>710</ele><time>2020-09-03T11:17:26Z</time><name>PT2042</name></trkpt>
<trkpt lat="52.896263" lon="-3.374591"><ele>710</ele><time>2020-09-03T11:17:28Z</time><name>PT2043</name></trkpt>
<trkpt lat="52.896261" lon="-3.374589"><ele>710</ele><time>2020-09-03T11:17:28Z</time><name>PT2044</name></trkpt>
<trkpt lat="52.896258" lon="-3.374580"><ele>709</ele><time>2020-09-03T11:17:30Z</time><name>PT2045</name></trkpt>
<trkpt lat="52.896254" lon="-3.374578"><ele>710</ele><time>2020-09-03T11:17:30Z</time><name>PT2046</name></trkpt>
<trkpt lat="52.896253" lon="-3.374574"><ele>710</ele><time>2020-09-03T11:17:32Z</time><name>PT2047</name></trkpt>
<trkpt lat="52.896253" lon="-3.374572"><ele>710</ele><time>2020-09-03T11:17:32Z</time><name>PT2048</name></trkpt>
<trkpt lat="52.896252" lon="-3.374568"><ele>710</ele><time>2020-09-03T11:17:36Z</time><name>PT2049</name></trkpt>
<trkpt lat="52.896252" lon="-3.374557"><ele>710</ele><time>2020-09-03T11:17:38Z</time><name>PT2050</name></trkpt>
<trkpt lat="52.896249" lon="-3.374550"><ele>710</ele><time>2020-09-03T11:17:38Z</time><name>PT2051</name></trkpt>
<trkpt lat="52.896246" lon="-3.374545"><ele>709</ele><time>2020-09-03T11:17:40Z</time><name>PT2052</name></trkpt>
<trkpt lat="52.896245" lon="-3.374540"><ele>709</ele><time>2020-09-03T11:17:40Z</time><name>PT2053</name></trkpt>
<trkpt lat="52.896245" lon="-3.374538"><ele>709</ele><time>2020-09-03T11:17:42Z</time><name>PT2054</name></trkpt>
<trkpt lat="52.896244" lon="-3.374536"><ele>709</ele><time>2020-09-03T11:17:42Z</time><name>PT2055</name></trkpt>
<trkpt lat="52.896243" lon="-3.374535"><ele>709</ele><time>2020-09-03T11:17:44Z</time><name>PT2056</name></trkpt>
<trkpt lat="52.896242" lon="-3.374534"><ele>709</ele><time>2020-09-03T11:17:57Z</time><name>PT2057</name></trkpt>
<trkpt lat="52.896239" lon="-3.374537"><ele>710</ele><time>2020-09-03T11:17:58Z</time><name>PT2058</name></trkpt>
<trkpt lat="52.896236" lon="-3.374539"><ele>710</ele><time>2020-09-03T11:17:59Z</time><name>PT2059</name></trkpt>
<trkpt lat="52.896234" lon="-3.374540"><ele>710</ele><time>2020-09-03T11:18:04Z</time><name>PT2060</name></trkpt>
<trkpt lat="52.896233" lon="-3.374539"><ele>710</ele><time>2020-09-03T11:18:05Z</time><name>PT2061</name></trkpt>
<trkpt lat="52.896228" lon="-3.374538"><ele>710</ele><time>2020-09-03T11:18:06Z</time><name>PT2062</name></trkpt>
<trkpt lat="52.896227" lon="-3.374539"><ele>709</ele><time>2020-09-03T11:18:06Z</time><name>PT2063</name></trkpt>
<trkpt lat="52.896226" lon="-3.374536"><ele>710</ele><time>2020-09-03T11:18:08Z</time><name>PT2064</name></trkpt>
<trkpt lat="52.896227" lon="-3.374538"><ele>709</ele><time>2020-09-03T11:18:08Z</time><name>PT2065</name></trkpt>
<trkpt lat="52.896230" lon="-3.374537"><ele>709</ele><time>2020-09-03T11:18:10Z</time><name>PT2066</name></trkpt>
<trkpt lat="52.896229" lon="-3.374524"><ele>710</ele><time>2020-09-03T11:18:12Z</time><name>PT2067</name></trkpt>
<trkpt lat="52.896224" lon="-3.374517"><ele>710</ele><time>2020-09-03T11:18:12Z</time><name>PT2068</name></trkpt>
<trkpt lat="52.896220" lon="-3.374510"><ele>709</ele><time>2020-09-03T11:18:14Z</time><name>PT2069</name></trkpt>
<trkpt lat="52.896219" lon="-3.374511"><ele>709</ele><time>2020-09-03T11:18:14Z</time><name>PT2070</name></trkpt>
<trkpt lat="52.896218" lon="-3.374509"><ele>709</ele><time>2020-09-03T11:18:16Z</time><name>PT2071</name></trkpt>
<trkpt lat="52.896218" lon="-3.374505"><ele>709</ele><time>2020-09-03T11:18:16Z</time><name>PT2072</name></trkpt>
<trkpt lat="52.896219" lon="-3.374515"><ele>709</ele><time>2020-09-03T11:18:28Z</time><name>PT2073</name></trkpt>
<trkpt lat="52.896220" lon="-3.374521"><ele>709</ele><time>2020-09-03T11:18:30Z</time><name>PT2074</name></trkpt>
<trkpt lat="52.896220" lon="-3.374529"><ele>709</ele><time>2020-09-03T11:18:30Z</time><name>PT2075</name></trkpt>
<trkpt lat="52.896219" lon="-3.374538"><ele>709</ele><time>2020-09-03T11:18:32Z</time><name>PT2076</name></trkpt>
<trkpt lat="52.896227" lon="-3.374528"><ele>709</ele><time>2020-09-03T11:19:12Z</time><name>PT2077</name></trkpt>
<trkpt lat="52.896230" lon="-3.374520"><ele>709</ele><time>2020-09-03T11:19:14Z</time><name>PT2078</name></trkpt>
<trkpt lat="52.896235" lon="-3.374501"><ele>709</ele><time>2020-09-03T11:19:16Z</time><name>PT2079</name></trkpt>
<trkpt lat="52.896238" lon="-3.374498"><ele>710</ele><time>2020-09-03T11:19:18Z</time><name>PT2080</name></trkpt>
<trkpt lat="52.896240" lon="-3.374489"><ele>709</ele><time>2020-09-03T11:19:18Z</time><name>PT2081</name></trkpt>
<trkpt lat="52.896243" lon="-3.374477"><ele>709</ele><time>2020-09-03T11:19:20Z</time><name>PT2082</name></trkpt>
<trkpt lat="52.896233" lon="-3.374503"><ele>708</ele><time>2020-09-03T11:20:04Z</time><name>PT2083</name></trkpt>
<trkpt lat="52.896227" lon="-3.374514"><ele>707</ele><time>2020-09-03T11:20:04Z</time><name>PT2084</name></trkpt>
<trkpt lat="52.896223" lon="-3.374523"><ele>706</ele><time>2020-09-03T11:20:06Z</time><name>PT2085</name></trkpt>
<trkpt lat="52.896222" lon="-3.374528"><ele>706</ele><time>2020-09-03T11:20:06Z</time><name>PT2086</name></trkpt>
<trkpt lat="52.896223" lon="-3.374534"><ele>706</ele><time>2020-09-03T11:20:08Z</time><name>PT2087</name></trkpt>
<trkpt lat="52.896221" lon="-3.374535"><ele>705</ele><time>2020-09-03T11:20:10Z</time><name>PT2088</name></trkpt>
<trkpt lat="52.896219" lon="-3.374528"><ele>705</ele><time>2020-09-03T11:20:11Z</time><name>PT2089</name></trkpt>
<trkpt lat="52.896220" lon="-3.374532"><ele>706</ele><time>2020-09-03T11:20:11Z</time><name>PT2090</name></trkpt>
<trkpt lat="52.896222" lon="-3.374540"><ele>706</ele><time>2020-09-03T11:20:13Z</time><name>PT2091</name></trkpt>
<trkpt lat="52.896222" lon="-3.374540"><ele>706</ele><time>2020-09-03T11:20:13Z</time><name>PT2092</name></trkpt>
<trkpt lat="52.896223" lon="-3.374542"><ele>706</ele><time>2020-09-03T11:20:15Z</time><name>PT2093</name></trkpt>
<trkpt lat="52.896225" lon="-3.374545"><ele>705</ele><time>2020-09-03T11:20:15Z</time><name>PT2094</name></trkpt>
<trkpt lat="52.896227" lon="-3.374551"><ele>705</ele><time>2020-09-03T11:20:17Z</time><name>PT2095</name></trkpt>
<trkpt lat="52.896225" lon="-3.374555"><ele>705</ele><time>2020-09-03T11:20:23Z</time><name>PT2096</name></trkpt>
<trkpt lat="52.896224" lon="-3.374556"><ele>705</ele><time>2020-09-03T11:20:23Z</time><name>PT2097</name></trkpt>
<trkpt lat="52.896222" lon="-3.374559"><ele>705</ele><time>2020-09-03T11:20:33Z</time><name>PT2098</name></trkpt>
<trkpt lat="52.896221" lon="-3.374561"><ele>705</ele><time>2020-09-03T11:20:33Z</time><name>PT2099</name></trkpt>
<trkpt lat="52.896221" lon="-3.374571"><ele>705</ele><time>2020-09-03T11:20:35Z</time><name>PT2100</name></trkpt>
<trkpt lat="52.896221" lon="-3.374575"><ele>706</ele><time>2020-09-03T11:20:35Z</time><name>PT2101</name></trkpt>
<trkpt lat="52.896223" lon="-3.374578"><ele>706</ele><time>2020-09-03T11:20:37Z</time><name>PT2102</name></trkpt>
<trkpt lat="52.896223" lon="-3.374579"><ele>706</ele><time>2020-09-03T11:20:37Z</time><name>PT2103</name></trkpt>
<trkpt lat="52.896224" lon="-3.374579"><ele>706</ele><time>2020-09-03T11:20:39Z</time><name>PT2104</name></trkpt>
<trkpt lat="52.896222" lon="-3.374576"><ele>706</ele><time>2020-09-03T11:20:39Z</time><name>PT2105</name></trkpt>
<trkpt lat="52.896220" lon="-3.374574"><ele>706</ele><time>2020-09-03T11:20:41Z</time><name>PT2106</name></trkpt>
<trkpt lat="52.896221" lon="-3.374573"><ele>706</ele><time>2020-09-03T11:20:41Z</time><name>PT2107</name></trkpt>
<trkpt lat="52.896223" lon="-3.374569"><ele>706</ele><time>2020-09-03T11:20:43Z</time><name>PT2108</name></trkpt>
<trkpt lat="52.896223" lon="-3.374567"><ele>706</ele><time>2020-09-03T11:20:43Z</time><name>PT2109</name></trkpt>
<trkpt lat="52.896223" lon="-3.374567"><ele>706</ele><time>2020-09-03T11:21:01Z</time><name>PT2110</name></trkpt>
<trkpt lat="52.896224" lon="-3.374572"><ele>706</ele><time>2020-09-03T11:21:01Z</time><name>PT2111</name></trkpt>
<trkpt lat="52.896224" lon="-3.374577"><ele>706</ele><time>2020-09-03T11:21:03Z</time><name>PT2112</name></trkpt>
<trkpt lat="52.896226" lon="-3.374575"><ele>706</ele><time>2020-09-03T11:21:04Z</time><name>PT2113</name></trkpt>
<trkpt lat="52.896234" lon="-3.374582"><ele>706</ele><time>2020-09-03T11:21:04Z</time><name>PT2114</name></trkpt>
<trkpt lat="52.896237" lon="-3.374584"><ele>706</ele><time>2020-09-03T11:21:06Z</time><name>PT2115</name></trkpt>
<trkpt lat="52.896237" lon="-3.374586"><ele>706</ele><time>2020-09-03T11:21:10Z</time><name>PT2116</name></trkpt>
<trkpt lat="52.896238" lon="-3.374610"><ele>706</ele><time>2020-09-03T11:21:37Z</time><name>PT2117</name></trkpt>
<trkpt lat="52.896240" lon="-3.374622"><ele>707</ele><time>2020-09-03T11:21:41Z</time><name>PT2118</name></trkpt>
<trkpt lat="52.896240" lon="-3.374629"><ele>706</ele><time>2020-09-03T11:21:59Z</time><name>PT2119</name></trkpt>
<trkpt lat="52.896245" lon="-3.374627"><ele>707</ele><time>2020-09-03T11:22:03Z</time><name>PT2120</name></trkpt>
<trkpt lat="52.896246" lon="-3.374616"><ele>707</ele><time>2020-09-03T11:22:11Z</time><name>PT2121</name></trkpt>
<trkpt lat="52.896242" lon="-3.374601"><ele>707</ele><time>2020-09-03T11:22:39Z</time><name>PT2122</name></trkpt>
<trkpt lat="52.896237" lon="-3.374592"><ele>707</ele><time>2020-09-03T11:23:38Z</time><name>PT2123</name></trkpt>
<trkpt lat="52.896234" lon="-3.374583"><ele>706</ele><time>2020-09-03T11:23:41Z</time><name>PT2124</name></trkpt>
<trkpt lat="52.896231" lon="-3.374580"><ele>706</ele><time>2020-09-03T11:23:45Z</time><name>PT2125</name></trkpt>
<trkpt lat="52.896234" lon="-3.374579"><ele>706</ele><time>2020-09-03T11:23:49Z</time><name>PT2126</name></trkpt>
<trkpt lat="52.896236" lon="-3.374561"><ele>705</ele><time>2020-09-03T11:24:25Z</time><name>PT2127</name></trkpt>
<trkpt lat="52.896239" lon="-3.374564"><ele>706</ele><time>2020-09-03T11:24:29Z</time><name>PT2128</name></trkpt>
<trkpt lat="52.896234" lon="-3.374558"><ele>706</ele><time>2020-09-03T11:24:37Z</time><name>PT2129</name></trkpt>
<trkpt lat="52.896235" lon="-3.374559"><ele>706</ele><time>2020-09-03T11:24:41Z</time><name>PT2130</name></trkpt>
<trkpt lat="52.896238" lon="-3.374557"><ele>707</ele><time>2020-09-03T11:25:01Z</time><name>PT2131</name></trkpt>
<trkpt lat="52.896238" lon="-3.374551"><ele>707</ele><time>2020-09-03T11:25:05Z</time><name>PT2132</name></trkpt>
<trkpt lat="52.896240" lon="-3.374546"><ele>707</ele><time>2020-09-03T11:25:08Z</time><name>PT2133</name></trkpt>
<trkpt lat="52.896234" lon="-3.374551"><ele>707</ele><time>2020-09-03T11:25:40Z</time><name>PT2134</name></trkpt>
<trkpt lat="52.896237" lon="-3.374539"><ele>708</ele><time>2020-09-03T11:25:44Z</time><name>PT2135</name></trkpt>
<trkpt lat="52.896241" lon="-3.374552"><ele>707</ele><time>2020-09-03T11:25:52Z</time><name>PT2136</name></trkpt>
<trkpt lat="52.896228" lon="-3.374555"><ele>708</ele><time>2020-09-03T11:25:56Z</time><name>PT2137</name></trkpt>
<trkpt lat="52.896226" lon="-3.374563"><ele>708</ele><time>2020-09-03T11:26:00Z</time><name>PT2138</name></trkpt>
<trkpt lat="52.896235" lon="-3.374558"><ele>707</ele><time>2020-09-03T11:26:04Z</time><name>PT2139</name></trkpt>
<trkpt lat="52.896236" lon="-3.374560"><ele>707</ele><time>2020-09-03T11:26:08Z</time><name>PT2140</name></trkpt>
<trkpt lat="52.896235" lon="-3.374556"><ele>707</ele><time>2020-09-03T11:26:28Z</time><name>PT2141</name></trkpt>
<trkpt lat="52.896231" lon="-3.374547"><ele>707</ele><time>2020-09-03T11:27:08Z</time><name>PT2142</name></trkpt>
<trkpt lat="52.896220" lon="-3.374552"><ele>707</ele><time>2020-09-03T11:27:52Z</time><name>PT2143</name></trkpt>
<trkpt lat="52.896219" lon="-3.374550"><ele>706</ele><time>2020-09-03T11:27:56Z</time><name>PT2144</name></trkpt>
<trkpt lat="52.896218" lon="-3.374549"><ele>706</ele><time>2020-09-03T11:28:44Z</time><name>PT2145</name></trkpt>
<trkpt lat="52.896199" lon="-3.374520"><ele>705</ele><time>2020-09-03T11:28:48Z</time><name>PT2146</name></trkpt>
<trkpt lat="52.896189" lon="-3.374473"><ele>706</ele><time>2020-09-03T11:28:52Z</time><name>PT2147</name></trkpt>
<trkpt lat="52.896191" lon="-3.374463"><ele>705</ele><time>2020-09-03T11:28:56Z</time><name>PT2148</name></trkpt>
<trkpt lat="52.896191" lon="-3.374462"><ele>706</ele><time>2020-09-03T11:29:00Z</time><name>PT2149</name></trkpt>
<trkpt lat="52.896208" lon="-3.374452"><ele>705</ele><time>2020-09-03T11:29:35Z</time><name>PT2150</name></trkpt>
<trkpt lat="52.896219" lon="-3.374442"><ele>704</ele><time>2020-09-03T11:29:39Z</time><name>PT2151</name></trkpt>
<trkpt lat="52.896223" lon="-3.374439"><ele>705</ele><time>2020-09-03T11:30:47Z</time><name>PT2152</name></trkpt>
<trkpt lat="52.896234" lon="-3.374492"><ele>707</ele><time>2020-09-03T11:30:51Z</time><name>PT2153</name></trkpt>
<trkpt lat="52.896247" lon="-3.374553"><ele>707</ele><time>2020-09-03T11:30:55Z</time><name>PT2154</name></trkpt>
<trkpt lat="52.896263" lon="-3.374606"><ele>708</ele><time>2020-09-03T11:30:59Z</time><name>PT2155</name></trkpt>
<trkpt lat="52.896281" lon="-3.374667"><ele>708</ele><time>2020-09-03T11:31:03Z</time><name>PT2156</name></trkpt>
<trkpt lat="52.896302" lon="-3.374716"><ele>709</ele><time>2020-09-03T11:31:07Z</time><name>PT2157</name></trkpt>
<trkpt lat="52.896318" lon="-3.374774"><ele>710</ele><time>2020-09-03T11:31:11Z</time><name>PT2158</name></trkpt>
<trkpt lat="52.896323" lon="-3.374847"><ele>710</ele><time>2020-09-03T11:31:15Z</time><name>PT2159</name></trkpt>
<trkpt lat="52.896321" lon="-3.374910"><ele>710</ele><time>2020-09-03T11:31:19Z</time><name>PT2160</name></trkpt>
<trkpt lat="52.896329" lon="-3.374935"><ele>710</ele><time>2020-09-03T11:31:23Z</time><name>PT2161</name></trkpt>
<trkpt lat="52.896333" lon="-3.374962"><ele>710</ele><time>2020-09-03T11:31:27Z</time><name>PT2162</name></trkpt>
<trkpt lat="52.896367" lon="-3.374956"><ele>711</ele><time>2020-09-03T11:31:31Z</time><name>PT2163</name></trkpt>
<trkpt lat="52.896406" lon="-3.374947"><ele>712</ele><time>2020-09-03T11:31:35Z</time><name>PT2164</name></trkpt>
<trkpt lat="52.896450" lon="-3.374927"><ele>712</ele><time>2020-09-03T11:31:39Z</time><name>PT2165</name></trkpt>
<trkpt lat="52.896495" lon="-3.374915"><ele>712</ele><time>2020-09-03T11:31:43Z</time><name>PT2166</name></trkpt>
<trkpt lat="52.896537" lon="-3.374896"><ele>711</ele><time>2020-09-03T11:31:47Z</time><name>PT2167</name></trkpt>
<trkpt lat="52.896574" lon="-3.374894"><ele>710</ele><time>2020-09-03T11:31:51Z</time><name>PT2168</name></trkpt>
<trkpt lat="52.896617" lon="-3.374899"><ele>710</ele><time>2020-09-03T11:31:55Z</time><name>PT2169</name></trkpt>
<trkpt lat="52.896668" lon="-3.374893"><ele>710</ele><time>2020-09-03T11:31:59Z</time><name>PT2170</name></trkpt>
<trkpt lat="52.896720" lon="-3.374883"><ele>710</ele><time>2020-09-03T11:32:03Z</time><name>PT2171</name></trkpt>
<trkpt lat="52.896768" lon="-3.374864"><ele>710</ele><time>2020-09-03T11:32:07Z</time><name>PT2172</name></trkpt>
<trkpt lat="52.896819" lon="-3.374851"><ele>710</ele><time>2020-09-03T11:32:11Z</time><name>PT2173</name></trkpt>
<trkpt lat="52.896866" lon="-3.374841"><ele>710</ele><time>2020-09-03T11:32:15Z</time><name>PT2174</name></trkpt>
<trkpt lat="52.896911" lon="-3.374825"><ele>709</ele><time>2020-09-03T11:32:19Z</time><name>PT2175</name></trkpt>
<trkpt lat="52.896958" lon="-3.374811"><ele>709</ele><time>2020-09-03T11:32:23Z</time><name>PT2176</name></trkpt>
<trkpt lat="52.897003" lon="-3.374780"><ele>709</ele><time>2020-09-03T11:32:27Z</time><name>PT2177</name></trkpt>
<trkpt lat="52.897052" lon="-3.374758"><ele>710</ele><time>2020-09-03T11:32:31Z</time><name>PT2178</name></trkpt>
<trkpt lat="52.897102" lon="-3.374738"><ele>710</ele><time>2020-09-03T11:32:35Z</time><name>PT2179</name></trkpt>
<trkpt lat="52.897150" lon="-3.374720"><ele>711</ele><time>2020-09-03T11:32:39Z</time><name>PT2180</name></trkpt>
<trkpt lat="52.897192" lon="-3.374699"><ele>710</ele><time>2020-09-03T11:32:43Z</time><name>PT2181</name></trkpt>
<trkpt lat="52.897245" lon="-3.374682"><ele>711</ele><time>2020-09-03T11:32:47Z</time><name>PT2182</name></trkpt>
<trkpt lat="52.897294" lon="-3.374677"><ele>711</ele><time>2020-09-03T11:32:51Z</time><name>PT2183</name></trkpt>
<trkpt lat="52.897334" lon="-3.374666"><ele>712</ele><time>2020-09-03T11:32:54Z</time><name>PT2184</name></trkpt>
<trkpt lat="52.897382" lon="-3.374650"><ele>712</ele><time>2020-09-03T11:32:58Z</time><name>PT2185</name></trkpt>
<trkpt lat="52.897430" lon="-3.374635"><ele>712</ele><time>2020-09-03T11:33:02Z</time><name>PT2186</name></trkpt>
<trkpt lat="52.897477" lon="-3.374613"><ele>712</ele><time>2020-09-03T11:33:06Z</time><name>PT2187</name></trkpt>
<trkpt lat="52.897524" lon="-3.374569"><ele>713</ele><time>2020-09-03T11:33:10Z</time><name>PT2188</name></trkpt>
<trkpt lat="52.897572" lon="-3.374545"><ele>714</ele><time>2020-09-03T11:33:14Z</time><name>PT2189</name></trkpt>
<trkpt lat="52.897617" lon="-3.374532"><ele>714</ele><time>2020-09-03T11:33:18Z</time><name>PT2190</name></trkpt>
<trkpt lat="52.897660" lon="-3.374512"><ele>714</ele><time>2020-09-03T11:33:22Z</time><name>PT2191</name></trkpt>
<trkpt lat="52.897707" lon="-3.374486"><ele>715</ele><time>2020-09-03T11:33:26Z</time><name>PT2192</name></trkpt>
<trkpt lat="52.897753" lon="-3.374465"><ele>716</ele><time>2020-09-03T11:33:30Z</time><name>PT2193</name></trkpt>
<trkpt lat="52.897804" lon="-3.374451"><ele>718</ele><time>2020-09-03T11:33:34Z</time><name>PT2194</name></trkpt>
<trkpt lat="52.897849" lon="-3.374442"><ele>718</ele><time>2020-09-03T11:33:38Z</time><name>PT2195</name></trkpt>
<trkpt lat="52.897894" lon="-3.374427"><ele>718</ele><time>2020-09-03T11:33:42Z</time><name>PT2196</name></trkpt>
<trkpt lat="52.897938" lon="-3.374405"><ele>718</ele><time>2020-09-03T11:33:46Z</time><name>PT2197</name></trkpt>
<trkpt lat="52.897982" lon="-3.374400"><ele>719</ele><time>2020-09-03T11:33:50Z</time><name>PT2198</name></trkpt>
<trkpt lat="52.898027" lon="-3.374388"><ele>719</ele><time>2020-09-03T11:33:54Z</time><name>PT2199</name></trkpt>
<trkpt lat="52.898070" lon="-3.374372"><ele>721</ele><time>2020-09-03T11:33:58Z</time><name>PT2200</name></trkpt>
<trkpt lat="52.898114" lon="-3.374359"><ele>722</ele><time>2020-09-03T11:34:02Z</time><name>PT2201</name></trkpt>
<trkpt lat="52.898164" lon="-3.374347"><ele>721</ele><time>2020-09-03T11:34:06Z</time><name>PT2202</name></trkpt>
<trkpt lat="52.898208" lon="-3.374340"><ele>721</ele><time>2020-09-03T11:34:10Z</time><name>PT2203</name></trkpt>
<trkpt lat="52.898253" lon="-3.374332"><ele>722</ele><time>2020-09-03T11:34:14Z</time><name>PT2204</name></trkpt>
<trkpt lat="52.898295" lon="-3.374318"><ele>722</ele><time>2020-09-03T11:34:18Z</time><name>PT2205</name></trkpt>
<trkpt lat="52.898338" lon="-3.374303"><ele>722</ele><time>2020-09-03T11:34:22Z</time><name>PT2206</name></trkpt>
<trkpt lat="52.898382" lon="-3.374291"><ele>722</ele><time>2020-09-03T11:34:26Z</time><name>PT2207</name></trkpt>
<trkpt lat="52.898424" lon="-3.374278"><ele>722</ele><time>2020-09-03T11:34:30Z</time><name>PT2208</name></trkpt>
<trkpt lat="52.898475" lon="-3.374264"><ele>723</ele><time>2020-09-03T11:34:34Z</time><name>PT2209</name></trkpt>
<trkpt lat="52.898520" lon="-3.374253"><ele>723</ele><time>2020-09-03T11:34:38Z</time><name>PT2210</name></trkpt>
<trkpt lat="52.898562" lon="-3.374242"><ele>723</ele><time>2020-09-03T11:34:42Z</time><name>PT2211</name></trkpt>
<trkpt lat="52.898597" lon="-3.374228"><ele>723</ele><time>2020-09-03T11:34:46Z</time><name>PT2212</name></trkpt>
<trkpt lat="52.898640" lon="-3.374219"><ele>723</ele><time>2020-09-03T11:34:50Z</time><name>PT2213</name></trkpt>
<trkpt lat="52.898684" lon="-3.374208"><ele>723</ele><time>2020-09-03T11:34:54Z</time><name>PT2214</name></trkpt>
<trkpt lat="52.898731" lon="-3.374194"><ele>724</ele><time>2020-09-03T11:34:58Z</time><name>PT2215</name></trkpt>
<trkpt lat="52.898765" lon="-3.374178"><ele>726</ele><time>2020-09-03T11:35:02Z</time><name>PT2216</name></trkpt>
<trkpt lat="52.898806" lon="-3.374171"><ele>727</ele><time>2020-09-03T11:35:06Z</time><name>PT2217</name></trkpt>
<trkpt lat="52.898848" lon="-3.374159"><ele>727</ele><time>2020-09-03T11:35:10Z</time><name>PT2218</name></trkpt>
<trkpt lat="52.898891" lon="-3.374147"><ele>727</ele><time>2020-09-03T11:35:14Z</time><name>PT2219</name></trkpt>
<trkpt lat="52.898937" lon="-3.374130"><ele>727</ele><time>2020-09-03T11:35:18Z</time><name>PT2220</name></trkpt>
<trkpt lat="52.898981" lon="-3.374117"><ele>727</ele><time>2020-09-03T11:35:22Z</time><name>PT2221</name></trkpt>
<trkpt lat="52.899019" lon="-3.374104"><ele>728</ele><time>2020-09-03T11:35:26Z</time><name>PT2222</name></trkpt>
<trkpt lat="52.899062" lon="-3.374090"><ele>728</ele><time>2020-09-03T11:35:30Z</time><name>PT2223</name></trkpt>
<trkpt lat="52.899103" lon="-3.374076"><ele>729</ele><time>2020-09-03T11:35:34Z</time><name>PT2224</name></trkpt>
<trkpt lat="52.899143" lon="-3.374064"><ele>729</ele><time>2020-09-03T11:35:38Z</time><name>PT2225</name></trkpt>
<trkpt lat="52.899184" lon="-3.374049"><ele>729</ele><time>2020-09-03T11:35:42Z</time><name>PT2226</name></trkpt>
<trkpt lat="52.899227" lon="-3.374032"><ele>730</ele><time>2020-09-03T11:35:46Z</time><name>PT2227</name></trkpt>
<trkpt lat="52.899268" lon="-3.374015"><ele>730</ele><time>2020-09-03T11:35:50Z</time><name>PT2228</name></trkpt>
<trkpt lat="52.899308" lon="-3.373996"><ele>731</ele><time>2020-09-03T11:35:54Z</time><name>PT2229</name></trkpt>
<trkpt lat="52.899342" lon="-3.373977"><ele>732</ele><time>2020-09-03T11:35:58Z</time><name>PT2230</name></trkpt>
<trkpt lat="52.899370" lon="-3.373975"><ele>733</ele><time>2020-09-03T11:36:02Z</time><name>PT2231</name></trkpt>
<trkpt lat="52.899398" lon="-3.373971"><ele>733</ele><time>2020-09-03T11:36:06Z</time><name>PT2232</name></trkpt>
<trkpt lat="52.899425" lon="-3.373962"><ele>734</ele><time>2020-09-03T11:36:10Z</time><name>PT2233</name></trkpt>
<trkpt lat="52.899444" lon="-3.373970"><ele>735</ele><time>2020-09-03T11:36:14Z</time><name>PT2234</name></trkpt>
<trkpt lat="52.899466" lon="-3.373951"><ele>735</ele><time>2020-09-03T11:36:18Z</time><name>PT2235</name></trkpt>
<trkpt lat="52.899490" lon="-3.373946"><ele>736</ele><time>2020-09-03T11:36:22Z</time><name>PT2236</name></trkpt>
<trkpt lat="52.899508" lon="-3.373943"><ele>736</ele><time>2020-09-03T11:36:26Z</time><name>PT2237</name></trkpt>
<trkpt lat="52.899526" lon="-3.373923"><ele>737</ele><time>2020-09-03T11:36:30Z</time><name>PT2238</name></trkpt>
<trkpt lat="52.899541" lon="-3.373907"><ele>737</ele><time>2020-09-03T11:36:34Z</time><name>PT2239</name></trkpt>
<trkpt lat="52.899555" lon="-3.373900"><ele>737</ele><time>2020-09-03T11:36:38Z</time><name>PT2240</name></trkpt>
<trkpt lat="52.899568" lon="-3.373901"><ele>738</ele><time>2020-09-03T11:36:42Z</time><name>PT2241</name></trkpt>
<trkpt lat="52.899576" lon="-3.373896"><ele>738</ele><time>2020-09-03T11:36:46Z</time><name>PT2242</name></trkpt>
<trkpt lat="52.899591" lon="-3.373886"><ele>738</ele><time>2020-09-03T11:36:50Z</time><name>PT2243</name></trkpt>
<trkpt lat="52.899613" lon="-3.373875"><ele>739</ele><time>2020-09-03T11:36:54Z</time><name>PT2244</name></trkpt>
<trkpt lat="52.899637" lon="-3.373859"><ele>741</ele><time>2020-09-03T11:36:58Z</time><name>PT2245</name></trkpt>
<trkpt lat="52.899645" lon="-3.373855"><ele>741</ele><time>2020-09-03T11:37:02Z</time><name>PT2246</name></trkpt>
<trkpt lat="52.899654" lon="-3.373840"><ele>742</ele><time>2020-09-03T11:37:06Z</time><name>PT2247</name></trkpt>
<trkpt lat="52.899671" lon="-3.373820"><ele>743</ele><time>2020-09-03T11:37:10Z</time><name>PT2248</name></trkpt>
<trkpt lat="52.899688" lon="-3.373797"><ele>744</ele><time>2020-09-03T11:37:14Z</time><name>PT2249</name></trkpt>
<trkpt lat="52.899704" lon="-3.373774"><ele>745</ele><time>2020-09-03T11:37:18Z</time><name>PT2250</name></trkpt>
<trkpt lat="52.899715" lon="-3.373773"><ele>745</ele><time>2020-09-03T11:37:22Z</time><name>PT2251</name></trkpt>
<trkpt lat="52.899738" lon="-3.373754"><ele>746</ele><time>2020-09-03T11:37:26Z</time><name>PT2252</name></trkpt>
<trkpt lat="52.899751" lon="-3.373727"><ele>748</ele><time>2020-09-03T11:37:30Z</time><name>PT2253</name></trkpt>
<trkpt lat="52.899769" lon="-3.373716"><ele>748</ele><time>2020-09-03T11:37:34Z</time><name>PT2254</name></trkpt>
<trkpt lat="52.899781" lon="-3.373718"><ele>748</ele><time>2020-09-03T11:37:38Z</time><name>PT2255</name></trkpt>
<trkpt lat="52.899803" lon="-3.373714"><ele>750</ele><time>2020-09-03T11:37:42Z</time><name>PT2256</name></trkpt>
<trkpt lat="52.899834" lon="-3.373701"><ele>751</ele><time>2020-09-03T11:37:46Z</time><name>PT2257</name></trkpt>
<trkpt lat="52.899865" lon="-3.373680"><ele>751</ele><time>2020-09-03T11:37:50Z</time><name>PT2258</name></trkpt>
<trkpt lat="52.899898" lon="-3.373657"><ele>752</ele><time>2020-09-03T11:37:54Z</time><name>PT2259</name></trkpt>
<trkpt lat="52.899930" lon="-3.373646"><ele>754</ele><time>2020-09-03T11:37:58Z</time><name>PT2260</name></trkpt>
<trkpt lat="52.899954" lon="-3.373637"><ele>754</ele><time>2020-09-03T11:38:02Z</time><name>PT2261</name></trkpt>
<trkpt lat="52.899972" lon="-3.373633"><ele>754</ele><time>2020-09-03T11:38:05Z</time><name>PT2262</name></trkpt>
<trkpt lat="52.899991" lon="-3.373619"><ele>755</ele><time>2020-09-03T11:38:09Z</time><name>PT2263</name></trkpt>
<trkpt lat="52.900016" lon="-3.373612"><ele>756</ele><time>2020-09-03T11:38:13Z</time><name>PT2264</name></trkpt>
<trkpt lat="52.900045" lon="-3.373599"><ele>757</ele><time>2020-09-03T11:38:17Z</time><name>PT2265</name></trkpt>
<trkpt lat="52.900076" lon="-3.373588"><ele>758</ele><time>2020-09-03T11:38:21Z</time><name>PT2266</name></trkpt>
<trkpt lat="52.900106" lon="-3.373574"><ele>759</ele><time>2020-09-03T11:38:25Z</time><name>PT2267</name></trkpt>
<trkpt lat="52.900135" lon="-3.373561"><ele>759</ele><time>2020-09-03T11:38:29Z</time><name>PT2268</name></trkpt>
<trkpt lat="52.900163" lon="-3.373542"><ele>760</ele><time>2020-09-03T11:38:33Z</time><name>PT2269</name></trkpt>
<trkpt lat="52.900193" lon="-3.373530"><ele>760</ele><time>2020-09-03T11:38:37Z</time><name>PT2270</name></trkpt>
<trkpt lat="52.900226" lon="-3.373523"><ele>761</ele><time>2020-09-03T11:38:41Z</time><name>PT2271</name></trkpt>
<trkpt lat="52.900258" lon="-3.373519"><ele>762</ele><time>2020-09-03T11:38:45Z</time><name>PT2272</name></trkpt>
<trkpt lat="52.900291" lon="-3.373504"><ele>762</ele><time>2020-09-03T11:38:49Z</time><name>PT2273</name></trkpt>
<trkpt lat="52.900322" lon="-3.373475"><ele>764</ele><time>2020-09-03T11:38:53Z</time><name>PT2274</name></trkpt>
<trkpt lat="52.900353" lon="-3.373461"><ele>764</ele><time>2020-09-03T11:38:57Z</time><name>PT2275</name></trkpt>
<trkpt lat="52.900385" lon="-3.373446"><ele>765</ele><time>2020-09-03T11:39:01Z</time><name>PT2276</name></trkpt>
<trkpt lat="52.900417" lon="-3.373449"><ele>766</ele><time>2020-09-03T11:39:05Z</time><name>PT2277</name></trkpt>
<trkpt lat="52.900450" lon="-3.373450"><ele>767</ele><time>2020-09-03T11:39:09Z</time><name>PT2278</name></trkpt>
<trkpt lat="52.900478" lon="-3.373443"><ele>768</ele><time>2020-09-03T11:39:13Z</time><name>PT2279</name></trkpt>
<trkpt lat="52.900494" lon="-3.373433"><ele>769</ele><time>2020-09-03T11:39:17Z</time><name>PT2280</name></trkpt>
<trkpt lat="52.900515" lon="-3.373429"><ele>770</ele><time>2020-09-03T11:39:21Z</time><name>PT2281</name></trkpt>
<trkpt lat="52.900532" lon="-3.373417"><ele>771</ele><time>2020-09-03T11:39:25Z</time><name>PT2282</name></trkpt>
<trkpt lat="52.900548" lon="-3.373415"><ele>772</ele><time>2020-09-03T11:39:29Z</time><name>PT2283</name></trkpt>
<trkpt lat="52.900567" lon="-3.373394"><ele>772</ele><time>2020-09-03T11:39:33Z</time><name>PT2284</name></trkpt>
<trkpt lat="52.900583" lon="-3.373378"><ele>773</ele><time>2020-09-03T11:39:37Z</time><name>PT2285</name></trkpt>
<trkpt lat="52.900605" lon="-3.373371"><ele>773</ele><time>2020-09-03T11:39:41Z</time><name>PT2286</name></trkpt>
<trkpt lat="52.900625" lon="-3.373369"><ele>773</ele><time>2020-09-03T11:39:45Z</time><name>PT2287</name></trkpt>
<trkpt lat="52.900644" lon="-3.373358"><ele>774</ele><time>2020-09-03T11:39:49Z</time><name>PT2288</name></trkpt>
<trkpt lat="52.900667" lon="-3.373350"><ele>773</ele><time>2020-09-03T11:39:53Z</time><name>PT2289</name></trkpt>
<trkpt lat="52.900704" lon="-3.373348"><ele>774</ele><time>2020-09-03T11:39:57Z</time><name>PT2290</name></trkpt>
<trkpt lat="52.900741" lon="-3.373349"><ele>774</ele><time>2020-09-03T11:40:01Z</time><name>PT2291</name></trkpt>
<trkpt lat="52.900778" lon="-3.373354"><ele>775</ele><time>2020-09-03T11:40:05Z</time><name>PT2292</name></trkpt>
<trkpt lat="52.900813" lon="-3.373360"><ele>775</ele><time>2020-09-03T11:40:09Z</time><name>PT2293</name></trkpt>
<trkpt lat="52.900852" lon="-3.373364"><ele>775</ele><time>2020-09-03T11:40:13Z</time><name>PT2294</name></trkpt>
<trkpt lat="52.900886" lon="-3.373352"><ele>775</ele><time>2020-09-03T11:40:17Z</time><name>PT2295</name></trkpt>
<trkpt lat="52.900913" lon="-3.373333"><ele>775</ele><time>2020-09-03T11:40:21Z</time><name>PT2296</name></trkpt>
<trkpt lat="52.900947" lon="-3.373312"><ele>776</ele><time>2020-09-03T11:40:25Z</time><name>PT2297</name></trkpt>
<trkpt lat="52.900980" lon="-3.373288"><ele>776</ele><time>2020-09-03T11:40:29Z</time><name>PT2298</name></trkpt>
<trkpt lat="52.901018" lon="-3.373263"><ele>777</ele><time>2020-09-03T11:40:33Z</time><name>PT2299</name></trkpt>
<trkpt lat="52.901058" lon="-3.373256"><ele>777</ele><time>2020-09-03T11:40:37Z</time><name>PT2300</name></trkpt>
<trkpt lat="52.901099" lon="-3.373231"><ele>778</ele><time>2020-09-03T11:40:41Z</time><name>PT2301</name></trkpt>
<trkpt lat="52.901125" lon="-3.373184"><ele>778</ele><time>2020-09-03T11:40:45Z</time><name>PT2302</name></trkpt>
<trkpt lat="52.901150" lon="-3.373149"><ele>778</ele><time>2020-09-03T11:40:49Z</time><name>PT2303</name></trkpt>
<trkpt lat="52.901156" lon="-3.373141"><ele>778</ele><time>2020-09-03T11:40:53Z</time><name>PT2304</name></trkpt>
<trkpt lat="52.901159" lon="-3.373128"><ele>779</ele><time>2020-09-03T11:41:01Z</time><name>PT2305</name></trkpt>
<trkpt lat="52.901178" lon="-3.373115"><ele>779</ele><time>2020-09-03T11:41:05Z</time><name>PT2306</name></trkpt>
<trkpt lat="52.901221" lon="-3.373100"><ele>779</ele><time>2020-09-03T11:41:09Z</time><name>PT2307</name></trkpt>
<trkpt lat="52.901260" lon="-3.373105"><ele>779</ele><time>2020-09-03T11:41:13Z</time><name>PT2308</name></trkpt>
<trkpt lat="52.901296" lon="-3.373106"><ele>780</ele><time>2020-09-03T11:41:17Z</time><name>PT2309</name></trkpt>
<trkpt lat="52.901336" lon="-3.373088"><ele>780</ele><time>2020-09-03T11:41:21Z</time><name>PT2310</name></trkpt>
<trkpt lat="52.901370" lon="-3.373053"><ele>781</ele><time>2020-09-03T11:41:25Z</time><name>PT2311</name></trkpt>
<trkpt lat="52.901395" lon="-3.373011"><ele>783</ele><time>2020-09-03T11:41:29Z</time><name>PT2312</name></trkpt>
<trkpt lat="52.901417" lon="-3.372979"><ele>784</ele><time>2020-09-03T11:41:33Z</time><name>PT2313</name></trkpt>
<trkpt lat="52.901434" lon="-3.372965"><ele>784</ele><time>2020-09-03T11:41:37Z</time><name>PT2314</name></trkpt>
<trkpt lat="52.901434" lon="-3.372959"><ele>782</ele><time>2020-09-03T11:41:41Z</time><name>PT2315</name></trkpt>
<trkpt lat="52.901435" lon="-3.372959"><ele>782</ele><time>2020-09-03T11:41:45Z</time><name>PT2316</name></trkpt>
<trkpt lat="52.901434" lon="-3.372959"><ele>782</ele><time>2020-09-03T11:41:49Z</time><name>PT2317</name></trkpt>
<trkpt lat="52.901454" lon="-3.372963"><ele>781</ele><time>2020-09-03T11:42:05Z</time><name>PT2318</name></trkpt>
<trkpt lat="52.901455" lon="-3.372966"><ele>782</ele><time>2020-09-03T11:42:09Z</time><name>PT2319</name></trkpt>
<trkpt lat="52.901456" lon="-3.372966"><ele>782</ele><time>2020-09-03T11:42:13Z</time><name>PT2320</name></trkpt>
<trkpt lat="52.901462" lon="-3.372964"><ele>782</ele><time>2020-09-03T11:42:17Z</time><name>PT2321</name></trkpt>
<trkpt lat="52.901462" lon="-3.372961"><ele>782</ele><time>2020-09-03T11:42:21Z</time><name>PT2322</name></trkpt>
<trkpt lat="52.901461" lon="-3.372960"><ele>782</ele><time>2020-09-03T11:42:25Z</time><name>PT2323</name></trkpt>
<trkpt lat="52.901456" lon="-3.372975"><ele>782</ele><time>2020-09-03T11:42:37Z</time><name>PT2324</name></trkpt>
<trkpt lat="52.901457" lon="-3.372953"><ele>782</ele><time>2020-09-03T11:42:41Z</time><name>PT2325</name></trkpt>
<trkpt lat="52.901464" lon="-3.372943"><ele>783</ele><time>2020-09-03T11:42:45Z</time><name>PT2326</name></trkpt>
<trkpt lat="52.901466" lon="-3.372944"><ele>783</ele><time>2020-09-03T11:42:49Z</time><name>PT2327</name></trkpt>
<trkpt lat="52.901474" lon="-3.372944"><ele>783</ele><time>2020-09-03T11:43:05Z</time><name>PT2328</name></trkpt>
<trkpt lat="52.901485" lon="-3.372910"><ele>783</ele><time>2020-09-03T11:43:09Z</time><name>PT2329</name></trkpt>
<trkpt lat="52.901484" lon="-3.372891"><ele>783</ele><time>2020-09-03T11:43:13Z</time><name>PT2330</name></trkpt>
<trkpt lat="52.901475" lon="-3.372862"><ele>784</ele><time>2020-09-03T11:43:17Z</time><name>PT2331</name></trkpt>
<trkpt lat="52.901471" lon="-3.372848"><ele>784</ele><time>2020-09-03T11:43:19Z</time><name>PT2332</name></trkpt>
<trkpt lat="52.901463" lon="-3.372840"><ele>785</ele><time>2020-09-03T11:43:21Z</time><name>PT2333</name></trkpt>
<trkpt lat="52.901462" lon="-3.372838"><ele>785</ele><time>2020-09-03T11:43:23Z</time><name>PT2334</name></trkpt>
<trkpt lat="52.901461" lon="-3.372840"><ele>785</ele><time>2020-09-03T11:43:23Z</time><name>PT2335</name></trkpt>
<trkpt lat="52.901461" lon="-3.372824"><ele>786</ele><time>2020-09-03T11:43:35Z</time><name>PT2336</name></trkpt>
<trkpt lat="52.901459" lon="-3.372805"><ele>785</ele><time>2020-09-03T11:43:35Z</time><name>PT2337</name></trkpt>
<trkpt lat="52.901459" lon="-3.372784"><ele>785</ele><time>2020-09-03T11:43:37Z</time><name>PT2338</name></trkpt>
<trkpt lat="52.901459" lon="-3.372764"><ele>785</ele><time>2020-09-03T11:43:37Z</time><name>PT2339</name></trkpt>
<trkpt lat="52.901459" lon="-3.372743"><ele>785</ele><time>2020-09-03T11:43:39Z</time><name>PT2340</name></trkpt>
<trkpt lat="52.901459" lon="-3.372723"><ele>784</ele><time>2020-09-03T11:43:39Z</time><name>PT2341</name></trkpt>
<trkpt lat="52.901461" lon="-3.372704"><ele>784</ele><time>2020-09-03T11:43:41Z</time><name>PT2342</name></trkpt>
<trkpt lat="52.901462" lon="-3.372685"><ele>784</ele><time>2020-09-03T11:43:41Z</time><name>PT2343</name></trkpt>
<trkpt lat="52.901463" lon="-3.372666"><ele>784</ele><time>2020-09-03T11:43:43Z</time><name>PT2344</name></trkpt>
<trkpt lat="52.901466" lon="-3.372648"><ele>784</ele><time>2020-09-03T11:43:43Z</time><name>PT2345</name></trkpt>
<trkpt lat="52.901469" lon="-3.372629"><ele>784</ele><time>2020-09-03T11:43:45Z</time><name>PT2346</name></trkpt>
<trkpt lat="52.901472" lon="-3.372611"><ele>784</ele><time>2020-09-03T11:43:45Z</time><name>PT2347</name></trkpt>
<trkpt lat="52.901476" lon="-3.372590"><ele>784</ele><time>2020-09-03T11:43:47Z</time><name>PT2348</name></trkpt>
<trkpt lat="52.901482" lon="-3.372569"><ele>783</ele><time>2020-09-03T11:43:47Z</time><name>PT2349</name></trkpt>
<trkpt lat="52.901487" lon="-3.372551"><ele>783</ele><time>2020-09-03T11:43:49Z</time><name>PT2350</name></trkpt>
<trkpt lat="52.901492" lon="-3.372534"><ele>783</ele><time>2020-09-03T11:43:49Z</time><name>PT2351</name></trkpt>
<trkpt lat="52.901497" lon="-3.372518"><ele>783</ele><time>2020-09-03T11:43:51Z</time><name>PT2352</name></trkpt>
<trkpt lat="52.901499" lon="-3.372497"><ele>783</ele><time>2020-09-03T11:43:51Z</time><name>PT2353</name></trkpt>
<trkpt lat="52.901500" lon="-3.372474"><ele>783</ele><time>2020-09-03T11:43:53Z</time><name>PT2354</name></trkpt>
<trkpt lat="52.901504" lon="-3.372455"><ele>783</ele><time>2020-09-03T11:43:53Z</time><name>PT2355</name></trkpt>
<trkpt lat="52.901508" lon="-3.372435"><ele>782</ele><time>2020-09-03T11:43:55Z</time><name>PT2356</name></trkpt>
<trkpt lat="52.901514" lon="-3.372417"><ele>782</ele><time>2020-09-03T11:43:55Z</time><name>PT2357</name></trkpt>
<trkpt lat="52.901519" lon="-3.372399"><ele>782</ele><time>2020-09-03T11:43:57Z</time><name>PT2358</name></trkpt>
<trkpt lat="52.901524" lon="-3.372383"><ele>782</ele><time>2020-09-03T11:43:57Z</time><name>PT2359</name></trkpt>
<trkpt lat="52.901529" lon="-3.372371"><ele>783</ele><time>2020-09-03T11:43:59Z</time><name>PT2360</name></trkpt>
<trkpt lat="52.901535" lon="-3.372355"><ele>783</ele><time>2020-09-03T11:43:59Z</time><name>PT2361</name></trkpt>
<trkpt lat="52.901541" lon="-3.372338"><ele>782</ele><time>2020-09-03T11:44:01Z</time><name>PT2362</name></trkpt>
<trkpt lat="52.901548" lon="-3.372321"><ele>782</ele><time>2020-09-03T11:44:01Z</time><name>PT2363</name></trkpt>
<trkpt lat="52.901552" lon="-3.372306"><ele>782</ele><time>2020-09-03T11:44:03Z</time><name>PT2364</name></trkpt>
<trkpt lat="52.901557" lon="-3.372289"><ele>782</ele><time>2020-09-03T11:44:03Z</time><name>PT2365</name></trkpt>
<trkpt lat="52.901562" lon="-3.372273"><ele>783</ele><time>2020-09-03T11:44:05Z</time><name>PT2366</name></trkpt>
<trkpt lat="52.901569" lon="-3.372257"><ele>783</ele><time>2020-09-03T11:44:05Z</time><name>PT2367</name></trkpt>
<trkpt lat="52.901576" lon="-3.372240"><ele>783</ele><time>2020-09-03T11:44:07Z</time><name>PT2368</name></trkpt>
<trkpt lat="52.901583" lon="-3.372228"><ele>783</ele><time>2020-09-03T11:44:07Z</time><name>PT2369</name></trkpt>
<trkpt lat="52.901589" lon="-3.372215"><ele>783</ele><time>2020-09-03T11:44:09Z</time><name>PT2370</name></trkpt>
<trkpt lat="52.901593" lon="-3.372199"><ele>782</ele><time>2020-09-03T11:44:09Z</time><name>PT2371</name></trkpt>
<trkpt lat="52.901600" lon="-3.372187"><ele>782</ele><time>2020-09-03T11:44:11Z</time><name>PT2372</name></trkpt>
<trkpt lat="52.901607" lon="-3.372175"><ele>783</ele><time>2020-09-03T11:44:11Z</time><name>PT2373</name></trkpt>
<trkpt lat="52.901616" lon="-3.372162"><ele>783</ele><time>2020-09-03T11:44:13Z</time><name>PT2374</name></trkpt>
<trkpt lat="52.901622" lon="-3.372147"><ele>783</ele><time>2020-09-03T11:44:13Z</time><name>PT2375</name></trkpt>
<trkpt lat="52.901627" lon="-3.372132"><ele>783</ele><time>2020-09-03T11:44:15Z</time><name>PT2376</name></trkpt>
<trkpt lat="52.901632" lon="-3.372114"><ele>782</ele><time>2020-09-03T11:44:15Z</time><name>PT2377</name></trkpt>
<trkpt lat="52.901637" lon="-3.372099"><ele>782</ele><time>2020-09-03T11:44:17Z</time><name>PT2378</name></trkpt>
<trkpt lat="52.901643" lon="-3.372085"><ele>782</ele><time>2020-09-03T11:44:17Z</time><name>PT2379</name></trkpt>
<trkpt lat="52.901648" lon="-3.372071"><ele>781</ele><time>2020-09-03T11:44:19Z</time><name>PT2380</name></trkpt>
<trkpt lat="52.901651" lon="-3.372055"><ele>781</ele><time>2020-09-03T11:44:19Z</time><name>PT2381</name></trkpt>
<trkpt lat="52.901652" lon="-3.372036"><ele>781</ele><time>2020-09-03T11:44:21Z</time><name>PT2382</name></trkpt>
<trkpt lat="52.901655" lon="-3.372016"><ele>781</ele><time>2020-09-03T11:44:21Z</time><name>PT2383</name></trkpt>
<trkpt lat="52.901659" lon="-3.372001"><ele>781</ele><time>2020-09-03T11:44:23Z</time><name>PT2384</name></trkpt>
<trkpt lat="52.901663" lon="-3.371989"><ele>781</ele><time>2020-09-03T11:44:23Z</time><name>PT2385</name></trkpt>
<trkpt lat="52.901667" lon="-3.371976"><ele>781</ele><time>2020-09-03T11:44:25Z</time><name>PT2386</name></trkpt>
<trkpt lat="52.901670" lon="-3.371955"><ele>781</ele><time>2020-09-03T11:44:25Z</time><name>PT2387</name></trkpt>
<trkpt lat="52.901673" lon="-3.371935"><ele>781</ele><time>2020-09-03T11:44:27Z</time><name>PT2388</name></trkpt>
<trkpt lat="52.901675" lon="-3.371915"><ele>780</ele><time>2020-09-03T11:44:27Z</time><name>PT2389</name></trkpt>
<trkpt lat="52.901678" lon="-3.371893"><ele>780</ele><time>2020-09-03T11:44:29Z</time><name>PT2390</name></trkpt>
<trkpt lat="52.901680" lon="-3.371873"><ele>780</ele><time>2020-09-03T11:44:29Z</time><name>PT2391</name></trkpt>
<trkpt lat="52.901682" lon="-3.371857"><ele>780</ele><time>2020-09-03T11:44:31Z</time><name>PT2392</name></trkpt>
<trkpt lat="52.901686" lon="-3.371843"><ele>780</ele><time>2020-09-03T11:44:31Z</time><name>PT2393</name></trkpt>
<trkpt lat="52.901690" lon="-3.371826"><ele>780</ele><time>2020-09-03T11:44:33Z</time><name>PT2394</name></trkpt>
<trkpt lat="52.901693" lon="-3.371806"><ele>781</ele><time>2020-09-03T11:44:33Z</time><name>PT2395</name></trkpt>
<trkpt lat="52.901694" lon="-3.371786"><ele>780</ele><time>2020-09-03T11:44:35Z</time><name>PT2396</name></trkpt>
<trkpt lat="52.901696" lon="-3.371765"><ele>780</ele><time>2020-09-03T11:44:35Z</time><name>PT2397</name></trkpt>
<trkpt lat="52.901699" lon="-3.371748"><ele>780</ele><time>2020-09-03T11:44:37Z</time><name>PT2398</name></trkpt>
<trkpt lat="52.901703" lon="-3.371731"><ele>780</ele><time>2020-09-03T11:44:37Z</time><name>PT2399</name></trkpt>
<trkpt lat="52.901707" lon="-3.371715"><ele>780</ele><time>2020-09-03T11:44:39Z</time><name>PT2400</name></trkpt>
<trkpt lat="52.901708" lon="-3.371700"><ele>779</ele><time>2020-09-03T11:44:39Z</time><name>PT2401</name></trkpt>
<trkpt lat="52.901710" lon="-3.371683"><ele>779</ele><time>2020-09-03T11:44:41Z</time><name>PT2402</name></trkpt>
<trkpt lat="52.901714" lon="-3.371667"><ele>779</ele><time>2020-09-03T11:44:41Z</time><name>PT2403</name></trkpt>
<trkpt lat="52.901715" lon="-3.371648"><ele>779</ele><time>2020-09-03T11:44:43Z</time><name>PT2404</name></trkpt>
<trkpt lat="52.901717" lon="-3.371632"><ele>779</ele><time>2020-09-03T11:44:43Z</time><name>PT2405</name></trkpt>
<trkpt lat="52.901721" lon="-3.371615"><ele>779</ele><time>2020-09-03T11:44:45Z</time><name>PT2406</name></trkpt>
<trkpt lat="52.901725" lon="-3.371601"><ele>779</ele><time>2020-09-03T11:44:45Z</time><name>PT2407</name></trkpt>
<trkpt lat="52.901728" lon="-3.371587"><ele>778</ele><time>2020-09-03T11:44:47Z</time><name>PT2408</name></trkpt>
<trkpt lat="52.901731" lon="-3.371571"><ele>778</ele><time>2020-09-03T11:44:47Z</time><name>PT2409</name></trkpt>
<trkpt lat="52.901736" lon="-3.371552"><ele>778</ele><time>2020-09-03T11:44:49Z</time><name>PT2410</name></trkpt>
<trkpt lat="52.901740" lon="-3.371540"><ele>778</ele><time>2020-09-03T11:44:49Z</time><name>PT2411</name></trkpt>
<trkpt lat="52.901744" lon="-3.371527"><ele>778</ele><time>2020-09-03T11:44:51Z</time><name>PT2412</name></trkpt>
<trkpt lat="52.901747" lon="-3.371513"><ele>778</ele><time>2020-09-03T11:44:51Z</time><name>PT2413</name></trkpt>
<trkpt lat="52.901752" lon="-3.371499"><ele>778</ele><time>2020-09-03T11:44:53Z</time><name>PT2414</name></trkpt>
<trkpt lat="52.901757" lon="-3.371486"><ele>777</ele><time>2020-09-03T11:44:53Z</time><name>PT2415</name></trkpt>
<trkpt lat="52.901762" lon="-3.371474"><ele>777</ele><time>2020-09-03T11:44:55Z</time><name>PT2416</name></trkpt>
<trkpt lat="52.901766" lon="-3.371458"><ele>777</ele><time>2020-09-03T11:44:55Z</time><name>PT2417</name></trkpt>
<trkpt lat="52.901770" lon="-3.371444"><ele>777</ele><time>2020-09-03T11:44:57Z</time><name>PT2418</name></trkpt>
<trkpt lat="52.901775" lon="-3.371428"><ele>777</ele><time>2020-09-03T11:44:57Z</time><name>PT2419</name></trkpt>
<trkpt lat="52.901781" lon="-3.371413"><ele>777</ele><time>2020-09-03T11:44:59Z</time><name>PT2420</name></trkpt>
<trkpt lat="52.901786" lon="-3.371399"><ele>777</ele><time>2020-09-03T11:44:59Z</time><name>PT2421</name></trkpt>
<trkpt lat="52.901790" lon="-3.371382"><ele>776</ele><time>2020-09-03T11:45:01Z</time><name>PT2422</name></trkpt>
<trkpt lat="52.901795" lon="-3.371367"><ele>776</ele><time>2020-09-03T11:45:01Z</time><name>PT2423</name></trkpt>
<trkpt lat="52.901798" lon="-3.371350"><ele>776</ele><time>2020-09-03T11:45:03Z</time><name>PT2424</name></trkpt>
<trkpt lat="52.901803" lon="-3.371332"><ele>776</ele><time>2020-09-03T11:45:03Z</time><name>PT2425</name></trkpt>
<trkpt lat="52.901809" lon="-3.371323"><ele>776</ele><time>2020-09-03T11:45:05Z</time><name>PT2426</name></trkpt>
<trkpt lat="52.901814" lon="-3.371311"><ele>776</ele><time>2020-09-03T11:45:05Z</time><name>PT2427</name></trkpt>
<trkpt lat="52.901819" lon="-3.371297"><ele>776</ele><time>2020-09-03T11:45:07Z</time><name>PT2428</name></trkpt>
<trkpt lat="52.901823" lon="-3.371285"><ele>775</ele><time>2020-09-03T11:45:07Z</time><name>PT2429</name></trkpt>
<trkpt lat="52.901826" lon="-3.371271"><ele>775</ele><time>2020-09-03T11:45:09Z</time><name>PT2430</name></trkpt>
<trkpt lat="52.901831" lon="-3.371253"><ele>775</ele><time>2020-09-03T11:45:09Z</time><name>PT2431</name></trkpt>
<trkpt lat="52.901836" lon="-3.371237"><ele>775</ele><time>2020-09-03T11:45:11Z</time><name>PT2432</name></trkpt>
<trkpt lat="52.901841" lon="-3.371220"><ele>775</ele><time>2020-09-03T11:45:12Z</time><name>PT2433</name></trkpt>
<trkpt lat="52.901846" lon="-3.371205"><ele>775</ele><time>2020-09-03T11:45:13Z</time><name>PT2434</name></trkpt>
<trkpt lat="52.901851" lon="-3.371185"><ele>774</ele><time>2020-09-03T11:45:14Z</time><name>PT2435</name></trkpt>
<trkpt lat="52.901854" lon="-3.371168"><ele>774</ele><time>2020-09-03T11:45:15Z</time><name>PT2436</name></trkpt>
<trkpt lat="52.901859" lon="-3.371149"><ele>774</ele><time>2020-09-03T11:45:16Z</time><name>PT2437</name></trkpt>
<trkpt lat="52.901864" lon="-3.371131"><ele>774</ele><time>2020-09-03T11:45:17Z</time><name>PT2438</name></trkpt>
<trkpt lat="52.901868" lon="-3.371115"><ele>774</ele><time>2020-09-03T11:45:18Z</time><name>PT2439</name></trkpt>
<trkpt lat="52.901874" lon="-3.371105"><ele>774</ele><time>2020-09-03T11:45:18Z</time><name>PT2440</name></trkpt>
<trkpt lat="52.901879" lon="-3.371090"><ele>774</ele><time>2020-09-03T11:45:20Z</time><name>PT2441</name></trkpt>
<trkpt lat="52.901883" lon="-3.371073"><ele>774</ele><time>2020-09-03T11:45:21Z</time><name>PT2442</name></trkpt>
<trkpt lat="52.901888" lon="-3.371059"><ele>774</ele><time>2020-09-03T11:45:22Z</time><name>PT2443</name></trkpt>
<trkpt lat="52.901893" lon="-3.371045"><ele>774</ele><time>2020-09-03T11:45:23Z</time><name>PT2444</name></trkpt>
<trkpt lat="52.901897" lon="-3.371035"><ele>774</ele><time>2020-09-03T11:45:24Z</time><name>PT2445</name></trkpt>
<trkpt lat="52.901903" lon="-3.371022"><ele>773</ele><time>2020-09-03T11:45:24Z</time><name>PT2446</name></trkpt>
<trkpt lat="52.901907" lon="-3.371010"><ele>773</ele><time>2020-09-03T11:45:26Z</time><name>PT2447</name></trkpt>
<trkpt lat="52.901910" lon="-3.370996"><ele>773</ele><time>2020-09-03T11:45:26Z</time><name>PT2448</name></trkpt>
<trkpt lat="52.901916" lon="-3.370981"><ele>773</ele><time>2020-09-03T11:45:28Z</time><name>PT2449</name></trkpt>
<trkpt lat="52.901921" lon="-3.370968"><ele>772</ele><time>2020-09-03T11:45:28Z</time><name>PT2450</name></trkpt>
<trkpt lat="52.901925" lon="-3.370953"><ele>772</ele><time>2020-09-03T11:45:30Z</time><name>PT2451</name></trkpt>
<trkpt lat="52.901929" lon="-3.370940"><ele>772</ele><time>2020-09-03T11:45:30Z</time><name>PT2452</name></trkpt>
<trkpt lat="52.901933" lon="-3.370928"><ele>772</ele><time>2020-09-03T11:45:32Z</time><name>PT2453</name></trkpt>
<trkpt lat="52.901939" lon="-3.370916"><ele>772</ele><time>2020-09-03T11:45:32Z</time><name>PT2454</name></trkpt>
<trkpt lat="52.901944" lon="-3.370906"><ele>771</ele><time>2020-09-03T11:45:34Z</time><name>PT2455</name></trkpt>
<trkpt lat="52.901947" lon="-3.370897"><ele>771</ele><time>2020-09-03T11:45:34Z</time><name>PT2456</name></trkpt>
<trkpt lat="52.901952" lon="-3.370887"><ele>770</ele><time>2020-09-03T11:45:36Z</time><name>PT2457</name></trkpt>
<trkpt lat="52.901955" lon="-3.370879"><ele>770</ele><time>2020-09-03T11:45:36Z</time><name>PT2458</name></trkpt>
<trkpt lat="52.901959" lon="-3.370870"><ele>770</ele><time>2020-09-03T11:45:38Z</time><name>PT2459</name></trkpt>
<trkpt lat="52.901963" lon="-3.370857"><ele>769</ele><time>2020-09-03T11:45:38Z</time><name>PT2460</name></trkpt>
<trkpt lat="52.901968" lon="-3.370842"><ele>769</ele><time>2020-09-03T11:45:40Z</time><name>PT2461</name></trkpt>
<trkpt lat="52.901973" lon="-3.370827"><ele>768</ele><time>2020-09-03T11:45:40Z</time><name>PT2462</name></trkpt>
<trkpt lat="52.901976" lon="-3.370817"><ele>768</ele><time>2020-09-03T11:45:42Z</time><name>PT2463</name></trkpt>
<trkpt lat="52.901982" lon="-3.370810"><ele>768</ele><time>2020-09-03T11:45:42Z</time><name>PT2464</name></trkpt>
<trkpt lat="52.901988" lon="-3.370802"><ele>768</ele><time>2020-09-03T11:45:44Z</time><name>PT2465</name></trkpt>
<trkpt lat="52.901992" lon="-3.370789"><ele>768</ele><time>2020-09-03T11:45:44Z</time><name>PT2466</name></trkpt>
<trkpt lat="52.901998" lon="-3.370775"><ele>768</ele><time>2020-09-03T11:45:46Z</time><name>PT2467</name></trkpt>
<trkpt lat="52.902005" lon="-3.370762"><ele>768</ele><time>2020-09-03T11:45:46Z</time><name>PT2468</name></trkpt>
<trkpt lat="52.902012" lon="-3.370753"><ele>768</ele><time>2020-09-03T11:45:48Z</time><name>PT2469</name></trkpt>
<trkpt lat="52.902020" lon="-3.370744"><ele>767</ele><time>2020-09-03T11:45:48Z</time><name>PT2470</name></trkpt>
<trkpt lat="52.902028" lon="-3.370733"><ele>767</ele><time>2020-09-03T11:45:50Z</time><name>PT2471</name></trkpt>
<trkpt lat="52.902036" lon="-3.370723"><ele>767</ele><time>2020-09-03T11:45:50Z</time><name>PT2472</name></trkpt>
<trkpt lat="52.902042" lon="-3.370712"><ele>767</ele><time>2020-09-03T11:45:52Z</time><name>PT2473</name></trkpt>
<trkpt lat="52.902049" lon="-3.370701"><ele>767</ele><time>2020-09-03T11:45:52Z</time><name>PT2474</name></trkpt>
<trkpt lat="52.902053" lon="-3.370689"><ele>767</ele><time>2020-09-03T11:45:54Z</time><name>PT2475</name></trkpt>
<trkpt lat="52.902056" lon="-3.370675"><ele>766</ele><time>2020-09-03T11:45:54Z</time><name>PT2476</name></trkpt>
<trkpt lat="52.902061" lon="-3.370664"><ele>766</ele><time>2020-09-03T11:45:56Z</time><name>PT2477</name></trkpt>
<trkpt lat="52.902065" lon="-3.370653"><ele>766</ele><time>2020-09-03T11:45:56Z</time><name>PT2478</name></trkpt>
<trkpt lat="52.902070" lon="-3.370645"><ele>765</ele><time>2020-09-03T11:45:58Z</time><name>PT2479</name></trkpt>
<trkpt lat="52.902076" lon="-3.370635"><ele>765</ele><time>2020-09-03T11:45:59Z</time><name>PT2480</name></trkpt>
<trkpt lat="52.902082" lon="-3.370622"><ele>765</ele><time>2020-09-03T11:45:59Z</time><name>PT2481</name></trkpt>
<trkpt lat="52.902086" lon="-3.370609"><ele>765</ele><time>2020-09-03T11:46:01Z</time><name>PT2482</name></trkpt>
<trkpt lat="52.902090" lon="-3.370594"><ele>765</ele><time>2020-09-03T11:46:01Z</time><name>PT2483</name></trkpt>
<trkpt lat="52.902094" lon="-3.370583"><ele>765</ele><time>2020-09-03T11:46:03Z</time><name>PT2484</name></trkpt>
<trkpt lat="52.902099" lon="-3.370573"><ele>765</ele><time>2020-09-03T11:46:03Z</time><name>PT2485</name></trkpt>
<trkpt lat="52.902102" lon="-3.370562"><ele>764</ele><time>2020-09-03T11:46:05Z</time><name>PT2486</name></trkpt>
<trkpt lat="52.902106" lon="-3.370552"><ele>764</ele><time>2020-09-03T11:46:05Z</time><name>PT2487</name></trkpt>
<trkpt lat="52.902111" lon="-3.370540"><ele>764</ele><time>2020-09-03T11:46:07Z</time><name>PT2488</name></trkpt>
<trkpt lat="52.902117" lon="-3.370523"><ele>764</ele><time>2020-09-03T11:46:07Z</time><name>PT2489</name></trkpt>
<trkpt lat="52.902122" lon="-3.370508"><ele>764</ele><time>2020-09-03T11:46:09Z</time><name>PT2490</name></trkpt>
<trkpt lat="52.902128" lon="-3.370497"><ele>763</ele><time>2020-09-03T11:46:09Z</time><name>PT2491</name></trkpt>
<trkpt lat="52.902133" lon="-3.370488"><ele>763</ele><time>2020-09-03T11:46:11Z</time><name>PT2492</name></trkpt>
<trkpt lat="52.902138" lon="-3.370475"><ele>763</ele><time>2020-09-03T11:46:12Z</time><name>PT2493</name></trkpt>
<trkpt lat="52.902144" lon="-3.370458"><ele>762</ele><time>2020-09-03T11:46:13Z</time><name>PT2494</name></trkpt>
<trkpt lat="52.902149" lon="-3.370448"><ele>762</ele><time>2020-09-03T11:46:14Z</time><name>PT2495</name></trkpt>
<trkpt lat="52.902154" lon="-3.370434"><ele>762</ele><time>2020-09-03T11:46:15Z</time><name>PT2496</name></trkpt>
<trkpt lat="52.902156" lon="-3.370420"><ele>762</ele><time>2020-09-03T11:46:16Z</time><name>PT2497</name></trkpt>
<trkpt lat="52.902158" lon="-3.370409"><ele>762</ele><time>2020-09-03T11:46:17Z</time><name>PT2498</name></trkpt>
<trkpt lat="52.902159" lon="-3.370400"><ele>762</ele><time>2020-09-03T11:46:18Z</time><name>PT2499</name></trkpt>
<trkpt lat="52.902162" lon="-3.370391"><ele>762</ele><time>2020-09-03T11:46:19Z</time><name>PT2500</name></trkpt>
<trkpt lat="52.902164" lon="-3.370378"><ele>762</ele><time>2020-09-03T11:46:20Z</time><name>PT2501</name></trkpt>
<trkpt lat="52.902169" lon="-3.370364"><ele>761</ele><time>2020-09-03T11:46:21Z</time><name>PT2502</name></trkpt>
<trkpt lat="52.902172" lon="-3.370358"><ele>761</ele><time>2020-09-03T11:46:22Z</time><name>PT2503</name></trkpt>
<trkpt lat="52.902174" lon="-3.370351"><ele>761</ele><time>2020-09-03T11:46:23Z</time><name>PT2504</name></trkpt>
<trkpt lat="52.902177" lon="-3.370344"><ele>761</ele><time>2020-09-03T11:46:24Z</time><name>PT2505</name></trkpt>
<trkpt lat="52.902181" lon="-3.370334"><ele>761</ele><time>2020-09-03T11:46:25Z</time><name>PT2506</name></trkpt>
<trkpt lat="52.902188" lon="-3.370319"><ele>762</ele><time>2020-09-03T11:46:26Z</time><name>PT2507</name></trkpt>
<trkpt lat="52.902190" lon="-3.370316"><ele>762</ele><time>2020-09-03T11:46:27Z</time><name>PT2508</name></trkpt>
<trkpt lat="52.902194" lon="-3.370309"><ele>762</ele><time>2020-09-03T11:46:28Z</time><name>PT2509</name></trkpt>
<trkpt lat="52.902198" lon="-3.370302"><ele>762</ele><time>2020-09-03T11:46:29Z</time><name>PT2510</name></trkpt>
<trkpt lat="52.902202" lon="-3.370296"><ele>762</ele><time>2020-09-03T11:46:30Z</time><name>PT2511</name></trkpt>
<trkpt lat="52.902205" lon="-3.370291"><ele>762</ele><time>2020-09-03T11:46:31Z</time><name>PT2512</name></trkpt>
<trkpt lat="52.902209" lon="-3.370286"><ele>762</ele><time>2020-09-03T11:46:31Z</time><name>PT2513</name></trkpt>
<trkpt lat="52.902211" lon="-3.370275"><ele>761</ele><time>2020-09-03T11:46:33Z</time><name>PT2514</name></trkpt>
<trkpt lat="52.902213" lon="-3.370269"><ele>761</ele><time>2020-09-03T11:46:33Z</time><name>PT2515</name></trkpt>
<trkpt lat="52.902217" lon="-3.370260"><ele>761</ele><time>2020-09-03T11:46:35Z</time><name>PT2516</name></trkpt>
<trkpt lat="52.902221" lon="-3.370244"><ele>761</ele><time>2020-09-03T11:46:35Z</time><name>PT2517</name></trkpt>
<trkpt lat="52.902224" lon="-3.370230"><ele>760</ele><time>2020-09-03T11:46:37Z</time><name>PT2518</name></trkpt>
<trkpt lat="52.902227" lon="-3.370216"><ele>760</ele><time>2020-09-03T11:46:37Z</time><name>PT2519</name></trkpt>
<trkpt lat="52.902230" lon="-3.370205"><ele>760</ele><time>2020-09-03T11:46:39Z</time><name>PT2520</name></trkpt>
<trkpt lat="52.902232" lon="-3.370196"><ele>760</ele><time>2020-09-03T11:46:39Z</time><name>PT2521</name></trkpt>
<trkpt lat="52.902236" lon="-3.370189"><ele>760</ele><time>2020-09-03T11:46:41Z</time><name>PT2522</name></trkpt>
<trkpt lat="52.902240" lon="-3.370183"><ele>760</ele><time>2020-09-03T11:46:41Z</time><name>PT2523</name></trkpt>
<trkpt lat="52.902240" lon="-3.370179"><ele>760</ele><time>2020-09-03T11:46:43Z</time><name>PT2524</name></trkpt>
<trkpt lat="52.902242" lon="-3.370171"><ele>760</ele><time>2020-09-03T11:46:43Z</time><name>PT2525</name></trkpt>
<trkpt lat="52.902248" lon="-3.370163"><ele>760</ele><time>2020-09-03T11:46:45Z</time><name>PT2526</name></trkpt>
<trkpt lat="52.902255" lon="-3.370154"><ele>759</ele><time>2020-09-03T11:46:45Z</time><name>PT2527</name></trkpt>
<trkpt lat="52.902260" lon="-3.370143"><ele>759</ele><time>2020-09-03T11:46:47Z</time><name>PT2528</name></trkpt>
<trkpt lat="52.902263" lon="-3.370131"><ele>759</ele><time>2020-09-03T11:46:47Z</time><name>PT2529</name></trkpt>
<trkpt lat="52.902267" lon="-3.370116"><ele>759</ele><time>2020-09-03T11:46:49Z</time><name>PT2530</name></trkpt>
<trkpt lat="52.902273" lon="-3.370101"><ele>758</ele><time>2020-09-03T11:46:49Z</time><name>PT2531</name></trkpt>
<trkpt lat="52.902277" lon="-3.370091"><ele>758</ele><time>2020-09-03T11:46:51Z</time><name>PT2532</name></trkpt>
<trkpt lat="52.902281" lon="-3.370075"><ele>758</ele><time>2020-09-03T11:46:51Z</time><name>PT2533</name></trkpt>
<trkpt lat="52.902284" lon="-3.370061"><ele>758</ele><time>2020-09-03T11:46:53Z</time><name>PT2534</name></trkpt>
<trkpt lat="52.902297" lon="-3.370001"><ele>758</ele><time>2020-09-03T11:46:57Z</time><name>PT2535</name></trkpt>
<trkpt lat="52.902301" lon="-3.369934"><ele>757</ele><time>2020-09-03T11:47:01Z</time><name>PT2536</name></trkpt>
<trkpt lat="52.902313" lon="-3.369877"><ele>756</ele><time>2020-09-03T11:47:05Z</time><name>PT2537</name></trkpt>
<trkpt lat="52.902322" lon="-3.369817"><ele>755</ele><time>2020-09-03T11:47:09Z</time><name>PT2538</name></trkpt>
<trkpt lat="52.902332" lon="-3.369761"><ele>756</ele><time>2020-09-03T11:47:13Z</time><name>PT2539</name></trkpt>
<trkpt lat="52.902342" lon="-3.369727"><ele>755</ele><time>2020-09-03T11:47:17Z</time><name>PT2540</name></trkpt>
<trkpt lat="52.902351" lon="-3.369702"><ele>754</ele><time>2020-09-03T11:47:21Z</time><name>PT2541</name></trkpt>
<trkpt lat="52.902351" lon="-3.369694"><ele>755</ele><time>2020-09-03T11:47:25Z</time><name>PT2542</name></trkpt>
<trkpt lat="52.902369" lon="-3.369648"><ele>754</ele><time>2020-09-03T11:47:29Z</time><name>PT2543</name></trkpt>
<trkpt lat="52.902378" lon="-3.369585"><ele>753</ele><time>2020-09-03T11:47:33Z</time><name>PT2544</name></trkpt>
<trkpt lat="52.902398" lon="-3.369528"><ele>753</ele><time>2020-09-03T11:47:37Z</time><name>PT2545</name></trkpt>
<trkpt lat="52.902423" lon="-3.369478"><ele>752</ele><time>2020-09-03T11:47:41Z</time><name>PT2546</name></trkpt>
<trkpt lat="52.902436" lon="-3.369434"><ele>751</ele><time>2020-09-03T11:47:45Z</time><name>PT2547</name></trkpt>
<trkpt lat="52.902438" lon="-3.369395"><ele>749</ele><time>2020-09-03T11:47:49Z</time><name>PT2548</name></trkpt>
<trkpt lat="52.902451" lon="-3.369382"><ele>749</ele><time>2020-09-03T11:47:53Z</time><name>PT2549</name></trkpt>
<trkpt lat="52.902475" lon="-3.369349"><ele>748</ele><time>2020-09-03T11:47:57Z</time><name>PT2550</name></trkpt>
<trkpt lat="52.902498" lon="-3.369310"><ele>746</ele><time>2020-09-03T11:48:01Z</time><name>PT2551</name></trkpt>
<trkpt lat="52.902511" lon="-3.369257"><ele>745</ele><time>2020-09-03T11:48:05Z</time><name>PT2552</name></trkpt>
<trkpt lat="52.902517" lon="-3.369205"><ele>745</ele><time>2020-09-03T11:48:09Z</time><name>PT2553</name></trkpt>
<trkpt lat="52.902527" lon="-3.369158"><ele>744</ele><time>2020-09-03T11:48:13Z</time><name>PT2554</name></trkpt>
<trkpt lat="52.902541" lon="-3.369099"><ele>743</ele><time>2020-09-03T11:48:17Z</time><name>PT2555</name></trkpt>
<trkpt lat="52.902561" lon="-3.369063"><ele>744</ele><time>2020-09-03T11:48:21Z</time><name>PT2556</name></trkpt>
<trkpt lat="52.902571" lon="-3.369036"><ele>744</ele><time>2020-09-03T11:48:25Z</time><name>PT2557</name></trkpt>
<trkpt lat="52.902579" lon="-3.368984"><ele>744</ele><time>2020-09-03T11:48:29Z</time><name>PT2558</name></trkpt>
<trkpt lat="52.902587" lon="-3.368927"><ele>744</ele><time>2020-09-03T11:48:33Z</time><name>PT2559</name></trkpt>
<trkpt lat="52.902596" lon="-3.368878"><ele>743</ele><time>2020-09-03T11:48:37Z</time><name>PT2560</name></trkpt>
<trkpt lat="52.902606" lon="-3.368829"><ele>742</ele><time>2020-09-03T11:48:41Z</time><name>PT2561</name></trkpt>
<trkpt lat="52.902621" lon="-3.368787"><ele>740</ele><time>2020-09-03T11:48:45Z</time><name>PT2562</name></trkpt>
<trkpt lat="52.902638" lon="-3.368749"><ele>739</ele><time>2020-09-03T11:48:49Z</time><name>PT2563</name></trkpt>
<trkpt lat="52.902650" lon="-3.368705"><ele>738</ele><time>2020-09-03T11:48:53Z</time><name>PT2564</name></trkpt>
<trkpt lat="52.902658" lon="-3.368661"><ele>737</ele><time>2020-09-03T11:48:57Z</time><name>PT2565</name></trkpt>
<trkpt lat="52.902665" lon="-3.368619"><ele>737</ele><time>2020-09-03T11:49:01Z</time><name>PT2566</name></trkpt>
<trkpt lat="52.902673" lon="-3.368575"><ele>737</ele><time>2020-09-03T11:49:05Z</time><name>PT2567</name></trkpt>
<trkpt lat="52.902680" lon="-3.368539"><ele>736</ele><time>2020-09-03T11:49:09Z</time><name>PT2568</name></trkpt>
<trkpt lat="52.902685" lon="-3.368500"><ele>735</ele><time>2020-09-03T11:49:13Z</time><name>PT2569</name></trkpt>
<trkpt lat="52.902696" lon="-3.368463"><ele>735</ele><time>2020-09-03T11:49:17Z</time><name>PT2570</name></trkpt>
<trkpt lat="52.902709" lon="-3.368420"><ele>734</ele><time>2020-09-03T11:49:21Z</time><name>PT2571</name></trkpt>
<trkpt lat="52.902726" lon="-3.368356"><ele>734</ele><time>2020-09-03T11:49:25Z</time><name>PT2572</name></trkpt>
<trkpt lat="52.902737" lon="-3.368302"><ele>733</ele><time>2020-09-03T11:49:29Z</time><name>PT2573</name></trkpt>
<trkpt lat="52.902745" lon="-3.368248"><ele>732</ele><time>2020-09-03T11:49:33Z</time><name>PT2574</name></trkpt>
<trkpt lat="52.902757" lon="-3.368219"><ele>732</ele><time>2020-09-03T11:49:37Z</time><name>PT2575</name></trkpt>
<trkpt lat="52.902761" lon="-3.368207"><ele>732</ele><time>2020-09-03T11:49:41Z</time><name>PT2576</name></trkpt>
<trkpt lat="52.902764" lon="-3.368165"><ele>732</ele><time>2020-09-03T11:49:53Z</time><name>PT2577</name></trkpt>
<trkpt lat="52.902777" lon="-3.368109"><ele>732</ele><time>2020-09-03T11:49:57Z</time><name>PT2578</name></trkpt>
<trkpt lat="52.902782" lon="-3.368051"><ele>731</ele><time>2020-09-03T11:50:01Z</time><name>PT2579</name></trkpt>
<trkpt lat="52.902796" lon="-3.367992"><ele>731</ele><time>2020-09-03T11:50:05Z</time><name>PT2580</name></trkpt>
<trkpt lat="52.902805" lon="-3.367928"><ele>730</ele><time>2020-09-03T11:50:09Z</time><name>PT2581</name></trkpt>
<trkpt lat="52.902816" lon="-3.367865"><ele>729</ele><time>2020-09-03T11:50:13Z</time><name>PT2582</name></trkpt>
<trkpt lat="52.902828" lon="-3.367798"><ele>729</ele><time>2020-09-03T11:50:17Z</time><name>PT2583</name></trkpt>
<trkpt lat="52.902836" lon="-3.367742"><ele>729</ele><time>2020-09-03T11:50:21Z</time><name>PT2584</name></trkpt>
<trkpt lat="52.902839" lon="-3.367682"><ele>728</ele><time>2020-09-03T11:50:25Z</time><name>PT2585</name></trkpt>
<trkpt lat="52.902851" lon="-3.367645"><ele>728</ele><time>2020-09-03T11:50:29Z</time><name>PT2586</name></trkpt>
<trkpt lat="52.902856" lon="-3.367616"><ele>727</ele><time>2020-09-03T11:50:33Z</time><name>PT2587</name></trkpt>
<trkpt lat="52.902861" lon="-3.367572"><ele>726</ele><time>2020-09-03T11:50:37Z</time><name>PT2588</name></trkpt>
<trkpt lat="52.902873" lon="-3.367506"><ele>725</ele><time>2020-09-03T11:50:41Z</time><name>PT2589</name></trkpt>
<trkpt lat="52.902880" lon="-3.367450"><ele>724</ele><time>2020-09-03T11:50:45Z</time><name>PT2590</name></trkpt>
<trkpt lat="52.902893" lon="-3.367386"><ele>723</ele><time>2020-09-03T11:50:49Z</time><name>PT2591</name></trkpt>
<trkpt lat="52.902905" lon="-3.367326"><ele>723</ele><time>2020-09-03T11:50:53Z</time><name>PT2592</name></trkpt>
<trkpt lat="52.902909" lon="-3.367264"><ele>723</ele><time>2020-09-03T11:50:57Z</time><name>PT2593</name></trkpt>
<trkpt lat="52.902919" lon="-3.367211"><ele>722</ele><time>2020-09-03T11:51:01Z</time><name>PT2594</name></trkpt>
<trkpt lat="52.902933" lon="-3.367141"><ele>720</ele><time>2020-09-03T11:51:05Z</time><name>PT2595</name></trkpt>
<trkpt lat="52.902943" lon="-3.367083"><ele>718</ele><time>2020-09-03T11:51:09Z</time><name>PT2596</name></trkpt>
<trkpt lat="52.902951" lon="-3.367032"><ele>718</ele><time>2020-09-03T11:51:13Z</time><name>PT2597</name></trkpt>
<trkpt lat="52.902949" lon="-3.366981"><ele>717</ele><time>2020-09-03T11:51:17Z</time><name>PT2598</name></trkpt>
<trkpt lat="52.902967" lon="-3.366928"><ele>717</ele><time>2020-09-03T11:51:21Z</time><name>PT2599</name></trkpt>
<trkpt lat="52.902988" lon="-3.366863"><ele>718</ele><time>2020-09-03T11:51:25Z</time><name>PT2600</name></trkpt>
<trkpt lat="52.902997" lon="-3.366804"><ele>716</ele><time>2020-09-03T11:51:29Z</time><name>PT2601</name></trkpt>
<trkpt lat="52.903007" lon="-3.366748"><ele>715</ele><time>2020-09-03T11:51:33Z</time><name>PT2602</name></trkpt>
<trkpt lat="52.903019" lon="-3.366694"><ele>714</ele><time>2020-09-03T11:51:37Z</time><name>PT2603</name></trkpt>
<trkpt lat="52.903032" lon="-3.366642"><ele>714</ele><time>2020-09-03T11:51:41Z</time><name>PT2604</name></trkpt>
<trkpt lat="52.903044" lon="-3.366581"><ele>713</ele><time>2020-09-03T11:51:45Z</time><name>PT2605</name></trkpt>
<trkpt lat="52.903054" lon="-3.366521"><ele>712</ele><time>2020-09-03T11:51:49Z</time><name>PT2606</name></trkpt>
<trkpt lat="52.903065" lon="-3.366475"><ele>711</ele><time>2020-09-03T11:51:53Z</time><name>PT2607</name></trkpt>
<trkpt lat="52.903076" lon="-3.366424"><ele>709</ele><time>2020-09-03T11:51:57Z</time><name>PT2608</name></trkpt>
<trkpt lat="52.903081" lon="-3.366377"><ele>709</ele><time>2020-09-03T11:52:01Z</time><name>PT2609</name></trkpt>
<trkpt lat="52.903082" lon="-3.366324"><ele>708</ele><time>2020-09-03T11:52:05Z</time><name>PT2610</name></trkpt>
<trkpt lat="52.903084" lon="-3.366278"><ele>707</ele><time>2020-09-03T11:52:09Z</time><name>PT2611</name></trkpt>
<trkpt lat="52.903092" lon="-3.366231"><ele>707</ele><time>2020-09-03T11:52:13Z</time><name>PT2612</name></trkpt>
<trkpt lat="52.903103" lon="-3.366161"><ele>706</ele><time>2020-09-03T11:52:17Z</time><name>PT2613</name></trkpt>
<trkpt lat="52.903113" lon="-3.366098"><ele>704</ele><time>2020-09-03T11:52:21Z</time><name>PT2614</name></trkpt>
<trkpt lat="52.903122" lon="-3.366049"><ele>704</ele><time>2020-09-03T11:52:25Z</time><name>PT2615</name></trkpt>
<trkpt lat="52.903142" lon="-3.365993"><ele>703</ele><time>2020-09-03T11:52:29Z</time><name>PT2616</name></trkpt>
<trkpt lat="52.903156" lon="-3.365931"><ele>703</ele><time>2020-09-03T11:52:33Z</time><name>PT2617</name></trkpt>
<trkpt lat="52.903167" lon="-3.365867"><ele>702</ele><time>2020-09-03T11:52:37Z</time><name>PT2618</name></trkpt>
<trkpt lat="52.903185" lon="-3.365815"><ele>702</ele><time>2020-09-03T11:52:41Z</time><name>PT2619</name></trkpt>
<trkpt lat="52.903201" lon="-3.365755"><ele>701</ele><time>2020-09-03T11:52:45Z</time><name>PT2620</name></trkpt>
<trkpt lat="52.903227" lon="-3.365712"><ele>700</ele><time>2020-09-03T11:52:49Z</time><name>PT2621</name></trkpt>
<trkpt lat="52.903247" lon="-3.365659"><ele>699</ele><time>2020-09-03T11:52:53Z</time><name>PT2622</name></trkpt>
<trkpt lat="52.903260" lon="-3.365603"><ele>699</ele><time>2020-09-03T11:52:57Z</time><name>PT2623</name></trkpt>
<trkpt lat="52.903277" lon="-3.365550"><ele>698</ele><time>2020-09-03T11:53:01Z</time><name>PT2624</name></trkpt>
<trkpt lat="52.903288" lon="-3.365495"><ele>697</ele><time>2020-09-03T11:53:05Z</time><name>PT2625</name></trkpt>
<trkpt lat="52.903312" lon="-3.365448"><ele>696</ele><time>2020-09-03T11:53:09Z</time><name>PT2626</name></trkpt>
<trkpt lat="52.903334" lon="-3.365387"><ele>695</ele><time>2020-09-03T11:53:13Z</time><name>PT2627</name></trkpt>
<trkpt lat="52.903354" lon="-3.365320"><ele>695</ele><time>2020-09-03T11:53:17Z</time><name>PT2628</name></trkpt>
<trkpt lat="52.903371" lon="-3.365249"><ele>694</ele><time>2020-09-03T11:53:21Z</time><name>PT2629</name></trkpt>
<trkpt lat="52.903390" lon="-3.365191"><ele>694</ele><time>2020-09-03T11:53:25Z</time><name>PT2630</name></trkpt>
<trkpt lat="52.903399" lon="-3.365113"><ele>693</ele><time>2020-09-03T11:53:29Z</time><name>PT2631</name></trkpt>
<trkpt lat="52.903410" lon="-3.365049"><ele>693</ele><time>2020-09-03T11:53:33Z</time><name>PT2632</name></trkpt>
<trkpt lat="52.903416" lon="-3.364973"><ele>692</ele><time>2020-09-03T11:53:37Z</time><name>PT2633</name></trkpt>
<trkpt lat="52.903427" lon="-3.364901"><ele>691</ele><time>2020-09-03T11:53:41Z</time><name>PT2634</name></trkpt>
<trkpt lat="52.903445" lon="-3.364830"><ele>690</ele><time>2020-09-03T11:53:45Z</time><name>PT2635</name></trkpt>
<trkpt lat="52.903439" lon="-3.364764"><ele>690</ele><time>2020-09-03T11:53:49Z</time><name>PT2636</name></trkpt>
<trkpt lat="52.903432" lon="-3.364705"><ele>690</ele><time>2020-09-03T11:53:53Z</time><name>PT2637</name></trkpt>
<trkpt lat="52.903440" lon="-3.364638"><ele>690</ele><time>2020-09-03T11:53:57Z</time><name>PT2638</name></trkpt>
<trkpt lat="52.903457" lon="-3.364576"><ele>690</ele><time>2020-09-03T11:54:01Z</time><name>PT2639</name></trkpt>
<trkpt lat="52.903475" lon="-3.364511"><ele>690</ele><time>2020-09-03T11:54:05Z</time><name>PT2640</name></trkpt>
<trkpt lat="52.903505" lon="-3.364452"><ele>690</ele><time>2020-09-03T11:54:09Z</time><name>PT2641</name></trkpt>
<trkpt lat="52.903515" lon="-3.364391"><ele>691</ele><time>2020-09-03T11:54:13Z</time><name>PT2642</name></trkpt>
<trkpt lat="52.903530" lon="-3.364329"><ele>691</ele><time>2020-09-03T11:54:17Z</time><name>PT2643</name></trkpt>
<trkpt lat="52.903548" lon="-3.364262"><ele>690</ele><time>2020-09-03T11:54:21Z</time><name>PT2644</name></trkpt>
<trkpt lat="52.903564" lon="-3.364188"><ele>689</ele><time>2020-09-03T11:54:25Z</time><name>PT2645</name></trkpt>
<trkpt lat="52.903591" lon="-3.364120"><ele>688</ele><time>2020-09-03T11:54:29Z</time><name>PT2646</name></trkpt>
<trkpt lat="52.903620" lon="-3.364086"><ele>688</ele><time>2020-09-03T11:54:33Z</time><name>PT2647</name></trkpt>
<trkpt lat="52.903626" lon="-3.364015"><ele>688</ele><time>2020-09-03T11:54:37Z</time><name>PT2648</name></trkpt>
<trkpt lat="52.903637" lon="-3.363951"><ele>689</ele><time>2020-09-03T11:54:41Z</time><name>PT2649</name></trkpt>
<trkpt lat="52.903651" lon="-3.363873"><ele>690</ele><time>2020-09-03T11:54:45Z</time><name>PT2650</name></trkpt>
<trkpt lat="52.903663" lon="-3.363800"><ele>689</ele><time>2020-09-03T11:54:49Z</time><name>PT2651</name></trkpt>
<trkpt lat="52.903669" lon="-3.363734"><ele>690</ele><time>2020-09-03T11:54:53Z</time><name>PT2652</name></trkpt>
<trkpt lat="52.903673" lon="-3.363662"><ele>690</ele><time>2020-09-03T11:54:57Z</time><name>PT2653</name></trkpt>
<trkpt lat="52.903680" lon="-3.363603"><ele>690</ele><time>2020-09-03T11:55:01Z</time><name>PT2654</name></trkpt>
<trkpt lat="52.903691" lon="-3.363544"><ele>689</ele><time>2020-09-03T11:55:05Z</time><name>PT2655</name></trkpt>
<trkpt lat="52.903710" lon="-3.363500"><ele>689</ele><time>2020-09-03T11:55:09Z</time><name>PT2656</name></trkpt>
<trkpt lat="52.903733" lon="-3.363470"><ele>688</ele><time>2020-09-03T11:55:13Z</time><name>PT2657</name></trkpt>
<trkpt lat="52.903740" lon="-3.363459"><ele>687</ele><time>2020-09-03T11:55:17Z</time><name>PT2658</name></trkpt>
<trkpt lat="52.903748" lon="-3.363461"><ele>687</ele><time>2020-09-03T11:55:21Z</time><name>PT2659</name></trkpt>
<trkpt lat="52.903759" lon="-3.363458"><ele>687</ele><time>2020-09-03T11:55:25Z</time><name>PT2660</name></trkpt>
<trkpt lat="52.903772" lon="-3.363431"><ele>687</ele><time>2020-09-03T11:55:29Z</time><name>PT2661</name></trkpt>
<trkpt lat="52.903788" lon="-3.363387"><ele>687</ele><time>2020-09-03T11:55:33Z</time><name>PT2662</name></trkpt>
<trkpt lat="52.903817" lon="-3.363369"><ele>687</ele><time>2020-09-03T11:55:37Z</time><name>PT2663</name></trkpt>
<trkpt lat="52.903821" lon="-3.363345"><ele>687</ele><time>2020-09-03T11:55:41Z</time><name>PT2664</name></trkpt>
<trkpt lat="52.903839" lon="-3.363317"><ele>686</ele><time>2020-09-03T11:55:45Z</time><name>PT2665</name></trkpt>
<trkpt lat="52.903873" lon="-3.363325"><ele>686</ele><time>2020-09-03T11:55:49Z</time><name>PT2666</name></trkpt>
<trkpt lat="52.903909" lon="-3.363324"><ele>686</ele><time>2020-09-03T11:55:53Z</time><name>PT2667</name></trkpt>
<trkpt lat="52.903932" lon="-3.363289"><ele>687</ele><time>2020-09-03T11:55:57Z</time><name>PT2668</name></trkpt>
<trkpt lat="52.903966" lon="-3.363241"><ele>687</ele><time>2020-09-03T11:56:01Z</time><name>PT2669</name></trkpt>
<trkpt lat="52.903997" lon="-3.363196"><ele>687</ele><time>2020-09-03T11:56:05Z</time><name>PT2670</name></trkpt>
<trkpt lat="52.904029" lon="-3.363144"><ele>687</ele><time>2020-09-03T11:56:09Z</time><name>PT2671</name></trkpt>
<trkpt lat="52.904058" lon="-3.363101"><ele>686</ele><time>2020-09-03T11:56:13Z</time><name>PT2672</name></trkpt>
<trkpt lat="52.904080" lon="-3.363036"><ele>686</ele><time>2020-09-03T11:56:17Z</time><name>PT2673</name></trkpt>
<trkpt lat="52.904097" lon="-3.362963"><ele>687</ele><time>2020-09-03T11:56:21Z</time><name>PT2674</name></trkpt>
<trkpt lat="52.904125" lon="-3.362920"><ele>687</ele><time>2020-09-03T11:56:25Z</time><name>PT2675</name></trkpt>
<trkpt lat="52.904153" lon="-3.362869"><ele>687</ele><time>2020-09-03T11:56:29Z</time><name>PT2676</name></trkpt>
<trkpt lat="52.904180" lon="-3.362822"><ele>687</ele><time>2020-09-03T11:56:33Z</time><name>PT2677</name></trkpt>
<trkpt lat="52.904201" lon="-3.362763"><ele>687</ele><time>2020-09-03T11:56:37Z</time><name>PT2678</name></trkpt>
<trkpt lat="52.904228" lon="-3.362709"><ele>687</ele><time>2020-09-03T11:56:41Z</time><name>PT2679</name></trkpt>
<trkpt lat="52.904265" lon="-3.362668"><ele>687</ele><time>2020-09-03T11:56:45Z</time><name>PT2680</name></trkpt>
<trkpt lat="52.904294" lon="-3.362624"><ele>686</ele><time>2020-09-03T11:56:49Z</time><name>PT2681</name></trkpt>
<trkpt lat="52.904319" lon="-3.362572"><ele>687</ele><time>2020-09-03T11:56:53Z</time><name>PT2682</name></trkpt>
<trkpt lat="52.904333" lon="-3.362507"><ele>688</ele><time>2020-09-03T11:56:57Z</time><name>PT2683</name></trkpt>
<trkpt lat="52.904354" lon="-3.362449"><ele>688</ele><time>2020-09-03T11:57:01Z</time><name>PT2684</name></trkpt>
<trkpt lat="52.904380" lon="-3.362392"><ele>688</ele><time>2020-09-03T11:57:05Z</time><name>PT2685</name></trkpt>
<trkpt lat="52.904393" lon="-3.362340"><ele>689</ele><time>2020-09-03T11:57:09Z</time><name>PT2686</name></trkpt>
<trkpt lat="52.904376" lon="-3.362283"><ele>689</ele><time>2020-09-03T11:57:13Z</time><name>PT2687</name></trkpt>
<trkpt lat="52.904390" lon="-3.362238"><ele>690</ele><time>2020-09-03T11:57:17Z</time><name>PT2688</name></trkpt>
<trkpt lat="52.904423" lon="-3.362207"><ele>690</ele><time>2020-09-03T11:57:21Z</time><name>PT2689</name></trkpt>
<trkpt lat="52.904452" lon="-3.362168"><ele>690</ele><time>2020-09-03T11:57:25Z</time><name>PT2690</name></trkpt>
<trkpt lat="52.904479" lon="-3.362117"><ele>690</ele><time>2020-09-03T11:57:29Z</time><name>PT2691</name></trkpt>
<trkpt lat="52.904508" lon="-3.362070"><ele>690</ele><time>2020-09-03T11:57:33Z</time><name>PT2692</name></trkpt>
<trkpt lat="52.904540" lon="-3.362031"><ele>689</ele><time>2020-09-03T11:57:37Z</time><name>PT2693</name></trkpt>
<trkpt lat="52.904562" lon="-3.361964"><ele>690</ele><time>2020-09-03T11:57:41Z</time><name>PT2694</name></trkpt>
<trkpt lat="52.904579" lon="-3.361907"><ele>690</ele><time>2020-09-03T11:57:45Z</time><name>PT2695</name></trkpt>
<trkpt lat="52.904601" lon="-3.361851"><ele>690</ele><time>2020-09-03T11:57:49Z</time><name>PT2696</name></trkpt>
<trkpt lat="52.904606" lon="-3.361776"><ele>691</ele><time>2020-09-03T11:57:53Z</time><name>PT2697</name></trkpt>
<trkpt lat="52.904619" lon="-3.361717"><ele>691</ele><time>2020-09-03T11:57:57Z</time><name>PT2698</name></trkpt>
<trkpt lat="52.904629" lon="-3.361655"><ele>691</ele><time>2020-09-03T11:58:01Z</time><name>PT2699</name></trkpt>
<trkpt lat="52.904650" lon="-3.361614"><ele>691</ele><time>2020-09-03T11:58:05Z</time><name>PT2700</name></trkpt>
<trkpt lat="52.904671" lon="-3.361559"><ele>691</ele><time>2020-09-03T11:58:09Z</time><name>PT2701</name></trkpt>
<trkpt lat="52.904694" lon="-3.361513"><ele>691</ele><time>2020-09-03T11:58:13Z</time><name>PT2702</name></trkpt>
<trkpt lat="52.904716" lon="-3.361452"><ele>691</ele><time>2020-09-03T11:58:17Z</time><name>PT2703</name></trkpt>
<trkpt lat="52.904743" lon="-3.361400"><ele>691</ele><time>2020-09-03T11:58:21Z</time><name>PT2704</name></trkpt>
<trkpt lat="52.904764" lon="-3.361342"><ele>691</ele><time>2020-09-03T11:58:25Z</time><name>PT2705</name></trkpt>
<trkpt lat="52.904789" lon="-3.361289"><ele>691</ele><time>2020-09-03T11:58:29Z</time><name>PT2706</name></trkpt>
<trkpt lat="52.904810" lon="-3.361247"><ele>691</ele><time>2020-09-03T11:58:33Z</time><name>PT2707</name></trkpt>
<trkpt lat="52.904824" lon="-3.361189"><ele>692</ele><time>2020-09-03T11:58:37Z</time><name>PT2708</name></trkpt>
<trkpt lat="52.904851" lon="-3.361151"><ele>691</ele><time>2020-09-03T11:58:41Z</time><name>PT2709</name></trkpt>
<trkpt lat="52.904865" lon="-3.361084"><ele>691</ele><time>2020-09-03T11:58:45Z</time><name>PT2710</name></trkpt>
<trkpt lat="52.904890" lon="-3.361030"><ele>691</ele><time>2020-09-03T11:58:49Z</time><name>PT2711</name></trkpt>
<trkpt lat="52.904918" lon="-3.360985"><ele>691</ele><time>2020-09-03T11:58:53Z</time><name>PT2712</name></trkpt>
<trkpt lat="52.904933" lon="-3.360918"><ele>692</ele><time>2020-09-03T11:58:57Z</time><name>PT2713</name></trkpt>
<trkpt lat="52.904952" lon="-3.360856"><ele>692</ele><time>2020-09-03T11:59:01Z</time><name>PT2714</name></trkpt>
<trkpt lat="52.904972" lon="-3.360792"><ele>692</ele><time>2020-09-03T11:59:05Z</time><name>PT2715</name></trkpt>
<trkpt lat="52.904993" lon="-3.360732"><ele>692</ele><time>2020-09-03T11:59:09Z</time><name>PT2716</name></trkpt>
<trkpt lat="52.905012" lon="-3.360674"><ele>692</ele><time>2020-09-03T11:59:13Z</time><name>PT2717</name></trkpt>
<trkpt lat="52.905038" lon="-3.360622"><ele>692</ele><time>2020-09-03T11:59:17Z</time><name>PT2718</name></trkpt>
<trkpt lat="52.905055" lon="-3.360557"><ele>693</ele><time>2020-09-03T11:59:21Z</time><name>PT2719</name></trkpt>
<trkpt lat="52.905083" lon="-3.360508"><ele>693</ele><time>2020-09-03T11:59:25Z</time><name>PT2720</name></trkpt>
<trkpt lat="52.905103" lon="-3.360439"><ele>693</ele><time>2020-09-03T11:59:29Z</time><name>PT2721</name></trkpt>
<trkpt lat="52.905117" lon="-3.360379"><ele>694</ele><time>2020-09-03T11:59:33Z</time><name>PT2722</name></trkpt>
<trkpt lat="52.905140" lon="-3.360339"><ele>694</ele><time>2020-09-03T11:59:37Z</time><name>PT2723</name></trkpt>
<trkpt lat="52.905170" lon="-3.360299"><ele>693</ele><time>2020-09-03T11:59:41Z</time><name>PT2724</name></trkpt>
<trkpt lat="52.905197" lon="-3.360269"><ele>693</ele><time>2020-09-03T11:59:45Z</time><name>PT2725</name></trkpt>
<trkpt lat="52.905221" lon="-3.360213"><ele>693</ele><time>2020-09-03T11:59:49Z</time><name>PT2726</name></trkpt>
<trkpt lat="52.905257" lon="-3.360182"><ele>693</ele><time>2020-09-03T11:59:53Z</time><name>PT2727</name></trkpt>
<trkpt lat="52.905288" lon="-3.360143"><ele>694</ele><time>2020-09-03T11:59:57Z</time><name>PT2728</name></trkpt>
<trkpt lat="52.905325" lon="-3.360127"><ele>694</ele><time>2020-09-03T12:00:01Z</time><name>PT2729</name></trkpt>
<trkpt lat="52.905357" lon="-3.360096"><ele>694</ele><time>2020-09-03T12:00:05Z</time><name>PT2730</name></trkpt>
<trkpt lat="52.905392" lon="-3.360064"><ele>694</ele><time>2020-09-03T12:00:09Z</time><name>PT2731</name></trkpt>
<trkpt lat="52.905422" lon="-3.360037"><ele>693</ele><time>2020-09-03T12:00:13Z</time><name>PT2732</name></trkpt>
<trkpt lat="52.905453" lon="-3.359993"><ele>693</ele><time>2020-09-03T12:00:17Z</time><name>PT2733</name></trkpt>
<trkpt lat="52.905476" lon="-3.359936"><ele>694</ele><time>2020-09-03T12:00:21Z</time><name>PT2734</name></trkpt>
<trkpt lat="52.905503" lon="-3.359889"><ele>694</ele><time>2020-09-03T12:00:25Z</time><name>PT2735</name></trkpt>
<trkpt lat="52.905535" lon="-3.359853"><ele>694</ele><time>2020-09-03T12:00:29Z</time><name>PT2736</name></trkpt>
<trkpt lat="52.905573" lon="-3.359834"><ele>694</ele><time>2020-09-03T12:00:33Z</time><name>PT2737</name></trkpt>
<trkpt lat="52.905606" lon="-3.359803"><ele>694</ele><time>2020-09-03T12:00:37Z</time><name>PT2738</name></trkpt>
<trkpt lat="52.905639" lon="-3.359780"><ele>693</ele><time>2020-09-03T12:00:41Z</time><name>PT2739</name></trkpt>
<trkpt lat="52.905668" lon="-3.359743"><ele>694</ele><time>2020-09-03T12:00:45Z</time><name>PT2740</name></trkpt>
<trkpt lat="52.905707" lon="-3.359703"><ele>694</ele><time>2020-09-03T12:00:49Z</time><name>PT2741</name></trkpt>
<trkpt lat="52.905743" lon="-3.359680"><ele>694</ele><time>2020-09-03T12:00:53Z</time><name>PT2742</name></trkpt>
<trkpt lat="52.905778" lon="-3.359647"><ele>693</ele><time>2020-09-03T12:00:57Z</time><name>PT2743</name></trkpt>
<trkpt lat="52.905809" lon="-3.359615"><ele>694</ele><time>2020-09-03T12:01:01Z</time><name>PT2744</name></trkpt>
<trkpt lat="52.905843" lon="-3.359576"><ele>694</ele><time>2020-09-03T12:01:05Z</time><name>PT2745</name></trkpt>
<trkpt lat="52.905880" lon="-3.359545"><ele>694</ele><time>2020-09-03T12:01:09Z</time><name>PT2746</name></trkpt>
<trkpt lat="52.905914" lon="-3.359502"><ele>694</ele><time>2020-09-03T12:01:13Z</time><name>PT2747</name></trkpt>
<trkpt lat="52.905944" lon="-3.359455"><ele>694</ele><time>2020-09-03T12:01:17Z</time><name>PT2748</name></trkpt>
<trkpt lat="52.905974" lon="-3.359413"><ele>695</ele><time>2020-09-03T12:01:21Z</time><name>PT2749</name></trkpt>
<trkpt lat="52.905993" lon="-3.359364"><ele>695</ele><time>2020-09-03T12:01:25Z</time><name>PT2750</name></trkpt>
<trkpt lat="52.906009" lon="-3.359293"><ele>695</ele><time>2020-09-03T12:01:29Z</time><name>PT2751</name></trkpt>
<trkpt lat="52.906036" lon="-3.359253"><ele>695</ele><time>2020-09-03T12:01:33Z</time><name>PT2752</name></trkpt>
<trkpt lat="52.906075" lon="-3.359230"><ele>695</ele><time>2020-09-03T12:01:37Z</time><name>PT2753</name></trkpt>
<trkpt lat="52.906118" lon="-3.359215"><ele>696</ele><time>2020-09-03T12:01:41Z</time><name>PT2754</name></trkpt>
<trkpt lat="52.906160" lon="-3.359210"><ele>697</ele><time>2020-09-03T12:01:45Z</time><name>PT2755</name></trkpt>
<trkpt lat="52.906202" lon="-3.359211"><ele>697</ele><time>2020-09-03T12:01:49Z</time><name>PT2756</name></trkpt>
<trkpt lat="52.906246" lon="-3.359185"><ele>698</ele><time>2020-09-03T12:01:53Z</time><name>PT2757</name></trkpt>
<trkpt lat="52.906282" lon="-3.359167"><ele>697</ele><time>2020-09-03T12:01:57Z</time><name>PT2758</name></trkpt>
<trkpt lat="52.906323" lon="-3.359140"><ele>697</ele><time>2020-09-03T12:02:01Z</time><name>PT2759</name></trkpt>
<trkpt lat="52.906365" lon="-3.359120"><ele>696</ele><time>2020-09-03T12:02:05Z</time><name>PT2760</name></trkpt>
<trkpt lat="52.906413" lon="-3.359119"><ele>696</ele><time>2020-09-03T12:02:09Z</time><name>PT2761</name></trkpt>
<trkpt lat="52.906455" lon="-3.359118"><ele>696</ele><time>2020-09-03T12:02:13Z</time><name>PT2762</name></trkpt>
<trkpt lat="52.906492" lon="-3.359136"><ele>696</ele><time>2020-09-03T12:02:17Z</time><name>PT2763</name></trkpt>
<trkpt lat="52.906534" lon="-3.359155"><ele>696</ele><time>2020-09-03T12:02:21Z</time><name>PT2764</name></trkpt>
<trkpt lat="52.906576" lon="-3.359166"><ele>696</ele><time>2020-09-03T12:02:25Z</time><name>PT2765</name></trkpt>
<trkpt lat="52.906608" lon="-3.359120"><ele>697</ele><time>2020-09-03T12:02:29Z</time><name>PT2766</name></trkpt>
<trkpt lat="52.906636" lon="-3.359076"><ele>697</ele><time>2020-09-03T12:02:33Z</time><name>PT2767</name></trkpt>
<trkpt lat="52.906673" lon="-3.359035"><ele>697</ele><time>2020-09-03T12:02:37Z</time><name>PT2768</name></trkpt>
<trkpt lat="52.906712" lon="-3.359026"><ele>696</ele><time>2020-09-03T12:02:41Z</time><name>PT2769</name></trkpt>
<trkpt lat="52.906751" lon="-3.358999"><ele>695</ele><time>2020-09-03T12:02:45Z</time><name>PT2770</name></trkpt>
<trkpt lat="52.906798" lon="-3.358997"><ele>696</ele><time>2020-09-03T12:02:49Z</time><name>PT2771</name></trkpt>
<trkpt lat="52.906841" lon="-3.358985"><ele>696</ele><time>2020-09-03T12:02:53Z</time><name>PT2772</name></trkpt>
<trkpt lat="52.906874" lon="-3.358972"><ele>696</ele><time>2020-09-03T12:02:57Z</time><name>PT2773</name></trkpt>
<trkpt lat="52.906910" lon="-3.358924"><ele>697</ele><time>2020-09-03T12:03:01Z</time><name>PT2774</name></trkpt>
<trkpt lat="52.906938" lon="-3.358863"><ele>698</ele><time>2020-09-03T12:03:05Z</time><name>PT2775</name></trkpt>
<trkpt lat="52.906962" lon="-3.358805"><ele>698</ele><time>2020-09-03T12:03:09Z</time><name>PT2776</name></trkpt>
<trkpt lat="52.906986" lon="-3.358744"><ele>697</ele><time>2020-09-03T12:03:13Z</time><name>PT2777</name></trkpt>
<trkpt lat="52.907016" lon="-3.358698"><ele>696</ele><time>2020-09-03T12:03:17Z</time><name>PT2778</name></trkpt>
<trkpt lat="52.907052" lon="-3.358662"><ele>696</ele><time>2020-09-03T12:03:21Z</time><name>PT2779</name></trkpt>
<trkpt lat="52.907090" lon="-3.358637"><ele>695</ele><time>2020-09-03T12:03:25Z</time><name>PT2780</name></trkpt>
<trkpt lat="52.907124" lon="-3.358640"><ele>695</ele><time>2020-09-03T12:03:29Z</time><name>PT2781</name></trkpt>
<trkpt lat="52.907157" lon="-3.358598"><ele>695</ele><time>2020-09-03T12:03:33Z</time><name>PT2782</name></trkpt>
<trkpt lat="52.907187" lon="-3.358551"><ele>696</ele><time>2020-09-03T12:03:37Z</time><name>PT2783</name></trkpt>
<trkpt lat="52.907226" lon="-3.358525"><ele>695</ele><time>2020-09-03T12:03:41Z</time><name>PT2784</name></trkpt>
<trkpt lat="52.907259" lon="-3.358486"><ele>695</ele><time>2020-09-03T12:03:45Z</time><name>PT2785</name></trkpt>
<trkpt lat="52.907299" lon="-3.358439"><ele>695</ele><time>2020-09-03T12:03:49Z</time><name>PT2786</name></trkpt>
<trkpt lat="52.907336" lon="-3.358398"><ele>695</ele><time>2020-09-03T12:03:53Z</time><name>PT2787</name></trkpt>
<trkpt lat="52.907368" lon="-3.358352"><ele>695</ele><time>2020-09-03T12:03:57Z</time><name>PT2788</name></trkpt>
<trkpt lat="52.907398" lon="-3.358310"><ele>695</ele><time>2020-09-03T12:04:01Z</time><name>PT2789</name></trkpt>
<trkpt lat="52.907439" lon="-3.358266"><ele>694</ele><time>2020-09-03T12:04:05Z</time><name>PT2790</name></trkpt>
<trkpt lat="52.907480" lon="-3.358229"><ele>694</ele><time>2020-09-03T12:04:09Z</time><name>PT2791</name></trkpt>
<trkpt lat="52.907518" lon="-3.358191"><ele>694</ele><time>2020-09-03T12:04:13Z</time><name>PT2792</name></trkpt>
<trkpt lat="52.907548" lon="-3.358134"><ele>694</ele><time>2020-09-03T12:04:17Z</time><name>PT2793</name></trkpt>
<trkpt lat="52.907583" lon="-3.358079"><ele>695</ele><time>2020-09-03T12:04:21Z</time><name>PT2794</name></trkpt>
<trkpt lat="52.907621" lon="-3.358027"><ele>695</ele><time>2020-09-03T12:04:25Z</time><name>PT2795</name></trkpt>
<trkpt lat="52.907657" lon="-3.357993"><ele>695</ele><time>2020-09-03T12:04:29Z</time><name>PT2796</name></trkpt>
<trkpt lat="52.907692" lon="-3.357957"><ele>694</ele><time>2020-09-03T12:04:33Z</time><name>PT2797</name></trkpt>
<trkpt lat="52.907726" lon="-3.357921"><ele>693</ele><time>2020-09-03T12:04:37Z</time><name>PT2798</name></trkpt>
<trkpt lat="52.907768" lon="-3.357877"><ele>692</ele><time>2020-09-03T12:04:41Z</time><name>PT2799</name></trkpt>
<trkpt lat="52.907811" lon="-3.357835"><ele>691</ele><time>2020-09-03T12:04:45Z</time><name>PT2800</name></trkpt>
<trkpt lat="52.907848" lon="-3.357810"><ele>690</ele><time>2020-09-03T12:04:49Z</time><name>PT2801</name></trkpt>
<trkpt lat="52.907891" lon="-3.357803"><ele>689</ele><time>2020-09-03T12:04:53Z</time><name>PT2802</name></trkpt>
<trkpt lat="52.907933" lon="-3.357776"><ele>688</ele><time>2020-09-03T12:04:57Z</time><name>PT2803</name></trkpt>
<trkpt lat="52.907961" lon="-3.357728"><ele>688</ele><time>2020-09-03T12:05:01Z</time><name>PT2804</name></trkpt>
<trkpt lat="52.907998" lon="-3.357704"><ele>688</ele><time>2020-09-03T12:05:05Z</time><name>PT2805</name></trkpt>
<trkpt lat="52.908032" lon="-3.357667"><ele>688</ele><time>2020-09-03T12:05:09Z</time><name>PT2806</name></trkpt>
<trkpt lat="52.908064" lon="-3.357632"><ele>687</ele><time>2020-09-03T12:05:13Z</time><name>PT2807</name></trkpt>
<trkpt lat="52.908106" lon="-3.357617"><ele>687</ele><time>2020-09-03T12:05:17Z</time><name>PT2808</name></trkpt>
<trkpt lat="52.908150" lon="-3.357591"><ele>686</ele><time>2020-09-03T12:05:21Z</time><name>PT2809</name></trkpt>
<trkpt lat="52.908184" lon="-3.357546"><ele>687</ele><time>2020-09-03T12:05:25Z</time><name>PT2810</name></trkpt>
<trkpt lat="52.908184" lon="-3.357487"><ele>687</ele><time>2020-09-03T12:05:29Z</time><name>PT2811</name></trkpt>
<trkpt lat="52.908192" lon="-3.357422"><ele>687</ele><time>2020-09-03T12:05:33Z</time><name>PT2812</name></trkpt>
<trkpt lat="52.908223" lon="-3.357387"><ele>686</ele><time>2020-09-03T12:05:37Z</time><name>PT2813</name></trkpt>
<trkpt lat="52.908254" lon="-3.357338"><ele>685</ele><time>2020-09-03T12:05:41Z</time><name>PT2814</name></trkpt>
<trkpt lat="52.908288" lon="-3.357304"><ele>684</ele><time>2020-09-03T12:05:45Z</time><name>PT2815</name></trkpt>
<trkpt lat="52.908330" lon="-3.357300"><ele>684</ele><time>2020-09-03T12:05:49Z</time><name>PT2816</name></trkpt>
<trkpt lat="52.908364" lon="-3.357308"><ele>683</ele><time>2020-09-03T12:05:53Z</time><name>PT2817</name></trkpt>
<trkpt lat="52.908396" lon="-3.357273"><ele>682</ele><time>2020-09-03T12:05:57Z</time><name>PT2818</name></trkpt>
<trkpt lat="52.908422" lon="-3.357213"><ele>680</ele><time>2020-09-03T12:06:01Z</time><name>PT2819</name></trkpt>
<trkpt lat="52.908450" lon="-3.357175"><ele>680</ele><time>2020-09-03T12:06:05Z</time><name>PT2820</name></trkpt>
<trkpt lat="52.908485" lon="-3.357136"><ele>679</ele><time>2020-09-03T12:06:09Z</time><name>PT2821</name></trkpt>
<trkpt lat="52.908512" lon="-3.357090"><ele>678</ele><time>2020-09-03T12:06:13Z</time><name>PT2822</name></trkpt>
<trkpt lat="52.908540" lon="-3.357050"><ele>676</ele><time>2020-09-03T12:06:17Z</time><name>PT2823</name></trkpt>
<trkpt lat="52.908577" lon="-3.357012"><ele>674</ele><time>2020-09-03T12:06:21Z</time><name>PT2824</name></trkpt>
<trkpt lat="52.908619" lon="-3.357019"><ele>674</ele><time>2020-09-03T12:06:25Z</time><name>PT2825</name></trkpt>
<trkpt lat="52.908664" lon="-3.357007"><ele>675</ele><time>2020-09-03T12:06:29Z</time><name>PT2826</name></trkpt>
<trkpt lat="52.908705" lon="-3.356993"><ele>674</ele><time>2020-09-03T12:06:33Z</time><name>PT2827</name></trkpt>
<trkpt lat="52.908728" lon="-3.356954"><ele>673</ele><time>2020-09-03T12:06:37Z</time><name>PT2828</name></trkpt>
<trkpt lat="52.908762" lon="-3.356920"><ele>673</ele><time>2020-09-03T12:06:41Z</time><name>PT2829</name></trkpt>
<trkpt lat="52.908797" lon="-3.356891"><ele>672</ele><time>2020-09-03T12:06:45Z</time><name>PT2830</name></trkpt>
<trkpt lat="52.908818" lon="-3.356857"><ele>673</ele><time>2020-09-03T12:06:49Z</time><name>PT2831</name></trkpt>
<trkpt lat="52.908828" lon="-3.356808"><ele>673</ele><time>2020-09-03T12:06:53Z</time><name>PT2832</name></trkpt>
<trkpt lat="52.908863" lon="-3.356768"><ele>673</ele><time>2020-09-03T12:06:57Z</time><name>PT2833</name></trkpt>
<trkpt lat="52.908891" lon="-3.356724"><ele>672</ele><time>2020-09-03T12:07:01Z</time><name>PT2834</name></trkpt>
<trkpt lat="52.908921" lon="-3.356703"><ele>672</ele><time>2020-09-03T12:07:05Z</time><name>PT2835</name></trkpt>
<trkpt lat="52.908959" lon="-3.356690"><ele>672</ele><time>2020-09-03T12:07:09Z</time><name>PT2836</name></trkpt>
<trkpt lat="52.908991" lon="-3.356679"><ele>671</ele><time>2020-09-03T12:07:13Z</time><name>PT2837</name></trkpt>
<trkpt lat="52.909020" lon="-3.356644"><ele>670</ele><time>2020-09-03T12:07:17Z</time><name>PT2838</name></trkpt>
<trkpt lat="52.909046" lon="-3.356609"><ele>669</ele><time>2020-09-03T12:07:21Z</time><name>PT2839</name></trkpt>
<trkpt lat="52.909079" lon="-3.356563"><ele>669</ele><time>2020-09-03T12:07:25Z</time><name>PT2840</name></trkpt>
<trkpt lat="52.909115" lon="-3.356527"><ele>668</ele><time>2020-09-03T12:07:29Z</time><name>PT2841</name></trkpt>
<trkpt lat="52.909150" lon="-3.356489"><ele>667</ele><time>2020-09-03T12:07:33Z</time><name>PT2842</name></trkpt>
<trkpt lat="52.909190" lon="-3.356452"><ele>667</ele><time>2020-09-03T12:07:37Z</time><name>PT2843</name></trkpt>
<trkpt lat="52.909227" lon="-3.356411"><ele>667</ele><time>2020-09-03T12:07:41Z</time><name>PT2844</name></trkpt>
<trkpt lat="52.909259" lon="-3.356359"><ele>667</ele><time>2020-09-03T12:07:45Z</time><name>PT2845</name></trkpt>
<trkpt lat="52.909276" lon="-3.356322"><ele>666</ele><time>2020-09-03T12:07:48Z</time><name>PT2846</name></trkpt>
<trkpt lat="52.909289" lon="-3.356285"><ele>666</ele><time>2020-09-03T12:07:51Z</time><name>PT2847</name></trkpt>
<trkpt lat="52.909308" lon="-3.356238"><ele>665</ele><time>2020-09-03T12:07:55Z</time><name>PT2848</name></trkpt>
<trkpt lat="52.909332" lon="-3.356186"><ele>664</ele><time>2020-09-03T12:07:59Z</time><name>PT2849</name></trkpt>
<trkpt lat="52.909361" lon="-3.356161"><ele>663</ele><time>2020-09-03T12:08:03Z</time><name>PT2850</name></trkpt>
<trkpt lat="52.909399" lon="-3.356136"><ele>662</ele><time>2020-09-03T12:08:07Z</time><name>PT2851</name></trkpt>
<trkpt lat="52.909427" lon="-3.356096"><ele>661</ele><time>2020-09-03T12:08:11Z</time><name>PT2852</name></trkpt>
<trkpt lat="52.909459" lon="-3.356077"><ele>660</ele><time>2020-09-03T12:08:15Z</time><name>PT2853</name></trkpt>
<trkpt lat="52.909490" lon="-3.356045"><ele>658</ele><time>2020-09-03T12:08:19Z</time><name>PT2854</name></trkpt>
<trkpt lat="52.909516" lon="-3.356024"><ele>658</ele><time>2020-09-03T12:08:23Z</time><name>PT2855</name></trkpt>
<trkpt lat="52.909542" lon="-3.356000"><ele>657</ele><time>2020-09-03T12:08:27Z</time><name>PT2856</name></trkpt>
<trkpt lat="52.909576" lon="-3.355985"><ele>656</ele><time>2020-09-03T12:08:31Z</time><name>PT2857</name></trkpt>
<trkpt lat="52.909613" lon="-3.355961"><ele>655</ele><time>2020-09-03T12:08:35Z</time><name>PT2858</name></trkpt>
<trkpt lat="52.909646" lon="-3.355947"><ele>654</ele><time>2020-09-03T12:08:39Z</time><name>PT2859</name></trkpt>
<trkpt lat="52.909674" lon="-3.355936"><ele>653</ele><time>2020-09-03T12:08:43Z</time><name>PT2860</name></trkpt>
<trkpt lat="52.909703" lon="-3.355933"><ele>652</ele><time>2020-09-03T12:08:47Z</time><name>PT2861</name></trkpt>
<trkpt lat="52.909738" lon="-3.355931"><ele>651</ele><time>2020-09-03T12:08:51Z</time><name>PT2862</name></trkpt>
<trkpt lat="52.909772" lon="-3.355904"><ele>650</ele><time>2020-09-03T12:08:55Z</time><name>PT2863</name></trkpt>
<trkpt lat="52.909806" lon="-3.355892"><ele>650</ele><time>2020-09-03T12:08:59Z</time><name>PT2864</name></trkpt>
<trkpt lat="52.909847" lon="-3.355886"><ele>650</ele><time>2020-09-03T12:09:03Z</time><name>PT2865</name></trkpt>
<trkpt lat="52.909875" lon="-3.355887"><ele>650</ele><time>2020-09-03T12:09:07Z</time><name>PT2866</name></trkpt>
<trkpt lat="52.909906" lon="-3.355873"><ele>649</ele><time>2020-09-03T12:09:11Z</time><name>PT2867</name></trkpt>
<trkpt lat="52.909934" lon="-3.355875"><ele>649</ele><time>2020-09-03T12:09:15Z</time><name>PT2868</name></trkpt>
<trkpt lat="52.909967" lon="-3.355900"><ele>648</ele><time>2020-09-03T12:09:19Z</time><name>PT2869</name></trkpt>
<trkpt lat="52.909990" lon="-3.355908"><ele>647</ele><time>2020-09-03T12:09:23Z</time><name>PT2870</name></trkpt>
<trkpt lat="52.910007" lon="-3.355891"><ele>646</ele><time>2020-09-03T12:09:27Z</time><name>PT2871</name></trkpt>
<trkpt lat="52.910033" lon="-3.355905"><ele>645</ele><time>2020-09-03T12:09:31Z</time><name>PT2872</name></trkpt>
<trkpt lat="52.910056" lon="-3.355931"><ele>645</ele><time>2020-09-03T12:09:35Z</time><name>PT2873</name></trkpt>
<trkpt lat="52.910064" lon="-3.355934"><ele>645</ele><time>2020-09-03T12:09:39Z</time><name>PT2874</name></trkpt>
<trkpt lat="52.910076" lon="-3.355916"><ele>645</ele><time>2020-09-03T12:09:43Z</time><name>PT2875</name></trkpt>
<trkpt lat="52.910098" lon="-3.355899"><ele>642</ele><time>2020-09-03T12:09:47Z</time><name>PT2876</name></trkpt>
<trkpt lat="52.910117" lon="-3.355893"><ele>642</ele><time>2020-09-03T12:09:51Z</time><name>PT2877</name></trkpt>
<trkpt lat="52.910148" lon="-3.355871"><ele>641</ele><time>2020-09-03T12:09:55Z</time><name>PT2878</name></trkpt>
<trkpt lat="52.910167" lon="-3.355857"><ele>639</ele><time>2020-09-03T12:09:59Z</time><name>PT2879</name></trkpt>
<trkpt lat="52.910186" lon="-3.355855"><ele>639</ele><time>2020-09-03T12:10:03Z</time><name>PT2880</name></trkpt>
<trkpt lat="52.910214" lon="-3.355852"><ele>637</ele><time>2020-09-03T12:10:07Z</time><name>PT2881</name></trkpt>
<trkpt lat="52.910238" lon="-3.355860"><ele>637</ele><time>2020-09-03T12:10:11Z</time><name>PT2882</name></trkpt>
<trkpt lat="52.910255" lon="-3.355875"><ele>636</ele><time>2020-09-03T12:10:15Z</time><name>PT2883</name></trkpt>
<trkpt lat="52.910268" lon="-3.355875"><ele>635</ele><time>2020-09-03T12:10:18Z</time><name>PT2884</name></trkpt>
<trkpt lat="52.910292" lon="-3.355860"><ele>633</ele><time>2020-09-03T12:10:22Z</time><name>PT2885</name></trkpt>
<trkpt lat="52.910312" lon="-3.355833"><ele>632</ele><time>2020-09-03T12:10:26Z</time><name>PT2886</name></trkpt>
<trkpt lat="52.910342" lon="-3.355803"><ele>631</ele><time>2020-09-03T12:10:30Z</time><name>PT2887</name></trkpt>
<trkpt lat="52.910381" lon="-3.355783"><ele>631</ele><time>2020-09-03T12:10:34Z</time><name>PT2888</name></trkpt>
<trkpt lat="52.910419" lon="-3.355776"><ele>631</ele><time>2020-09-03T12:10:38Z</time><name>PT2889</name></trkpt>
<trkpt lat="52.910456" lon="-3.355753"><ele>631</ele><time>2020-09-03T12:10:42Z</time><name>PT2890</name></trkpt>
<trkpt lat="52.910487" lon="-3.355727"><ele>629</ele><time>2020-09-03T12:10:46Z</time><name>PT2891</name></trkpt>
<trkpt lat="52.910515" lon="-3.355697"><ele>628</ele><time>2020-09-03T12:10:50Z</time><name>PT2892</name></trkpt>
<trkpt lat="52.910546" lon="-3.355683"><ele>628</ele><time>2020-09-03T12:10:54Z</time><name>PT2893</name></trkpt>
<trkpt lat="52.910577" lon="-3.355677"><ele>626</ele><time>2020-09-03T12:10:58Z</time><name>PT2894</name></trkpt>
<trkpt lat="52.910605" lon="-3.355663"><ele>625</ele><time>2020-09-03T12:11:02Z</time><name>PT2895</name></trkpt>
<trkpt lat="52.910629" lon="-3.355650"><ele>623</ele><time>2020-09-03T12:11:06Z</time><name>PT2896</name></trkpt>
<trkpt lat="52.910650" lon="-3.355647"><ele>622</ele><time>2020-09-03T12:11:10Z</time><name>PT2897</name></trkpt>
<trkpt lat="52.910679" lon="-3.355622"><ele>621</ele><time>2020-09-03T12:11:14Z</time><name>PT2898</name></trkpt>
<trkpt lat="52.910711" lon="-3.355611"><ele>620</ele><time>2020-09-03T12:11:18Z</time><name>PT2899</name></trkpt>
<trkpt lat="52.910743" lon="-3.355574"><ele>619</ele><time>2020-09-03T12:11:22Z</time><name>PT2900</name></trkpt>
<trkpt lat="52.910779" lon="-3.355560"><ele>619</ele><time>2020-09-03T12:11:26Z</time><name>PT2901</name></trkpt>
<trkpt lat="52.910815" lon="-3.355546"><ele>618</ele><time>2020-09-03T12:11:30Z</time><name>PT2902</name></trkpt>
<trkpt lat="52.910853" lon="-3.355536"><ele>618</ele><time>2020-09-03T12:11:34Z</time><name>PT2903</name></trkpt>
<trkpt lat="52.910882" lon="-3.355516"><ele>617</ele><time>2020-09-03T12:11:38Z</time><name>PT2904</name></trkpt>
<trkpt lat="52.910920" lon="-3.355494"><ele>616</ele><time>2020-09-03T12:11:42Z</time><name>PT2905</name></trkpt>
<trkpt lat="52.910955" lon="-3.355488"><ele>615</ele><time>2020-09-03T12:11:46Z</time><name>PT2906</name></trkpt>
<trkpt lat="52.910990" lon="-3.355476"><ele>615</ele><time>2020-09-03T12:11:50Z</time><name>PT2907</name></trkpt>
<trkpt lat="52.911036" lon="-3.355464"><ele>614</ele><time>2020-09-03T12:11:54Z</time><name>PT2908</name></trkpt>
<trkpt lat="52.911080" lon="-3.355454"><ele>614</ele><time>2020-09-03T12:11:58Z</time><name>PT2909</name></trkpt>
<trkpt lat="52.911122" lon="-3.355431"><ele>613</ele><time>2020-09-03T12:12:02Z</time><name>PT2910</name></trkpt>
<trkpt lat="52.911156" lon="-3.355404"><ele>613</ele><time>2020-09-03T12:12:06Z</time><name>PT2911</name></trkpt>
<trkpt lat="52.911201" lon="-3.355386"><ele>612</ele><time>2020-09-03T12:12:10Z</time><name>PT2912</name></trkpt>
<trkpt lat="52.911240" lon="-3.355363"><ele>611</ele><time>2020-09-03T12:12:14Z</time><name>PT2913</name></trkpt>
<trkpt lat="52.911274" lon="-3.355352"><ele>611</ele><time>2020-09-03T12:12:18Z</time><name>PT2914</name></trkpt>
<trkpt lat="52.911307" lon="-3.355358"><ele>611</ele><time>2020-09-03T12:12:22Z</time><name>PT2915</name></trkpt>
<trkpt lat="52.911340" lon="-3.355313"><ele>612</ele><time>2020-09-03T12:12:26Z</time><name>PT2916</name></trkpt>
<trkpt lat="52.911382" lon="-3.355281"><ele>612</ele><time>2020-09-03T12:12:30Z</time><name>PT2917</name></trkpt>
<trkpt lat="52.911416" lon="-3.355264"><ele>612</ele><time>2020-09-03T12:12:34Z</time><name>PT2918</name></trkpt>
<trkpt lat="52.911462" lon="-3.355246"><ele>612</ele><time>2020-09-03T12:12:38Z</time><name>PT2919</name></trkpt>
<trkpt lat="52.911494" lon="-3.355216"><ele>612</ele><time>2020-09-03T12:12:42Z</time><name>PT2920</name></trkpt>
<trkpt lat="52.911530" lon="-3.355207"><ele>611</ele><time>2020-09-03T12:12:46Z</time><name>PT2921</name></trkpt>
<trkpt lat="52.911566" lon="-3.355231"><ele>611</ele><time>2020-09-03T12:12:50Z</time><name>PT2922</name></trkpt>
<trkpt lat="52.911610" lon="-3.355243"><ele>611</ele><time>2020-09-03T12:12:54Z</time><name>PT2923</name></trkpt>
<trkpt lat="52.911648" lon="-3.355258"><ele>611</ele><time>2020-09-03T12:12:58Z</time><name>PT2924</name></trkpt>
<trkpt lat="52.911692" lon="-3.355258"><ele>610</ele><time>2020-09-03T12:13:02Z</time><name>PT2925</name></trkpt>
<trkpt lat="52.911735" lon="-3.355279"><ele>610</ele><time>2020-09-03T12:13:06Z</time><name>PT2926</name></trkpt>
<trkpt lat="52.911771" lon="-3.355297"><ele>609</ele><time>2020-09-03T12:13:10Z</time><name>PT2927</name></trkpt>
<trkpt lat="52.911805" lon="-3.355283"><ele>609</ele><time>2020-09-03T12:13:14Z</time><name>PT2928</name></trkpt>
<trkpt lat="52.911827" lon="-3.355290"><ele>609</ele><time>2020-09-03T12:13:18Z</time><name>PT2929</name></trkpt>
<trkpt lat="52.911848" lon="-3.355302"><ele>609</ele><time>2020-09-03T12:13:22Z</time><name>PT2930</name></trkpt>
<trkpt lat="52.911876" lon="-3.355282"><ele>608</ele><time>2020-09-03T12:13:26Z</time><name>PT2931</name></trkpt>
<trkpt lat="52.911880" lon="-3.355241"><ele>608</ele><time>2020-09-03T12:13:30Z</time><name>PT2932</name></trkpt>
<trkpt lat="52.911891" lon="-3.355204"><ele>609</ele><time>2020-09-03T12:13:34Z</time><name>PT2933</name></trkpt>
<trkpt lat="52.911914" lon="-3.355172"><ele>609</ele><time>2020-09-03T12:13:38Z</time><name>PT2934</name></trkpt>
<trkpt lat="52.911938" lon="-3.355205"><ele>609</ele><time>2020-09-03T12:13:42Z</time><name>PT2935</name></trkpt>
<trkpt lat="52.911976" lon="-3.355207"><ele>609</ele><time>2020-09-03T12:13:46Z</time><name>PT2936</name></trkpt>
<trkpt lat="52.912004" lon="-3.355212"><ele>609</ele><time>2020-09-03T12:13:50Z</time><name>PT2937</name></trkpt>
<trkpt lat="52.912038" lon="-3.355235"><ele>609</ele><time>2020-09-03T12:13:54Z</time><name>PT2938</name></trkpt>
<trkpt lat="52.912068" lon="-3.355254"><ele>609</ele><time>2020-09-03T12:13:58Z</time><name>PT2939</name></trkpt>
<trkpt lat="52.912098" lon="-3.355284"><ele>608</ele><time>2020-09-03T12:14:02Z</time><name>PT2940</name></trkpt>
<trkpt lat="52.912119" lon="-3.355236"><ele>609</ele><time>2020-09-03T12:14:06Z</time><name>PT2941</name></trkpt>
<trkpt lat="52.912155" lon="-3.355190"><ele>609</ele><time>2020-09-03T12:14:10Z</time><name>PT2942</name></trkpt>
<trkpt lat="52.912191" lon="-3.355155"><ele>609</ele><time>2020-09-03T12:14:14Z</time><name>PT2943</name></trkpt>
<trkpt lat="52.912227" lon="-3.355126"><ele>609</ele><time>2020-09-03T12:14:18Z</time><name>PT2944</name></trkpt>
<trkpt lat="52.912261" lon="-3.355097"><ele>609</ele><time>2020-09-03T12:14:22Z</time><name>PT2945</name></trkpt>
<trkpt lat="52.912299" lon="-3.355064"><ele>609</ele><time>2020-09-03T12:14:26Z</time><name>PT2946</name></trkpt>
<trkpt lat="52.912332" lon="-3.355036"><ele>609</ele><time>2020-09-03T12:14:30Z</time><name>PT2947</name></trkpt>
<trkpt lat="52.912368" lon="-3.355008"><ele>609</ele><time>2020-09-03T12:14:34Z</time><name>PT2948</name></trkpt>
<trkpt lat="52.912403" lon="-3.354968"><ele>609</ele><time>2020-09-03T12:14:38Z</time><name>PT2949</name></trkpt>
<trkpt lat="52.912442" lon="-3.354930"><ele>610</ele><time>2020-09-03T12:14:42Z</time><name>PT2950</name></trkpt>
<trkpt lat="52.912472" lon="-3.354894"><ele>612</ele><time>2020-09-03T12:14:46Z</time><name>PT2951</name></trkpt>
<trkpt lat="52.912505" lon="-3.354853"><ele>613</ele><time>2020-09-03T12:14:50Z</time><name>PT2952</name></trkpt>
<trkpt lat="52.912534" lon="-3.354811"><ele>614</ele><time>2020-09-03T12:14:54Z</time><name>PT2953</name></trkpt>
<trkpt lat="52.912566" lon="-3.354795"><ele>614</ele><time>2020-09-03T12:14:58Z</time><name>PT2954</name></trkpt>
<trkpt lat="52.912606" lon="-3.354782"><ele>615</ele><time>2020-09-03T12:15:02Z</time><name>PT2955</name></trkpt>
<trkpt lat="52.912648" lon="-3.354784"><ele>615</ele><time>2020-09-03T12:15:06Z</time><name>PT2956</name></trkpt>
<trkpt lat="52.912689" lon="-3.354798"><ele>615</ele><time>2020-09-03T12:15:10Z</time><name>PT2957</name></trkpt>
<trkpt lat="52.912727" lon="-3.354831"><ele>615</ele><time>2020-09-03T12:15:14Z</time><name>PT2958</name></trkpt>
<trkpt lat="52.912764" lon="-3.354841"><ele>616</ele><time>2020-09-03T12:15:18Z</time><name>PT2959</name></trkpt>
<trkpt lat="52.912803" lon="-3.354855"><ele>616</ele><time>2020-09-03T12:15:22Z</time><name>PT2960</name></trkpt>
<trkpt lat="52.912846" lon="-3.354837"><ele>615</ele><time>2020-09-03T12:15:26Z</time><name>PT2961</name></trkpt>
<trkpt lat="52.912868" lon="-3.354769"><ele>614</ele><time>2020-09-03T12:15:30Z</time><name>PT2962</name></trkpt>
<trkpt lat="52.912911" lon="-3.354728"><ele>614</ele><time>2020-09-03T12:15:34Z</time><name>PT2963</name></trkpt>
<trkpt lat="52.912954" lon="-3.354741"><ele>615</ele><time>2020-09-03T12:15:38Z</time><name>PT2964</name></trkpt>
<trkpt lat="52.912992" lon="-3.354758"><ele>615</ele><time>2020-09-03T12:15:42Z</time><name>PT2965</name></trkpt>
<trkpt lat="52.913033" lon="-3.354773"><ele>615</ele><time>2020-09-03T12:15:46Z</time><name>PT2966</name></trkpt>
<trkpt lat="52.913081" lon="-3.354778"><ele>615</ele><time>2020-09-03T12:15:50Z</time><name>PT2967</name></trkpt>
<trkpt lat="52.913127" lon="-3.354785"><ele>616</ele><time>2020-09-03T12:15:54Z</time><name>PT2968</name></trkpt>
<trkpt lat="52.913168" lon="-3.354786"><ele>616</ele><time>2020-09-03T12:15:58Z</time><name>PT2969</name></trkpt>
<trkpt lat="52.913209" lon="-3.354778"><ele>617</ele><time>2020-09-03T12:16:02Z</time><name>PT2970</name></trkpt>
<trkpt lat="52.913245" lon="-3.354776"><ele>616</ele><time>2020-09-03T12:16:06Z</time><name>PT2971</name></trkpt>
<trkpt lat="52.913265" lon="-3.354769"><ele>616</ele><time>2020-09-03T12:16:10Z</time><name>PT2972</name></trkpt>
<trkpt lat="52.913306" lon="-3.354753"><ele>615</ele><time>2020-09-03T12:16:14Z</time><name>PT2973</name></trkpt>
<trkpt lat="52.913349" lon="-3.354748"><ele>614</ele><time>2020-09-03T12:16:18Z</time><name>PT2974</name></trkpt>
<trkpt lat="52.913394" lon="-3.354720"><ele>612</ele><time>2020-09-03T12:16:22Z</time><name>PT2975</name></trkpt>
<trkpt lat="52.913441" lon="-3.354695"><ele>612</ele><time>2020-09-03T12:16:26Z</time><name>PT2976</name></trkpt>
<trkpt lat="52.913481" lon="-3.354680"><ele>612</ele><time>2020-09-03T12:16:30Z</time><name>PT2977</name></trkpt>
<trkpt lat="52.913524" lon="-3.354665"><ele>612</ele><time>2020-09-03T12:16:34Z</time><name>PT2978</name></trkpt>
<trkpt lat="52.913560" lon="-3.354626"><ele>610</ele><time>2020-09-03T12:16:38Z</time><name>PT2979</name></trkpt>
<trkpt lat="52.913594" lon="-3.354573"><ele>610</ele><time>2020-09-03T12:16:42Z</time><name>PT2980</name></trkpt>
<trkpt lat="52.913632" lon="-3.354554"><ele>610</ele><time>2020-09-03T12:16:46Z</time><name>PT2981</name></trkpt>
<trkpt lat="52.913656" lon="-3.354551"><ele>609</ele><time>2020-09-03T12:16:50Z</time><name>PT2982</name></trkpt>
<trkpt lat="52.913703" lon="-3.354544"><ele>609</ele><time>2020-09-03T12:16:54Z</time><name>PT2983</name></trkpt>
<trkpt lat="52.913752" lon="-3.354556"><ele>610</ele><time>2020-09-03T12:16:58Z</time><name>PT2984</name></trkpt>
<trkpt lat="52.913803" lon="-3.354556"><ele>610</ele><time>2020-09-03T12:17:02Z</time><name>PT2985</name></trkpt>
<trkpt lat="52.913848" lon="-3.354566"><ele>609</ele><time>2020-09-03T12:17:06Z</time><name>PT2986</name></trkpt>
<trkpt lat="52.913883" lon="-3.354553"><ele>607</ele><time>2020-09-03T12:17:10Z</time><name>PT2987</name></trkpt>
<trkpt lat="52.913917" lon="-3.354520"><ele>607</ele><time>2020-09-03T12:17:14Z</time><name>PT2988</name></trkpt>
<trkpt lat="52.913960" lon="-3.354516"><ele>606</ele><time>2020-09-03T12:17:18Z</time><name>PT2989</name></trkpt>
<trkpt lat="52.914000" lon="-3.354529"><ele>605</ele><time>2020-09-03T12:17:22Z</time><name>PT2990</name></trkpt>
<trkpt lat="52.914035" lon="-3.354536"><ele>604</ele><time>2020-09-03T12:17:26Z</time><name>PT2991</name></trkpt>
<trkpt lat="52.914076" lon="-3.354550"><ele>604</ele><time>2020-09-03T12:17:30Z</time><name>PT2992</name></trkpt>
<trkpt lat="52.914086" lon="-3.354547"><ele>604</ele><time>2020-09-03T12:17:33Z</time><name>PT2993</name></trkpt>
<trkpt lat="52.914109" lon="-3.354563"><ele>603</ele><time>2020-09-03T12:17:36Z</time><name>PT2994</name></trkpt>
<trkpt lat="52.914141" lon="-3.354591"><ele>604</ele><time>2020-09-03T12:17:40Z</time><name>PT2995</name></trkpt>
<trkpt lat="52.914190" lon="-3.354610"><ele>603</ele><time>2020-09-03T12:17:44Z</time><name>PT2996</name></trkpt>
<trkpt lat="52.914226" lon="-3.354628"><ele>602</ele><time>2020-09-03T12:17:48Z</time><name>PT2997</name></trkpt>
<trkpt lat="52.914276" lon="-3.354640"><ele>601</ele><time>2020-09-03T12:17:52Z</time><name>PT2998</name></trkpt>
<trkpt lat="52.914314" lon="-3.354639"><ele>600</ele><time>2020-09-03T12:17:56Z</time><name>PT2999</name></trkpt>
<trkpt lat="52.914357" lon="-3.354618"><ele>599</ele><time>2020-09-03T12:18:00Z</time><name>PT3000</name></trkpt>
<trkpt lat="52.914388" lon="-3.354590"><ele>598</ele><time>2020-09-03T12:18:04Z</time><name>PT3001</name></trkpt>
<trkpt lat="52.914434" lon="-3.354569"><ele>597</ele><time>2020-09-03T12:18:08Z</time><name>PT3002</name></trkpt>
<trkpt lat="52.914479" lon="-3.354585"><ele>596</ele><time>2020-09-03T12:18:12Z</time><name>PT3003</name></trkpt>
<trkpt lat="52.914528" lon="-3.354586"><ele>595</ele><time>2020-09-03T12:18:16Z</time><name>PT3004</name></trkpt>
<trkpt lat="52.914559" lon="-3.354588"><ele>594</ele><time>2020-09-03T12:18:20Z</time><name>PT3005</name></trkpt>
<trkpt lat="52.914606" lon="-3.354597"><ele>593</ele><time>2020-09-03T12:18:24Z</time><name>PT3006</name></trkpt>
<trkpt lat="52.914651" lon="-3.354593"><ele>592</ele><time>2020-09-03T12:18:28Z</time><name>PT3007</name></trkpt>
<trkpt lat="52.914689" lon="-3.354611"><ele>590</ele><time>2020-09-03T12:18:32Z</time><name>PT3008</name></trkpt>
<trkpt lat="52.914724" lon="-3.354633"><ele>590</ele><time>2020-09-03T12:18:36Z</time><name>PT3009</name></trkpt>
<trkpt lat="52.914763" lon="-3.354621"><ele>589</ele><time>2020-09-03T12:18:40Z</time><name>PT3010</name></trkpt>
<trkpt lat="52.914807" lon="-3.354601"><ele>588</ele><time>2020-09-03T12:18:44Z</time><name>PT3011</name></trkpt>
<trkpt lat="52.914842" lon="-3.354595"><ele>588</ele><time>2020-09-03T12:18:48Z</time><name>PT3012</name></trkpt>
<trkpt lat="52.914878" lon="-3.354563"><ele>587</ele><time>2020-09-03T12:18:52Z</time><name>PT3013</name></trkpt>
<trkpt lat="52.914916" lon="-3.354542"><ele>588</ele><time>2020-09-03T12:18:56Z</time><name>PT3014</name></trkpt>
<trkpt lat="52.914953" lon="-3.354525"><ele>587</ele><time>2020-09-03T12:19:00Z</time><name>PT3015</name></trkpt>
<trkpt lat="52.914990" lon="-3.354528"><ele>587</ele><time>2020-09-03T12:19:04Z</time><name>PT3016</name></trkpt>
<trkpt lat="52.915027" lon="-3.354531"><ele>587</ele><time>2020-09-03T12:19:08Z</time><name>PT3017</name></trkpt>
<trkpt lat="52.915068" lon="-3.354504"><ele>587</ele><time>2020-09-03T12:19:12Z</time><name>PT3018</name></trkpt>
<trkpt lat="52.915113" lon="-3.354477"><ele>587</ele><time>2020-09-03T12:19:16Z</time><name>PT3019</name></trkpt>
<trkpt lat="52.915155" lon="-3.354463"><ele>587</ele><time>2020-09-03T12:19:20Z</time><name>PT3020</name></trkpt>
<trkpt lat="52.915177" lon="-3.354489"><ele>587</ele><time>2020-09-03T12:19:24Z</time><name>PT3021</name></trkpt>
<trkpt lat="52.915202" lon="-3.354499"><ele>588</ele><time>2020-09-03T12:19:28Z</time><name>PT3022</name></trkpt>
<trkpt lat="52.915231" lon="-3.354523"><ele>589</ele><time>2020-09-03T12:19:32Z</time><name>PT3023</name></trkpt>
<trkpt lat="52.915267" lon="-3.354518"><ele>589</ele><time>2020-09-03T12:19:36Z</time><name>PT3024</name></trkpt>
<trkpt lat="52.915312" lon="-3.354512"><ele>589</ele><time>2020-09-03T12:19:40Z</time><name>PT3025</name></trkpt>
<trkpt lat="52.915354" lon="-3.354477"><ele>588</ele><time>2020-09-03T12:19:44Z</time><name>PT3026</name></trkpt>
<trkpt lat="52.915394" lon="-3.354445"><ele>588</ele><time>2020-09-03T12:19:48Z</time><name>PT3027</name></trkpt>
<trkpt lat="52.915439" lon="-3.354433"><ele>587</ele><time>2020-09-03T12:19:52Z</time><name>PT3028</name></trkpt>
<trkpt lat="52.915484" lon="-3.354394"><ele>588</ele><time>2020-09-03T12:19:56Z</time><name>PT3029</name></trkpt>
<trkpt lat="52.915528" lon="-3.354356"><ele>587</ele><time>2020-09-03T12:20:00Z</time><name>PT3030</name></trkpt>
<trkpt lat="52.915569" lon="-3.354334"><ele>587</ele><time>2020-09-03T12:20:04Z</time><name>PT3031</name></trkpt>
<trkpt lat="52.915605" lon="-3.354294"><ele>588</ele><time>2020-09-03T12:20:08Z</time><name>PT3032</name></trkpt>
<trkpt lat="52.915649" lon="-3.354247"><ele>589</ele><time>2020-09-03T12:20:12Z</time><name>PT3033</name></trkpt>
<trkpt lat="52.915687" lon="-3.354204"><ele>589</ele><time>2020-09-03T12:20:16Z</time><name>PT3034</name></trkpt>
<trkpt lat="52.915726" lon="-3.354169"><ele>589</ele><time>2020-09-03T12:20:20Z</time><name>PT3035</name></trkpt>
<trkpt lat="52.915773" lon="-3.354143"><ele>589</ele><time>2020-09-03T12:20:24Z</time><name>PT3036</name></trkpt>
<trkpt lat="52.915818" lon="-3.354120"><ele>589</ele><time>2020-09-03T12:20:28Z</time><name>PT3037</name></trkpt>
<trkpt lat="52.915853" lon="-3.354077"><ele>588</ele><time>2020-09-03T12:20:32Z</time><name>PT3038</name></trkpt>
<trkpt lat="52.915889" lon="-3.354014"><ele>587</ele><time>2020-09-03T12:20:36Z</time><name>PT3039</name></trkpt>
<trkpt lat="52.915910" lon="-3.353942"><ele>587</ele><time>2020-09-03T12:20:40Z</time><name>PT3040</name></trkpt>
<trkpt lat="52.915943" lon="-3.353879"><ele>587</ele><time>2020-09-03T12:20:44Z</time><name>PT3041</name></trkpt>
<trkpt lat="52.915974" lon="-3.353833"><ele>587</ele><time>2020-09-03T12:20:48Z</time><name>PT3042</name></trkpt>
<trkpt lat="52.916008" lon="-3.353769"><ele>587</ele><time>2020-09-03T12:20:52Z</time><name>PT3043</name></trkpt>
<trkpt lat="52.916051" lon="-3.353749"><ele>586</ele><time>2020-09-03T12:20:56Z</time><name>PT3044</name></trkpt>
<trkpt lat="52.916093" lon="-3.353739"><ele>586</ele><time>2020-09-03T12:21:00Z</time><name>PT3045</name></trkpt>
<trkpt lat="52.916143" lon="-3.353730"><ele>585</ele><time>2020-09-03T12:21:04Z</time><name>PT3046</name></trkpt>
<trkpt lat="52.916190" lon="-3.353719"><ele>585</ele><time>2020-09-03T12:21:08Z</time><name>PT3047</name></trkpt>
<trkpt lat="52.916235" lon="-3.353706"><ele>583</ele><time>2020-09-03T12:21:12Z</time><name>PT3048</name></trkpt>
<trkpt lat="52.916284" lon="-3.353688"><ele>583</ele><time>2020-09-03T12:21:16Z</time><name>PT3049</name></trkpt>
<trkpt lat="52.916330" lon="-3.353684"><ele>583</ele><time>2020-09-03T12:21:20Z</time><name>PT3050</name></trkpt>
<trkpt lat="52.916381" lon="-3.353676"><ele>584</ele><time>2020-09-03T12:21:24Z</time><name>PT3051</name></trkpt>
<trkpt lat="52.916426" lon="-3.353668"><ele>584</ele><time>2020-09-03T12:21:28Z</time><name>PT3052</name></trkpt>
<trkpt lat="52.916467" lon="-3.353664"><ele>586</ele><time>2020-09-03T12:21:32Z</time><name>PT3053</name></trkpt>
<trkpt lat="52.916495" lon="-3.353632"><ele>586</ele><time>2020-09-03T12:21:36Z</time><name>PT3054</name></trkpt>
<trkpt lat="52.916536" lon="-3.353607"><ele>587</ele><time>2020-09-03T12:21:40Z</time><name>PT3055</name></trkpt>
<trkpt lat="52.916577" lon="-3.353612"><ele>588</ele><time>2020-09-03T12:21:44Z</time><name>PT3056</name></trkpt>
<trkpt lat="52.916624" lon="-3.353591"><ele>589</ele><time>2020-09-03T12:21:48Z</time><name>PT3057</name></trkpt>
<trkpt lat="52.916669" lon="-3.353580"><ele>589</ele><time>2020-09-03T12:21:52Z</time><name>PT3058</name></trkpt>
<trkpt lat="52.916720" lon="-3.353575"><ele>588</ele><time>2020-09-03T12:21:56Z</time><name>PT3059</name></trkpt>
<trkpt lat="52.916767" lon="-3.353559"><ele>589</ele><time>2020-09-03T12:22:00Z</time><name>PT3060</name></trkpt>
<trkpt lat="52.916812" lon="-3.353557"><ele>590</ele><time>2020-09-03T12:22:04Z</time><name>PT3061</name></trkpt>
<trkpt lat="52.916858" lon="-3.353555"><ele>589</ele><time>2020-09-03T12:22:08Z</time><name>PT3062</name></trkpt>
<trkpt lat="52.916893" lon="-3.353569"><ele>590</ele><time>2020-09-03T12:22:12Z</time><name>PT3063</name></trkpt>
<trkpt lat="52.916932" lon="-3.353560"><ele>592</ele><time>2020-09-03T12:22:16Z</time><name>PT3064</name></trkpt>
<trkpt lat="52.916977" lon="-3.353559"><ele>592</ele><time>2020-09-03T12:22:20Z</time><name>PT3065</name></trkpt>
<trkpt lat="52.917025" lon="-3.353553"><ele>592</ele><time>2020-09-03T12:22:24Z</time><name>PT3066</name></trkpt>
<trkpt lat="52.917067" lon="-3.353539"><ele>592</ele><time>2020-09-03T12:22:28Z</time><name>PT3067</name></trkpt>
<trkpt lat="52.917111" lon="-3.353524"><ele>593</ele><time>2020-09-03T12:22:32Z</time><name>PT3068</name></trkpt>
<trkpt lat="52.917160" lon="-3.353524"><ele>592</ele><time>2020-09-03T12:22:36Z</time><name>PT3069</name></trkpt>
<trkpt lat="52.917203" lon="-3.353534"><ele>592</ele><time>2020-09-03T12:22:40Z</time><name>PT3070</name></trkpt>
<trkpt lat="52.917255" lon="-3.353513"><ele>592</ele><time>2020-09-03T12:22:44Z</time><name>PT3071</name></trkpt>
<trkpt lat="52.917296" lon="-3.353485"><ele>591</ele><time>2020-09-03T12:22:48Z</time><name>PT3072</name></trkpt>
<trkpt lat="52.917347" lon="-3.353456"><ele>590</ele><time>2020-09-03T12:22:52Z</time><name>PT3073</name></trkpt>
<trkpt lat="52.917396" lon="-3.353454"><ele>589</ele><time>2020-09-03T12:22:56Z</time><name>PT3074</name></trkpt>
<trkpt lat="52.917444" lon="-3.353447"><ele>590</ele><time>2020-09-03T12:23:00Z</time><name>PT3075</name></trkpt>
<trkpt lat="52.917493" lon="-3.353421"><ele>589</ele><time>2020-09-03T12:23:04Z</time><name>PT3076</name></trkpt>
<trkpt lat="52.917534" lon="-3.353422"><ele>588</ele><time>2020-09-03T12:23:08Z</time><name>PT3077</name></trkpt>
<trkpt lat="52.917583" lon="-3.353411"><ele>589</ele><time>2020-09-03T12:23:12Z</time><name>PT3078</name></trkpt>
<trkpt lat="52.917629" lon="-3.353386"><ele>589</ele><time>2020-09-03T12:23:16Z</time><name>PT3079</name></trkpt>
<trkpt lat="52.917671" lon="-3.353364"><ele>590</ele><time>2020-09-03T12:23:20Z</time><name>PT3080</name></trkpt>
<trkpt lat="52.917707" lon="-3.353340"><ele>591</ele><time>2020-09-03T12:23:24Z</time><name>PT3081</name></trkpt>
<trkpt lat="52.917746" lon="-3.353321"><ele>591</ele><time>2020-09-03T12:23:28Z</time><name>PT3082</name></trkpt>
<trkpt lat="52.917770" lon="-3.353286"><ele>591</ele><time>2020-09-03T12:23:32Z</time><name>PT3083</name></trkpt>
<trkpt lat="52.917796" lon="-3.353231"><ele>591</ele><time>2020-09-03T12:23:36Z</time><name>PT3084</name></trkpt>
<trkpt lat="52.917832" lon="-3.353190"><ele>591</ele><time>2020-09-03T12:23:40Z</time><name>PT3085</name></trkpt>
<trkpt lat="52.917877" lon="-3.353169"><ele>592</ele><time>2020-09-03T12:23:44Z</time><name>PT3086</name></trkpt>
<trkpt lat="52.917888" lon="-3.353166"><ele>592</ele><time>2020-09-03T12:23:44Z</time><name>PT3087</name></trkpt>
<trkpt lat="52.917899" lon="-3.353167"><ele>592</ele><time>2020-09-03T12:23:46Z</time><name>PT3088</name></trkpt>
<trkpt lat="52.917909" lon="-3.353163"><ele>591</ele><time>2020-09-03T12:23:46Z</time><name>PT3089</name></trkpt>
<trkpt lat="52.917918" lon="-3.353153"><ele>591</ele><time>2020-09-03T12:23:48Z</time><name>PT3090</name></trkpt>
<trkpt lat="52.917928" lon="-3.353141"><ele>591</ele><time>2020-09-03T12:23:48Z</time><name>PT3091</name></trkpt>
<trkpt lat="52.917935" lon="-3.353131"><ele>591</ele><time>2020-09-03T12:23:50Z</time><name>PT3092</name></trkpt>
<trkpt lat="52.917941" lon="-3.353119"><ele>591</ele><time>2020-09-03T12:23:50Z</time><name>PT3093</name></trkpt>
<trkpt lat="52.917950" lon="-3.353110"><ele>591</ele><time>2020-09-03T12:23:52Z</time><name>PT3094</name></trkpt>
<trkpt lat="52.917959" lon="-3.353099"><ele>591</ele><time>2020-09-03T12:23:52Z</time><name>PT3095</name></trkpt>
<trkpt lat="52.917967" lon="-3.353090"><ele>591</ele><time>2020-09-03T12:23:54Z</time><name>PT3096</name></trkpt>
<trkpt lat="52.917976" lon="-3.353079"><ele>591</ele><time>2020-09-03T12:23:54Z</time><name>PT3097</name></trkpt>
<trkpt lat="52.917986" lon="-3.353070"><ele>591</ele><time>2020-09-03T12:23:56Z</time><name>PT3098</name></trkpt>
<trkpt lat="52.917997" lon="-3.353057"><ele>591</ele><time>2020-09-03T12:23:56Z</time><name>PT3099</name></trkpt>
<trkpt lat="52.918009" lon="-3.353043"><ele>591</ele><time>2020-09-03T12:23:58Z</time><name>PT3100</name></trkpt>
<trkpt lat="52.918017" lon="-3.353032"><ele>591</ele><time>2020-09-03T12:23:58Z</time><name>PT3101</name></trkpt>
<trkpt lat="52.918026" lon="-3.353019"><ele>591</ele><time>2020-09-03T12:24:00Z</time><name>PT3102</name></trkpt>
<trkpt lat="52.918035" lon="-3.353008"><ele>591</ele><time>2020-09-03T12:24:01Z</time><name>PT3103</name></trkpt>
<trkpt lat="52.918044" lon="-3.353000"><ele>591</ele><time>2020-09-03T12:24:02Z</time><name>PT3104</name></trkpt>
<trkpt lat="52.918055" lon="-3.352987"><ele>591</ele><time>2020-09-03T12:24:03Z</time><name>PT3105</name></trkpt>
<trkpt lat="52.918063" lon="-3.352978"><ele>591</ele><time>2020-09-03T12:24:04Z</time><name>PT3106</name></trkpt>
<trkpt lat="52.918072" lon="-3.352963"><ele>591</ele><time>2020-09-03T12:24:04Z</time><name>PT3107</name></trkpt>
<trkpt lat="52.918084" lon="-3.352952"><ele>591</ele><time>2020-09-03T12:24:06Z</time><name>PT3108</name></trkpt>
<trkpt lat="52.918100" lon="-3.352947"><ele>592</ele><time>2020-09-03T12:24:07Z</time><name>PT3109</name></trkpt>
<trkpt lat="52.918113" lon="-3.352940"><ele>591</ele><time>2020-09-03T12:24:08Z</time><name>PT3110</name></trkpt>
<trkpt lat="52.918123" lon="-3.352935"><ele>591</ele><time>2020-09-03T12:24:09Z</time><name>PT3111</name></trkpt>
<trkpt lat="52.918132" lon="-3.352929"><ele>591</ele><time>2020-09-03T12:24:10Z</time><name>PT3112</name></trkpt>
<trkpt lat="52.918141" lon="-3.352919"><ele>591</ele><time>2020-09-03T12:24:10Z</time><name>PT3113</name></trkpt>
<trkpt lat="52.918149" lon="-3.352913"><ele>591</ele><time>2020-09-03T12:24:12Z</time><name>PT3114</name></trkpt>
<trkpt lat="52.918157" lon="-3.352906"><ele>591</ele><time>2020-09-03T12:24:12Z</time><name>PT3115</name></trkpt>
<trkpt lat="52.918164" lon="-3.352899"><ele>591</ele><time>2020-09-03T12:24:14Z</time><name>PT3116</name></trkpt>
<trkpt lat="52.918171" lon="-3.352889"><ele>592</ele><time>2020-09-03T12:24:14Z</time><name>PT3117</name></trkpt>
<trkpt lat="52.918177" lon="-3.352881"><ele>592</ele><time>2020-09-03T12:24:16Z</time><name>PT3118</name></trkpt>
<trkpt lat="52.918184" lon="-3.352874"><ele>592</ele><time>2020-09-03T12:24:16Z</time><name>PT3119</name></trkpt>
<trkpt lat="52.918190" lon="-3.352872"><ele>592</ele><time>2020-09-03T12:24:18Z</time><name>PT3120</name></trkpt>
<trkpt lat="52.918195" lon="-3.352864"><ele>592</ele><time>2020-09-03T12:24:18Z</time><name>PT3121</name></trkpt>
<trkpt lat="52.918196" lon="-3.352861"><ele>592</ele><time>2020-09-03T12:24:20Z</time><name>PT3122</name></trkpt>
<trkpt lat="52.918196" lon="-3.352859"><ele>592</ele><time>2020-09-03T12:24:20Z</time><name>PT3123</name></trkpt>
<trkpt lat="52.918198" lon="-3.352856"><ele>593</ele><time>2020-09-03T12:24:22Z</time><name>PT3124</name></trkpt>
<trkpt lat="52.918200" lon="-3.352855"><ele>593</ele><time>2020-09-03T12:24:22Z</time><name>PT3125</name></trkpt>
<trkpt lat="52.918201" lon="-3.352856"><ele>593</ele><time>2020-09-03T12:24:24Z</time><name>PT3126</name></trkpt>
<trkpt lat="52.918201" lon="-3.352852"><ele>593</ele><time>2020-09-03T12:24:28Z</time><name>PT3127</name></trkpt>
<trkpt lat="52.918199" lon="-3.352846"><ele>593</ele><time>2020-09-03T12:24:28Z</time><name>PT3128</name></trkpt>
<trkpt lat="52.918201" lon="-3.352843"><ele>593</ele><time>2020-09-03T12:24:30Z</time><name>PT3129</name></trkpt>
<trkpt lat="52.918203" lon="-3.352842"><ele>593</ele><time>2020-09-03T12:24:32Z</time><name>PT3130</name></trkpt>
<trkpt lat="52.918204" lon="-3.352854"><ele>593</ele><time>2020-09-03T12:24:32Z</time><name>PT3131</name></trkpt>
<trkpt lat="52.918205" lon="-3.352857"><ele>593</ele><time>2020-09-03T12:24:34Z</time><name>PT3132</name></trkpt>
<trkpt lat="52.918206" lon="-3.352863"><ele>593</ele><time>2020-09-03T12:24:34Z</time><name>PT3133</name></trkpt>
<trkpt lat="52.918206" lon="-3.352866"><ele>593</ele><time>2020-09-03T12:24:36Z</time><name>PT3134</name></trkpt>
<trkpt lat="52.918209" lon="-3.352876"><ele>593</ele><time>2020-09-03T12:24:36Z</time><name>PT3135</name></trkpt>
<trkpt lat="52.918209" lon="-3.352881"><ele>592</ele><time>2020-09-03T12:24:38Z</time><name>PT3136</name></trkpt>
<trkpt lat="52.918208" lon="-3.352884"><ele>593</ele><time>2020-09-03T12:24:38Z</time><name>PT3137</name></trkpt>
<trkpt lat="52.918211" lon="-3.352883"><ele>592</ele><time>2020-09-03T12:24:40Z</time><name>PT3138</name></trkpt>
<trkpt lat="52.918211" lon="-3.352892"><ele>592</ele><time>2020-09-03T12:24:56Z</time><name>PT3139</name></trkpt>
<trkpt lat="52.918210" lon="-3.352897"><ele>592</ele><time>2020-09-03T12:24:57Z</time><name>PT3140</name></trkpt>
<trkpt lat="52.918205" lon="-3.352901"><ele>592</ele><time>2020-09-03T12:25:04Z</time><name>PT3141</name></trkpt>
<trkpt lat="52.918201" lon="-3.352905"><ele>592</ele><time>2020-09-03T12:25:06Z</time><name>PT3142</name></trkpt>
<trkpt lat="52.918194" lon="-3.352909"><ele>592</ele><time>2020-09-03T12:25:06Z</time><name>PT3143</name></trkpt>
<trkpt lat="52.918192" lon="-3.352909"><ele>592</ele><time>2020-09-03T12:25:08Z</time><name>PT3144</name></trkpt>
<trkpt lat="52.918190" lon="-3.352907"><ele>592</ele><time>2020-09-03T12:25:08Z</time><name>PT3145</name></trkpt>
<trkpt lat="52.918189" lon="-3.352908"><ele>591</ele><time>2020-09-03T12:25:10Z</time><name>PT3146</name></trkpt>
<trkpt lat="52.918191" lon="-3.352906"><ele>591</ele><time>2020-09-03T12:25:19Z</time><name>PT3147</name></trkpt>
<trkpt lat="52.918198" lon="-3.352904"><ele>591</ele><time>2020-09-03T12:25:21Z</time><name>PT3148</name></trkpt>
<trkpt lat="52.918205" lon="-3.352914"><ele>591</ele><time>2020-09-03T12:25:21Z</time><name>PT3149</name></trkpt>
<trkpt lat="52.918211" lon="-3.352921"><ele>591</ele><time>2020-09-03T12:25:23Z</time><name>PT3150</name></trkpt>
<trkpt lat="52.918215" lon="-3.352925"><ele>590</ele><time>2020-09-03T12:25:23Z</time><name>PT3151</name></trkpt>
<trkpt lat="52.918223" lon="-3.352928"><ele>590</ele><time>2020-09-03T12:25:25Z</time><name>PT3152</name></trkpt>
<trkpt lat="52.918230" lon="-3.352939"><ele>590</ele><time>2020-09-03T12:25:25Z</time><name>PT3153</name></trkpt>
<trkpt lat="52.918237" lon="-3.352951"><ele>590</ele><time>2020-09-03T12:25:27Z</time><name>PT3154</name></trkpt>
<trkpt lat="52.918242" lon="-3.352961"><ele>589</ele><time>2020-09-03T12:25:28Z</time><name>PT3155</name></trkpt>
<trkpt lat="52.918251" lon="-3.352970"><ele>589</ele><time>2020-09-03T12:25:29Z</time><name>PT3156</name></trkpt>
<trkpt lat="52.918258" lon="-3.352978"><ele>589</ele><time>2020-09-03T12:25:29Z</time><name>PT3157</name></trkpt>
<trkpt lat="52.918268" lon="-3.352982"><ele>588</ele><time>2020-09-03T12:25:31Z</time><name>PT3158</name></trkpt>
<trkpt lat="52.918278" lon="-3.352987"><ele>588</ele><time>2020-09-03T12:25:32Z</time><name>PT3159</name></trkpt>
<trkpt lat="52.918290" lon="-3.352992"><ele>587</ele><time>2020-09-03T12:25:33Z</time><name>PT3160</name></trkpt>
<trkpt lat="52.918299" lon="-3.352999"><ele>587</ele><time>2020-09-03T12:25:34Z</time><name>PT3161</name></trkpt>
<trkpt lat="52.918307" lon="-3.353007"><ele>587</ele><time>2020-09-03T12:25:35Z</time><name>PT3162</name></trkpt>
<trkpt lat="52.918317" lon="-3.353017"><ele>586</ele><time>2020-09-03T12:25:36Z</time><name>PT3163</name></trkpt>
<trkpt lat="52.918327" lon="-3.353028"><ele>586</ele><time>2020-09-03T12:25:37Z</time><name>PT3164</name></trkpt>
<trkpt lat="52.918337" lon="-3.353037"><ele>585</ele><time>2020-09-03T12:25:38Z</time><name>PT3165</name></trkpt>
<trkpt lat="52.918349" lon="-3.353041"><ele>585</ele><time>2020-09-03T12:25:39Z</time><name>PT3166</name></trkpt>
<trkpt lat="52.918361" lon="-3.353038"><ele>585</ele><time>2020-09-03T12:25:40Z</time><name>PT3167</name></trkpt>
<trkpt lat="52.918372" lon="-3.353036"><ele>585</ele><time>2020-09-03T12:25:41Z</time><name>PT3168</name></trkpt>
<trkpt lat="52.918383" lon="-3.353036"><ele>585</ele><time>2020-09-03T12:25:42Z</time><name>PT3169</name></trkpt>
<trkpt lat="52.918393" lon="-3.353030"><ele>585</ele><time>2020-09-03T12:25:43Z</time><name>PT3170</name></trkpt>
<trkpt lat="52.918407" lon="-3.353027"><ele>586</ele><time>2020-09-03T12:25:43Z</time><name>PT3171</name></trkpt>
<trkpt lat="52.918422" lon="-3.353027"><ele>586</ele><time>2020-09-03T12:25:45Z</time><name>PT3172</name></trkpt>
<trkpt lat="52.918431" lon="-3.353021"><ele>585</ele><time>2020-09-03T12:25:45Z</time><name>PT3173</name></trkpt>
<trkpt lat="52.918438" lon="-3.353015"><ele>585</ele><time>2020-09-03T12:25:47Z</time><name>PT3174</name></trkpt>
<trkpt lat="52.918447" lon="-3.353013"><ele>584</ele><time>2020-09-03T12:25:47Z</time><name>PT3175</name></trkpt>
<trkpt lat="52.918457" lon="-3.353015"><ele>585</ele><time>2020-09-03T12:25:49Z</time><name>PT3176</name></trkpt>
<trkpt lat="52.918465" lon="-3.353017"><ele>585</ele><time>2020-09-03T12:25:49Z</time><name>PT3177</name></trkpt>
<trkpt lat="52.918474" lon="-3.353018"><ele>585</ele><time>2020-09-03T12:25:51Z</time><name>PT3178</name></trkpt>
<trkpt lat="52.918483" lon="-3.353019"><ele>584</ele><time>2020-09-03T12:25:51Z</time><name>PT3179</name></trkpt>
<trkpt lat="52.918491" lon="-3.353023"><ele>583</ele><time>2020-09-03T12:25:53Z</time><name>PT3180</name></trkpt>
<trkpt lat="52.918500" lon="-3.353026"><ele>583</ele><time>2020-09-03T12:25:53Z</time><name>PT3181</name></trkpt>
<trkpt lat="52.918506" lon="-3.353028"><ele>583</ele><time>2020-09-03T12:25:55Z</time><name>PT3182</name></trkpt>
<trkpt lat="52.918514" lon="-3.353039"><ele>583</ele><time>2020-09-03T12:25:55Z</time><name>PT3183</name></trkpt>
<trkpt lat="52.918523" lon="-3.353059"><ele>583</ele><time>2020-09-03T12:25:57Z</time><name>PT3184</name></trkpt>
<trkpt lat="52.918530" lon="-3.353074"><ele>583</ele><time>2020-09-03T12:25:57Z</time><name>PT3185</name></trkpt>
<trkpt lat="52.918540" lon="-3.353090"><ele>583</ele><time>2020-09-03T12:25:59Z</time><name>PT3186</name></trkpt>
<trkpt lat="52.918547" lon="-3.353097"><ele>582</ele><time>2020-09-03T12:25:59Z</time><name>PT3187</name></trkpt>
<trkpt lat="52.918556" lon="-3.353105"><ele>582</ele><time>2020-09-03T12:26:01Z</time><name>PT3188</name></trkpt>
<trkpt lat="52.918567" lon="-3.353110"><ele>582</ele><time>2020-09-03T12:26:01Z</time><name>PT3189</name></trkpt>
<trkpt lat="52.918577" lon="-3.353120"><ele>582</ele><time>2020-09-03T12:26:03Z</time><name>PT3190</name></trkpt>
<trkpt lat="52.918585" lon="-3.353134"><ele>582</ele><time>2020-09-03T12:26:03Z</time><name>PT3191</name></trkpt>
<trkpt lat="52.918593" lon="-3.353151"><ele>582</ele><time>2020-09-03T12:26:05Z</time><name>PT3192</name></trkpt>
<trkpt lat="52.918601" lon="-3.353172"><ele>582</ele><time>2020-09-03T12:26:05Z</time><name>PT3193</name></trkpt>
<trkpt lat="52.918609" lon="-3.353189"><ele>582</ele><time>2020-09-03T12:26:07Z</time><name>PT3194</name></trkpt>
<trkpt lat="52.918619" lon="-3.353202"><ele>582</ele><time>2020-09-03T12:26:07Z</time><name>PT3195</name></trkpt>
<trkpt lat="52.918630" lon="-3.353212"><ele>582</ele><time>2020-09-03T12:26:09Z</time><name>PT3196</name></trkpt>
<trkpt lat="52.918638" lon="-3.353225"><ele>582</ele><time>2020-09-03T12:26:09Z</time><name>PT3197</name></trkpt>
<trkpt lat="52.918645" lon="-3.353238"><ele>582</ele><time>2020-09-03T12:26:11Z</time><name>PT3198</name></trkpt>
<trkpt lat="52.918654" lon="-3.353251"><ele>582</ele><time>2020-09-03T12:26:11Z</time><name>PT3199</name></trkpt>
<trkpt lat="52.918661" lon="-3.353261"><ele>582</ele><time>2020-09-03T12:26:13Z</time><name>PT3200</name></trkpt>
<trkpt lat="52.918671" lon="-3.353271"><ele>582</ele><time>2020-09-03T12:26:13Z</time><name>PT3201</name></trkpt>
<trkpt lat="52.918678" lon="-3.353278"><ele>581</ele><time>2020-09-03T12:26:15Z</time><name>PT3202</name></trkpt>
<trkpt lat="52.918686" lon="-3.353286"><ele>581</ele><time>2020-09-03T12:26:15Z</time><name>PT3203</name></trkpt>
<trkpt lat="52.918700" lon="-3.353295"><ele>581</ele><time>2020-09-03T12:26:17Z</time><name>PT3204</name></trkpt>
<trkpt lat="52.918710" lon="-3.353305"><ele>581</ele><time>2020-09-03T12:26:17Z</time><name>PT3205</name></trkpt>
<trkpt lat="52.918718" lon="-3.353320"><ele>581</ele><time>2020-09-03T12:26:19Z</time><name>PT3206</name></trkpt>
<trkpt lat="52.918726" lon="-3.353331"><ele>581</ele><time>2020-09-03T12:26:19Z</time><name>PT3207</name></trkpt>
<trkpt lat="52.918734" lon="-3.353337"><ele>581</ele><time>2020-09-03T12:26:21Z</time><name>PT3208</name></trkpt>
<trkpt lat="52.918744" lon="-3.353341"><ele>581</ele><time>2020-09-03T12:26:21Z</time><name>PT3209</name></trkpt>
<trkpt lat="52.918754" lon="-3.353352"><ele>581</ele><time>2020-09-03T12:26:23Z</time><name>PT3210</name></trkpt>
<trkpt lat="52.918763" lon="-3.353362"><ele>581</ele><time>2020-09-03T12:26:23Z</time><name>PT3211</name></trkpt>
<trkpt lat="52.918772" lon="-3.353369"><ele>581</ele><time>2020-09-03T12:26:25Z</time><name>PT3212</name></trkpt>
<trkpt lat="52.918777" lon="-3.353373"><ele>581</ele><time>2020-09-03T12:26:25Z</time><name>PT3213</name></trkpt>
<trkpt lat="52.918779" lon="-3.353374"><ele>581</ele><time>2020-09-03T12:26:27Z</time><name>PT3214</name></trkpt>
<trkpt lat="52.918778" lon="-3.353373"><ele>581</ele><time>2020-09-03T12:26:27Z</time><name>PT3215</name></trkpt>
<trkpt lat="52.918788" lon="-3.353378"><ele>582</ele><time>2020-09-03T12:26:37Z</time><name>PT3216</name></trkpt>
<trkpt lat="52.918798" lon="-3.353392"><ele>582</ele><time>2020-09-03T12:26:37Z</time><name>PT3217</name></trkpt>
<trkpt lat="52.918810" lon="-3.353409"><ele>582</ele><time>2020-09-03T12:26:39Z</time><name>PT3218</name></trkpt>
<trkpt lat="52.918815" lon="-3.353427"><ele>582</ele><time>2020-09-03T12:26:39Z</time><name>PT3219</name></trkpt>
<trkpt lat="52.918820" lon="-3.353435"><ele>582</ele><time>2020-09-03T12:26:41Z</time><name>PT3220</name></trkpt>
<trkpt lat="52.918827" lon="-3.353439"><ele>581</ele><time>2020-09-03T12:26:41Z</time><name>PT3221</name></trkpt>
<trkpt lat="52.918830" lon="-3.353452"><ele>581</ele><time>2020-09-03T12:26:43Z</time><name>PT3222</name></trkpt>
<trkpt lat="52.918831" lon="-3.353456"><ele>581</ele><time>2020-09-03T12:26:43Z</time><name>PT3223</name></trkpt>
<trkpt lat="52.918833" lon="-3.353456"><ele>581</ele><time>2020-09-03T12:26:45Z</time><name>PT3224</name></trkpt>
<trkpt lat="52.918834" lon="-3.353457"><ele>581</ele><time>2020-09-03T12:26:45Z</time><name>PT3225</name></trkpt>
<trkpt lat="52.918838" lon="-3.353450"><ele>581</ele><time>2020-09-03T12:27:36Z</time><name>PT3226</name></trkpt>
<trkpt lat="52.918883" lon="-3.353471"><ele>579</ele><time>2020-09-03T12:27:40Z</time><name>PT3227</name></trkpt>
<trkpt lat="52.918926" lon="-3.353495"><ele>578</ele><time>2020-09-03T12:27:44Z</time><name>PT3228</name></trkpt>
<trkpt lat="52.918962" lon="-3.353508"><ele>580</ele><time>2020-09-03T12:27:48Z</time><name>PT3229</name></trkpt>
<trkpt lat="52.918987" lon="-3.353503"><ele>580</ele><time>2020-09-03T12:27:52Z</time><name>PT3230</name></trkpt>
<trkpt lat="52.918991" lon="-3.353498"><ele>580</ele><time>2020-09-03T12:27:56Z</time><name>PT3231</name></trkpt>
<trkpt lat="52.919000" lon="-3.353494"><ele>580</ele><time>2020-09-03T12:28:00Z</time><name>PT3232</name></trkpt>
<trkpt lat="52.919012" lon="-3.353464"><ele>581</ele><time>2020-09-03T12:28:04Z</time><name>PT3233</name></trkpt>
<trkpt lat="52.919024" lon="-3.353441"><ele>581</ele><time>2020-09-03T12:28:08Z</time><name>PT3234</name></trkpt>
<trkpt lat="52.919024" lon="-3.353442"><ele>581</ele><time>2020-09-03T12:28:12Z</time><name>PT3235</name></trkpt>
<trkpt lat="52.919020" lon="-3.353435"><ele>580</ele><time>2020-09-03T12:28:48Z</time><name>PT3236</name></trkpt>
<trkpt lat="52.919021" lon="-3.353433"><ele>581</ele><time>2020-09-03T12:28:52Z</time><name>PT3237</name></trkpt>
<trkpt lat="52.919020" lon="-3.353436"><ele>581</ele><time>2020-09-03T12:28:56Z</time><name>PT3238</name></trkpt>
<trkpt lat="52.919039" lon="-3.353432"><ele>581</ele><time>2020-09-03T12:29:00Z</time><name>PT3239</name></trkpt>
<trkpt lat="52.919040" lon="-3.353426"><ele>582</ele><time>2020-09-03T12:29:04Z</time><name>PT3240</name></trkpt>
<trkpt lat="52.919040" lon="-3.353431"><ele>582</ele><time>2020-09-03T12:29:16Z</time><name>PT3241</name></trkpt>
<trkpt lat="52.919042" lon="-3.353431"><ele>582</ele><time>2020-09-03T12:29:20Z</time><name>PT3242</name></trkpt>
<trkpt lat="52.919041" lon="-3.353435"><ele>582</ele><time>2020-09-03T12:30:03Z</time><name>PT3243</name></trkpt>
<trkpt lat="52.919041" lon="-3.353436"><ele>582</ele><time>2020-09-03T12:30:07Z</time><name>PT3244</name></trkpt>
<trkpt lat="52.919037" lon="-3.353423"><ele>582</ele><time>2020-09-03T12:30:35Z</time><name>PT3245</name></trkpt>
<trkpt lat="52.919037" lon="-3.353421"><ele>582</ele><time>2020-09-03T12:30:39Z</time><name>PT3246</name></trkpt>
<trkpt lat="52.919063" lon="-3.353439"><ele>583</ele><time>2020-09-03T12:38:42Z</time><name>PT3247</name></trkpt>
<trkpt lat="52.919055" lon="-3.353447"><ele>583</ele><time>2020-09-03T12:41:02Z</time><name>PT3248</name></trkpt>
<trkpt lat="52.919062" lon="-3.353439"><ele>583</ele><time>2020-09-03T12:41:06Z</time><name>PT3249</name></trkpt>
<trkpt lat="52.919064" lon="-3.353446"><ele>583</ele><time>2020-09-03T12:42:43Z</time><name>PT3250</name></trkpt>
<trkpt lat="52.919046" lon="-3.353442"><ele>582</ele><time>2020-09-03T12:43:00Z</time><name>PT3251</name></trkpt>
<trkpt lat="52.919049" lon="-3.353444"><ele>581</ele><time>2020-09-03T12:43:32Z</time><name>PT3252</name></trkpt>
<trkpt lat="52.919042" lon="-3.353442"><ele>582</ele><time>2020-09-03T12:44:48Z</time><name>PT3253</name></trkpt>
<trkpt lat="52.919041" lon="-3.353442"><ele>581</ele><time>2020-09-03T12:44:59Z</time><name>PT3254</name></trkpt>
<trkpt lat="52.919031" lon="-3.353454"><ele>581</ele><time>2020-09-03T12:45:02Z</time><name>PT3255</name></trkpt>
<trkpt lat="52.919025" lon="-3.353459"><ele>583</ele><time>2020-09-03T12:45:06Z</time><name>PT3256</name></trkpt>
<trkpt lat="52.919026" lon="-3.353459"><ele>583</ele><time>2020-09-03T12:45:10Z</time><name>PT3257</name></trkpt>
<trkpt lat="52.919024" lon="-3.353451"><ele>583</ele><time>2020-09-03T12:45:45Z</time><name>PT3258</name></trkpt>
<trkpt lat="52.919025" lon="-3.353448"><ele>583</ele><time>2020-09-03T12:45:59Z</time><name>PT3259</name></trkpt>
<trkpt lat="52.919025" lon="-3.353441"><ele>583</ele><time>2020-09-03T12:45:59Z</time><name>PT3260</name></trkpt>
<trkpt lat="52.919025" lon="-3.353439"><ele>583</ele><time>2020-09-03T12:46:01Z</time><name>PT3261</name></trkpt>
<trkpt lat="52.919025" lon="-3.353438"><ele>583</ele><time>2020-09-03T12:46:01Z</time><name>PT3262</name></trkpt>
<trkpt lat="52.919022" lon="-3.353443"><ele>583</ele><time>2020-09-03T12:47:00Z</time><name>PT3263</name></trkpt>
<trkpt lat="52.919020" lon="-3.353444"><ele>583</ele><time>2020-09-03T12:47:02Z</time><name>PT3264</name></trkpt>
<trkpt lat="52.919023" lon="-3.353439"><ele>583</ele><time>2020-09-03T12:47:03Z</time><name>PT3265</name></trkpt>
<trkpt lat="52.919029" lon="-3.353440"><ele>583</ele><time>2020-09-03T12:47:03Z</time><name>PT3266</name></trkpt>
<trkpt lat="52.919028" lon="-3.353442"><ele>583</ele><time>2020-09-03T12:47:05Z</time><name>PT3267</name></trkpt>
<trkpt lat="52.919021" lon="-3.353448"><ele>584</ele><time>2020-09-03T12:47:07Z</time><name>PT3268</name></trkpt>
<trkpt lat="52.919018" lon="-3.353448"><ele>584</ele><time>2020-09-03T12:47:09Z</time><name>PT3269</name></trkpt>
<trkpt lat="52.919014" lon="-3.353451"><ele>584</ele><time>2020-09-03T12:47:09Z</time><name>PT3270</name></trkpt>
<trkpt lat="52.919009" lon="-3.353452"><ele>584</ele><time>2020-09-03T12:47:11Z</time><name>PT3271</name></trkpt>
<trkpt lat="52.919005" lon="-3.353462"><ele>584</ele><time>2020-09-03T12:47:11Z</time><name>PT3272</name></trkpt>
<trkpt lat="52.918999" lon="-3.353468"><ele>584</ele><time>2020-09-03T12:47:13Z</time><name>PT3273</name></trkpt>
<trkpt lat="52.918996" lon="-3.353473"><ele>584</ele><time>2020-09-03T12:47:14Z</time><name>PT3274</name></trkpt>
<trkpt lat="52.918993" lon="-3.353475"><ele>584</ele><time>2020-09-03T12:47:14Z</time><name>PT3275</name></trkpt>
<trkpt lat="52.918991" lon="-3.353477"><ele>584</ele><time>2020-09-03T12:47:16Z</time><name>PT3276</name></trkpt>
<trkpt lat="52.918989" lon="-3.353478"><ele>584</ele><time>2020-09-03T12:47:16Z</time><name>PT3277</name></trkpt>
<trkpt lat="52.918988" lon="-3.353477"><ele>585</ele><time>2020-09-03T12:47:18Z</time><name>PT3278</name></trkpt>
<trkpt lat="52.918988" lon="-3.353474"><ele>585</ele><time>2020-09-03T12:47:18Z</time><name>PT3279</name></trkpt>
<trkpt lat="52.918986" lon="-3.353472"><ele>584</ele><time>2020-09-03T12:47:21Z</time><name>PT3280</name></trkpt>
<trkpt lat="52.918984" lon="-3.353484"><ele>585</ele><time>2020-09-03T12:47:23Z</time><name>PT3281</name></trkpt>
<trkpt lat="52.918979" lon="-3.353495"><ele>584</ele><time>2020-09-03T12:47:23Z</time><name>PT3282</name></trkpt>
<trkpt lat="52.918976" lon="-3.353510"><ele>584</ele><time>2020-09-03T12:47:25Z</time><name>PT3283</name></trkpt>
<trkpt lat="52.918974" lon="-3.353522"><ele>584</ele><time>2020-09-03T12:47:26Z</time><name>PT3284</name></trkpt>
<trkpt lat="52.918973" lon="-3.353540"><ele>584</ele><time>2020-09-03T12:47:26Z</time><name>PT3285</name></trkpt>
<trkpt lat="52.918969" lon="-3.353557"><ele>584</ele><time>2020-09-03T12:47:28Z</time><name>PT3286</name></trkpt>
<trkpt lat="52.918967" lon="-3.353578"><ele>584</ele><time>2020-09-03T12:47:29Z</time><name>PT3287</name></trkpt>
<trkpt lat="52.918967" lon="-3.353596"><ele>584</ele><time>2020-09-03T12:47:29Z</time><name>PT3288</name></trkpt>
<trkpt lat="52.918968" lon="-3.353614"><ele>584</ele><time>2020-09-03T12:47:31Z</time><name>PT3289</name></trkpt>
<trkpt lat="52.918967" lon="-3.353629"><ele>584</ele><time>2020-09-03T12:47:32Z</time><name>PT3290</name></trkpt>
<trkpt lat="52.918970" lon="-3.353644"><ele>584</ele><time>2020-09-03T12:47:32Z</time><name>PT3291</name></trkpt>
<trkpt lat="52.918971" lon="-3.353660"><ele>584</ele><time>2020-09-03T12:47:34Z</time><name>PT3292</name></trkpt>
<trkpt lat="52.918974" lon="-3.353675"><ele>584</ele><time>2020-09-03T12:47:35Z</time><name>PT3293</name></trkpt>
<trkpt lat="52.918976" lon="-3.353689"><ele>585</ele><time>2020-09-03T12:47:35Z</time><name>PT3294</name></trkpt>
<trkpt lat="52.918977" lon="-3.353704"><ele>584</ele><time>2020-09-03T12:47:37Z</time><name>PT3295</name></trkpt>
<trkpt lat="52.918980" lon="-3.353721"><ele>585</ele><time>2020-09-03T12:47:38Z</time><name>PT3296</name></trkpt>
<trkpt lat="52.918986" lon="-3.353737"><ele>585</ele><time>2020-09-03T12:47:38Z</time><name>PT3297</name></trkpt>
<trkpt lat="52.918991" lon="-3.353755"><ele>585</ele><time>2020-09-03T12:47:40Z</time><name>PT3298</name></trkpt>
<trkpt lat="52.918997" lon="-3.353771"><ele>585</ele><time>2020-09-03T12:47:40Z</time><name>PT3299</name></trkpt>
<trkpt lat="52.919002" lon="-3.353789"><ele>585</ele><time>2020-09-03T12:47:42Z</time><name>PT3300</name></trkpt>
<trkpt lat="52.919008" lon="-3.353804"><ele>585</ele><time>2020-09-03T12:47:42Z</time><name>PT3301</name></trkpt>
<trkpt lat="52.919014" lon="-3.353823"><ele>586</ele><time>2020-09-03T12:47:44Z</time><name>PT3302</name></trkpt>
<trkpt lat="52.919018" lon="-3.353843"><ele>585</ele><time>2020-09-03T12:47:45Z</time><name>PT3303</name></trkpt>
<trkpt lat="52.919024" lon="-3.353860"><ele>585</ele><time>2020-09-03T12:47:45Z</time><name>PT3304</name></trkpt>
<trkpt lat="52.919030" lon="-3.353876"><ele>585</ele><time>2020-09-03T12:47:47Z</time><name>PT3305</name></trkpt>
<trkpt lat="52.919035" lon="-3.353899"><ele>585</ele><time>2020-09-03T12:47:48Z</time><name>PT3306</name></trkpt>
<trkpt lat="52.919041" lon="-3.353920"><ele>585</ele><time>2020-09-03T12:47:49Z</time><name>PT3307</name></trkpt>
<trkpt lat="52.919049" lon="-3.353937"><ele>585</ele><time>2020-09-03T12:47:50Z</time><name>PT3308</name></trkpt>
<trkpt lat="52.919057" lon="-3.353955"><ele>585</ele><time>2020-09-03T12:47:51Z</time><name>PT3309</name></trkpt>
<trkpt lat="52.919062" lon="-3.353971"><ele>584</ele><time>2020-09-03T12:47:52Z</time><name>PT3310</name></trkpt>
<trkpt lat="52.919069" lon="-3.353989"><ele>584</ele><time>2020-09-03T12:47:53Z</time><name>PT3311</name></trkpt>
<trkpt lat="52.919079" lon="-3.354003"><ele>583</ele><time>2020-09-03T12:47:54Z</time><name>PT3312</name></trkpt>
<trkpt lat="52.919085" lon="-3.354022"><ele>583</ele><time>2020-09-03T12:47:55Z</time><name>PT3313</name></trkpt>
<trkpt lat="52.919093" lon="-3.354040"><ele>583</ele><time>2020-09-03T12:47:55Z</time><name>PT3314</name></trkpt>
<trkpt lat="52.919102" lon="-3.354057"><ele>583</ele><time>2020-09-03T12:47:57Z</time><name>PT3315</name></trkpt>
<trkpt lat="52.919109" lon="-3.354073"><ele>583</ele><time>2020-09-03T12:47:57Z</time><name>PT3316</name></trkpt>
<trkpt lat="52.919117" lon="-3.354091"><ele>582</ele><time>2020-09-03T12:47:59Z</time><name>PT3317</name></trkpt>
<trkpt lat="52.919127" lon="-3.354106"><ele>582</ele><time>2020-09-03T12:47:59Z</time><name>PT3318</name></trkpt>
<trkpt lat="52.919136" lon="-3.354119"><ele>582</ele><time>2020-09-03T12:48:01Z</time><name>PT3319</name></trkpt>
<trkpt lat="52.919146" lon="-3.354131"><ele>582</ele><time>2020-09-03T12:48:01Z</time><name>PT3320</name></trkpt>
<trkpt lat="52.919157" lon="-3.354145"><ele>582</ele><time>2020-09-03T12:48:03Z</time><name>PT3321</name></trkpt>
<trkpt lat="52.919167" lon="-3.354158"><ele>582</ele><time>2020-09-03T12:48:03Z</time><name>PT3322</name></trkpt>
<trkpt lat="52.919174" lon="-3.354171"><ele>581</ele><time>2020-09-03T12:48:05Z</time><name>PT3323</name></trkpt>
<trkpt lat="52.919179" lon="-3.354181"><ele>580</ele><time>2020-09-03T12:48:05Z</time><name>PT3324</name></trkpt>
<trkpt lat="52.919191" lon="-3.354194"><ele>581</ele><time>2020-09-03T12:48:07Z</time><name>PT3325</name></trkpt>
<trkpt lat="52.919202" lon="-3.354213"><ele>581</ele><time>2020-09-03T12:48:07Z</time><name>PT3326</name></trkpt>
<trkpt lat="52.919213" lon="-3.354229"><ele>581</ele><time>2020-09-03T12:48:09Z</time><name>PT3327</name></trkpt>
<trkpt lat="52.919223" lon="-3.354242"><ele>581</ele><time>2020-09-03T12:48:09Z</time><name>PT3328</name></trkpt>
<trkpt lat="52.919234" lon="-3.354255"><ele>581</ele><time>2020-09-03T12:48:11Z</time><name>PT3329</name></trkpt>
<trkpt lat="52.919242" lon="-3.354266"><ele>581</ele><time>2020-09-03T12:48:11Z</time><name>PT3330</name></trkpt>
<trkpt lat="52.919250" lon="-3.354280"><ele>582</ele><time>2020-09-03T12:48:13Z</time><name>PT3331</name></trkpt>
<trkpt lat="52.919258" lon="-3.354296"><ele>582</ele><time>2020-09-03T12:48:13Z</time><name>PT3332</name></trkpt>
<trkpt lat="52.919268" lon="-3.354312"><ele>582</ele><time>2020-09-03T12:48:15Z</time><name>PT3333</name></trkpt>
<trkpt lat="52.919282" lon="-3.354325"><ele>582</ele><time>2020-09-03T12:48:15Z</time><name>PT3334</name></trkpt>
<trkpt lat="52.919293" lon="-3.354344"><ele>583</ele><time>2020-09-03T12:48:17Z</time><name>PT3335</name></trkpt>
<trkpt lat="52.919301" lon="-3.354358"><ele>582</ele><time>2020-09-03T12:48:17Z</time><name>PT3336</name></trkpt>
<trkpt lat="52.919308" lon="-3.354372"><ele>582</ele><time>2020-09-03T12:48:19Z</time><name>PT3337</name></trkpt>
<trkpt lat="52.919317" lon="-3.354384"><ele>582</ele><time>2020-09-03T12:48:19Z</time><name>PT3338</name></trkpt>
<trkpt lat="52.919323" lon="-3.354403"><ele>582</ele><time>2020-09-03T12:48:21Z</time><name>PT3339</name></trkpt>
<trkpt lat="52.919328" lon="-3.354420"><ele>582</ele><time>2020-09-03T12:48:21Z</time><name>PT3340</name></trkpt>
<trkpt lat="52.919336" lon="-3.354441"><ele>583</ele><time>2020-09-03T12:48:23Z</time><name>PT3341</name></trkpt>
<trkpt lat="52.919342" lon="-3.354460"><ele>582</ele><time>2020-09-03T12:48:23Z</time><name>PT3342</name></trkpt>
<trkpt lat="52.919349" lon="-3.354475"><ele>583</ele><time>2020-09-03T12:48:25Z</time><name>PT3343</name></trkpt>
<trkpt lat="52.919356" lon="-3.354492"><ele>583</ele><time>2020-09-03T12:48:25Z</time><name>PT3344</name></trkpt>
<trkpt lat="52.919359" lon="-3.354510"><ele>582</ele><time>2020-09-03T12:48:27Z</time><name>PT3345</name></trkpt>
<trkpt lat="52.919361" lon="-3.354529"><ele>582</ele><time>2020-09-03T12:48:27Z</time><name>PT3346</name></trkpt>
<trkpt lat="52.919362" lon="-3.354547"><ele>582</ele><time>2020-09-03T12:48:29Z</time><name>PT3347</name></trkpt>
<trkpt lat="52.919363" lon="-3.354562"><ele>582</ele><time>2020-09-03T12:48:29Z</time><name>PT3348</name></trkpt>
<trkpt lat="52.919364" lon="-3.354580"><ele>581</ele><time>2020-09-03T12:48:31Z</time><name>PT3349</name></trkpt>
<trkpt lat="52.919367" lon="-3.354601"><ele>581</ele><time>2020-09-03T12:48:31Z</time><name>PT3350</name></trkpt>
<trkpt lat="52.919368" lon="-3.354620"><ele>581</ele><time>2020-09-03T12:48:33Z</time><name>PT3351</name></trkpt>
<trkpt lat="52.919369" lon="-3.354637"><ele>580</ele><time>2020-09-03T12:48:33Z</time><name>PT3352</name></trkpt>
<trkpt lat="52.919372" lon="-3.354658"><ele>580</ele><time>2020-09-03T12:48:35Z</time><name>PT3353</name></trkpt>
<trkpt lat="52.919371" lon="-3.354681"><ele>579</ele><time>2020-09-03T12:48:35Z</time><name>PT3354</name></trkpt>
<trkpt lat="52.919371" lon="-3.354700"><ele>579</ele><time>2020-09-03T12:48:37Z</time><name>PT3355</name></trkpt>
<trkpt lat="52.919373" lon="-3.354722"><ele>580</ele><time>2020-09-03T12:48:37Z</time><name>PT3356</name></trkpt>
<trkpt lat="52.919369" lon="-3.354745"><ele>579</ele><time>2020-09-03T12:48:39Z</time><name>PT3357</name></trkpt>
<trkpt lat="52.919369" lon="-3.354760"><ele>579</ele><time>2020-09-03T12:48:39Z</time><name>PT3358</name></trkpt>
<trkpt lat="52.919369" lon="-3.354780"><ele>578</ele><time>2020-09-03T12:48:41Z</time><name>PT3359</name></trkpt>
<trkpt lat="52.919372" lon="-3.354800"><ele>578</ele><time>2020-09-03T12:48:41Z</time><name>PT3360</name></trkpt>
<trkpt lat="52.919370" lon="-3.354822"><ele>578</ele><time>2020-09-03T12:48:43Z</time><name>PT3361</name></trkpt>
<trkpt lat="52.919370" lon="-3.354843"><ele>578</ele><time>2020-09-03T12:48:43Z</time><name>PT3362</name></trkpt>
<trkpt lat="52.919367" lon="-3.354859"><ele>577</ele><time>2020-09-03T12:48:45Z</time><name>PT3363</name></trkpt>
<trkpt lat="52.919366" lon="-3.354881"><ele>577</ele><time>2020-09-03T12:48:45Z</time><name>PT3364</name></trkpt>
<trkpt lat="52.919368" lon="-3.354903"><ele>576</ele><time>2020-09-03T12:48:47Z</time><name>PT3365</name></trkpt>
<trkpt lat="52.919373" lon="-3.354970"><ele>575</ele><time>2020-09-03T12:48:50Z</time><name>PT3366</name></trkpt>
<trkpt lat="52.919374" lon="-3.355051"><ele>575</ele><time>2020-09-03T12:48:54Z</time><name>PT3367</name></trkpt>
<trkpt lat="52.919368" lon="-3.355137"><ele>574</ele><time>2020-09-03T12:48:58Z</time><name>PT3368</name></trkpt>
<trkpt lat="52.919383" lon="-3.355216"><ele>573</ele><time>2020-09-03T12:49:02Z</time><name>PT3369</name></trkpt>
<trkpt lat="52.919405" lon="-3.355298"><ele>573</ele><time>2020-09-03T12:49:06Z</time><name>PT3370</name></trkpt>
<trkpt lat="52.919436" lon="-3.355372"><ele>573</ele><time>2020-09-03T12:49:10Z</time><name>PT3371</name></trkpt>
<trkpt lat="52.919469" lon="-3.355453"><ele>573</ele><time>2020-09-03T12:49:14Z</time><name>PT3372</name></trkpt>
<trkpt lat="52.919501" lon="-3.355534"><ele>573</ele><time>2020-09-03T12:49:18Z</time><name>PT3373</name></trkpt>
<trkpt lat="52.919535" lon="-3.355606"><ele>572</ele><time>2020-09-03T12:49:22Z</time><name>PT3374</name></trkpt>
<trkpt lat="52.919559" lon="-3.355664"><ele>572</ele><time>2020-09-03T12:49:25Z</time><name>PT3375</name></trkpt>
<trkpt lat="52.919594" lon="-3.355732"><ele>572</ele><time>2020-09-03T12:49:29Z</time><name>PT3376</name></trkpt>
<trkpt lat="52.919622" lon="-3.355821"><ele>573</ele><time>2020-09-03T12:49:33Z</time><name>PT3377</name></trkpt>
<trkpt lat="52.919643" lon="-3.355879"><ele>572</ele><time>2020-09-03T12:49:36Z</time><name>PT3378</name></trkpt>
<trkpt lat="52.919667" lon="-3.355940"><ele>571</ele><time>2020-09-03T12:49:39Z</time><name>PT3379</name></trkpt>
<trkpt lat="52.919697" lon="-3.356032"><ele>572</ele><time>2020-09-03T12:49:43Z</time><name>PT3380</name></trkpt>
<trkpt lat="52.919732" lon="-3.356108"><ele>571</ele><time>2020-09-03T12:49:47Z</time><name>PT3381</name></trkpt>
<trkpt lat="52.919763" lon="-3.356181"><ele>571</ele><time>2020-09-03T12:49:51Z</time><name>PT3382</name></trkpt>
<trkpt lat="52.919783" lon="-3.356265"><ele>571</ele><time>2020-09-03T12:49:55Z</time><name>PT3383</name></trkpt>
<trkpt lat="52.919797" lon="-3.356343"><ele>570</ele><time>2020-09-03T12:49:59Z</time><name>PT3384</name></trkpt>
<trkpt lat="52.919807" lon="-3.356416"><ele>570</ele><time>2020-09-03T12:50:03Z</time><name>PT3385</name></trkpt>
<trkpt lat="52.919815" lon="-3.356487"><ele>568</ele><time>2020-09-03T12:50:07Z</time><name>PT3386</name></trkpt>
<trkpt lat="52.919815" lon="-3.356561"><ele>567</ele><time>2020-09-03T12:50:11Z</time><name>PT3387</name></trkpt>
<trkpt lat="52.919815" lon="-3.356640"><ele>566</ele><time>2020-09-03T12:50:15Z</time><name>PT3388</name></trkpt>
<trkpt lat="52.919821" lon="-3.356719"><ele>565</ele><time>2020-09-03T12:50:19Z</time><name>PT3389</name></trkpt>
<trkpt lat="52.919834" lon="-3.356793"><ele>563</ele><time>2020-09-03T12:50:23Z</time><name>PT3390</name></trkpt>
<trkpt lat="52.919843" lon="-3.356876"><ele>563</ele><time>2020-09-03T12:50:27Z</time><name>PT3391</name></trkpt>
<trkpt lat="52.919849" lon="-3.356947"><ele>562</ele><time>2020-09-03T12:50:31Z</time><name>PT3392</name></trkpt>
<trkpt lat="52.919839" lon="-3.357018"><ele>561</ele><time>2020-09-03T12:50:35Z</time><name>PT3393</name></trkpt>
<trkpt lat="52.919827" lon="-3.357092"><ele>560</ele><time>2020-09-03T12:50:39Z</time><name>PT3394</name></trkpt>
<trkpt lat="52.919802" lon="-3.357158"><ele>559</ele><time>2020-09-03T12:50:43Z</time><name>PT3395</name></trkpt>
<trkpt lat="52.919781" lon="-3.357234"><ele>559</ele><time>2020-09-03T12:50:47Z</time><name>PT3396</name></trkpt>
<trkpt lat="52.919767" lon="-3.357315"><ele>558</ele><time>2020-09-03T12:50:51Z</time><name>PT3397</name></trkpt>
<trkpt lat="52.919760" lon="-3.357406"><ele>555</ele><time>2020-09-03T12:50:55Z</time><name>PT3398</name></trkpt>
<trkpt lat="52.919759" lon="-3.357486"><ele>555</ele><time>2020-09-03T12:50:59Z</time><name>PT3399</name></trkpt>
<trkpt lat="52.919757" lon="-3.357558"><ele>553</ele><time>2020-09-03T12:51:03Z</time><name>PT3400</name></trkpt>
<trkpt lat="52.919750" lon="-3.357639"><ele>553</ele><time>2020-09-03T12:51:07Z</time><name>PT3401</name></trkpt>
<trkpt lat="52.919737" lon="-3.357698"><ele>552</ele><time>2020-09-03T12:51:10Z</time><name>PT3402</name></trkpt>
<trkpt lat="52.919714" lon="-3.357781"><ele>551</ele><time>2020-09-03T12:51:14Z</time><name>PT3403</name></trkpt>
<trkpt lat="52.919713" lon="-3.357849"><ele>552</ele><time>2020-09-03T12:51:17Z</time><name>PT3404</name></trkpt>
<trkpt lat="52.919717" lon="-3.357938"><ele>550</ele><time>2020-09-03T12:51:20Z</time><name>PT3405</name></trkpt>
<trkpt lat="52.919735" lon="-3.358020"><ele>550</ele><time>2020-09-03T12:51:25Z</time><name>PT3406</name></trkpt>
<trkpt lat="52.919757" lon="-3.358092"><ele>550</ele><time>2020-09-03T12:51:28Z</time><name>PT3407</name></trkpt>
<trkpt lat="52.919776" lon="-3.358148"><ele>549</ele><time>2020-09-03T12:51:31Z</time><name>PT3408</name></trkpt>
<trkpt lat="52.919788" lon="-3.358223"><ele>548</ele><time>2020-09-03T12:51:35Z</time><name>PT3409</name></trkpt>
<trkpt lat="52.919807" lon="-3.358305"><ele>547</ele><time>2020-09-03T12:51:39Z</time><name>PT3410</name></trkpt>
<trkpt lat="52.919828" lon="-3.358393"><ele>547</ele><time>2020-09-03T12:51:43Z</time><name>PT3411</name></trkpt>
<trkpt lat="52.919831" lon="-3.358468"><ele>546</ele><time>2020-09-03T12:51:47Z</time><name>PT3412</name></trkpt>
<trkpt lat="52.919825" lon="-3.358543"><ele>545</ele><time>2020-09-03T12:51:51Z</time><name>PT3413</name></trkpt>
<trkpt lat="52.919818" lon="-3.358621"><ele>544</ele><time>2020-09-03T12:51:55Z</time><name>PT3414</name></trkpt>
<trkpt lat="52.919803" lon="-3.358702"><ele>543</ele><time>2020-09-03T12:51:59Z</time><name>PT3415</name></trkpt>
<trkpt lat="52.919782" lon="-3.358781"><ele>542</ele><time>2020-09-03T12:52:03Z</time><name>PT3416</name></trkpt>
<trkpt lat="52.919770" lon="-3.358837"><ele>542</ele><time>2020-09-03T12:52:06Z</time><name>PT3417</name></trkpt>
<trkpt lat="52.919749" lon="-3.358912"><ele>541</ele><time>2020-09-03T12:52:10Z</time><name>PT3418</name></trkpt>
<trkpt lat="52.919730" lon="-3.358993"><ele>540</ele><time>2020-09-03T12:52:14Z</time><name>PT3419</name></trkpt>
<trkpt lat="52.919724" lon="-3.359036"><ele>540</ele><time>2020-09-03T12:52:18Z</time><name>PT3420</name></trkpt>
<trkpt lat="52.919715" lon="-3.359116"><ele>540</ele><time>2020-09-03T12:52:22Z</time><name>PT3421</name></trkpt>
<trkpt lat="52.919712" lon="-3.359196"><ele>539</ele><time>2020-09-03T12:52:26Z</time><name>PT3422</name></trkpt>
<trkpt lat="52.919700" lon="-3.359271"><ele>538</ele><time>2020-09-03T12:52:30Z</time><name>PT3423</name></trkpt>
<trkpt lat="52.919688" lon="-3.359349"><ele>537</ele><time>2020-09-03T12:52:34Z</time><name>PT3424</name></trkpt>
<trkpt lat="52.919672" lon="-3.359422"><ele>536</ele><time>2020-09-03T12:52:38Z</time><name>PT3425</name></trkpt>
<trkpt lat="52.919651" lon="-3.359493"><ele>535</ele><time>2020-09-03T12:52:42Z</time><name>PT3426</name></trkpt>
<trkpt lat="52.919633" lon="-3.359568"><ele>534</ele><time>2020-09-03T12:52:46Z</time><name>PT3427</name></trkpt>
<trkpt lat="52.919625" lon="-3.359621"><ele>534</ele><time>2020-09-03T12:52:49Z</time><name>PT3428</name></trkpt>
<trkpt lat="52.919605" lon="-3.359695"><ele>532</ele><time>2020-09-03T12:52:53Z</time><name>PT3429</name></trkpt>
<trkpt lat="52.919582" lon="-3.359769"><ele>530</ele><time>2020-09-03T12:52:57Z</time><name>PT3430</name></trkpt>
<trkpt lat="52.919567" lon="-3.359827"><ele>530</ele><time>2020-09-03T12:53:00Z</time><name>PT3431</name></trkpt>
<trkpt lat="52.919553" lon="-3.359898"><ele>529</ele><time>2020-09-03T12:53:04Z</time><name>PT3432</name></trkpt>
<trkpt lat="52.919541" lon="-3.359955"><ele>530</ele><time>2020-09-03T12:53:07Z</time><name>PT3433</name></trkpt>
<trkpt lat="52.919529" lon="-3.360035"><ele>529</ele><time>2020-09-03T12:53:11Z</time><name>PT3434</name></trkpt>
<trkpt lat="52.919526" lon="-3.360084"><ele>528</ele><time>2020-09-03T12:53:14Z</time><name>PT3435</name></trkpt>
<trkpt lat="52.919529" lon="-3.360142"><ele>527</ele><time>2020-09-03T12:53:17Z</time><name>PT3436</name></trkpt>
<trkpt lat="52.919533" lon="-3.360247"><ele>527</ele><time>2020-09-03T12:53:21Z</time><name>PT3437</name></trkpt>
<trkpt lat="52.919542" lon="-3.360310"><ele>526</ele><time>2020-09-03T12:53:24Z</time><name>PT3438</name></trkpt>
<trkpt lat="52.919565" lon="-3.360391"><ele>525</ele><time>2020-09-03T12:53:28Z</time><name>PT3439</name></trkpt>
<trkpt lat="52.919581" lon="-3.360467"><ele>525</ele><time>2020-09-03T12:53:31Z</time><name>PT3440</name></trkpt>
<trkpt lat="52.919587" lon="-3.360550"><ele>524</ele><time>2020-09-03T12:53:35Z</time><name>PT3441</name></trkpt>
<trkpt lat="52.919595" lon="-3.360643"><ele>524</ele><time>2020-09-03T12:53:39Z</time><name>PT3442</name></trkpt>
<trkpt lat="52.919590" lon="-3.360731"><ele>525</ele><time>2020-09-03T12:53:43Z</time><name>PT3443</name></trkpt>
<trkpt lat="52.919578" lon="-3.360813"><ele>523</ele><time>2020-09-03T12:53:47Z</time><name>PT3444</name></trkpt>
<trkpt lat="52.919558" lon="-3.360884"><ele>523</ele><time>2020-09-03T12:53:51Z</time><name>PT3445</name></trkpt>
<trkpt lat="52.919545" lon="-3.360902"><ele>522</ele><time>2020-09-03T12:53:55Z</time><name>PT3446</name></trkpt>
<trkpt lat="52.919529" lon="-3.360917"><ele>521</ele><time>2020-09-03T12:53:59Z</time><name>PT3447</name></trkpt>
<trkpt lat="52.919523" lon="-3.360920"><ele>521</ele><time>2020-09-03T12:54:03Z</time><name>PT3448</name></trkpt>
<trkpt lat="52.919515" lon="-3.360919"><ele>521</ele><time>2020-09-03T12:54:07Z</time><name>PT3449</name></trkpt>
<trkpt lat="52.919515" lon="-3.360921"><ele>521</ele><time>2020-09-03T12:54:11Z</time><name>PT3450</name></trkpt>
<trkpt lat="52.919510" lon="-3.360937"><ele>521</ele><time>2020-09-03T12:55:10Z</time><name>PT3451</name></trkpt>
<trkpt lat="52.919504" lon="-3.361031"><ele>521</ele><time>2020-09-03T12:55:14Z</time><name>PT3452</name></trkpt>
<trkpt lat="52.919506" lon="-3.361095"><ele>521</ele><time>2020-09-03T12:55:18Z</time><name>PT3453</name></trkpt>
<trkpt lat="52.919504" lon="-3.361159"><ele>520</ele><time>2020-09-03T12:55:22Z</time><name>PT3454</name></trkpt>
<trkpt lat="52.919496" lon="-3.361206"><ele>520</ele><time>2020-09-03T12:55:26Z</time><name>PT3455</name></trkpt>
<trkpt lat="52.919493" lon="-3.361261"><ele>519</ele><time>2020-09-03T12:55:29Z</time><name>PT3456</name></trkpt>
<trkpt lat="52.919483" lon="-3.361317"><ele>519</ele><time>2020-09-03T12:55:32Z</time><name>PT3457</name></trkpt>
<trkpt lat="52.919471" lon="-3.361402"><ele>518</ele><time>2020-09-03T12:55:36Z</time><name>PT3458</name></trkpt>
<trkpt lat="52.919456" lon="-3.361478"><ele>517</ele><time>2020-09-03T12:55:40Z</time><name>PT3459</name></trkpt>
<trkpt lat="52.919447" lon="-3.361550"><ele>515</ele><time>2020-09-03T12:55:44Z</time><name>PT3460</name></trkpt>
<trkpt lat="52.919433" lon="-3.361613"><ele>514</ele><time>2020-09-03T12:55:48Z</time><name>PT3461</name></trkpt>
<trkpt lat="52.919423" lon="-3.361669"><ele>514</ele><time>2020-09-03T12:55:51Z</time><name>PT3462</name></trkpt>
<trkpt lat="52.919415" lon="-3.361703"><ele>513</ele><time>2020-09-03T12:55:55Z</time><name>PT3463</name></trkpt>
<trkpt lat="52.919409" lon="-3.361745"><ele>513</ele><time>2020-09-03T12:55:58Z</time><name>PT3464</name></trkpt>
<trkpt lat="52.919401" lon="-3.361814"><ele>512</ele><time>2020-09-03T12:56:02Z</time><name>PT3465</name></trkpt>
<trkpt lat="52.919388" lon="-3.361868"><ele>511</ele><time>2020-09-03T12:56:06Z</time><name>PT3466</name></trkpt>
<trkpt lat="52.919384" lon="-3.361894"><ele>511</ele><time>2020-09-03T12:56:10Z</time><name>PT3467</name></trkpt>
<trkpt lat="52.919385" lon="-3.361917"><ele>511</ele><time>2020-09-03T12:56:14Z</time><name>PT3468</name></trkpt>
<trkpt lat="52.919372" lon="-3.361975"><ele>511</ele><time>2020-09-03T12:56:18Z</time><name>PT3469</name></trkpt>
<trkpt lat="52.919360" lon="-3.362045"><ele>510</ele><time>2020-09-03T12:56:22Z</time><name>PT3470</name></trkpt>
<trkpt lat="52.919354" lon="-3.362113"><ele>510</ele><time>2020-09-03T12:56:26Z</time><name>PT3471</name></trkpt>
<trkpt lat="52.919346" lon="-3.362191"><ele>510</ele><time>2020-09-03T12:56:30Z</time><name>PT3472</name></trkpt>
<trkpt lat="52.919334" lon="-3.362272"><ele>509</ele><time>2020-09-03T12:56:34Z</time><name>PT3473</name></trkpt>
<trkpt lat="52.919324" lon="-3.362349"><ele>508</ele><time>2020-09-03T12:56:38Z</time><name>PT3474</name></trkpt>
<trkpt lat="52.919314" lon="-3.362423"><ele>507</ele><time>2020-09-03T12:56:42Z</time><name>PT3475</name></trkpt>
<trkpt lat="52.919297" lon="-3.362491"><ele>505</ele><time>2020-09-03T12:56:46Z</time><name>PT3476</name></trkpt>
<trkpt lat="52.919286" lon="-3.362564"><ele>504</ele><time>2020-09-03T12:56:50Z</time><name>PT3477</name></trkpt>
<trkpt lat="52.919275" lon="-3.362634"><ele>504</ele><time>2020-09-03T12:56:54Z</time><name>PT3478</name></trkpt>
<trkpt lat="52.919265" lon="-3.362710"><ele>503</ele><time>2020-09-03T12:56:58Z</time><name>PT3479</name></trkpt>
<trkpt lat="52.919258" lon="-3.362769"><ele>503</ele><time>2020-09-03T12:57:02Z</time><name>PT3480</name></trkpt>
<trkpt lat="52.919250" lon="-3.362831"><ele>502</ele><time>2020-09-03T12:57:06Z</time><name>PT3481</name></trkpt>
<trkpt lat="52.919247" lon="-3.362893"><ele>502</ele><time>2020-09-03T12:57:10Z</time><name>PT3482</name></trkpt>
<trkpt lat="52.919233" lon="-3.362961"><ele>501</ele><time>2020-09-03T12:57:14Z</time><name>PT3483</name></trkpt>
<trkpt lat="52.919227" lon="-3.363062"><ele>500</ele><time>2020-09-03T12:57:18Z</time><name>PT3484</name></trkpt>
<trkpt lat="52.919218" lon="-3.363119"><ele>498</ele><time>2020-09-03T12:57:20Z</time><name>PT3485</name></trkpt>
<trkpt lat="52.919216" lon="-3.363134"><ele>499</ele><time>2020-09-03T12:57:22Z</time><name>PT3486</name></trkpt>
<trkpt lat="52.919211" lon="-3.363149"><ele>499</ele><time>2020-09-03T12:57:23Z</time><name>PT3487</name></trkpt>
<trkpt lat="52.919208" lon="-3.363165"><ele>499</ele><time>2020-09-03T12:57:23Z</time><name>PT3488</name></trkpt>
<trkpt lat="52.919204" lon="-3.363181"><ele>498</ele><time>2020-09-03T12:57:25Z</time><name>PT3489</name></trkpt>
<trkpt lat="52.919202" lon="-3.363195"><ele>498</ele><time>2020-09-03T12:57:25Z</time><name>PT3490</name></trkpt>
<trkpt lat="52.919197" lon="-3.363206"><ele>498</ele><time>2020-09-03T12:57:27Z</time><name>PT3491</name></trkpt>
<trkpt lat="52.919193" lon="-3.363217"><ele>498</ele><time>2020-09-03T12:57:27Z</time><name>PT3492</name></trkpt>
<trkpt lat="52.919193" lon="-3.363227"><ele>498</ele><time>2020-09-03T12:57:29Z</time><name>PT3493</name></trkpt>
<trkpt lat="52.919194" lon="-3.363229"><ele>498</ele><time>2020-09-03T12:57:29Z</time><name>PT3494</name></trkpt>
<trkpt lat="52.919196" lon="-3.363228"><ele>498</ele><time>2020-09-03T12:57:31Z</time><name>PT3495</name></trkpt>
<trkpt lat="52.919197" lon="-3.363233"><ele>498</ele><time>2020-09-03T12:57:31Z</time><name>PT3496</name></trkpt>
<trkpt lat="52.919197" lon="-3.363247"><ele>498</ele><time>2020-09-03T12:57:33Z</time><name>PT3497</name></trkpt>
<trkpt lat="52.919198" lon="-3.363264"><ele>497</ele><time>2020-09-03T12:57:34Z</time><name>PT3498</name></trkpt>
<trkpt lat="52.919199" lon="-3.363281"><ele>497</ele><time>2020-09-03T12:57:34Z</time><name>PT3499</name></trkpt>
<trkpt lat="52.919199" lon="-3.363298"><ele>497</ele><time>2020-09-03T12:57:36Z</time><name>PT3500</name></trkpt>
<trkpt lat="52.919202" lon="-3.363315"><ele>497</ele><time>2020-09-03T12:57:36Z</time><name>PT3501</name></trkpt>
<trkpt lat="52.919205" lon="-3.363330"><ele>496</ele><time>2020-09-03T12:57:38Z</time><name>PT3502</name></trkpt>
<trkpt lat="52.919209" lon="-3.363343"><ele>496</ele><time>2020-09-03T12:57:38Z</time><name>PT3503</name></trkpt>
<trkpt lat="52.919213" lon="-3.363355"><ele>496</ele><time>2020-09-03T12:57:40Z</time><name>PT3504</name></trkpt>
<trkpt lat="52.919218" lon="-3.363366"><ele>496</ele><time>2020-09-03T12:57:40Z</time><name>PT3505</name></trkpt>
<trkpt lat="52.919220" lon="-3.363384"><ele>496</ele><time>2020-09-03T12:57:42Z</time><name>PT3506</name></trkpt>
<trkpt lat="52.919224" lon="-3.363396"><ele>496</ele><time>2020-09-03T12:57:42Z</time><name>PT3507</name></trkpt>
<trkpt lat="52.919225" lon="-3.363407"><ele>496</ele><time>2020-09-03T12:57:44Z</time><name>PT3508</name></trkpt>
<trkpt lat="52.919224" lon="-3.363422"><ele>496</ele><time>2020-09-03T12:57:45Z</time><name>PT3509</name></trkpt>
<trkpt lat="52.919221" lon="-3.363439"><ele>495</ele><time>2020-09-03T12:57:45Z</time><name>PT3510</name></trkpt>
<trkpt lat="52.919219" lon="-3.363456"><ele>495</ele><time>2020-09-03T12:57:47Z</time><name>PT3511</name></trkpt>
<trkpt lat="52.919217" lon="-3.363476"><ele>495</ele><time>2020-09-03T12:57:47Z</time><name>PT3512</name></trkpt>
<trkpt lat="52.919214" lon="-3.363496"><ele>495</ele><time>2020-09-03T12:57:49Z</time><name>PT3513</name></trkpt>
<trkpt lat="52.919211" lon="-3.363517"><ele>495</ele><time>2020-09-03T12:57:50Z</time><name>PT3514</name></trkpt>
<trkpt lat="52.919209" lon="-3.363535"><ele>494</ele><time>2020-09-03T12:57:50Z</time><name>PT3515</name></trkpt>
<trkpt lat="52.919206" lon="-3.363551"><ele>493</ele><time>2020-09-03T12:57:52Z</time><name>PT3516</name></trkpt>
<trkpt lat="52.919208" lon="-3.363573"><ele>493</ele><time>2020-09-03T12:57:52Z</time><name>PT3517</name></trkpt>
<trkpt lat="52.919202" lon="-3.363593"><ele>493</ele><time>2020-09-03T12:57:54Z</time><name>PT3518</name></trkpt>
<trkpt lat="52.919201" lon="-3.363615"><ele>494</ele><time>2020-09-03T12:57:55Z</time><name>PT3519</name></trkpt>
<trkpt lat="52.919199" lon="-3.363635"><ele>493</ele><time>2020-09-03T12:57:55Z</time><name>PT3520</name></trkpt>
<trkpt lat="52.919196" lon="-3.363653"><ele>493</ele><time>2020-09-03T12:57:57Z</time><name>PT3521</name></trkpt>
<trkpt lat="52.919194" lon="-3.363672"><ele>493</ele><time>2020-09-03T12:57:57Z</time><name>PT3522</name></trkpt>
<trkpt lat="52.919188" lon="-3.363693"><ele>493</ele><time>2020-09-03T12:57:59Z</time><name>PT3523</name></trkpt>
<trkpt lat="52.919185" lon="-3.363709"><ele>493</ele><time>2020-09-03T12:58:00Z</time><name>PT3524</name></trkpt>
<trkpt lat="52.919184" lon="-3.363729"><ele>493</ele><time>2020-09-03T12:58:00Z</time><name>PT3525</name></trkpt>
<trkpt lat="52.919183" lon="-3.363747"><ele>493</ele><time>2020-09-03T12:58:02Z</time><name>PT3526</name></trkpt>
<trkpt lat="52.919177" lon="-3.363764"><ele>493</ele><time>2020-09-03T12:58:03Z</time><name>PT3527</name></trkpt>
<trkpt lat="52.919173" lon="-3.363779"><ele>492</ele><time>2020-09-03T12:58:04Z</time><name>PT3528</name></trkpt>
<trkpt lat="52.919166" lon="-3.363799"><ele>492</ele><time>2020-09-03T12:58:05Z</time><name>PT3529</name></trkpt>
<trkpt lat="52.919161" lon="-3.363818"><ele>492</ele><time>2020-09-03T12:58:06Z</time><name>PT3530</name></trkpt>
<trkpt lat="52.919154" lon="-3.363835"><ele>492</ele><time>2020-09-03T12:58:07Z</time><name>PT3531</name></trkpt>
<trkpt lat="52.919149" lon="-3.363855"><ele>492</ele><time>2020-09-03T12:58:08Z</time><name>PT3532</name></trkpt>
<trkpt lat="52.919145" lon="-3.363871"><ele>492</ele><time>2020-09-03T12:58:09Z</time><name>PT3533</name></trkpt>
<trkpt lat="52.919139" lon="-3.363892"><ele>492</ele><time>2020-09-03T12:58:10Z</time><name>PT3534</name></trkpt>
<trkpt lat="52.919134" lon="-3.363916"><ele>492</ele><time>2020-09-03T12:58:11Z</time><name>PT3535</name></trkpt>
<trkpt lat="52.919129" lon="-3.363937"><ele>493</ele><time>2020-09-03T12:58:12Z</time><name>PT3536</name></trkpt>
<trkpt lat="52.919127" lon="-3.363957"><ele>493</ele><time>2020-09-03T12:58:12Z</time><name>PT3537</name></trkpt>
<trkpt lat="52.919125" lon="-3.363976"><ele>493</ele><time>2020-09-03T12:58:14Z</time><name>PT3538</name></trkpt>
<trkpt lat="52.919124" lon="-3.363999"><ele>493</ele><time>2020-09-03T12:58:14Z</time><name>PT3539</name></trkpt>
<trkpt lat="52.919125" lon="-3.364023"><ele>493</ele><time>2020-09-03T12:58:16Z</time><name>PT3540</name></trkpt>
<trkpt lat="52.919122" lon="-3.364044"><ele>492</ele><time>2020-09-03T12:58:16Z</time><name>PT3541</name></trkpt>
<trkpt lat="52.919121" lon="-3.364065"><ele>492</ele><time>2020-09-03T12:58:18Z</time><name>PT3542</name></trkpt>
<trkpt lat="52.919125" lon="-3.364082"><ele>492</ele><time>2020-09-03T12:58:18Z</time><name>PT3543</name></trkpt>
<trkpt lat="52.919126" lon="-3.364102"><ele>492</ele><time>2020-09-03T12:58:20Z</time><name>PT3544</name></trkpt>
<trkpt lat="52.919129" lon="-3.364121"><ele>492</ele><time>2020-09-03T12:58:20Z</time><name>PT3545</name></trkpt>
<trkpt lat="52.919131" lon="-3.364137"><ele>492</ele><time>2020-09-03T12:58:22Z</time><name>PT3546</name></trkpt>
<trkpt lat="52.919134" lon="-3.364156"><ele>492</ele><time>2020-09-03T12:58:22Z</time><name>PT3547</name></trkpt>
<trkpt lat="52.919138" lon="-3.364177"><ele>491</ele><time>2020-09-03T12:58:24Z</time><name>PT3548</name></trkpt>
<trkpt lat="52.919141" lon="-3.364196"><ele>491</ele><time>2020-09-03T12:58:24Z</time><name>PT3549</name></trkpt>
<trkpt lat="52.919145" lon="-3.364212"><ele>491</ele><time>2020-09-03T12:58:26Z</time><name>PT3550</name></trkpt>
<trkpt lat="52.919151" lon="-3.364233"><ele>491</ele><time>2020-09-03T12:58:26Z</time><name>PT3551</name></trkpt>
<trkpt lat="52.919157" lon="-3.364252"><ele>491</ele><time>2020-09-03T12:58:28Z</time><name>PT3552</name></trkpt>
<trkpt lat="52.919161" lon="-3.364271"><ele>491</ele><time>2020-09-03T12:58:28Z</time><name>PT3553</name></trkpt>
<trkpt lat="52.919166" lon="-3.364291"><ele>491</ele><time>2020-09-03T12:58:30Z</time><name>PT3554</name></trkpt>
<trkpt lat="52.919170" lon="-3.364313"><ele>491</ele><time>2020-09-03T12:58:30Z</time><name>PT3555</name></trkpt>
<trkpt lat="52.919174" lon="-3.364323"><ele>491</ele><time>2020-09-03T12:58:32Z</time><name>PT3556</name></trkpt>
<trkpt lat="52.919177" lon="-3.364336"><ele>491</ele><time>2020-09-03T12:58:32Z</time><name>PT3557</name></trkpt>
<trkpt lat="52.919179" lon="-3.364342"><ele>491</ele><time>2020-09-03T12:58:34Z</time><name>PT3558</name></trkpt>
<trkpt lat="52.919179" lon="-3.364345"><ele>491</ele><time>2020-09-03T12:58:34Z</time><name>PT3559</name></trkpt>
<trkpt lat="52.919179" lon="-3.364347"><ele>491</ele><time>2020-09-03T12:58:36Z</time><name>PT3560</name></trkpt>
<trkpt lat="52.919179" lon="-3.364349"><ele>491</ele><time>2020-09-03T12:58:36Z</time><name>PT3561</name></trkpt>
<trkpt lat="52.919180" lon="-3.364353"><ele>491</ele><time>2020-09-03T12:58:46Z</time><name>PT3562</name></trkpt>
<trkpt lat="52.919185" lon="-3.364374"><ele>491</ele><time>2020-09-03T12:58:48Z</time><name>PT3563</name></trkpt>
<trkpt lat="52.919187" lon="-3.364391"><ele>490</ele><time>2020-09-03T12:58:48Z</time><name>PT3564</name></trkpt>
<trkpt lat="52.919191" lon="-3.364407"><ele>490</ele><time>2020-09-03T12:58:50Z</time><name>PT3565</name></trkpt>
<trkpt lat="52.919197" lon="-3.364426"><ele>490</ele><time>2020-09-03T12:58:51Z</time><name>PT3566</name></trkpt>
<trkpt lat="52.919201" lon="-3.364445"><ele>490</ele><time>2020-09-03T12:58:51Z</time><name>PT3567</name></trkpt>
<trkpt lat="52.919205" lon="-3.364463"><ele>490</ele><time>2020-09-03T12:58:53Z</time><name>PT3568</name></trkpt>
<trkpt lat="52.919204" lon="-3.364483"><ele>490</ele><time>2020-09-03T12:58:54Z</time><name>PT3569</name></trkpt>
<trkpt lat="52.919205" lon="-3.364500"><ele>489</ele><time>2020-09-03T12:58:54Z</time><name>PT3570</name></trkpt>
<trkpt lat="52.919205" lon="-3.364516"><ele>489</ele><time>2020-09-03T12:58:56Z</time><name>PT3571</name></trkpt>
<trkpt lat="52.919203" lon="-3.364531"><ele>489</ele><time>2020-09-03T12:58:57Z</time><name>PT3572</name></trkpt>
<trkpt lat="52.919203" lon="-3.364546"><ele>489</ele><time>2020-09-03T12:58:57Z</time><name>PT3573</name></trkpt>
<trkpt lat="52.919201" lon="-3.364561"><ele>489</ele><time>2020-09-03T12:58:59Z</time><name>PT3574</name></trkpt>
<trkpt lat="52.919199" lon="-3.364578"><ele>489</ele><time>2020-09-03T12:59:00Z</time><name>PT3575</name></trkpt>
<trkpt lat="52.919198" lon="-3.364594"><ele>488</ele><time>2020-09-03T12:59:00Z</time><name>PT3576</name></trkpt>
<trkpt lat="52.919196" lon="-3.364608"><ele>488</ele><time>2020-09-03T12:59:02Z</time><name>PT3577</name></trkpt>
<trkpt lat="52.919194" lon="-3.364620"><ele>488</ele><time>2020-09-03T12:59:02Z</time><name>PT3578</name></trkpt>
<trkpt lat="52.919193" lon="-3.364639"><ele>488</ele><time>2020-09-03T12:59:04Z</time><name>PT3579</name></trkpt>
<trkpt lat="52.919193" lon="-3.364651"><ele>487</ele><time>2020-09-03T12:59:04Z</time><name>PT3580</name></trkpt>
<trkpt lat="52.919195" lon="-3.364667"><ele>487</ele><time>2020-09-03T12:59:06Z</time><name>PT3581</name></trkpt>
<trkpt lat="52.919194" lon="-3.364683"><ele>487</ele><time>2020-09-03T12:59:07Z</time><name>PT3582</name></trkpt>
<trkpt lat="52.919193" lon="-3.364701"><ele>487</ele><time>2020-09-03T12:59:07Z</time><name>PT3583</name></trkpt>
<trkpt lat="52.919190" lon="-3.364715"><ele>487</ele><time>2020-09-03T12:59:09Z</time><name>PT3584</name></trkpt>
<trkpt lat="52.919188" lon="-3.364727"><ele>487</ele><time>2020-09-03T12:59:10Z</time><name>PT3585</name></trkpt>
<trkpt lat="52.919181" lon="-3.364742"><ele>486</ele><time>2020-09-03T12:59:11Z</time><name>PT3586</name></trkpt>
<trkpt lat="52.919174" lon="-3.364759"><ele>486</ele><time>2020-09-03T12:59:12Z</time><name>PT3587</name></trkpt>
<trkpt lat="52.919170" lon="-3.364779"><ele>486</ele><time>2020-09-03T12:59:13Z</time><name>PT3588</name></trkpt>
<trkpt lat="52.919169" lon="-3.364796"><ele>487</ele><time>2020-09-03T12:59:14Z</time><name>PT3589</name></trkpt>
<trkpt lat="52.919168" lon="-3.364813"><ele>487</ele><time>2020-09-03T12:59:15Z</time><name>PT3590</name></trkpt>
<trkpt lat="52.919167" lon="-3.364832"><ele>487</ele><time>2020-09-03T12:59:16Z</time><name>PT3591</name></trkpt>
<trkpt lat="52.919167" lon="-3.364854"><ele>487</ele><time>2020-09-03T12:59:17Z</time><name>PT3592</name></trkpt>
<trkpt lat="52.919166" lon="-3.364874"><ele>487</ele><time>2020-09-03T12:59:18Z</time><name>PT3593</name></trkpt>
<trkpt lat="52.919162" lon="-3.364898"><ele>487</ele><time>2020-09-03T12:59:19Z</time><name>PT3594</name></trkpt>
<trkpt lat="52.919158" lon="-3.364917"><ele>487</ele><time>2020-09-03T12:59:19Z</time><name>PT3595</name></trkpt>
<trkpt lat="52.919155" lon="-3.364938"><ele>486</ele><time>2020-09-03T12:59:21Z</time><name>PT3596</name></trkpt>
<trkpt lat="52.919153" lon="-3.364958"><ele>486</ele><time>2020-09-03T12:59:21Z</time><name>PT3597</name></trkpt>
<trkpt lat="52.919148" lon="-3.364978"><ele>486</ele><time>2020-09-03T12:59:23Z</time><name>PT3598</name></trkpt>
<trkpt lat="52.919146" lon="-3.364998"><ele>485</ele><time>2020-09-03T12:59:23Z</time><name>PT3599</name></trkpt>
<trkpt lat="52.919144" lon="-3.365017"><ele>485</ele><time>2020-09-03T12:59:25Z</time><name>PT3600</name></trkpt>
<trkpt lat="52.919143" lon="-3.365037"><ele>485</ele><time>2020-09-03T12:59:25Z</time><name>PT3601</name></trkpt>
<trkpt lat="52.919141" lon="-3.365056"><ele>484</ele><time>2020-09-03T12:59:27Z</time><name>PT3602</name></trkpt>
<trkpt lat="52.919138" lon="-3.365079"><ele>485</ele><time>2020-09-03T12:59:27Z</time><name>PT3603</name></trkpt>
<trkpt lat="52.919134" lon="-3.365101"><ele>485</ele><time>2020-09-03T12:59:29Z</time><name>PT3604</name></trkpt>
<trkpt lat="52.919133" lon="-3.365123"><ele>484</ele><time>2020-09-03T12:59:29Z</time><name>PT3605</name></trkpt>
<trkpt lat="52.919133" lon="-3.365142"><ele>485</ele><time>2020-09-03T12:59:31Z</time><name>PT3606</name></trkpt>
<trkpt lat="52.919135" lon="-3.365166"><ele>485</ele><time>2020-09-03T12:59:31Z</time><name>PT3607</name></trkpt>
<trkpt lat="52.919134" lon="-3.365186"><ele>485</ele><time>2020-09-03T12:59:33Z</time><name>PT3608</name></trkpt>
<trkpt lat="52.919135" lon="-3.365205"><ele>485</ele><time>2020-09-03T12:59:33Z</time><name>PT3609</name></trkpt>
<trkpt lat="52.919136" lon="-3.365224"><ele>485</ele><time>2020-09-03T12:59:35Z</time><name>PT3610</name></trkpt>
<trkpt lat="52.919135" lon="-3.365244"><ele>484</ele><time>2020-09-03T12:59:36Z</time><name>PT3611</name></trkpt>
<trkpt lat="52.919138" lon="-3.365259"><ele>483</ele><time>2020-09-03T12:59:36Z</time><name>PT3612</name></trkpt>
<trkpt lat="52.919144" lon="-3.365276"><ele>483</ele><time>2020-09-03T12:59:38Z</time><name>PT3613</name></trkpt>
<trkpt lat="52.919148" lon="-3.365296"><ele>483</ele><time>2020-09-03T12:59:38Z</time><name>PT3614</name></trkpt>
<trkpt lat="52.919155" lon="-3.365317"><ele>484</ele><time>2020-09-03T12:59:40Z</time><name>PT3615</name></trkpt>
<trkpt lat="52.919161" lon="-3.365338"><ele>484</ele><time>2020-09-03T12:59:40Z</time><name>PT3616</name></trkpt>
<trkpt lat="52.919167" lon="-3.365359"><ele>484</ele><time>2020-09-03T12:59:42Z</time><name>PT3617</name></trkpt>
<trkpt lat="52.919173" lon="-3.365380"><ele>484</ele><time>2020-09-03T12:59:42Z</time><name>PT3618</name></trkpt>
<trkpt lat="52.919179" lon="-3.365393"><ele>483</ele><time>2020-09-03T12:59:44Z</time><name>PT3619</name></trkpt>
<trkpt lat="52.919185" lon="-3.365414"><ele>483</ele><time>2020-09-03T12:59:44Z</time><name>PT3620</name></trkpt>
<trkpt lat="52.919190" lon="-3.365428"><ele>483</ele><time>2020-09-03T12:59:46Z</time><name>PT3621</name></trkpt>
<trkpt lat="52.919195" lon="-3.365445"><ele>482</ele><time>2020-09-03T12:59:46Z</time><name>PT3622</name></trkpt>
<trkpt lat="52.919197" lon="-3.365461"><ele>482</ele><time>2020-09-03T12:59:48Z</time><name>PT3623</name></trkpt>
<trkpt lat="52.919201" lon="-3.365477"><ele>482</ele><time>2020-09-03T12:59:49Z</time><name>PT3624</name></trkpt>
<trkpt lat="52.919206" lon="-3.365493"><ele>482</ele><time>2020-09-03T12:59:49Z</time><name>PT3625</name></trkpt>
<trkpt lat="52.919211" lon="-3.365510"><ele>482</ele><time>2020-09-03T12:59:51Z</time><name>PT3626</name></trkpt>
<trkpt lat="52.919216" lon="-3.365528"><ele>481</ele><time>2020-09-03T12:59:51Z</time><name>PT3627</name></trkpt>
<trkpt lat="52.919222" lon="-3.365545"><ele>481</ele><time>2020-09-03T12:59:53Z</time><name>PT3628</name></trkpt>
<trkpt lat="52.919224" lon="-3.365563"><ele>481</ele><time>2020-09-03T12:59:53Z</time><name>PT3629</name></trkpt>
<trkpt lat="52.919227" lon="-3.365579"><ele>481</ele><time>2020-09-03T12:59:55Z</time><name>PT3630</name></trkpt>
<trkpt lat="52.919230" lon="-3.365592"><ele>481</ele><time>2020-09-03T12:59:55Z</time><name>PT3631</name></trkpt>
<trkpt lat="52.919232" lon="-3.365612"><ele>480</ele><time>2020-09-03T12:59:57Z</time><name>PT3632</name></trkpt>
<trkpt lat="52.919235" lon="-3.365631"><ele>480</ele><time>2020-09-03T12:59:58Z</time><name>PT3633</name></trkpt>
<trkpt lat="52.919235" lon="-3.365646"><ele>480</ele><time>2020-09-03T12:59:58Z</time><name>PT3634</name></trkpt>
<trkpt lat="52.919232" lon="-3.365661"><ele>480</ele><time>2020-09-03T13:00:00Z</time><name>PT3635</name></trkpt>
<trkpt lat="52.919231" lon="-3.365678"><ele>480</ele><time>2020-09-03T13:00:00Z</time><name>PT3636</name></trkpt>
<trkpt lat="52.919229" lon="-3.365691"><ele>480</ele><time>2020-09-03T13:00:02Z</time><name>PT3637</name></trkpt>
<trkpt lat="52.919230" lon="-3.365706"><ele>480</ele><time>2020-09-03T13:00:02Z</time><name>PT3638</name></trkpt>
<trkpt lat="52.919230" lon="-3.365724"><ele>480</ele><time>2020-09-03T13:00:04Z</time><name>PT3639</name></trkpt>
<trkpt lat="52.919228" lon="-3.365739"><ele>480</ele><time>2020-09-03T13:00:04Z</time><name>PT3640</name></trkpt>
<trkpt lat="52.919226" lon="-3.365752"><ele>480</ele><time>2020-09-03T13:00:06Z</time><name>PT3641</name></trkpt>
<trkpt lat="52.919224" lon="-3.365763"><ele>479</ele><time>2020-09-03T13:00:07Z</time><name>PT3642</name></trkpt>
<trkpt lat="52.919223" lon="-3.365773"><ele>479</ele><time>2020-09-03T13:00:08Z</time><name>PT3643</name></trkpt>
<trkpt lat="52.919221" lon="-3.365791"><ele>479</ele><time>2020-09-03T13:00:09Z</time><name>PT3644</name></trkpt>
<trkpt lat="52.919217" lon="-3.365807"><ele>479</ele><time>2020-09-03T13:00:10Z</time><name>PT3645</name></trkpt>
<trkpt lat="52.919214" lon="-3.365812"><ele>479</ele><time>2020-09-03T13:00:10Z</time><name>PT3646</name></trkpt>
<trkpt lat="52.919212" lon="-3.365818"><ele>479</ele><time>2020-09-03T13:00:12Z</time><name>PT3647</name></trkpt>
<trkpt lat="52.919210" lon="-3.365826"><ele>479</ele><time>2020-09-03T13:00:12Z</time><name>PT3648</name></trkpt>
<trkpt lat="52.919208" lon="-3.365836"><ele>479</ele><time>2020-09-03T13:00:14Z</time><name>PT3649</name></trkpt>
<trkpt lat="52.919204" lon="-3.365858"><ele>479</ele><time>2020-09-03T13:00:15Z</time><name>PT3650</name></trkpt>
<trkpt lat="52.919202" lon="-3.365862"><ele>479</ele><time>2020-09-03T13:00:15Z</time><name>PT3651</name></trkpt>
<trkpt lat="52.919202" lon="-3.365870"><ele>479</ele><time>2020-09-03T13:00:17Z</time><name>PT3652</name></trkpt>
<trkpt lat="52.919201" lon="-3.365883"><ele>479</ele><time>2020-09-03T13:00:18Z</time><name>PT3653</name></trkpt>
<trkpt lat="52.919199" lon="-3.365886"><ele>478</ele><time>2020-09-03T13:00:18Z</time><name>PT3654</name></trkpt>
<trkpt lat="52.919201" lon="-3.365885"><ele>478</ele><time>2020-09-03T13:00:20Z</time><name>PT3655</name></trkpt>
<trkpt lat="52.919203" lon="-3.365888"><ele>478</ele><time>2020-09-03T13:00:20Z</time><name>PT3656</name></trkpt>
<trkpt lat="52.919208" lon="-3.365926"><ele>477</ele><time>2020-09-03T13:00:24Z</time><name>PT3657</name></trkpt>
<trkpt lat="52.919210" lon="-3.365988"><ele>476</ele><time>2020-09-03T13:00:28Z</time><name>PT3658</name></trkpt>
<trkpt lat="52.919205" lon="-3.366054"><ele>476</ele><time>2020-09-03T13:00:32Z</time><name>PT3659</name></trkpt>
<trkpt lat="52.919205" lon="-3.366105"><ele>476</ele><time>2020-09-03T13:00:35Z</time><name>PT3660</name></trkpt>
<trkpt lat="52.919208" lon="-3.366167"><ele>475</ele><time>2020-09-03T13:00:39Z</time><name>PT3661</name></trkpt>
<trkpt lat="52.919206" lon="-3.366193"><ele>475</ele><time>2020-09-03T13:00:43Z</time><name>PT3662</name></trkpt>
<trkpt lat="52.919209" lon="-3.366256"><ele>474</ele><time>2020-09-03T13:00:47Z</time><name>PT3663</name></trkpt>
<trkpt lat="52.919211" lon="-3.366323"><ele>474</ele><time>2020-09-03T13:00:51Z</time><name>PT3664</name></trkpt>
<trkpt lat="52.919223" lon="-3.366392"><ele>474</ele><time>2020-09-03T13:00:55Z</time><name>PT3665</name></trkpt>
<trkpt lat="52.919236" lon="-3.366460"><ele>474</ele><time>2020-09-03T13:00:59Z</time><name>PT3666</name></trkpt>
<trkpt lat="52.919240" lon="-3.366528"><ele>474</ele><time>2020-09-03T13:01:03Z</time><name>PT3667</name></trkpt>
<trkpt lat="52.919242" lon="-3.366567"><ele>473</ele><time>2020-09-03T13:01:06Z</time><name>PT3668</name></trkpt>
<trkpt lat="52.919238" lon="-3.366634"><ele>473</ele><time>2020-09-03T13:01:10Z</time><name>PT3669</name></trkpt>
<trkpt lat="52.919226" lon="-3.366709"><ele>473</ele><time>2020-09-03T13:01:14Z</time><name>PT3670</name></trkpt>
<trkpt lat="52.919226" lon="-3.366771"><ele>472</ele><time>2020-09-03T13:01:18Z</time><name>PT3671</name></trkpt>
<trkpt lat="52.919216" lon="-3.366850"><ele>472</ele><time>2020-09-03T13:01:22Z</time><name>PT3672</name></trkpt>
<trkpt lat="52.919209" lon="-3.366906"><ele>471</ele><time>2020-09-03T13:01:25Z</time><name>PT3673</name></trkpt>
<trkpt lat="52.919206" lon="-3.366974"><ele>471</ele><time>2020-09-03T13:01:29Z</time><name>PT3674</name></trkpt>
<trkpt lat="52.919201" lon="-3.367051"><ele>471</ele><time>2020-09-03T13:01:33Z</time><name>PT3675</name></trkpt>
<trkpt lat="52.919198" lon="-3.367118"><ele>471</ele><time>2020-09-03T13:01:36Z</time><name>PT3676</name></trkpt>
<trkpt lat="52.919191" lon="-3.367168"><ele>470</ele><time>2020-09-03T13:01:40Z</time><name>PT3677</name></trkpt>
<trkpt lat="52.919183" lon="-3.367233"><ele>469</ele><time>2020-09-03T13:01:44Z</time><name>PT3678</name></trkpt>
<trkpt lat="52.919174" lon="-3.367287"><ele>467</ele><time>2020-09-03T13:01:47Z</time><name>PT3679</name></trkpt>
<trkpt lat="52.919165" lon="-3.367374"><ele>466</ele><time>2020-09-03T13:01:51Z</time><name>PT3680</name></trkpt>
<trkpt lat="52.919160" lon="-3.367449"><ele>465</ele><time>2020-09-03T13:01:55Z</time><name>PT3681</name></trkpt>
<trkpt lat="52.919150" lon="-3.367509"><ele>464</ele><time>2020-09-03T13:01:58Z</time><name>PT3682</name></trkpt>
<trkpt lat="52.919136" lon="-3.367580"><ele>464</ele><time>2020-09-03T13:02:02Z</time><name>PT3683</name></trkpt>
<trkpt lat="52.919121" lon="-3.367667"><ele>464</ele><time>2020-09-03T13:02:06Z</time><name>PT3684</name></trkpt>
<trkpt lat="52.919112" lon="-3.367715"><ele>463</ele><time>2020-09-03T13:02:09Z</time><name>PT3685</name></trkpt>
<trkpt lat="52.919110" lon="-3.367758"><ele>463</ele><time>2020-09-03T13:02:12Z</time><name>PT3686</name></trkpt>
<trkpt lat="52.919106" lon="-3.367811"><ele>463</ele><time>2020-09-03T13:02:15Z</time><name>PT3687</name></trkpt>
<trkpt lat="52.919102" lon="-3.367869"><ele>463</ele><time>2020-09-03T13:02:19Z</time><name>PT3688</name></trkpt>
<trkpt lat="52.919102" lon="-3.367914"><ele>461</ele><time>2020-09-03T13:02:22Z</time><name>PT3689</name></trkpt>
<trkpt lat="52.919101" lon="-3.367972"><ele>461</ele><time>2020-09-03T13:02:25Z</time><name>PT3690</name></trkpt>
<trkpt lat="52.919098" lon="-3.368017"><ele>461</ele><time>2020-09-03T13:02:28Z</time><name>PT3691</name></trkpt>
<trkpt lat="52.919091" lon="-3.368086"><ele>462</ele><time>2020-09-03T13:02:32Z</time><name>PT3692</name></trkpt>
<trkpt lat="52.919083" lon="-3.368148"><ele>461</ele><time>2020-09-03T13:02:36Z</time><name>PT3693</name></trkpt>
<trkpt lat="52.919072" lon="-3.368205"><ele>460</ele><time>2020-09-03T13:02:39Z</time><name>PT3694</name></trkpt>
<trkpt lat="52.919065" lon="-3.368261"><ele>459</ele><time>2020-09-03T13:02:42Z</time><name>PT3695</name></trkpt>
<trkpt lat="52.919059" lon="-3.368340"><ele>459</ele><time>2020-09-03T13:02:46Z</time><name>PT3696</name></trkpt>
<trkpt lat="52.919059" lon="-3.368402"><ele>459</ele><time>2020-09-03T13:02:49Z</time><name>PT3697</name></trkpt>
<trkpt lat="52.919059" lon="-3.368477"><ele>459</ele><time>2020-09-03T13:02:53Z</time><name>PT3698</name></trkpt>
<trkpt lat="52.919054" lon="-3.368565"><ele>459</ele><time>2020-09-03T13:02:57Z</time><name>PT3699</name></trkpt>
<trkpt lat="52.919052" lon="-3.368652"><ele>459</ele><time>2020-09-03T13:03:01Z</time><name>PT3700</name></trkpt>
<trkpt lat="52.919044" lon="-3.368725"><ele>458</ele><time>2020-09-03T13:03:04Z</time><name>PT3701</name></trkpt>
<trkpt lat="52.919039" lon="-3.368777"><ele>457</ele><time>2020-09-03T13:03:08Z</time><name>PT3702</name></trkpt>
<trkpt lat="52.919034" lon="-3.368832"><ele>456</ele><time>2020-09-03T13:03:12Z</time><name>PT3703</name></trkpt>
<trkpt lat="52.919033" lon="-3.368890"><ele>457</ele><time>2020-09-03T13:03:15Z</time><name>PT3704</name></trkpt>
<trkpt lat="52.919031" lon="-3.368944"><ele>457</ele><time>2020-09-03T13:03:18Z</time><name>PT3705</name></trkpt>
<trkpt lat="52.919029" lon="-3.369027"><ele>458</ele><time>2020-09-03T13:03:22Z</time><name>PT3706</name></trkpt>
<trkpt lat="52.919031" lon="-3.369115"><ele>457</ele><time>2020-09-03T13:03:25Z</time><name>PT3707</name></trkpt>
<trkpt lat="52.919028" lon="-3.369176"><ele>456</ele><time>2020-09-03T13:03:29Z</time><name>PT3708</name></trkpt>
<trkpt lat="52.919030" lon="-3.369234"><ele>455</ele><time>2020-09-03T13:03:32Z</time><name>PT3709</name></trkpt>
<trkpt lat="52.919023" lon="-3.369287"><ele>455</ele><time>2020-09-03T13:03:35Z</time><name>PT3710</name></trkpt>
<trkpt lat="52.919017" lon="-3.369371"><ele>456</ele><time>2020-09-03T13:03:39Z</time><name>PT3711</name></trkpt>
<trkpt lat="52.919014" lon="-3.369441"><ele>455</ele><time>2020-09-03T13:03:43Z</time><name>PT3712</name></trkpt>
<trkpt lat="52.919012" lon="-3.369496"><ele>455</ele><time>2020-09-03T13:03:46Z</time><name>PT3713</name></trkpt>
<trkpt lat="52.919003" lon="-3.369562"><ele>455</ele><time>2020-09-03T13:03:49Z</time><name>PT3714</name></trkpt>
<trkpt lat="52.918997" lon="-3.369622"><ele>454</ele><time>2020-09-03T13:03:52Z</time><name>PT3715</name></trkpt>
<trkpt lat="52.918987" lon="-3.369701"><ele>454</ele><time>2020-09-03T13:03:56Z</time><name>PT3716</name></trkpt>
<trkpt lat="52.918980" lon="-3.369751"><ele>453</ele><time>2020-09-03T13:03:59Z</time><name>PT3717</name></trkpt>
<trkpt lat="52.918971" lon="-3.369804"><ele>452</ele><time>2020-09-03T13:04:02Z</time><name>PT3718</name></trkpt>
<trkpt lat="52.918960" lon="-3.369870"><ele>451</ele><time>2020-09-03T13:04:05Z</time><name>PT3719</name></trkpt>
<trkpt lat="52.918952" lon="-3.369931"><ele>450</ele><time>2020-09-03T13:04:08Z</time><name>PT3720</name></trkpt>
<trkpt lat="52.918948" lon="-3.369989"><ele>449</ele><time>2020-09-03T13:04:12Z</time><name>PT3721</name></trkpt>
<trkpt lat="52.918942" lon="-3.370064"><ele>448</ele><time>2020-09-03T13:04:16Z</time><name>PT3722</name></trkpt>
<trkpt lat="52.918936" lon="-3.370118"><ele>448</ele><time>2020-09-03T13:04:19Z</time><name>PT3723</name></trkpt>
<trkpt lat="52.918931" lon="-3.370176"><ele>447</ele><time>2020-09-03T13:04:22Z</time><name>PT3724</name></trkpt>
<trkpt lat="52.918927" lon="-3.370259"><ele>448</ele><time>2020-09-03T13:04:26Z</time><name>PT3725</name></trkpt>
<trkpt lat="52.918926" lon="-3.370322"><ele>448</ele><time>2020-09-03T13:04:29Z</time><name>PT3726</name></trkpt>
<trkpt lat="52.918930" lon="-3.370391"><ele>448</ele><time>2020-09-03T13:04:32Z</time><name>PT3727</name></trkpt>
<trkpt lat="52.918933" lon="-3.370472"><ele>447</ele><time>2020-09-03T13:04:35Z</time><name>PT3728</name></trkpt>
<trkpt lat="52.918930" lon="-3.370528"><ele>446</ele><time>2020-09-03T13:04:39Z</time><name>PT3729</name></trkpt>
<trkpt lat="52.918929" lon="-3.370596"><ele>445</ele><time>2020-09-03T13:04:43Z</time><name>PT3730</name></trkpt>
<trkpt lat="52.918928" lon="-3.370658"><ele>444</ele><time>2020-09-03T13:04:46Z</time><name>PT3731</name></trkpt>
<trkpt lat="52.918922" lon="-3.370745"><ele>443</ele><time>2020-09-03T13:04:50Z</time><name>PT3732</name></trkpt>
<trkpt lat="52.918922" lon="-3.370840"><ele>443</ele><time>2020-09-03T13:04:54Z</time><name>PT3733</name></trkpt>
<trkpt lat="52.918927" lon="-3.370924"><ele>442</ele><time>2020-09-03T13:04:58Z</time><name>PT3734</name></trkpt>
<trkpt lat="52.918935" lon="-3.370984"><ele>442</ele><time>2020-09-03T13:05:01Z</time><name>PT3735</name></trkpt>
<trkpt lat="52.918941" lon="-3.371018"><ele>443</ele><time>2020-09-03T13:05:04Z</time><name>PT3736</name></trkpt>
<trkpt lat="52.918950" lon="-3.371093"><ele>443</ele><time>2020-09-03T13:05:07Z</time><name>PT3737</name></trkpt>
<trkpt lat="52.918954" lon="-3.371177"><ele>443</ele><time>2020-09-03T13:05:12Z</time><name>PT3738</name></trkpt>
<trkpt lat="52.918965" lon="-3.371253"><ele>441</ele><time>2020-09-03T13:05:16Z</time><name>PT3739</name></trkpt>
<trkpt lat="52.918967" lon="-3.371324"><ele>441</ele><time>2020-09-03T13:05:20Z</time><name>PT3740</name></trkpt>
<trkpt lat="52.918965" lon="-3.371403"><ele>440</ele><time>2020-09-03T13:05:24Z</time><name>PT3741</name></trkpt>
<trkpt lat="52.918967" lon="-3.371464"><ele>440</ele><time>2020-09-03T13:05:27Z</time><name>PT3742</name></trkpt>
<trkpt lat="52.918969" lon="-3.371528"><ele>440</ele><time>2020-09-03T13:05:30Z</time><name>PT3743</name></trkpt>
<trkpt lat="52.918974" lon="-3.371604"><ele>440</ele><time>2020-09-03T13:05:34Z</time><name>PT3744</name></trkpt>
<trkpt lat="52.918964" lon="-3.371694"><ele>439</ele><time>2020-09-03T13:05:38Z</time><name>PT3745</name></trkpt>
<trkpt lat="52.918950" lon="-3.371745"><ele>439</ele><time>2020-09-03T13:05:41Z</time><name>PT3746</name></trkpt>
<trkpt lat="52.918935" lon="-3.371824"><ele>439</ele><time>2020-09-03T13:05:45Z</time><name>PT3747</name></trkpt>
<trkpt lat="52.918923" lon="-3.371896"><ele>437</ele><time>2020-09-03T13:05:49Z</time><name>PT3748</name></trkpt>
<trkpt lat="52.918923" lon="-3.371978"><ele>437</ele><time>2020-09-03T13:05:53Z</time><name>PT3749</name></trkpt>
<trkpt lat="52.918917" lon="-3.372060"><ele>436</ele><time>2020-09-03T13:05:57Z</time><name>PT3750</name></trkpt>
<trkpt lat="52.918912" lon="-3.372113"><ele>434</ele><time>2020-09-03T13:06:00Z</time><name>PT3751</name></trkpt>
<trkpt lat="52.918905" lon="-3.372172"><ele>433</ele><time>2020-09-03T13:06:03Z</time><name>PT3752</name></trkpt>
<trkpt lat="52.918903" lon="-3.372251"><ele>433</ele><time>2020-09-03T13:06:07Z</time><name>PT3753</name></trkpt>
<trkpt lat="52.918910" lon="-3.372306"><ele>433</ele><time>2020-09-03T13:06:10Z</time><name>PT3754</name></trkpt>
<trkpt lat="52.918907" lon="-3.372384"><ele>432</ele><time>2020-09-03T13:06:14Z</time><name>PT3755</name></trkpt>
<trkpt lat="52.918914" lon="-3.372444"><ele>434</ele><time>2020-09-03T13:06:17Z</time><name>PT3756</name></trkpt>
<trkpt lat="52.918911" lon="-3.372520"><ele>435</ele><time>2020-09-03T13:06:20Z</time><name>PT3757</name></trkpt>
<trkpt lat="52.918917" lon="-3.372576"><ele>435</ele><time>2020-09-03T13:06:23Z</time><name>PT3758</name></trkpt>
<trkpt lat="52.918922" lon="-3.372659"><ele>435</ele><time>2020-09-03T13:06:28Z</time><name>PT3759</name></trkpt>
<trkpt lat="52.918940" lon="-3.372738"><ele>433</ele><time>2020-09-03T13:06:32Z</time><name>PT3760</name></trkpt>
<trkpt lat="52.918959" lon="-3.372827"><ele>434</ele><time>2020-09-03T13:06:36Z</time><name>PT3761</name></trkpt>
<trkpt lat="52.918972" lon="-3.372895"><ele>433</ele><time>2020-09-03T13:06:40Z</time><name>PT3762</name></trkpt>
<trkpt lat="52.918988" lon="-3.372955"><ele>432</ele><time>2020-09-03T13:06:43Z</time><name>PT3763</name></trkpt>
<trkpt lat="52.918996" lon="-3.372993"><ele>430</ele><time>2020-09-03T13:06:46Z</time><name>PT3764</name></trkpt>
<trkpt lat="52.919011" lon="-3.373072"><ele>429</ele><time>2020-09-03T13:06:49Z</time><name>PT3765</name></trkpt>
<trkpt lat="52.919030" lon="-3.373115"><ele>429</ele><time>2020-09-03T13:06:53Z</time><name>PT3766</name></trkpt>
<trkpt lat="52.919041" lon="-3.373182"><ele>428</ele><time>2020-09-03T13:06:56Z</time><name>PT3767</name></trkpt>
<trkpt lat="52.919053" lon="-3.373241"><ele>429</ele><time>2020-09-03T13:06:59Z</time><name>PT3768</name></trkpt>
<trkpt lat="52.919064" lon="-3.373312"><ele>430</ele><time>2020-09-03T13:07:02Z</time><name>PT3769</name></trkpt>
<trkpt lat="52.919078" lon="-3.373398"><ele>431</ele><time>2020-09-03T13:07:06Z</time><name>PT3770</name></trkpt>
<trkpt lat="52.919069" lon="-3.373488"><ele>430</ele><time>2020-09-03T13:07:10Z</time><name>PT3771</name></trkpt>
<trkpt lat="52.919071" lon="-3.373580"><ele>430</ele><time>2020-09-03T13:07:14Z</time><name>PT3772</name></trkpt>
<trkpt lat="52.919068" lon="-3.373665"><ele>427</ele><time>2020-09-03T13:07:18Z</time><name>PT3773</name></trkpt>
<trkpt lat="52.919078" lon="-3.373734"><ele>427</ele><time>2020-09-03T13:07:22Z</time><name>PT3774</name></trkpt>
<trkpt lat="52.919091" lon="-3.373811"><ele>427</ele><time>2020-09-03T13:07:26Z</time><name>PT3775</name></trkpt>
<trkpt lat="52.919088" lon="-3.373884"><ele>425</ele><time>2020-09-03T13:07:30Z</time><name>PT3776</name></trkpt>
<trkpt lat="52.919100" lon="-3.373959"><ele>424</ele><time>2020-09-03T13:07:34Z</time><name>PT3777</name></trkpt>
<trkpt lat="52.919099" lon="-3.374027"><ele>424</ele><time>2020-09-03T13:07:37Z</time><name>PT3778</name></trkpt>
<trkpt lat="52.919109" lon="-3.374087"><ele>423</ele><time>2020-09-03T13:07:40Z</time><name>PT3779</name></trkpt>
<trkpt lat="52.919116" lon="-3.374169"><ele>422</ele><time>2020-09-03T13:07:44Z</time><name>PT3780</name></trkpt>
<trkpt lat="52.919136" lon="-3.374256"><ele>423</ele><time>2020-09-03T13:07:48Z</time><name>PT3781</name></trkpt>
<trkpt lat="52.919166" lon="-3.374349"><ele>425</ele><time>2020-09-03T13:07:52Z</time><name>PT3782</name></trkpt>
<trkpt lat="52.919186" lon="-3.374421"><ele>424</ele><time>2020-09-03T13:07:56Z</time><name>PT3783</name></trkpt>
<trkpt lat="52.919202" lon="-3.374479"><ele>423</ele><time>2020-09-03T13:07:59Z</time><name>PT3784</name></trkpt>
<trkpt lat="52.919228" lon="-3.374534"><ele>423</ele><time>2020-09-03T13:08:02Z</time><name>PT3785</name></trkpt>
<trkpt lat="52.919251" lon="-3.374608"><ele>423</ele><time>2020-09-03T13:08:06Z</time><name>PT3786</name></trkpt>
<trkpt lat="52.919270" lon="-3.374671"><ele>422</ele><time>2020-09-03T13:08:10Z</time><name>PT3787</name></trkpt>
<trkpt lat="52.919280" lon="-3.374717"><ele>421</ele><time>2020-09-03T13:08:13Z</time><name>PT3788</name></trkpt>
<trkpt lat="52.919303" lon="-3.374799"><ele>422</ele><time>2020-09-03T13:08:16Z</time><name>PT3789</name></trkpt>
<trkpt lat="52.919320" lon="-3.374859"><ele>420</ele><time>2020-09-03T13:08:20Z</time><name>PT3790</name></trkpt>
<trkpt lat="52.919332" lon="-3.374918"><ele>420</ele><time>2020-09-03T13:08:23Z</time><name>PT3791</name></trkpt>
<trkpt lat="52.919344" lon="-3.374991"><ele>417</ele><time>2020-09-03T13:08:27Z</time><name>PT3792</name></trkpt>
<trkpt lat="52.919356" lon="-3.375059"><ele>416</ele><time>2020-09-03T13:08:31Z</time><name>PT3793</name></trkpt>
<trkpt lat="52.919368" lon="-3.375109"><ele>416</ele><time>2020-09-03T13:08:34Z</time><name>PT3794</name></trkpt>
<trkpt lat="52.919374" lon="-3.375194"><ele>415</ele><time>2020-09-03T13:08:38Z</time><name>PT3795</name></trkpt>
<trkpt lat="52.919393" lon="-3.375263"><ele>415</ele><time>2020-09-03T13:08:41Z</time><name>PT3796</name></trkpt>
<trkpt lat="52.919402" lon="-3.375343"><ele>414</ele><time>2020-09-03T13:08:44Z</time><name>PT3797</name></trkpt>
<trkpt lat="52.919421" lon="-3.375406"><ele>414</ele><time>2020-09-03T13:08:47Z</time><name>PT3798</name></trkpt>
<trkpt lat="52.919422" lon="-3.375452"><ele>413</ele><time>2020-09-03T13:08:51Z</time><name>PT3799</name></trkpt>
<trkpt lat="52.919439" lon="-3.375523"><ele>413</ele><time>2020-09-03T13:08:55Z</time><name>PT3800</name></trkpt>
<trkpt lat="52.919461" lon="-3.375601"><ele>414</ele><time>2020-09-03T13:08:59Z</time><name>PT3801</name></trkpt>
<trkpt lat="52.919485" lon="-3.375683"><ele>415</ele><time>2020-09-03T13:09:03Z</time><name>PT3802</name></trkpt>
<trkpt lat="52.919498" lon="-3.375753"><ele>414</ele><time>2020-09-03T13:09:07Z</time><name>PT3803</name></trkpt>
<trkpt lat="52.919521" lon="-3.375824"><ele>414</ele><time>2020-09-03T13:09:11Z</time><name>PT3804</name></trkpt>
<trkpt lat="52.919543" lon="-3.375893"><ele>413</ele><time>2020-09-03T13:09:15Z</time><name>PT3805</name></trkpt>
<trkpt lat="52.919562" lon="-3.375944"><ele>412</ele><time>2020-09-03T13:09:18Z</time><name>PT3806</name></trkpt>
<trkpt lat="52.919592" lon="-3.376014"><ele>412</ele><time>2020-09-03T13:09:22Z</time><name>PT3807</name></trkpt>
<trkpt lat="52.919616" lon="-3.376075"><ele>411</ele><time>2020-09-03T13:09:26Z</time><name>PT3808</name></trkpt>
<trkpt lat="52.919644" lon="-3.376134"><ele>410</ele><time>2020-09-03T13:09:30Z</time><name>PT3809</name></trkpt>
<trkpt lat="52.919679" lon="-3.376210"><ele>411</ele><time>2020-09-03T13:09:34Z</time><name>PT3810</name></trkpt>
<trkpt lat="52.919710" lon="-3.376286"><ele>411</ele><time>2020-09-03T13:09:38Z</time><name>PT3811</name></trkpt>
<trkpt lat="52.919734" lon="-3.376348"><ele>409</ele><time>2020-09-03T13:09:42Z</time><name>PT3812</name></trkpt>
<trkpt lat="52.919764" lon="-3.376425"><ele>409</ele><time>2020-09-03T13:09:45Z</time><name>PT3813</name></trkpt>
<trkpt lat="52.919789" lon="-3.376508"><ele>410</ele><time>2020-09-03T13:09:50Z</time><name>PT3814</name></trkpt>
<trkpt lat="52.919798" lon="-3.376559"><ele>409</ele><time>2020-09-03T13:09:53Z</time><name>PT3815</name></trkpt>
<trkpt lat="52.919811" lon="-3.376631"><ele>411</ele><time>2020-09-03T13:09:56Z</time><name>PT3816</name></trkpt>
<trkpt lat="52.919821" lon="-3.376703"><ele>409</ele><time>2020-09-03T13:10:00Z</time><name>PT3817</name></trkpt>
<trkpt lat="52.919836" lon="-3.376788"><ele>408</ele><time>2020-09-03T13:10:04Z</time><name>PT3818</name></trkpt>
<trkpt lat="52.919852" lon="-3.376836"><ele>408</ele><time>2020-09-03T13:10:08Z</time><name>PT3819</name></trkpt>
<trkpt lat="52.919858" lon="-3.376865"><ele>407</ele><time>2020-09-03T13:10:11Z</time><name>PT3820</name></trkpt>
<trkpt lat="52.919861" lon="-3.376881"><ele>406</ele><time>2020-09-03T13:10:15Z</time><name>PT3821</name></trkpt>
<trkpt lat="52.919862" lon="-3.376894"><ele>407</ele><time>2020-09-03T13:10:18Z</time><name>PT3822</name></trkpt>
<trkpt lat="52.919865" lon="-3.376911"><ele>407</ele><time>2020-09-03T13:10:21Z</time><name>PT3823</name></trkpt>
<trkpt lat="52.919879" lon="-3.376954"><ele>408</ele><time>2020-09-03T13:10:25Z</time><name>PT3824</name></trkpt>
<trkpt lat="52.919890" lon="-3.376996"><ele>407</ele><time>2020-09-03T13:10:28Z</time><name>PT3825</name></trkpt>
<trkpt lat="52.919901" lon="-3.377064"><ele>405</ele><time>2020-09-03T13:10:32Z</time><name>PT3826</name></trkpt>
<trkpt lat="52.919913" lon="-3.377104"><ele>406</ele><time>2020-09-03T13:10:35Z</time><name>PT3827</name></trkpt>
<trkpt lat="52.919913" lon="-3.377109"><ele>406</ele><time>2020-09-03T13:10:39Z</time><name>PT3828</name></trkpt>
<trkpt lat="52.919906" lon="-3.377110"><ele>406</ele><time>2020-09-03T13:10:42Z</time><name>PT3829</name></trkpt>
<trkpt lat="52.919927" lon="-3.377127"><ele>405</ele><time>2020-09-03T13:10:46Z</time><name>PT3830</name></trkpt>
<trkpt lat="52.919930" lon="-3.377144"><ele>405</ele><time>2020-09-03T13:11:01Z</time><name>PT3831</name></trkpt>
<trkpt lat="52.919934" lon="-3.377219"><ele>406</ele><time>2020-09-03T13:11:05Z</time><name>PT3832</name></trkpt>
<trkpt lat="52.919943" lon="-3.377295"><ele>404</ele><time>2020-09-03T13:11:09Z</time><name>PT3833</name></trkpt>
<trkpt lat="52.919944" lon="-3.377358"><ele>403</ele><time>2020-09-03T13:11:12Z</time><name>PT3834</name></trkpt>
<trkpt lat="52.919950" lon="-3.377443"><ele>402</ele><time>2020-09-03T13:11:16Z</time><name>PT3835</name></trkpt>
<trkpt lat="52.919954" lon="-3.377524"><ele>400</ele><time>2020-09-03T13:11:20Z</time><name>PT3836</name></trkpt>
<trkpt lat="52.919965" lon="-3.377608"><ele>399</ele><time>2020-09-03T13:11:24Z</time><name>PT3837</name></trkpt>
<trkpt lat="52.919971" lon="-3.377704"><ele>400</ele><time>2020-09-03T13:11:28Z</time><name>PT3838</name></trkpt>
<trkpt lat="52.919980" lon="-3.377768"><ele>399</ele><time>2020-09-03T13:11:31Z</time><name>PT3839</name></trkpt>
<trkpt lat="52.919984" lon="-3.377854"><ele>398</ele><time>2020-09-03T13:11:35Z</time><name>PT3840</name></trkpt>
<trkpt lat="52.919987" lon="-3.377908"><ele>397</ele><time>2020-09-03T13:11:38Z</time><name>PT3841</name></trkpt>
<trkpt lat="52.920014" lon="-3.377987"><ele>399</ele><time>2020-09-03T13:11:42Z</time><name>PT3842</name></trkpt>
<trkpt lat="52.920028" lon="-3.378044"><ele>399</ele><time>2020-09-03T13:11:45Z</time><name>PT3843</name></trkpt>
<trkpt lat="52.920052" lon="-3.378127"><ele>401</ele><time>2020-09-03T13:11:49Z</time><name>PT3844</name></trkpt>
<trkpt lat="52.920069" lon="-3.378193"><ele>399</ele><time>2020-09-03T13:11:52Z</time><name>PT3845</name></trkpt>
<trkpt lat="52.920087" lon="-3.378243"><ele>400</ele><time>2020-09-03T13:11:56Z</time><name>PT3846</name></trkpt>
<trkpt lat="52.920112" lon="-3.378301"><ele>401</ele><time>2020-09-03T13:12:00Z</time><name>PT3847</name></trkpt>
<trkpt lat="52.920136" lon="-3.378346"><ele>400</ele><time>2020-09-03T13:12:03Z</time><name>PT3848</name></trkpt>
<trkpt lat="52.920169" lon="-3.378406"><ele>401</ele><time>2020-09-03T13:12:07Z</time><name>PT3849</name></trkpt>
<trkpt lat="52.920189" lon="-3.378473"><ele>400</ele><time>2020-09-03T13:12:11Z</time><name>PT3850</name></trkpt>
<trkpt lat="52.920207" lon="-3.378530"><ele>399</ele><time>2020-09-03T13:12:15Z</time><name>PT3851</name></trkpt>
<trkpt lat="52.920232" lon="-3.378590"><ele>398</ele><time>2020-09-03T13:12:19Z</time><name>PT3852</name></trkpt>
<trkpt lat="52.920252" lon="-3.378635"><ele>397</ele><time>2020-09-03T13:12:22Z</time><name>PT3853</name></trkpt>
<trkpt lat="52.920284" lon="-3.378701"><ele>396</ele><time>2020-09-03T13:12:26Z</time><name>PT3854</name></trkpt>
<trkpt lat="52.920312" lon="-3.378764"><ele>394</ele><time>2020-09-03T13:12:30Z</time><name>PT3855</name></trkpt>
<trkpt lat="52.920342" lon="-3.378810"><ele>393</ele><time>2020-09-03T13:12:34Z</time><name>PT3856</name></trkpt>
<trkpt lat="52.920359" lon="-3.378855"><ele>393</ele><time>2020-09-03T13:12:37Z</time><name>PT3857</name></trkpt>
<trkpt lat="52.920384" lon="-3.378918"><ele>392</ele><time>2020-09-03T13:12:41Z</time><name>PT3858</name></trkpt>
<trkpt lat="52.920391" lon="-3.378992"><ele>392</ele><time>2020-09-03T13:12:45Z</time><name>PT3859</name></trkpt>
<trkpt lat="52.920407" lon="-3.379076"><ele>392</ele><time>2020-09-03T13:12:49Z</time><name>PT3860</name></trkpt>
<trkpt lat="52.920409" lon="-3.379145"><ele>392</ele><time>2020-09-03T13:12:53Z</time><name>PT3861</name></trkpt>
<trkpt lat="52.920419" lon="-3.379208"><ele>392</ele><time>2020-09-03T13:12:57Z</time><name>PT3862</name></trkpt>
<trkpt lat="52.920420" lon="-3.379253"><ele>391</ele><time>2020-09-03T13:13:00Z</time><name>PT3863</name></trkpt>
<trkpt lat="52.920428" lon="-3.379318"><ele>390</ele><time>2020-09-03T13:13:04Z</time><name>PT3864</name></trkpt>
<trkpt lat="52.920445" lon="-3.379389"><ele>390</ele><time>2020-09-03T13:13:08Z</time><name>PT3865</name></trkpt>
<trkpt lat="52.920460" lon="-3.379445"><ele>390</ele><time>2020-09-03T13:13:12Z</time><name>PT3866</name></trkpt>
<trkpt lat="52.920477" lon="-3.379487"><ele>389</ele><time>2020-09-03T13:13:15Z</time><name>PT3867</name></trkpt>
<trkpt lat="52.920502" lon="-3.379541"><ele>388</ele><time>2020-09-03T13:13:19Z</time><name>PT3868</name></trkpt>
<trkpt lat="52.920527" lon="-3.379594"><ele>388</ele><time>2020-09-03T13:13:23Z</time><name>PT3869</name></trkpt>
<trkpt lat="52.920557" lon="-3.379649"><ele>387</ele><time>2020-09-03T13:13:27Z</time><name>PT3870</name></trkpt>
<trkpt lat="52.920576" lon="-3.379694"><ele>386</ele><time>2020-09-03T13:13:30Z</time><name>PT3871</name></trkpt>
<trkpt lat="52.920597" lon="-3.379762"><ele>385</ele><time>2020-09-03T13:13:34Z</time><name>PT3872</name></trkpt>
<trkpt lat="52.920614" lon="-3.379808"><ele>383</ele><time>2020-09-03T13:13:38Z</time><name>PT3873</name></trkpt>
<trkpt lat="52.920624" lon="-3.379847"><ele>382</ele><time>2020-09-03T13:13:41Z</time><name>PT3874</name></trkpt>
<trkpt lat="52.920641" lon="-3.379912"><ele>380</ele><time>2020-09-03T13:13:45Z</time><name>PT3875</name></trkpt>
<trkpt lat="52.920661" lon="-3.379947"><ele>379</ele><time>2020-09-03T13:13:48Z</time><name>PT3876</name></trkpt>
<trkpt lat="52.920700" lon="-3.380004"><ele>379</ele><time>2020-09-03T13:13:52Z</time><name>PT3877</name></trkpt>
<trkpt lat="52.920735" lon="-3.380069"><ele>378</ele><time>2020-09-03T13:13:56Z</time><name>PT3878</name></trkpt>
<trkpt lat="52.920760" lon="-3.380128"><ele>377</ele><time>2020-09-03T13:14:00Z</time><name>PT3879</name></trkpt>
<trkpt lat="52.920780" lon="-3.380192"><ele>376</ele><time>2020-09-03T13:14:04Z</time><name>PT3880</name></trkpt>
<trkpt lat="52.920803" lon="-3.380232"><ele>376</ele><time>2020-09-03T13:14:07Z</time><name>PT3881</name></trkpt>
<trkpt lat="52.920822" lon="-3.380308"><ele>375</ele><time>2020-09-03T13:14:11Z</time><name>PT3882</name></trkpt>
<trkpt lat="52.920839" lon="-3.380364"><ele>373</ele><time>2020-09-03T13:14:14Z</time><name>PT3883</name></trkpt>
<trkpt lat="52.920863" lon="-3.380425"><ele>373</ele><time>2020-09-03T13:14:18Z</time><name>PT3884</name></trkpt>
<trkpt lat="52.920874" lon="-3.380486"><ele>372</ele><time>2020-09-03T13:14:22Z</time><name>PT3885</name></trkpt>
<trkpt lat="52.920891" lon="-3.380549"><ele>372</ele><time>2020-09-03T13:14:26Z</time><name>PT3886</name></trkpt>
<trkpt lat="52.920904" lon="-3.380597"><ele>372</ele><time>2020-09-03T13:14:29Z</time><name>PT3887</name></trkpt>
<trkpt lat="52.920925" lon="-3.380662"><ele>372</ele><time>2020-09-03T13:14:33Z</time><name>PT3888</name></trkpt>
<trkpt lat="52.920944" lon="-3.380727"><ele>372</ele><time>2020-09-03T13:14:37Z</time><name>PT3889</name></trkpt>
<trkpt lat="52.920959" lon="-3.380779"><ele>372</ele><time>2020-09-03T13:14:41Z</time><name>PT3890</name></trkpt>
<trkpt lat="52.920982" lon="-3.380825"><ele>372</ele><time>2020-09-03T13:14:44Z</time><name>PT3891</name></trkpt>
<trkpt lat="52.920990" lon="-3.380855"><ele>371</ele><time>2020-09-03T13:14:48Z</time><name>PT3892</name></trkpt>
<trkpt lat="52.920998" lon="-3.380878"><ele>370</ele><time>2020-09-03T13:14:52Z</time><name>PT3893</name></trkpt>
<trkpt lat="52.921009" lon="-3.380919"><ele>369</ele><time>2020-09-03T13:14:56Z</time><name>PT3894</name></trkpt>
<trkpt lat="52.921014" lon="-3.380944"><ele>369</ele><time>2020-09-03T13:15:00Z</time><name>PT3895</name></trkpt>
<trkpt lat="52.921029" lon="-3.380968"><ele>369</ele><time>2020-09-03T13:15:04Z</time><name>PT3896</name></trkpt>
<trkpt lat="52.921028" lon="-3.380998"><ele>368</ele><time>2020-09-03T13:15:08Z</time><name>PT3897</name></trkpt>
<trkpt lat="52.921035" lon="-3.381023"><ele>368</ele><time>2020-09-03T13:15:12Z</time><name>PT3898</name></trkpt>
<trkpt lat="52.921043" lon="-3.381029"><ele>368</ele><time>2020-09-03T13:15:16Z</time><name>PT3899</name></trkpt>
<trkpt lat="52.921048" lon="-3.381040"><ele>368</ele><time>2020-09-03T13:15:28Z</time><name>PT3900</name></trkpt>
<trkpt lat="52.921058" lon="-3.381086"><ele>368</ele><time>2020-09-03T13:15:31Z</time><name>PT3901</name></trkpt>
<trkpt lat="52.921062" lon="-3.381127"><ele>369</ele><time>2020-09-03T13:15:35Z</time><name>PT3902</name></trkpt>
<trkpt lat="52.921069" lon="-3.381139"><ele>368</ele><time>2020-09-03T13:15:38Z</time><name>PT3903</name></trkpt>
<trkpt lat="52.921071" lon="-3.381149"><ele>368</ele><time>2020-09-03T13:15:42Z</time><name>PT3904</name></trkpt>
<trkpt lat="52.921068" lon="-3.381161"><ele>368</ele><time>2020-09-03T13:15:45Z</time><name>PT3905</name></trkpt>
<trkpt lat="52.921066" lon="-3.381167"><ele>368</ele><time>2020-09-03T13:15:49Z</time><name>PT3906</name></trkpt>
<trkpt lat="52.921066" lon="-3.381173"><ele>368</ele><time>2020-09-03T13:15:53Z</time><name>PT3907</name></trkpt>
<trkpt lat="52.921068" lon="-3.381177"><ele>367</ele><time>2020-09-03T13:16:11Z</time><name>PT3908</name></trkpt>
<trkpt lat="52.921068" lon="-3.381178"><ele>367</ele><time>2020-09-03T13:16:14Z</time><name>PT3909</name></trkpt>
<trkpt lat="52.921081" lon="-3.381242"><ele>368</ele><time>2020-09-03T13:17:16Z</time><name>PT3910</name></trkpt>
<trkpt lat="52.921089" lon="-3.381288"><ele>367</ele><time>2020-09-03T13:17:19Z</time><name>PT3911</name></trkpt>
<trkpt lat="52.921115" lon="-3.381346"><ele>367</ele><time>2020-09-03T13:17:22Z</time><name>PT3912</name></trkpt>
<trkpt lat="52.921131" lon="-3.381415"><ele>368</ele><time>2020-09-03T13:17:27Z</time><name>PT3913</name></trkpt>
<trkpt lat="52.921131" lon="-3.381433"><ele>367</ele><time>2020-09-03T13:17:31Z</time><name>PT3914</name></trkpt>
<trkpt lat="52.921130" lon="-3.381440"><ele>368</ele><time>2020-09-03T13:17:34Z</time><name>PT3915</name></trkpt>
<trkpt lat="52.921130" lon="-3.381441"><ele>368</ele><time>2020-09-03T13:17:37Z</time><name>PT3916</name></trkpt>
<trkpt lat="52.921138" lon="-3.381454"><ele>369</ele><time>2020-09-03T13:17:51Z</time><name>PT3917</name></trkpt>
<trkpt lat="52.921145" lon="-3.381494"><ele>369</ele><time>2020-09-03T13:17:54Z</time><name>PT3918</name></trkpt>
<trkpt lat="52.921158" lon="-3.381554"><ele>369</ele><time>2020-09-03T13:17:58Z</time><name>PT3919</name></trkpt>
<trkpt lat="52.921167" lon="-3.381602"><ele>369</ele><time>2020-09-03T13:18:01Z</time><name>PT3920</name></trkpt>
<trkpt lat="52.921186" lon="-3.381648"><ele>371</ele><time>2020-09-03T13:18:04Z</time><name>PT3921</name></trkpt>
<trkpt lat="52.921190" lon="-3.381708"><ele>371</ele><time>2020-09-03T13:18:09Z</time><name>PT3922</name></trkpt>
<trkpt lat="52.921197" lon="-3.381745"><ele>371</ele><time>2020-09-03T13:18:12Z</time><name>PT3923</name></trkpt>
<trkpt lat="52.921213" lon="-3.381777"><ele>372</ele><time>2020-09-03T13:18:15Z</time><name>PT3924</name></trkpt>
<trkpt lat="52.921224" lon="-3.381787"><ele>371</ele><time>2020-09-03T13:18:18Z</time><name>PT3925</name></trkpt>
<trkpt lat="52.921235" lon="-3.381800"><ele>372</ele><time>2020-09-03T13:18:21Z</time><name>PT3926</name></trkpt>
<trkpt lat="52.921241" lon="-3.381822"><ele>372</ele><time>2020-09-03T13:18:24Z</time><name>PT3927</name></trkpt>
<trkpt lat="52.921263" lon="-3.381870"><ele>373</ele><time>2020-09-03T13:18:27Z</time><name>PT3928</name></trkpt>
<trkpt lat="52.921287" lon="-3.381907"><ele>374</ele><time>2020-09-03T13:18:31Z</time><name>PT3929</name></trkpt>
<trkpt lat="52.921324" lon="-3.381950"><ele>374</ele><time>2020-09-03T13:18:35Z</time><name>PT3930</name></trkpt>
<trkpt lat="52.921367" lon="-3.381971"><ele>376</ele><time>2020-09-03T13:18:38Z</time><name>PT3931</name></trkpt>
<trkpt lat="52.921394" lon="-3.381992"><ele>375</ele><time>2020-09-03T13:18:41Z</time><name>PT3932</name></trkpt>
<trkpt lat="52.921443" lon="-3.382035"><ele>376</ele><time>2020-09-03T13:18:45Z</time><name>PT3933</name></trkpt>
<trkpt lat="52.921470" lon="-3.382074"><ele>376</ele><time>2020-09-03T13:18:48Z</time><name>PT3934</name></trkpt>
<trkpt lat="52.921499" lon="-3.382129"><ele>375</ele><time>2020-09-03T13:18:52Z</time><name>PT3935</name></trkpt>
<trkpt lat="52.921516" lon="-3.382161"><ele>375</ele><time>2020-09-03T13:18:55Z</time><name>PT3936</name></trkpt>
<trkpt lat="52.921525" lon="-3.382223"><ele>375</ele><time>2020-09-03T13:18:59Z</time><name>PT3937</name></trkpt>
<trkpt lat="52.921528" lon="-3.382268"><ele>375</ele><time>2020-09-03T13:19:02Z</time><name>PT3938</name></trkpt>
<trkpt lat="52.921524" lon="-3.382347"><ele>372</ele><time>2020-09-03T13:19:06Z</time><name>PT3939</name></trkpt>
<trkpt lat="52.921534" lon="-3.382397"><ele>372</ele><time>2020-09-03T13:19:09Z</time><name>PT3940</name></trkpt>
<trkpt lat="52.921550" lon="-3.382450"><ele>372</ele><time>2020-09-03T13:19:12Z</time><name>PT3941</name></trkpt>
<trkpt lat="52.921599" lon="-3.382468"><ele>372</ele><time>2020-09-03T13:19:16Z</time><name>PT3942</name></trkpt>
<trkpt lat="52.921639" lon="-3.382518"><ele>374</ele><time>2020-09-03T13:19:20Z</time><name>PT3943</name></trkpt>
<trkpt lat="52.921661" lon="-3.382555"><ele>373</ele><time>2020-09-03T13:19:24Z</time><name>PT3944</name></trkpt>
<trkpt lat="52.921687" lon="-3.382595"><ele>373</ele><time>2020-09-03T13:19:27Z</time><name>PT3945</name></trkpt>
<trkpt lat="52.921715" lon="-3.382632"><ele>372</ele><time>2020-09-03T13:19:30Z</time><name>PT3946</name></trkpt>
<trkpt lat="52.921740" lon="-3.382682"><ele>372</ele><time>2020-09-03T13:19:34Z</time><name>PT3947</name></trkpt>
<trkpt lat="52.921761" lon="-3.382714"><ele>373</ele><time>2020-09-03T13:19:38Z</time><name>PT3948</name></trkpt>
<trkpt lat="52.921775" lon="-3.382742"><ele>373</ele><time>2020-09-03T13:19:41Z</time><name>PT3949</name></trkpt>
<trkpt lat="52.921789" lon="-3.382763"><ele>372</ele><time>2020-09-03T13:19:44Z</time><name>PT3950</name></trkpt>
<trkpt lat="52.921820" lon="-3.382817"><ele>372</ele><time>2020-09-03T13:19:47Z</time><name>PT3951</name></trkpt>
<trkpt lat="52.921841" lon="-3.382840"><ele>372</ele><time>2020-09-03T13:19:51Z</time><name>PT3952</name></trkpt>
<trkpt lat="52.921867" lon="-3.382867"><ele>372</ele><time>2020-09-03T13:19:54Z</time><name>PT3953</name></trkpt>
<trkpt lat="52.921898" lon="-3.382916"><ele>371</ele><time>2020-09-03T13:19:58Z</time><name>PT3954</name></trkpt>
<trkpt lat="52.921925" lon="-3.382955"><ele>371</ele><time>2020-09-03T13:20:01Z</time><name>PT3955</name></trkpt>
<trkpt lat="52.921949" lon="-3.383003"><ele>371</ele><time>2020-09-03T13:20:04Z</time><name>PT3956</name></trkpt>
<trkpt lat="52.921973" lon="-3.383030"><ele>371</ele><time>2020-09-03T13:20:07Z</time><name>PT3957</name></trkpt>
<trkpt lat="52.921989" lon="-3.383075"><ele>373</ele><time>2020-09-03T13:20:10Z</time><name>PT3958</name></trkpt>
<trkpt lat="52.922012" lon="-3.383133"><ele>372</ele><time>2020-09-03T13:20:15Z</time><name>PT3959</name></trkpt>
<trkpt lat="52.922038" lon="-3.383197"><ele>372</ele><time>2020-09-03T13:20:19Z</time><name>PT3960</name></trkpt>
<trkpt lat="52.922072" lon="-3.383229"><ele>373</ele><time>2020-09-03T13:20:22Z</time><name>PT3961</name></trkpt>
<trkpt lat="52.922107" lon="-3.383267"><ele>373</ele><time>2020-09-03T13:20:26Z</time><name>PT3962</name></trkpt>
<trkpt lat="52.922124" lon="-3.383297"><ele>372</ele><time>2020-09-03T13:20:29Z</time><name>PT3963</name></trkpt>
<trkpt lat="52.922150" lon="-3.383293"><ele>373</ele><time>2020-09-03T13:20:32Z</time><name>PT3964</name></trkpt>
<trkpt lat="52.922180" lon="-3.383328"><ele>374</ele><time>2020-09-03T13:20:35Z</time><name>PT3965</name></trkpt>
<trkpt lat="52.922197" lon="-3.383358"><ele>372</ele><time>2020-09-03T13:20:38Z</time><name>PT3966</name></trkpt>
<trkpt lat="52.922227" lon="-3.383390"><ele>372</ele><time>2020-09-03T13:20:42Z</time><name>PT3967</name></trkpt>
<trkpt lat="52.922245" lon="-3.383432"><ele>371</ele><time>2020-09-03T13:20:45Z</time><name>PT3968</name></trkpt>
<trkpt lat="52.922282" lon="-3.383464"><ele>371</ele><time>2020-09-03T13:20:48Z</time><name>PT3969</name></trkpt>
<trkpt lat="52.922314" lon="-3.383492"><ele>371</ele><time>2020-09-03T13:20:51Z</time><name>PT3970</name></trkpt>
<trkpt lat="52.922355" lon="-3.383521"><ele>371</ele><time>2020-09-03T13:20:55Z</time><name>PT3971</name></trkpt>
<trkpt lat="52.922382" lon="-3.383549"><ele>371</ele><time>2020-09-03T13:20:58Z</time><name>PT3972</name></trkpt>
<trkpt lat="52.922423" lon="-3.383593"><ele>373</ele><time>2020-09-03T13:21:01Z</time><name>PT3973</name></trkpt>
<trkpt lat="52.922465" lon="-3.383645"><ele>374</ele><time>2020-09-03T13:21:05Z</time><name>PT3974</name></trkpt>
<trkpt lat="52.922496" lon="-3.383673"><ele>374</ele><time>2020-09-03T13:21:08Z</time><name>PT3975</name></trkpt>
<trkpt lat="52.922524" lon="-3.383709"><ele>375</ele><time>2020-09-03T13:21:11Z</time><name>PT3976</name></trkpt>
<trkpt lat="52.922557" lon="-3.383761"><ele>374</ele><time>2020-09-03T13:21:14Z</time><name>PT3977</name></trkpt>
<trkpt lat="52.922584" lon="-3.383796"><ele>375</ele><time>2020-09-03T13:21:17Z</time><name>PT3978</name></trkpt>
<trkpt lat="52.922610" lon="-3.383838"><ele>376</ele><time>2020-09-03T13:21:21Z</time><name>PT3979</name></trkpt>
<trkpt lat="52.922636" lon="-3.383903"><ele>377</ele><time>2020-09-03T13:21:25Z</time><name>PT3980</name></trkpt>
<trkpt lat="52.922660" lon="-3.383980"><ele>378</ele><time>2020-09-03T13:21:29Z</time><name>PT3981</name></trkpt>
<trkpt lat="52.922678" lon="-3.384042"><ele>379</ele><time>2020-09-03T13:21:33Z</time><name>PT3982</name></trkpt>
<trkpt lat="52.922692" lon="-3.384112"><ele>380</ele><time>2020-09-03T13:21:37Z</time><name>PT3983</name></trkpt>
<trkpt lat="52.922692" lon="-3.384156"><ele>378</ele><time>2020-09-03T13:21:40Z</time><name>PT3984</name></trkpt>
<trkpt lat="52.922711" lon="-3.384180"><ele>377</ele><time>2020-09-03T13:21:44Z</time><name>PT3985</name></trkpt>
<trkpt lat="52.922708" lon="-3.384253"><ele>376</ele><time>2020-09-03T13:21:48Z</time><name>PT3986</name></trkpt>
<trkpt lat="52.922715" lon="-3.384322"><ele>376</ele><time>2020-09-03T13:21:52Z</time><name>PT3987</name></trkpt>
<trkpt lat="52.922722" lon="-3.384374"><ele>377</ele><time>2020-09-03T13:21:56Z</time><name>PT3988</name></trkpt>
<trkpt lat="52.922732" lon="-3.384445"><ele>376</ele><time>2020-09-03T13:22:00Z</time><name>PT3989</name></trkpt>
<trkpt lat="52.922744" lon="-3.384524"><ele>377</ele><time>2020-09-03T13:22:04Z</time><name>PT3990</name></trkpt>
<trkpt lat="52.922753" lon="-3.384612"><ele>378</ele><time>2020-09-03T13:22:08Z</time><name>PT3991</name></trkpt>
<trkpt lat="52.922764" lon="-3.384695"><ele>379</ele><time>2020-09-03T13:22:12Z</time><name>PT3992</name></trkpt>
<trkpt lat="52.922778" lon="-3.384761"><ele>379</ele><time>2020-09-03T13:22:16Z</time><name>PT3993</name></trkpt>
<trkpt lat="52.922799" lon="-3.384820"><ele>380</ele><time>2020-09-03T13:22:20Z</time><name>PT3994</name></trkpt>
<trkpt lat="52.922801" lon="-3.384852"><ele>380</ele><time>2020-09-03T13:22:23Z</time><name>PT3995</name></trkpt>
<trkpt lat="52.922815" lon="-3.384925"><ele>380</ele><time>2020-09-03T13:22:27Z</time><name>PT3996</name></trkpt>
<trkpt lat="52.922820" lon="-3.385004"><ele>379</ele><time>2020-09-03T13:22:31Z</time><name>PT3997</name></trkpt>
<trkpt lat="52.922834" lon="-3.385064"><ele>378</ele><time>2020-09-03T13:22:35Z</time><name>PT3998</name></trkpt>
<trkpt lat="52.922861" lon="-3.385128"><ele>379</ele><time>2020-09-03T13:22:39Z</time><name>PT3999</name></trkpt>
<trkpt lat="52.922879" lon="-3.385208"><ele>379</ele><time>2020-09-03T13:22:43Z</time><name>PT4000</name></trkpt>
<trkpt lat="52.922891" lon="-3.385291"><ele>379</ele><time>2020-09-03T13:22:46Z</time><name>PT4001</name></trkpt>
<trkpt lat="52.922908" lon="-3.385342"><ele>379</ele><time>2020-09-03T13:22:50Z</time><name>PT4002</name></trkpt>
<trkpt lat="52.922922" lon="-3.385399"><ele>379</ele><time>2020-09-03T13:22:54Z</time><name>PT4003</name></trkpt>
<trkpt lat="52.922942" lon="-3.385465"><ele>379</ele><time>2020-09-03T13:22:58Z</time><name>PT4004</name></trkpt>
<trkpt lat="52.922959" lon="-3.385525"><ele>379</ele><time>2020-09-03T13:23:01Z</time><name>PT4005</name></trkpt>
<trkpt lat="52.922967" lon="-3.385575"><ele>378</ele><time>2020-09-03T13:23:05Z</time><name>PT4006</name></trkpt>
<trkpt lat="52.922977" lon="-3.385615"><ele>378</ele><time>2020-09-03T13:23:08Z</time><name>PT4007</name></trkpt>
<trkpt lat="52.922996" lon="-3.385684"><ele>379</ele><time>2020-09-03T13:23:12Z</time><name>PT4008</name></trkpt>
<trkpt lat="52.923014" lon="-3.385742"><ele>380</ele><time>2020-09-03T13:23:16Z</time><name>PT4009</name></trkpt>
<trkpt lat="52.923043" lon="-3.385794"><ele>379</ele><time>2020-09-03T13:23:20Z</time><name>PT4010</name></trkpt>
<trkpt lat="52.923052" lon="-3.385876"><ele>380</ele><time>2020-09-03T13:23:24Z</time><name>PT4011</name></trkpt>
<trkpt lat="52.923061" lon="-3.385951"><ele>381</ele><time>2020-09-03T13:23:28Z</time><name>PT4012</name></trkpt>
<trkpt lat="52.923077" lon="-3.386022"><ele>382</ele><time>2020-09-03T13:23:32Z</time><name>PT4013</name></trkpt>
<trkpt lat="52.923098" lon="-3.386097"><ele>382</ele><time>2020-09-03T13:23:36Z</time><name>PT4014</name></trkpt>
<trkpt lat="52.923111" lon="-3.386156"><ele>383</ele><time>2020-09-03T13:23:40Z</time><name>PT4015</name></trkpt>
<trkpt lat="52.923131" lon="-3.386210"><ele>384</ele><time>2020-09-03T13:23:44Z</time><name>PT4016</name></trkpt>
<trkpt lat="52.923143" lon="-3.386244"><ele>383</ele><time>2020-09-03T13:23:47Z</time><name>PT4017</name></trkpt>
<trkpt lat="52.923163" lon="-3.386272"><ele>383</ele><time>2020-09-03T13:23:50Z</time><name>PT4018</name></trkpt>
<trkpt lat="52.923182" lon="-3.386338"><ele>383</ele><time>2020-09-03T13:23:53Z</time><name>PT4019</name></trkpt>
<trkpt lat="52.923197" lon="-3.386390"><ele>383</ele><time>2020-09-03T13:23:57Z</time><name>PT4020</name></trkpt>
<trkpt lat="52.923217" lon="-3.386437"><ele>384</ele><time>2020-09-03T13:24:00Z</time><name>PT4021</name></trkpt>
<trkpt lat="52.923235" lon="-3.386496"><ele>385</ele><time>2020-09-03T13:24:03Z</time><name>PT4022</name></trkpt>
<trkpt lat="52.923244" lon="-3.386555"><ele>386</ele><time>2020-09-03T13:24:06Z</time><name>PT4023</name></trkpt>
<trkpt lat="52.923251" lon="-3.386599"><ele>386</ele><time>2020-09-03T13:24:09Z</time><name>PT4024</name></trkpt>
<trkpt lat="52.923260" lon="-3.386653"><ele>387</ele><time>2020-09-03T13:24:14Z</time><name>PT4025</name></trkpt>
<trkpt lat="52.923265" lon="-3.386715"><ele>387</ele><time>2020-09-03T13:24:18Z</time><name>PT4026</name></trkpt>
<trkpt lat="52.923269" lon="-3.386774"><ele>386</ele><time>2020-09-03T13:24:21Z</time><name>PT4027</name></trkpt>
<trkpt lat="52.923292" lon="-3.386837"><ele>391</ele><time>2020-09-03T13:24:25Z</time><name>PT4028</name></trkpt>
<trkpt lat="52.923303" lon="-3.386888"><ele>391</ele><time>2020-09-03T13:24:28Z</time><name>PT4029</name></trkpt>
<trkpt lat="52.923317" lon="-3.386949"><ele>390</ele><time>2020-09-03T13:24:32Z</time><name>PT4030</name></trkpt>
<trkpt lat="52.923327" lon="-3.387001"><ele>390</ele><time>2020-09-03T13:24:35Z</time><name>PT4031</name></trkpt>
<trkpt lat="52.923342" lon="-3.387075"><ele>390</ele><time>2020-09-03T13:24:39Z</time><name>PT4032</name></trkpt>
<trkpt lat="52.923345" lon="-3.387145"><ele>390</ele><time>2020-09-03T13:24:43Z</time><name>PT4033</name></trkpt>
<trkpt lat="52.923358" lon="-3.387206"><ele>390</ele><time>2020-09-03T13:24:47Z</time><name>PT4034</name></trkpt>
<trkpt lat="52.923363" lon="-3.387263"><ele>389</ele><time>2020-09-03T13:24:50Z</time><name>PT4035</name></trkpt>
<trkpt lat="52.923381" lon="-3.387325"><ele>390</ele><time>2020-09-03T13:24:55Z</time><name>PT4036</name></trkpt>
<trkpt lat="52.923398" lon="-3.387387"><ele>392</ele><time>2020-09-03T13:24:58Z</time><name>PT4037</name></trkpt>
<trkpt lat="52.923411" lon="-3.387432"><ele>392</ele><time>2020-09-03T13:25:01Z</time><name>PT4038</name></trkpt>
<trkpt lat="52.923422" lon="-3.387488"><ele>393</ele><time>2020-09-03T13:25:04Z</time><name>PT4039</name></trkpt>
<trkpt lat="52.923439" lon="-3.387561"><ele>395</ele><time>2020-09-03T13:25:08Z</time><name>PT4040</name></trkpt>
<trkpt lat="52.923454" lon="-3.387656"><ele>398</ele><time>2020-09-03T13:25:12Z</time><name>PT4041</name></trkpt>
<trkpt lat="52.923467" lon="-3.387708"><ele>399</ele><time>2020-09-03T13:25:15Z</time><name>PT4042</name></trkpt>
<trkpt lat="52.923479" lon="-3.387790"><ele>400</ele><time>2020-09-03T13:25:19Z</time><name>PT4043</name></trkpt>
<trkpt lat="52.923496" lon="-3.387844"><ele>400</ele><time>2020-09-03T13:25:22Z</time><name>PT4044</name></trkpt>
<trkpt lat="52.923505" lon="-3.387913"><ele>399</ele><time>2020-09-03T13:25:26Z</time><name>PT4045</name></trkpt>
<trkpt lat="52.923525" lon="-3.387991"><ele>401</ele><time>2020-09-03T13:25:30Z</time><name>PT4046</name></trkpt>
<trkpt lat="52.923545" lon="-3.388076"><ele>402</ele><time>2020-09-03T13:25:34Z</time><name>PT4047</name></trkpt>
<trkpt lat="52.923549" lon="-3.388157"><ele>402</ele><time>2020-09-03T13:25:38Z</time><name>PT4048</name></trkpt>
<trkpt lat="52.923559" lon="-3.388230"><ele>401</ele><time>2020-09-03T13:25:42Z</time><name>PT4049</name></trkpt>
<trkpt lat="52.923582" lon="-3.388306"><ele>401</ele><time>2020-09-03T13:25:46Z</time><name>PT4050</name></trkpt>
<trkpt lat="52.923602" lon="-3.388373"><ele>402</ele><time>2020-09-03T13:25:50Z</time><name>PT4051</name></trkpt>
<trkpt lat="52.923612" lon="-3.388439"><ele>400</ele><time>2020-09-03T13:25:54Z</time><name>PT4052</name></trkpt>
<trkpt lat="52.923635" lon="-3.388494"><ele>400</ele><time>2020-09-03T13:25:57Z</time><name>PT4053</name></trkpt>
<trkpt lat="52.923654" lon="-3.388542"><ele>400</ele><time>2020-09-03T13:26:00Z</time><name>PT4054</name></trkpt>
<trkpt lat="52.923664" lon="-3.388592"><ele>399</ele><time>2020-09-03T13:26:03Z</time><name>PT4055</name></trkpt>
<trkpt lat="52.923698" lon="-3.388659"><ele>402</ele><time>2020-09-03T13:26:06Z</time><name>PT4056</name></trkpt>
<trkpt lat="52.923724" lon="-3.388695"><ele>404</ele><time>2020-09-03T13:26:10Z</time><name>PT4057</name></trkpt>
<trkpt lat="52.923751" lon="-3.388773"><ele>404</ele><time>2020-09-03T13:26:14Z</time><name>PT4058</name></trkpt>
<trkpt lat="52.923766" lon="-3.388828"><ele>404</ele><time>2020-09-03T13:26:17Z</time><name>PT4059</name></trkpt>
<trkpt lat="52.923785" lon="-3.388897"><ele>404</ele><time>2020-09-03T13:26:21Z</time><name>PT4060</name></trkpt>
<trkpt lat="52.923812" lon="-3.388952"><ele>405</ele><time>2020-09-03T13:26:24Z</time><name>PT4061</name></trkpt>
<trkpt lat="52.923828" lon="-3.389015"><ele>406</ele><time>2020-09-03T13:26:28Z</time><name>PT4062</name></trkpt>
<trkpt lat="52.923831" lon="-3.389034"><ele>405</ele><time>2020-09-03T13:26:32Z</time><name>PT4063</name></trkpt>
<trkpt lat="52.923835" lon="-3.389046"><ele>405</ele><time>2020-09-03T13:27:05Z</time><name>PT4064</name></trkpt>
<trkpt lat="52.923859" lon="-3.389124"><ele>405</ele><time>2020-09-03T13:27:09Z</time><name>PT4065</name></trkpt>
<trkpt lat="52.923876" lon="-3.389181"><ele>404</ele><time>2020-09-03T13:27:13Z</time><name>PT4066</name></trkpt>
<trkpt lat="52.923889" lon="-3.389247"><ele>404</ele><time>2020-09-03T13:27:17Z</time><name>PT4067</name></trkpt>
<trkpt lat="52.923904" lon="-3.389298"><ele>404</ele><time>2020-09-03T13:27:20Z</time><name>PT4068</name></trkpt>
<trkpt lat="52.923921" lon="-3.389371"><ele>404</ele><time>2020-09-03T13:27:23Z</time><name>PT4069</name></trkpt>
<trkpt lat="52.923930" lon="-3.389393"><ele>404</ele><time>2020-09-03T13:27:27Z</time><name>PT4070</name></trkpt>
<trkpt lat="52.923944" lon="-3.389447"><ele>405</ele><time>2020-09-03T13:27:31Z</time><name>PT4071</name></trkpt>
<trkpt lat="52.923951" lon="-3.389520"><ele>405</ele><time>2020-09-03T13:27:35Z</time><name>PT4072</name></trkpt>
<trkpt lat="52.923962" lon="-3.389592"><ele>405</ele><time>2020-09-03T13:27:39Z</time><name>PT4073</name></trkpt>
<trkpt lat="52.923958" lon="-3.389675"><ele>403</ele><time>2020-09-03T13:27:43Z</time><name>PT4074</name></trkpt>
<trkpt lat="52.923963" lon="-3.389751"><ele>403</ele><time>2020-09-03T13:27:47Z</time><name>PT4075</name></trkpt>
<trkpt lat="52.923967" lon="-3.389813"><ele>402</ele><time>2020-09-03T13:27:51Z</time><name>PT4076</name></trkpt>
<trkpt lat="52.923971" lon="-3.389881"><ele>403</ele><time>2020-09-03T13:27:55Z</time><name>PT4077</name></trkpt>
<trkpt lat="52.923977" lon="-3.389943"><ele>404</ele><time>2020-09-03T13:27:59Z</time><name>PT4078</name></trkpt>
<trkpt lat="52.923982" lon="-3.390035"><ele>405</ele><time>2020-09-03T13:28:03Z</time><name>PT4079</name></trkpt>
<trkpt lat="52.923976" lon="-3.390095"><ele>405</ele><time>2020-09-03T13:28:07Z</time><name>PT4080</name></trkpt>
<trkpt lat="52.923985" lon="-3.390181"><ele>406</ele><time>2020-09-03T13:28:11Z</time><name>PT4081</name></trkpt>
<trkpt lat="52.923981" lon="-3.390266"><ele>406</ele><time>2020-09-03T13:28:15Z</time><name>PT4082</name></trkpt>
<trkpt lat="52.923986" lon="-3.390342"><ele>404</ele><time>2020-09-03T13:28:19Z</time><name>PT4083</name></trkpt>
<trkpt lat="52.923971" lon="-3.390407"><ele>403</ele><time>2020-09-03T13:28:23Z</time><name>PT4084</name></trkpt>
<trkpt lat="52.923960" lon="-3.390474"><ele>402</ele><time>2020-09-03T13:28:27Z</time><name>PT4085</name></trkpt>
<trkpt lat="52.923952" lon="-3.390536"><ele>401</ele><time>2020-09-03T13:28:31Z</time><name>PT4086</name></trkpt>
<trkpt lat="52.923942" lon="-3.390611"><ele>400</ele><time>2020-09-03T13:28:35Z</time><name>PT4087</name></trkpt>
<trkpt lat="52.923935" lon="-3.390680"><ele>400</ele><time>2020-09-03T13:28:39Z</time><name>PT4088</name></trkpt>
<trkpt lat="52.923936" lon="-3.390763"><ele>400</ele><time>2020-09-03T13:28:43Z</time><name>PT4089</name></trkpt>
<trkpt lat="52.923940" lon="-3.390835"><ele>400</ele><time>2020-09-03T13:28:47Z</time><name>PT4090</name></trkpt>
<trkpt lat="52.923947" lon="-3.390909"><ele>399</ele><time>2020-09-03T13:28:51Z</time><name>PT4091</name></trkpt>
<trkpt lat="52.923937" lon="-3.390968"><ele>398</ele><time>2020-09-03T13:28:55Z</time><name>PT4092</name></trkpt>
<trkpt lat="52.923939" lon="-3.391056"><ele>399</ele><time>2020-09-03T13:28:59Z</time><name>PT4093</name></trkpt>
<trkpt lat="52.923957" lon="-3.391121"><ele>400</ele><time>2020-09-03T13:29:03Z</time><name>PT4094</name></trkpt>
<trkpt lat="52.923966" lon="-3.391168"><ele>400</ele><time>2020-09-03T13:29:07Z</time><name>PT4095</name></trkpt>
<trkpt lat="52.923971" lon="-3.391248"><ele>400</ele><time>2020-09-03T13:29:11Z</time><name>PT4096</name></trkpt>
<trkpt lat="52.923979" lon="-3.391331"><ele>399</ele><time>2020-09-03T13:29:15Z</time><name>PT4097</name></trkpt>
<trkpt lat="52.923996" lon="-3.391391"><ele>400</ele><time>2020-09-03T13:29:19Z</time><name>PT4098</name></trkpt>
<trkpt lat="52.924007" lon="-3.391460"><ele>400</ele><time>2020-09-03T13:29:23Z</time><name>PT4099</name></trkpt>
<trkpt lat="52.924025" lon="-3.391535"><ele>401</ele><time>2020-09-03T13:29:27Z</time><name>PT4100</name></trkpt>
<trkpt lat="52.924023" lon="-3.391613"><ele>401</ele><time>2020-09-03T13:29:31Z</time><name>PT4101</name></trkpt>
<trkpt lat="52.924033" lon="-3.391702"><ele>400</ele><time>2020-09-03T13:29:35Z</time><name>PT4102</name></trkpt>
<trkpt lat="52.924047" lon="-3.391772"><ele>399</ele><time>2020-09-03T13:29:39Z</time><name>PT4103</name></trkpt>
<trkpt lat="52.924066" lon="-3.391857"><ele>400</ele><time>2020-09-03T13:29:43Z</time><name>PT4104</name></trkpt>
<trkpt lat="52.924091" lon="-3.391936"><ele>401</ele><time>2020-09-03T13:29:47Z</time><name>PT4105</name></trkpt>
<trkpt lat="52.924097" lon="-3.391999"><ele>401</ele><time>2020-09-03T13:29:50Z</time><name>PT4106</name></trkpt>
<trkpt lat="52.924108" lon="-3.392072"><ele>400</ele><time>2020-09-03T13:29:54Z</time><name>PT4107</name></trkpt>
<trkpt lat="52.924117" lon="-3.392159"><ele>399</ele><time>2020-09-03T13:29:58Z</time><name>PT4108</name></trkpt>
<trkpt lat="52.924119" lon="-3.392224"><ele>398</ele><time>2020-09-03T13:30:01Z</time><name>PT4109</name></trkpt>
<trkpt lat="52.924135" lon="-3.392326"><ele>400</ele><time>2020-09-03T13:30:05Z</time><name>PT4110</name></trkpt>
<trkpt lat="52.924146" lon="-3.392406"><ele>399</ele><time>2020-09-03T13:30:09Z</time><name>PT4111</name></trkpt>
<trkpt lat="52.924154" lon="-3.392482"><ele>400</ele><time>2020-09-03T13:30:13Z</time><name>PT4112</name></trkpt>
<trkpt lat="52.924165" lon="-3.392569"><ele>400</ele><time>2020-09-03T13:30:17Z</time><name>PT4113</name></trkpt>
<trkpt lat="52.924173" lon="-3.392663"><ele>399</ele><time>2020-09-03T13:30:21Z</time><name>PT4114</name></trkpt>
<trkpt lat="52.924189" lon="-3.392756"><ele>399</ele><time>2020-09-03T13:30:25Z</time><name>PT4115</name></trkpt>
<trkpt lat="52.924199" lon="-3.392841"><ele>398</ele><time>2020-09-03T13:30:29Z</time><name>PT4116</name></trkpt>
<trkpt lat="52.924215" lon="-3.392921"><ele>398</ele><time>2020-09-03T13:30:33Z</time><name>PT4117</name></trkpt>
<trkpt lat="52.924226" lon="-3.393022"><ele>398</ele><time>2020-09-03T13:30:37Z</time><name>PT4118</name></trkpt>
<trkpt lat="52.924236" lon="-3.393113"><ele>398</ele><time>2020-09-03T13:30:41Z</time><name>PT4119</name></trkpt>
<trkpt lat="52.924237" lon="-3.393216"><ele>397</ele><time>2020-09-03T13:30:45Z</time><name>PT4120</name></trkpt>
<trkpt lat="52.924241" lon="-3.393303"><ele>396</ele><time>2020-09-03T13:30:49Z</time><name>PT4121</name></trkpt>
<trkpt lat="52.924246" lon="-3.393392"><ele>395</ele><time>2020-09-03T13:30:53Z</time><name>PT4122</name></trkpt>
<trkpt lat="52.924257" lon="-3.393477"><ele>395</ele><time>2020-09-03T13:30:57Z</time><name>PT4123</name></trkpt>
<trkpt lat="52.924256" lon="-3.393542"><ele>394</ele><time>2020-09-03T13:31:00Z</time><name>PT4124</name></trkpt>
<trkpt lat="52.924256" lon="-3.393622"><ele>394</ele><time>2020-09-03T13:31:04Z</time><name>PT4125</name></trkpt>
<trkpt lat="52.924274" lon="-3.393694"><ele>395</ele><time>2020-09-03T13:31:08Z</time><name>PT4126</name></trkpt>
<trkpt lat="52.924292" lon="-3.393764"><ele>393</ele><time>2020-09-03T13:31:12Z</time><name>PT4127</name></trkpt>
<trkpt lat="52.924319" lon="-3.393856"><ele>392</ele><time>2020-09-03T13:31:16Z</time><name>PT4128</name></trkpt>
<trkpt lat="52.924337" lon="-3.393904"><ele>391</ele><time>2020-09-03T13:31:18Z</time><name>PT4129</name></trkpt>
<trkpt lat="52.924345" lon="-3.393922"><ele>391</ele><time>2020-09-03T13:31:18Z</time><name>PT4130</name></trkpt>
<trkpt lat="52.924351" lon="-3.393938"><ele>391</ele><time>2020-09-03T13:31:20Z</time><name>PT4131</name></trkpt>
<trkpt lat="52.924356" lon="-3.393955"><ele>391</ele><time>2020-09-03T13:31:20Z</time><name>PT4132</name></trkpt>
<trkpt lat="52.924363" lon="-3.393975"><ele>390</ele><time>2020-09-03T13:31:22Z</time><name>PT4133</name></trkpt>
<trkpt lat="52.924370" lon="-3.393995"><ele>390</ele><time>2020-09-03T13:31:22Z</time><name>PT4134</name></trkpt>
<trkpt lat="52.924374" lon="-3.394017"><ele>390</ele><time>2020-09-03T13:31:24Z</time><name>PT4135</name></trkpt>
<trkpt lat="52.924380" lon="-3.394036"><ele>390</ele><time>2020-09-03T13:31:24Z</time><name>PT4136</name></trkpt>
<trkpt lat="52.924386" lon="-3.394057"><ele>390</ele><time>2020-09-03T13:31:26Z</time><name>PT4137</name></trkpt>
<trkpt lat="52.924388" lon="-3.394075"><ele>390</ele><time>2020-09-03T13:31:26Z</time><name>PT4138</name></trkpt>
<trkpt lat="52.924390" lon="-3.394083"><ele>390</ele><time>2020-09-03T13:31:28Z</time><name>PT4139</name></trkpt>
<trkpt lat="52.924394" lon="-3.394079"><ele>390</ele><time>2020-09-03T13:31:28Z</time><name>PT4140</name></trkpt>
<trkpt lat="52.924394" lon="-3.394076"><ele>390</ele><time>2020-09-03T13:31:30Z</time><name>PT4141</name></trkpt>
<trkpt lat="52.924395" lon="-3.394074"><ele>390</ele><time>2020-09-03T13:31:30Z</time><name>PT4142</name></trkpt>
<trkpt lat="52.924394" lon="-3.394078"><ele>390</ele><time>2020-09-03T13:31:32Z</time><name>PT4143</name></trkpt>
<trkpt lat="52.924394" lon="-3.394080"><ele>390</ele><time>2020-09-03T13:31:32Z</time><name>PT4144</name></trkpt>
<trkpt lat="52.924396" lon="-3.394076"><ele>390</ele><time>2020-09-03T13:31:34Z</time><name>PT4145</name></trkpt>
<trkpt lat="52.924397" lon="-3.394081"><ele>390</ele><time>2020-09-03T13:31:34Z</time><name>PT4146</name></trkpt>
<trkpt lat="52.924400" lon="-3.394086"><ele>390</ele><time>2020-09-03T13:31:36Z</time><name>PT4147</name></trkpt>
<trkpt lat="52.924404" lon="-3.394103"><ele>390</ele><time>2020-09-03T13:31:36Z</time><name>PT4148</name></trkpt>
<trkpt lat="52.924410" lon="-3.394123"><ele>390</ele><time>2020-09-03T13:31:38Z</time><name>PT4149</name></trkpt>
<trkpt lat="52.924416" lon="-3.394142"><ele>390</ele><time>2020-09-03T13:31:38Z</time><name>PT4150</name></trkpt>
<trkpt lat="52.924419" lon="-3.394162"><ele>390</ele><time>2020-09-03T13:31:40Z</time><name>PT4151</name></trkpt>
<trkpt lat="52.924422" lon="-3.394182"><ele>390</ele><time>2020-09-03T13:31:40Z</time><name>PT4152</name></trkpt>
<trkpt lat="52.924428" lon="-3.394197"><ele>390</ele><time>2020-09-03T13:31:42Z</time><name>PT4153</name></trkpt>
<trkpt lat="52.924438" lon="-3.394214"><ele>391</ele><time>2020-09-03T13:31:42Z</time><name>PT4154</name></trkpt>
<trkpt lat="52.924439" lon="-3.394233"><ele>391</ele><time>2020-09-03T13:31:44Z</time><name>PT4155</name></trkpt>
<trkpt lat="52.924441" lon="-3.394254"><ele>390</ele><time>2020-09-03T13:31:44Z</time><name>PT4156</name></trkpt>
<trkpt lat="52.924443" lon="-3.394275"><ele>390</ele><time>2020-09-03T13:31:46Z</time><name>PT4157</name></trkpt>
<trkpt lat="52.924440" lon="-3.394298"><ele>389</ele><time>2020-09-03T13:31:47Z</time><name>PT4158</name></trkpt>
<trkpt lat="52.924441" lon="-3.394324"><ele>389</ele><time>2020-09-03T13:31:47Z</time><name>PT4159</name></trkpt>
<trkpt lat="52.924443" lon="-3.394349"><ele>389</ele><time>2020-09-03T13:31:49Z</time><name>PT4160</name></trkpt>
<trkpt lat="52.924444" lon="-3.394372"><ele>389</ele><time>2020-09-03T13:31:49Z</time><name>PT4161</name></trkpt>
<trkpt lat="52.924444" lon="-3.394397"><ele>389</ele><time>2020-09-03T13:31:51Z</time><name>PT4162</name></trkpt>
<trkpt lat="52.924446" lon="-3.394419"><ele>389</ele><time>2020-09-03T13:31:51Z</time><name>PT4163</name></trkpt>
<trkpt lat="52.924448" lon="-3.394441"><ele>388</ele><time>2020-09-03T13:31:53Z</time><name>PT4164</name></trkpt>
<trkpt lat="52.924448" lon="-3.394463"><ele>388</ele><time>2020-09-03T13:31:54Z</time><name>PT4165</name></trkpt>
<trkpt lat="52.924446" lon="-3.394486"><ele>388</ele><time>2020-09-03T13:31:54Z</time><name>PT4166</name></trkpt>
<trkpt lat="52.924448" lon="-3.394510"><ele>388</ele><time>2020-09-03T13:31:56Z</time><name>PT4167</name></trkpt>
<trkpt lat="52.924451" lon="-3.394527"><ele>389</ele><time>2020-09-03T13:31:56Z</time><name>PT4168</name></trkpt>
<trkpt lat="52.924457" lon="-3.394552"><ele>389</ele><time>2020-09-03T13:31:58Z</time><name>PT4169</name></trkpt>
<trkpt lat="52.924457" lon="-3.394577"><ele>389</ele><time>2020-09-03T13:31:58Z</time><name>PT4170</name></trkpt>
<trkpt lat="52.924461" lon="-3.394587"><ele>389</ele><time>2020-09-03T13:32:00Z</time><name>PT4171</name></trkpt>
<trkpt lat="52.924459" lon="-3.394606"><ele>389</ele><time>2020-09-03T13:32:01Z</time><name>PT4172</name></trkpt>
<trkpt lat="52.924453" lon="-3.394626"><ele>388</ele><time>2020-09-03T13:32:01Z</time><name>PT4173</name></trkpt>
<trkpt lat="52.924452" lon="-3.394649"><ele>388</ele><time>2020-09-03T13:32:03Z</time><name>PT4174</name></trkpt>
<trkpt lat="52.924451" lon="-3.394682"><ele>390</ele><time>2020-09-03T13:32:03Z</time><name>PT4175</name></trkpt>
<trkpt lat="52.924451" lon="-3.394704"><ele>390</ele><time>2020-09-03T13:32:05Z</time><name>PT4176</name></trkpt>
<trkpt lat="52.924452" lon="-3.394726"><ele>389</ele><time>2020-09-03T13:32:05Z</time><name>PT4177</name></trkpt>
<trkpt lat="52.924447" lon="-3.394744"><ele>389</ele><time>2020-09-03T13:32:07Z</time><name>PT4178</name></trkpt>
<trkpt lat="52.924431" lon="-3.394754"><ele>387</ele><time>2020-09-03T13:32:07Z</time><name>PT4179</name></trkpt>
<trkpt lat="52.924439" lon="-3.394778"><ele>389</ele><time>2020-09-03T13:32:09Z</time><name>PT4180</name></trkpt>
<trkpt lat="52.924442" lon="-3.394803"><ele>390</ele><time>2020-09-03T13:32:10Z</time><name>PT4181</name></trkpt>
<trkpt lat="52.924443" lon="-3.394828"><ele>390</ele><time>2020-09-03T13:32:11Z</time><name>PT4182</name></trkpt>
<trkpt lat="52.924444" lon="-3.394844"><ele>389</ele><time>2020-09-03T13:32:11Z</time><name>PT4183</name></trkpt>
<trkpt lat="52.924445" lon="-3.394862"><ele>390</ele><time>2020-09-03T13:32:13Z</time><name>PT4184</name></trkpt>
<trkpt lat="52.924448" lon="-3.394882"><ele>390</ele><time>2020-09-03T13:32:13Z</time><name>PT4185</name></trkpt>
<trkpt lat="52.924453" lon="-3.394906"><ele>391</ele><time>2020-09-03T13:32:15Z</time><name>PT4186</name></trkpt>
<trkpt lat="52.924456" lon="-3.394928"><ele>391</ele><time>2020-09-03T13:32:16Z</time><name>PT4187</name></trkpt>
<trkpt lat="52.924452" lon="-3.394949"><ele>391</ele><time>2020-09-03T13:32:17Z</time><name>PT4188</name></trkpt>
<trkpt lat="52.924451" lon="-3.394968"><ele>391</ele><time>2020-09-03T13:32:17Z</time><name>PT4189</name></trkpt>
<trkpt lat="52.924452" lon="-3.394989"><ele>391</ele><time>2020-09-03T13:32:19Z</time><name>PT4190</name></trkpt>
<trkpt lat="52.924451" lon="-3.395006"><ele>390</ele><time>2020-09-03T13:32:20Z</time><name>PT4191</name></trkpt>
<trkpt lat="52.924447" lon="-3.395031"><ele>390</ele><time>2020-09-03T13:32:21Z</time><name>PT4192</name></trkpt>
<trkpt lat="52.924445" lon="-3.395055"><ele>390</ele><time>2020-09-03T13:32:22Z</time><name>PT4193</name></trkpt>
<trkpt lat="52.924445" lon="-3.395077"><ele>390</ele><time>2020-09-03T13:32:23Z</time><name>PT4194</name></trkpt>
<trkpt lat="52.924444" lon="-3.395100"><ele>389</ele><time>2020-09-03T13:32:23Z</time><name>PT4195</name></trkpt>
<trkpt lat="52.924442" lon="-3.395121"><ele>389</ele><time>2020-09-03T13:32:25Z</time><name>PT4196</name></trkpt>
<trkpt lat="52.924437" lon="-3.395139"><ele>389</ele><time>2020-09-03T13:32:25Z</time><name>PT4197</name></trkpt>
<trkpt lat="52.924431" lon="-3.395160"><ele>389</ele><time>2020-09-03T13:32:27Z</time><name>PT4198</name></trkpt>
<trkpt lat="52.924428" lon="-3.395181"><ele>389</ele><time>2020-09-03T13:32:27Z</time><name>PT4199</name></trkpt>
<trkpt lat="52.924427" lon="-3.395199"><ele>389</ele><time>2020-09-03T13:32:29Z</time><name>PT4200</name></trkpt>
<trkpt lat="52.924422" lon="-3.395214"><ele>388</ele><time>2020-09-03T13:32:29Z</time><name>PT4201</name></trkpt>
<trkpt lat="52.924418" lon="-3.395243"><ele>387</ele><time>2020-09-03T13:32:31Z</time><name>PT4202</name></trkpt>
<trkpt lat="52.924418" lon="-3.395275"><ele>387</ele><time>2020-09-03T13:32:31Z</time><name>PT4203</name></trkpt>
<trkpt lat="52.924417" lon="-3.395296"><ele>386</ele><time>2020-09-03T13:32:33Z</time><name>PT4204</name></trkpt>
<trkpt lat="52.924417" lon="-3.395313"><ele>386</ele><time>2020-09-03T13:32:33Z</time><name>PT4205</name></trkpt>
<trkpt lat="52.924418" lon="-3.395334"><ele>386</ele><time>2020-09-03T13:32:35Z</time><name>PT4206</name></trkpt>
<trkpt lat="52.924417" lon="-3.395355"><ele>386</ele><time>2020-09-03T13:32:36Z</time><name>PT4207</name></trkpt>
<trkpt lat="52.924414" lon="-3.395378"><ele>385</ele><time>2020-09-03T13:32:36Z</time><name>PT4208</name></trkpt>
<trkpt lat="52.924411" lon="-3.395399"><ele>385</ele><time>2020-09-03T13:32:38Z</time><name>PT4209</name></trkpt>
<trkpt lat="52.924405" lon="-3.395417"><ele>385</ele><time>2020-09-03T13:32:39Z</time><name>PT4210</name></trkpt>
<trkpt lat="52.924402" lon="-3.395428"><ele>385</ele><time>2020-09-03T13:32:39Z</time><name>PT4211</name></trkpt>
<trkpt lat="52.924396" lon="-3.395441"><ele>385</ele><time>2020-09-03T13:32:41Z</time><name>PT4212</name></trkpt>
<trkpt lat="52.924393" lon="-3.395458"><ele>384</ele><time>2020-09-03T13:32:42Z</time><name>PT4213</name></trkpt>
<trkpt lat="52.924392" lon="-3.395482"><ele>385</ele><time>2020-09-03T13:32:42Z</time><name>PT4214</name></trkpt>
<trkpt lat="52.924388" lon="-3.395502"><ele>384</ele><time>2020-09-03T13:32:44Z</time><name>PT4215</name></trkpt>
<trkpt lat="52.924385" lon="-3.395521"><ele>384</ele><time>2020-09-03T13:32:44Z</time><name>PT4216</name></trkpt>
<trkpt lat="52.924368" lon="-3.395536"><ele>382</ele><time>2020-09-03T13:32:46Z</time><name>PT4217</name></trkpt>
<trkpt lat="52.924363" lon="-3.395549"><ele>382</ele><time>2020-09-03T13:32:47Z</time><name>PT4218</name></trkpt>
<trkpt lat="52.924361" lon="-3.395563"><ele>383</ele><time>2020-09-03T13:32:47Z</time><name>PT4219</name></trkpt>
<trkpt lat="52.924359" lon="-3.395579"><ele>382</ele><time>2020-09-03T13:32:49Z</time><name>PT4220</name></trkpt>
<trkpt lat="52.924356" lon="-3.395596"><ele>382</ele><time>2020-09-03T13:32:50Z</time><name>PT4221</name></trkpt>
<trkpt lat="52.924359" lon="-3.395609"><ele>383</ele><time>2020-09-03T13:32:50Z</time><name>PT4222</name></trkpt>
<trkpt lat="52.924357" lon="-3.395623"><ele>383</ele><time>2020-09-03T13:32:52Z</time><name>PT4223</name></trkpt>
<trkpt lat="52.924354" lon="-3.395644"><ele>384</ele><time>2020-09-03T13:32:52Z</time><name>PT4224</name></trkpt>
<trkpt lat="52.924356" lon="-3.395664"><ele>385</ele><time>2020-09-03T13:32:54Z</time><name>PT4225</name></trkpt>
<trkpt lat="52.924362" lon="-3.395680"><ele>386</ele><time>2020-09-03T13:32:54Z</time><name>PT4226</name></trkpt>
<trkpt lat="52.924368" lon="-3.395700"><ele>386</ele><time>2020-09-03T13:32:56Z</time><name>PT4227</name></trkpt>
<trkpt lat="52.924368" lon="-3.395726"><ele>386</ele><time>2020-09-03T13:32:56Z</time><name>PT4228</name></trkpt>
<trkpt lat="52.924365" lon="-3.395741"><ele>385</ele><time>2020-09-03T13:32:57Z</time><name>PT4229</name></trkpt>
<trkpt lat="52.924365" lon="-3.395755"><ele>386</ele><time>2020-09-03T13:32:59Z</time><name>PT4230</name></trkpt>
<trkpt lat="52.924363" lon="-3.395784"><ele>386</ele><time>2020-09-03T13:32:59Z</time><name>PT4231</name></trkpt>
<trkpt lat="52.924356" lon="-3.395799"><ele>386</ele><time>2020-09-03T13:33:01Z</time><name>PT4232</name></trkpt>
<trkpt lat="52.924359" lon="-3.395810"><ele>387</ele><time>2020-09-03T13:33:01Z</time><name>PT4233</name></trkpt>
<trkpt lat="52.924358" lon="-3.395825"><ele>386</ele><time>2020-09-03T13:33:03Z</time><name>PT4234</name></trkpt>
<trkpt lat="52.924363" lon="-3.395833"><ele>386</ele><time>2020-09-03T13:33:04Z</time><name>PT4235</name></trkpt>
<trkpt lat="52.924371" lon="-3.395846"><ele>387</ele><time>2020-09-03T13:33:04Z</time><name>PT4236</name></trkpt>
<trkpt lat="52.924377" lon="-3.395852"><ele>388</ele><time>2020-09-03T13:33:06Z</time><name>PT4237</name></trkpt>
<trkpt lat="52.924377" lon="-3.395855"><ele>388</ele><time>2020-09-03T13:33:06Z</time><name>PT4238</name></trkpt>
<trkpt lat="52.924377" lon="-3.395856"><ele>388</ele><time>2020-09-03T13:33:08Z</time><name>PT4239</name></trkpt>
<trkpt lat="52.924379" lon="-3.395860"><ele>388</ele><time>2020-09-03T13:33:08Z</time><name>PT4240</name></trkpt>
<trkpt lat="52.924379" lon="-3.395861"><ele>388</ele><time>2020-09-03T13:33:10Z</time><name>PT4241</name></trkpt>
<trkpt lat="52.924380" lon="-3.395861"><ele>387</ele><time>2020-09-03T13:33:12Z</time><name>PT4242</name></trkpt>
<trkpt lat="52.924383" lon="-3.395869"><ele>387</ele><time>2020-09-03T13:33:14Z</time><name>PT4243</name></trkpt>
<trkpt lat="52.924384" lon="-3.395873"><ele>386</ele><time>2020-09-03T13:33:15Z</time><name>PT4244</name></trkpt>
<trkpt lat="52.924389" lon="-3.395877"><ele>387</ele><time>2020-09-03T13:33:15Z</time><name>PT4245</name></trkpt>
<trkpt lat="52.924392" lon="-3.395885"><ele>387</ele><time>2020-09-03T13:33:17Z</time><name>PT4246</name></trkpt>
<trkpt lat="52.924392" lon="-3.395891"><ele>386</ele><time>2020-09-03T13:33:17Z</time><name>PT4247</name></trkpt>
<trkpt lat="52.924393" lon="-3.395903"><ele>386</ele><time>2020-09-03T13:33:19Z</time><name>PT4248</name></trkpt>
<trkpt lat="52.924395" lon="-3.395912"><ele>386</ele><time>2020-09-03T13:33:19Z</time><name>PT4249</name></trkpt>
<trkpt lat="52.924397" lon="-3.395919"><ele>385</ele><time>2020-09-03T13:33:21Z</time><name>PT4250</name></trkpt>
<trkpt lat="52.924409" lon="-3.395905"><ele>386</ele><time>2020-09-03T13:33:22Z</time><name>PT4251</name></trkpt>
<trkpt lat="52.924417" lon="-3.395909"><ele>387</ele><time>2020-09-03T13:33:22Z</time><name>PT4252</name></trkpt>
<trkpt lat="52.924424" lon="-3.395918"><ele>387</ele><time>2020-09-03T13:33:24Z</time><name>PT4253</name></trkpt>
<trkpt lat="52.924425" lon="-3.395936"><ele>387</ele><time>2020-09-03T13:33:25Z</time><name>PT4254</name></trkpt>
<trkpt lat="52.924430" lon="-3.395952"><ele>387</ele><time>2020-09-03T13:33:25Z</time><name>PT4255</name></trkpt>
<trkpt lat="52.924434" lon="-3.395964"><ele>387</ele><time>2020-09-03T13:33:27Z</time><name>PT4256</name></trkpt>
<trkpt lat="52.924428" lon="-3.395970"><ele>385</ele><time>2020-09-03T13:33:27Z</time><name>PT4257</name></trkpt>
<trkpt lat="52.924425" lon="-3.395979"><ele>385</ele><time>2020-09-03T13:33:29Z</time><name>PT4258</name></trkpt>
<trkpt lat="52.924429" lon="-3.395991"><ele>384</ele><time>2020-09-03T13:33:29Z</time><name>PT4259</name></trkpt>
<trkpt lat="52.924438" lon="-3.396004"><ele>385</ele><time>2020-09-03T13:33:31Z</time><name>PT4260</name></trkpt>
<trkpt lat="52.924445" lon="-3.396014"><ele>385</ele><time>2020-09-03T13:33:32Z</time><name>PT4261</name></trkpt>
<trkpt lat="52.924451" lon="-3.396024"><ele>385</ele><time>2020-09-03T13:33:32Z</time><name>PT4262</name></trkpt>
<trkpt lat="52.924453" lon="-3.396035"><ele>385</ele><time>2020-09-03T13:33:34Z</time><name>PT4263</name></trkpt>
<trkpt lat="52.924464" lon="-3.396038"><ele>385</ele><time>2020-09-03T13:33:35Z</time><name>PT4264</name></trkpt>
<trkpt lat="52.924469" lon="-3.396044"><ele>385</ele><time>2020-09-03T13:33:35Z</time><name>PT4265</name></trkpt>
<trkpt lat="52.924476" lon="-3.396055"><ele>386</ele><time>2020-09-03T13:33:37Z</time><name>PT4266</name></trkpt>
<trkpt lat="52.924484" lon="-3.396058"><ele>385</ele><time>2020-09-03T13:33:37Z</time><name>PT4267</name></trkpt>
<trkpt lat="52.924493" lon="-3.396063"><ele>385</ele><time>2020-09-03T13:33:39Z</time><name>PT4268</name></trkpt>
<trkpt lat="52.924496" lon="-3.396073"><ele>385</ele><time>2020-09-03T13:33:40Z</time><name>PT4269</name></trkpt>
<trkpt lat="52.924502" lon="-3.396082"><ele>385</ele><time>2020-09-03T13:33:40Z</time><name>PT4270</name></trkpt>
<trkpt lat="52.924508" lon="-3.396090"><ele>385</ele><time>2020-09-03T13:33:42Z</time><name>PT4271</name></trkpt>
<trkpt lat="52.924522" lon="-3.396098"><ele>386</ele><time>2020-09-03T13:33:43Z</time><name>PT4272</name></trkpt>
<trkpt lat="52.924532" lon="-3.396109"><ele>386</ele><time>2020-09-03T13:33:43Z</time><name>PT4273</name></trkpt>
<trkpt lat="52.924542" lon="-3.396119"><ele>387</ele><time>2020-09-03T13:33:45Z</time><name>PT4274</name></trkpt>
<trkpt lat="52.924549" lon="-3.396129"><ele>386</ele><time>2020-09-03T13:33:45Z</time><name>PT4275</name></trkpt>
<trkpt lat="52.924559" lon="-3.396129"><ele>386</ele><time>2020-09-03T13:33:46Z</time><name>PT4276</name></trkpt>
<trkpt lat="52.924568" lon="-3.396132"><ele>386</ele><time>2020-09-03T13:33:48Z</time><name>PT4277</name></trkpt>
<trkpt lat="52.924580" lon="-3.396139"><ele>387</ele><time>2020-09-03T13:33:48Z</time><name>PT4278</name></trkpt>
<trkpt lat="52.924598" lon="-3.396144"><ele>389</ele><time>2020-09-03T13:33:50Z</time><name>PT4279</name></trkpt>
<trkpt lat="52.924609" lon="-3.396150"><ele>390</ele><time>2020-09-03T13:33:51Z</time><name>PT4280</name></trkpt>
<trkpt lat="52.924621" lon="-3.396156"><ele>391</ele><time>2020-09-03T13:33:51Z</time><name>PT4281</name></trkpt>
<trkpt lat="52.924624" lon="-3.396164"><ele>390</ele><time>2020-09-03T13:33:53Z</time><name>PT4282</name></trkpt>
<trkpt lat="52.924637" lon="-3.396172"><ele>390</ele><time>2020-09-03T13:33:53Z</time><name>PT4283</name></trkpt>
<trkpt lat="52.924654" lon="-3.396178"><ele>390</ele><time>2020-09-03T13:33:55Z</time><name>PT4284</name></trkpt>
<trkpt lat="52.924666" lon="-3.396189"><ele>391</ele><time>2020-09-03T13:33:55Z</time><name>PT4285</name></trkpt>
<trkpt lat="52.924677" lon="-3.396199"><ele>391</ele><time>2020-09-03T13:33:57Z</time><name>PT4286</name></trkpt>
<trkpt lat="52.924689" lon="-3.396213"><ele>392</ele><time>2020-09-03T13:33:57Z</time><name>PT4287</name></trkpt>
<trkpt lat="52.924700" lon="-3.396224"><ele>392</ele><time>2020-09-03T13:33:59Z</time><name>PT4288</name></trkpt>
<trkpt lat="52.924711" lon="-3.396231"><ele>391</ele><time>2020-09-03T13:33:59Z</time><name>PT4289</name></trkpt>
<trkpt lat="52.924719" lon="-3.396239"><ele>392</ele><time>2020-09-03T13:34:01Z</time><name>PT4290</name></trkpt>
<trkpt lat="52.924730" lon="-3.396248"><ele>392</ele><time>2020-09-03T13:34:02Z</time><name>PT4291</name></trkpt>
<trkpt lat="52.924737" lon="-3.396256"><ele>392</ele><time>2020-09-03T13:34:03Z</time><name>PT4292</name></trkpt>
<trkpt lat="52.924746" lon="-3.396263"><ele>391</ele><time>2020-09-03T13:34:04Z</time><name>PT4293</name></trkpt>
<trkpt lat="52.924757" lon="-3.396271"><ele>392</ele><time>2020-09-03T13:34:05Z</time><name>PT4294</name></trkpt>
<trkpt lat="52.924766" lon="-3.396285"><ele>391</ele><time>2020-09-03T13:34:06Z</time><name>PT4295</name></trkpt>
<trkpt lat="52.924774" lon="-3.396297"><ele>390</ele><time>2020-09-03T13:34:06Z</time><name>PT4296</name></trkpt>
<trkpt lat="52.924790" lon="-3.396308"><ele>390</ele><time>2020-09-03T13:34:08Z</time><name>PT4297</name></trkpt>
<trkpt lat="52.924793" lon="-3.396323"><ele>391</ele><time>2020-09-03T13:34:08Z</time><name>PT4298</name></trkpt>
<trkpt lat="52.924804" lon="-3.396333"><ele>390</ele><time>2020-09-03T13:34:10Z</time><name>PT4299</name></trkpt>
<trkpt lat="52.924812" lon="-3.396349"><ele>391</ele><time>2020-09-03T13:34:10Z</time><name>PT4300</name></trkpt>
<trkpt lat="52.924820" lon="-3.396365"><ele>391</ele><time>2020-09-03T13:34:12Z</time><name>PT4301</name></trkpt>
<trkpt lat="52.924831" lon="-3.396374"><ele>392</ele><time>2020-09-03T13:34:12Z</time><name>PT4302</name></trkpt>
<trkpt lat="52.924842" lon="-3.396381"><ele>392</ele><time>2020-09-03T13:34:14Z</time><name>PT4303</name></trkpt>
<trkpt lat="52.924851" lon="-3.396396"><ele>392</ele><time>2020-09-03T13:34:14Z</time><name>PT4304</name></trkpt>
<trkpt lat="52.924860" lon="-3.396412"><ele>392</ele><time>2020-09-03T13:34:16Z</time><name>PT4305</name></trkpt>
<trkpt lat="52.924872" lon="-3.396425"><ele>392</ele><time>2020-09-03T13:34:16Z</time><name>PT4306</name></trkpt>
<trkpt lat="52.924885" lon="-3.396436"><ele>393</ele><time>2020-09-03T13:34:18Z</time><name>PT4307</name></trkpt>
<trkpt lat="52.924918" lon="-3.396466"><ele>392</ele><time>2020-09-03T13:34:21Z</time><name>PT4308</name></trkpt>
<trkpt lat="52.924943" lon="-3.396523"><ele>390</ele><time>2020-09-03T13:34:24Z</time><name>PT4309</name></trkpt>
<trkpt lat="52.924959" lon="-3.396566"><ele>390</ele><time>2020-09-03T13:34:28Z</time><name>PT4310</name></trkpt>
<trkpt lat="52.924997" lon="-3.396612"><ele>389</ele><time>2020-09-03T13:34:32Z</time><name>PT4311</name></trkpt>
<trkpt lat="52.925047" lon="-3.396650"><ele>388</ele><time>2020-09-03T13:34:36Z</time><name>PT4312</name></trkpt>
<trkpt lat="52.925063" lon="-3.396661"><ele>388</ele><time>2020-09-03T13:34:39Z</time><name>PT4313</name></trkpt>
<trkpt lat="52.925070" lon="-3.396669"><ele>389</ele><time>2020-09-03T13:34:43Z</time><name>PT4314</name></trkpt>
<trkpt lat="52.925076" lon="-3.396685"><ele>388</ele><time>2020-09-03T13:34:47Z</time><name>PT4315</name></trkpt>
<trkpt lat="52.925086" lon="-3.396681"><ele>387</ele><time>2020-09-03T13:34:51Z</time><name>PT4316</name></trkpt>
<trkpt lat="52.925089" lon="-3.396711"><ele>387</ele><time>2020-09-03T13:34:54Z</time><name>PT4317</name></trkpt>
<trkpt lat="52.925115" lon="-3.396759"><ele>387</ele><time>2020-09-03T13:34:58Z</time><name>PT4318</name></trkpt>
<trkpt lat="52.925137" lon="-3.396796"><ele>387</ele><time>2020-09-03T13:35:01Z</time><name>PT4319</name></trkpt>
<trkpt lat="52.925168" lon="-3.396822"><ele>388</ele><time>2020-09-03T13:35:05Z</time><name>PT4320</name></trkpt>
<trkpt lat="52.925195" lon="-3.396832"><ele>388</ele><time>2020-09-03T13:35:08Z</time><name>PT4321</name></trkpt>
<trkpt lat="52.925222" lon="-3.396855"><ele>388</ele><time>2020-09-03T13:35:11Z</time><name>PT4322</name></trkpt>
<trkpt lat="52.925270" lon="-3.396881"><ele>388</ele><time>2020-09-03T13:35:15Z</time><name>PT4323</name></trkpt>
<trkpt lat="52.925314" lon="-3.396901"><ele>389</ele><time>2020-09-03T13:35:18Z</time><name>PT4324</name></trkpt>
<trkpt lat="52.925340" lon="-3.396922"><ele>392</ele><time>2020-09-03T13:35:22Z</time><name>PT4325</name></trkpt>
<trkpt lat="52.925383" lon="-3.396934"><ele>392</ele><time>2020-09-03T13:35:26Z</time><name>PT4326</name></trkpt>
<trkpt lat="52.925427" lon="-3.396936"><ele>392</ele><time>2020-09-03T13:35:30Z</time><name>PT4327</name></trkpt>
<trkpt lat="52.925478" lon="-3.396940"><ele>391</ele><time>2020-09-03T13:35:34Z</time><name>PT4328</name></trkpt>
<trkpt lat="52.925523" lon="-3.396946"><ele>389</ele><time>2020-09-03T13:35:38Z</time><name>PT4329</name></trkpt>
<trkpt lat="52.925574" lon="-3.396955"><ele>389</ele><time>2020-09-03T13:35:42Z</time><name>PT4330</name></trkpt>
<trkpt lat="52.925623" lon="-3.396959"><ele>390</ele><time>2020-09-03T13:35:46Z</time><name>PT4331</name></trkpt>
<trkpt lat="52.925661" lon="-3.396976"><ele>389</ele><time>2020-09-03T13:35:50Z</time><name>PT4332</name></trkpt>
<trkpt lat="52.925703" lon="-3.397009"><ele>389</ele><time>2020-09-03T13:35:54Z</time><name>PT4333</name></trkpt>
<trkpt lat="52.925755" lon="-3.397036"><ele>388</ele><time>2020-09-03T13:35:58Z</time><name>PT4334</name></trkpt>
<trkpt lat="52.925790" lon="-3.397076"><ele>387</ele><time>2020-09-03T13:36:02Z</time><name>PT4335</name></trkpt>
<trkpt lat="52.925820" lon="-3.397099"><ele>387</ele><time>2020-09-03T13:36:05Z</time><name>PT4336</name></trkpt>
<trkpt lat="52.925864" lon="-3.397131"><ele>386</ele><time>2020-09-03T13:36:09Z</time><name>PT4337</name></trkpt>
<trkpt lat="52.925898" lon="-3.397154"><ele>385</ele><time>2020-09-03T13:36:13Z</time><name>PT4338</name></trkpt>
<trkpt lat="52.925940" lon="-3.397201"><ele>385</ele><time>2020-09-03T13:36:17Z</time><name>PT4339</name></trkpt>
<trkpt lat="52.925982" lon="-3.397244"><ele>387</ele><time>2020-09-03T13:36:20Z</time><name>PT4340</name></trkpt>
<trkpt lat="52.926018" lon="-3.397293"><ele>385</ele><time>2020-09-03T13:36:24Z</time><name>PT4341</name></trkpt>
<trkpt lat="52.926051" lon="-3.397329"><ele>385</ele><time>2020-09-03T13:36:27Z</time><name>PT4342</name></trkpt>
<trkpt lat="52.926082" lon="-3.397377"><ele>385</ele><time>2020-09-03T13:36:31Z</time><name>PT4343</name></trkpt>
<trkpt lat="52.926118" lon="-3.397431"><ele>386</ele><time>2020-09-03T13:36:35Z</time><name>PT4344</name></trkpt>
<trkpt lat="52.926148" lon="-3.397462"><ele>386</ele><time>2020-09-03T13:36:38Z</time><name>PT4345</name></trkpt>
<trkpt lat="52.926188" lon="-3.397509"><ele>386</ele><time>2020-09-03T13:36:42Z</time><name>PT4346</name></trkpt>
<trkpt lat="52.926216" lon="-3.397567"><ele>385</ele><time>2020-09-03T13:36:46Z</time><name>PT4347</name></trkpt>
<trkpt lat="52.926262" lon="-3.397627"><ele>386</ele><time>2020-09-03T13:36:50Z</time><name>PT4348</name></trkpt>
<trkpt lat="52.926292" lon="-3.397678"><ele>386</ele><time>2020-09-03T13:36:54Z</time><name>PT4349</name></trkpt>
<trkpt lat="52.926322" lon="-3.397732"><ele>386</ele><time>2020-09-03T13:36:58Z</time><name>PT4350</name></trkpt>
<trkpt lat="52.926356" lon="-3.397788"><ele>385</ele><time>2020-09-03T13:37:02Z</time><name>PT4351</name></trkpt>
<trkpt lat="52.926381" lon="-3.397850"><ele>386</ele><time>2020-09-03T13:37:06Z</time><name>PT4352</name></trkpt>
<trkpt lat="52.926404" lon="-3.397899"><ele>386</ele><time>2020-09-03T13:37:10Z</time><name>PT4353</name></trkpt>
<trkpt lat="52.926434" lon="-3.397941"><ele>386</ele><time>2020-09-03T13:37:14Z</time><name>PT4354</name></trkpt>
<trkpt lat="52.926459" lon="-3.397997"><ele>386</ele><time>2020-09-03T13:37:18Z</time><name>PT4355</name></trkpt>
<trkpt lat="52.926486" lon="-3.398041"><ele>385</ele><time>2020-09-03T13:37:22Z</time><name>PT4356</name></trkpt>
<trkpt lat="52.926514" lon="-3.398087"><ele>385</ele><time>2020-09-03T13:37:26Z</time><name>PT4357</name></trkpt>
<trkpt lat="52.926544" lon="-3.398148"><ele>386</ele><time>2020-09-03T13:37:30Z</time><name>PT4358</name></trkpt>
<trkpt lat="52.926587" lon="-3.398200"><ele>387</ele><time>2020-09-03T13:37:34Z</time><name>PT4359</name></trkpt>
<trkpt lat="52.926611" lon="-3.398239"><ele>387</ele><time>2020-09-03T13:37:37Z</time><name>PT4360</name></trkpt>
<trkpt lat="52.926642" lon="-3.398302"><ele>387</ele><time>2020-09-03T13:37:41Z</time><name>PT4361</name></trkpt>
<trkpt lat="52.926664" lon="-3.398350"><ele>387</ele><time>2020-09-03T13:37:45Z</time><name>PT4362</name></trkpt>
<trkpt lat="52.926672" lon="-3.398427"><ele>388</ele><time>2020-09-03T13:37:49Z</time><name>PT4363</name></trkpt>
<trkpt lat="52.926681" lon="-3.398486"><ele>388</ele><time>2020-09-03T13:37:52Z</time><name>PT4364</name></trkpt>
<trkpt lat="52.926694" lon="-3.398547"><ele>388</ele><time>2020-09-03T13:37:56Z</time><name>PT4365</name></trkpt>
<trkpt lat="52.926727" lon="-3.398598"><ele>388</ele><time>2020-09-03T13:38:00Z</time><name>PT4366</name></trkpt>
<trkpt lat="52.926752" lon="-3.398622"><ele>386</ele><time>2020-09-03T13:38:03Z</time><name>PT4367</name></trkpt>
<trkpt lat="52.926775" lon="-3.398668"><ele>385</ele><time>2020-09-03T13:38:07Z</time><name>PT4368</name></trkpt>
<trkpt lat="52.926795" lon="-3.398724"><ele>385</ele><time>2020-09-03T13:38:11Z</time><name>PT4369</name></trkpt>
<trkpt lat="52.926814" lon="-3.398776"><ele>384</ele><time>2020-09-03T13:38:15Z</time><name>PT4370</name></trkpt>
<trkpt lat="52.926828" lon="-3.398823"><ele>385</ele><time>2020-09-03T13:38:18Z</time><name>PT4371</name></trkpt>
<trkpt lat="52.926850" lon="-3.398890"><ele>385</ele><time>2020-09-03T13:38:22Z</time><name>PT4372</name></trkpt>
<trkpt lat="52.926880" lon="-3.398951"><ele>385</ele><time>2020-09-03T13:38:26Z</time><name>PT4373</name></trkpt>
<trkpt lat="52.926909" lon="-3.399010"><ele>385</ele><time>2020-09-03T13:38:30Z</time><name>PT4374</name></trkpt>
<trkpt lat="52.926950" lon="-3.399060"><ele>385</ele><time>2020-09-03T13:38:34Z</time><name>PT4375</name></trkpt>
<trkpt lat="52.926984" lon="-3.399109"><ele>384</ele><time>2020-09-03T13:38:38Z</time><name>PT4376</name></trkpt>
<trkpt lat="52.927012" lon="-3.399147"><ele>384</ele><time>2020-09-03T13:38:41Z</time><name>PT4377</name></trkpt>
<trkpt lat="52.927045" lon="-3.399183"><ele>385</ele><time>2020-09-03T13:38:44Z</time><name>PT4378</name></trkpt>
<trkpt lat="52.927093" lon="-3.399220"><ele>386</ele><time>2020-09-03T13:38:48Z</time><name>PT4379</name></trkpt>
<trkpt lat="52.927138" lon="-3.399257"><ele>386</ele><time>2020-09-03T13:38:52Z</time><name>PT4380</name></trkpt>
<trkpt lat="52.927169" lon="-3.399282"><ele>385</ele><time>2020-09-03T13:38:56Z</time><name>PT4381</name></trkpt>
<trkpt lat="52.927205" lon="-3.399339"><ele>384</ele><time>2020-09-03T13:39:00Z</time><name>PT4382</name></trkpt>
<trkpt lat="52.927243" lon="-3.399383"><ele>384</ele><time>2020-09-03T13:39:04Z</time><name>PT4383</name></trkpt>
<trkpt lat="52.927274" lon="-3.399422"><ele>382</ele><time>2020-09-03T13:39:08Z</time><name>PT4384</name></trkpt>
<trkpt lat="52.927306" lon="-3.399478"><ele>382</ele><time>2020-09-03T13:39:12Z</time><name>PT4385</name></trkpt>
<trkpt lat="52.927338" lon="-3.399534"><ele>382</ele><time>2020-09-03T13:39:16Z</time><name>PT4386</name></trkpt>
<trkpt lat="52.927375" lon="-3.399587"><ele>382</ele><time>2020-09-03T13:39:20Z</time><name>PT4387</name></trkpt>
<trkpt lat="52.927405" lon="-3.399645"><ele>383</ele><time>2020-09-03T13:39:24Z</time><name>PT4388</name></trkpt>
<trkpt lat="52.927430" lon="-3.399687"><ele>383</ele><time>2020-09-03T13:39:27Z</time><name>PT4389</name></trkpt>
<trkpt lat="52.927454" lon="-3.399729"><ele>384</ele><time>2020-09-03T13:39:30Z</time><name>PT4390</name></trkpt>
<trkpt lat="52.927490" lon="-3.399789"><ele>384</ele><time>2020-09-03T13:39:34Z</time><name>PT4391</name></trkpt>
<trkpt lat="52.927527" lon="-3.399851"><ele>384</ele><time>2020-09-03T13:39:38Z</time><name>PT4392</name></trkpt>
<trkpt lat="52.927562" lon="-3.399916"><ele>384</ele><time>2020-09-03T13:39:41Z</time><name>PT4393</name></trkpt>
<trkpt lat="52.927588" lon="-3.399967"><ele>385</ele><time>2020-09-03T13:39:45Z</time><name>PT4394</name></trkpt>
<trkpt lat="52.927620" lon="-3.400016"><ele>384</ele><time>2020-09-03T13:39:49Z</time><name>PT4395</name></trkpt>
<trkpt lat="52.927639" lon="-3.400071"><ele>385</ele><time>2020-09-03T13:39:52Z</time><name>PT4396</name></trkpt>
<trkpt lat="52.927643" lon="-3.400084"><ele>386</ele><time>2020-09-03T13:39:56Z</time><name>PT4397</name></trkpt>
<trkpt lat="52.927641" lon="-3.400099"><ele>386</ele><time>2020-09-03T13:40:04Z</time><name>PT4398</name></trkpt>
<trkpt lat="52.927650" lon="-3.400118"><ele>386</ele><time>2020-09-03T13:40:12Z</time><name>PT4399</name></trkpt>
<trkpt lat="52.927652" lon="-3.400129"><ele>386</ele><time>2020-09-03T13:40:16Z</time><name>PT4400</name></trkpt>
<trkpt lat="52.927654" lon="-3.400146"><ele>386</ele><time>2020-09-03T13:40:32Z</time><name>PT4401</name></trkpt>
<trkpt lat="52.927653" lon="-3.400152"><ele>386</ele><time>2020-09-03T13:40:36Z</time><name>PT4402</name></trkpt>
<trkpt lat="52.927645" lon="-3.400159"><ele>386</ele><time>2020-09-03T13:40:40Z</time><name>PT4403</name></trkpt>
<trkpt lat="52.927682" lon="-3.400231"><ele>387</ele><time>2020-09-03T13:40:44Z</time><name>PT4404</name></trkpt>
<trkpt lat="52.927704" lon="-3.400289"><ele>387</ele><time>2020-09-03T13:40:48Z</time><name>PT4405</name></trkpt>
<trkpt lat="52.927715" lon="-3.400349"><ele>387</ele><time>2020-09-03T13:40:52Z</time><name>PT4406</name></trkpt>
<trkpt lat="52.927734" lon="-3.400410"><ele>387</ele><time>2020-09-03T13:40:56Z</time><name>PT4407</name></trkpt>
<trkpt lat="52.927755" lon="-3.400478"><ele>387</ele><time>2020-09-03T13:41:00Z</time><name>PT4408</name></trkpt>
<trkpt lat="52.927785" lon="-3.400543"><ele>389</ele><time>2020-09-03T13:41:04Z</time><name>PT4409</name></trkpt>
<trkpt lat="52.927809" lon="-3.400562"><ele>388</ele><time>2020-09-03T13:41:08Z</time><name>PT4410</name></trkpt>
<trkpt lat="52.927822" lon="-3.400566"><ele>387</ele><time>2020-09-03T13:41:12Z</time><name>PT4411</name></trkpt>
<trkpt lat="52.927832" lon="-3.400609"><ele>386</ele><time>2020-09-03T13:41:16Z</time><name>PT4412</name></trkpt>
<trkpt lat="52.927867" lon="-3.400684"><ele>385</ele><time>2020-09-03T13:41:20Z</time><name>PT4413</name></trkpt>
<trkpt lat="52.927890" lon="-3.400762"><ele>385</ele><time>2020-09-03T13:41:24Z</time><name>PT4414</name></trkpt>
<trkpt lat="52.927908" lon="-3.400811"><ele>384</ele><time>2020-09-03T13:41:27Z</time><name>PT4415</name></trkpt>
<trkpt lat="52.927918" lon="-3.400861"><ele>384</ele><time>2020-09-03T13:41:30Z</time><name>PT4416</name></trkpt>
<trkpt lat="52.927938" lon="-3.400930"><ele>384</ele><time>2020-09-03T13:41:34Z</time><name>PT4417</name></trkpt>
<trkpt lat="52.927952" lon="-3.400998"><ele>383</ele><time>2020-09-03T13:41:38Z</time><name>PT4418</name></trkpt>
<trkpt lat="52.927965" lon="-3.401064"><ele>382</ele><time>2020-09-03T13:41:42Z</time><name>PT4419</name></trkpt>
<trkpt lat="52.927975" lon="-3.401118"><ele>381</ele><time>2020-09-03T13:41:45Z</time><name>PT4420</name></trkpt>
<trkpt lat="52.927984" lon="-3.401191"><ele>381</ele><time>2020-09-03T13:41:49Z</time><name>PT4421</name></trkpt>
<trkpt lat="52.927996" lon="-3.401226"><ele>379</ele><time>2020-09-03T13:41:52Z</time><name>PT4422</name></trkpt>
<trkpt lat="52.928017" lon="-3.401300"><ele>380</ele><time>2020-09-03T13:41:56Z</time><name>PT4423</name></trkpt>
<trkpt lat="52.928025" lon="-3.401366"><ele>380</ele><time>2020-09-03T13:42:00Z</time><name>PT4424</name></trkpt>
<trkpt lat="52.928041" lon="-3.401438"><ele>380</ele><time>2020-09-03T13:42:04Z</time><name>PT4425</name></trkpt>
<trkpt lat="52.928053" lon="-3.401512"><ele>381</ele><time>2020-09-03T13:42:08Z</time><name>PT4426</name></trkpt>
<trkpt lat="52.928067" lon="-3.401586"><ele>381</ele><time>2020-09-03T13:42:12Z</time><name>PT4427</name></trkpt>
<trkpt lat="52.928082" lon="-3.401653"><ele>380</ele><time>2020-09-03T13:42:16Z</time><name>PT4428</name></trkpt>
<trkpt lat="52.928094" lon="-3.401717"><ele>380</ele><time>2020-09-03T13:42:20Z</time><name>PT4429</name></trkpt>
<trkpt lat="52.928112" lon="-3.401793"><ele>381</ele><time>2020-09-03T13:42:24Z</time><name>PT4430</name></trkpt>
<trkpt lat="52.928114" lon="-3.401864"><ele>380</ele><time>2020-09-03T13:42:28Z</time><name>PT4431</name></trkpt>
<trkpt lat="52.928121" lon="-3.401933"><ele>380</ele><time>2020-09-03T13:42:31Z</time><name>PT4432</name></trkpt>
<trkpt lat="52.928119" lon="-3.402004"><ele>379</ele><time>2020-09-03T13:42:35Z</time><name>PT4433</name></trkpt>
<trkpt lat="52.928120" lon="-3.402049"><ele>378</ele><time>2020-09-03T13:42:38Z</time><name>PT4434</name></trkpt>
<trkpt lat="52.928122" lon="-3.402115"><ele>377</ele><time>2020-09-03T13:42:42Z</time><name>PT4435</name></trkpt>
<trkpt lat="52.928126" lon="-3.402178"><ele>377</ele><time>2020-09-03T13:42:45Z</time><name>PT4436</name></trkpt>
<trkpt lat="52.928126" lon="-3.402259"><ele>377</ele><time>2020-09-03T13:42:49Z</time><name>PT4437</name></trkpt>
<trkpt lat="52.928124" lon="-3.402328"><ele>375</ele><time>2020-09-03T13:42:53Z</time><name>PT4438</name></trkpt>
<trkpt lat="52.928125" lon="-3.402401"><ele>375</ele><time>2020-09-03T13:42:57Z</time><name>PT4439</name></trkpt>
<trkpt lat="52.928126" lon="-3.402477"><ele>374</ele><time>2020-09-03T13:43:01Z</time><name>PT4440</name></trkpt>
<trkpt lat="52.928127" lon="-3.402547"><ele>373</ele><time>2020-09-03T13:43:05Z</time><name>PT4441</name></trkpt>
<trkpt lat="52.928126" lon="-3.402618"><ele>372</ele><time>2020-09-03T13:43:09Z</time><name>PT4442</name></trkpt>
<trkpt lat="52.928131" lon="-3.402685"><ele>372</ele><time>2020-09-03T13:43:13Z</time><name>PT4443</name></trkpt>
<trkpt lat="52.928154" lon="-3.402739"><ele>374</ele><time>2020-09-03T13:43:16Z</time><name>PT4444</name></trkpt>
<trkpt lat="52.928158" lon="-3.402798"><ele>374</ele><time>2020-09-03T13:43:19Z</time><name>PT4445</name></trkpt>
<trkpt lat="52.928147" lon="-3.402880"><ele>371</ele><time>2020-09-03T13:43:23Z</time><name>PT4446</name></trkpt>
<trkpt lat="52.928147" lon="-3.402957"><ele>369</ele><time>2020-09-03T13:43:27Z</time><name>PT4447</name></trkpt>
<trkpt lat="52.928143" lon="-3.403033"><ele>368</ele><time>2020-09-03T13:43:31Z</time><name>PT4448</name></trkpt>
<trkpt lat="52.928133" lon="-3.403125"><ele>367</ele><time>2020-09-03T13:43:35Z</time><name>PT4449</name></trkpt>
<trkpt lat="52.928135" lon="-3.403200"><ele>367</ele><time>2020-09-03T13:43:39Z</time><name>PT4450</name></trkpt>
<trkpt lat="52.928136" lon="-3.403293"><ele>366</ele><time>2020-09-03T13:43:43Z</time><name>PT4451</name></trkpt>
<trkpt lat="52.928127" lon="-3.403376"><ele>365</ele><time>2020-09-03T13:43:47Z</time><name>PT4452</name></trkpt>
<trkpt lat="52.928125" lon="-3.403461"><ele>364</ele><time>2020-09-03T13:43:51Z</time><name>PT4453</name></trkpt>
<trkpt lat="52.928117" lon="-3.403551"><ele>363</ele><time>2020-09-03T13:43:55Z</time><name>PT4454</name></trkpt>
<trkpt lat="52.928112" lon="-3.403657"><ele>364</ele><time>2020-09-03T13:43:59Z</time><name>PT4455</name></trkpt>
<trkpt lat="52.928112" lon="-3.403739"><ele>364</ele><time>2020-09-03T13:44:03Z</time><name>PT4456</name></trkpt>
<trkpt lat="52.928111" lon="-3.403821"><ele>364</ele><time>2020-09-03T13:44:07Z</time><name>PT4457</name></trkpt>
<trkpt lat="52.928094" lon="-3.403901"><ele>364</ele><time>2020-09-03T13:44:11Z</time><name>PT4458</name></trkpt>
<trkpt lat="52.928104" lon="-3.403994"><ele>363</ele><time>2020-09-03T13:44:15Z</time><name>PT4459</name></trkpt>
<trkpt lat="52.928099" lon="-3.404058"><ele>362</ele><time>2020-09-03T13:44:18Z</time><name>PT4460</name></trkpt>
<trkpt lat="52.928097" lon="-3.404136"><ele>360</ele><time>2020-09-03T13:44:21Z</time><name>PT4461</name></trkpt>
<trkpt lat="52.928094" lon="-3.404227"><ele>362</ele><time>2020-09-03T13:44:26Z</time><name>PT4462</name></trkpt>
<trkpt lat="52.928094" lon="-3.404314"><ele>361</ele><time>2020-09-03T13:44:30Z</time><name>PT4463</name></trkpt>
<trkpt lat="52.928090" lon="-3.404400"><ele>360</ele><time>2020-09-03T13:44:34Z</time><name>PT4464</name></trkpt>
<trkpt lat="52.928082" lon="-3.404480"><ele>360</ele><time>2020-09-03T13:44:38Z</time><name>PT4465</name></trkpt>
<trkpt lat="52.928082" lon="-3.404539"><ele>360</ele><time>2020-09-03T13:44:41Z</time><name>PT4466</name></trkpt>
<trkpt lat="52.928073" lon="-3.404628"><ele>361</ele><time>2020-09-03T13:44:45Z</time><name>PT4467</name></trkpt>
<trkpt lat="52.928065" lon="-3.404716"><ele>360</ele><time>2020-09-03T13:44:49Z</time><name>PT4468</name></trkpt>
<trkpt lat="52.928049" lon="-3.404801"><ele>359</ele><time>2020-09-03T13:44:53Z</time><name>PT4469</name></trkpt>
<trkpt lat="52.928038" lon="-3.404857"><ele>359</ele><time>2020-09-03T13:44:56Z</time><name>PT4470</name></trkpt>
<trkpt lat="52.928022" lon="-3.404938"><ele>358</ele><time>2020-09-03T13:45:00Z</time><name>PT4471</name></trkpt>
<trkpt lat="52.928007" lon="-3.405021"><ele>358</ele><time>2020-09-03T13:45:04Z</time><name>PT4472</name></trkpt>
<trkpt lat="52.928000" lon="-3.405083"><ele>358</ele><time>2020-09-03T13:45:07Z</time><name>PT4473</name></trkpt>
<trkpt lat="52.927985" lon="-3.405163"><ele>357</ele><time>2020-09-03T13:45:11Z</time><name>PT4474</name></trkpt>
<trkpt lat="52.927976" lon="-3.405240"><ele>357</ele><time>2020-09-03T13:45:14Z</time><name>PT4475</name></trkpt>
<trkpt lat="52.927971" lon="-3.405325"><ele>357</ele><time>2020-09-03T13:45:18Z</time><name>PT4476</name></trkpt>
<trkpt lat="52.927968" lon="-3.405375"><ele>359</ele><time>2020-09-03T13:45:22Z</time><name>PT4477</name></trkpt>
<trkpt lat="52.927956" lon="-3.405463"><ele>360</ele><time>2020-09-03T13:45:26Z</time><name>PT4478</name></trkpt>
<trkpt lat="52.927958" lon="-3.405550"><ele>360</ele><time>2020-09-03T13:45:30Z</time><name>PT4479</name></trkpt>
<trkpt lat="52.927949" lon="-3.405647"><ele>359</ele><time>2020-09-03T13:45:34Z</time><name>PT4480</name></trkpt>
<trkpt lat="52.927946" lon="-3.405745"><ele>359</ele><time>2020-09-03T13:45:38Z</time><name>PT4481</name></trkpt>
<trkpt lat="52.927944" lon="-3.405849"><ele>361</ele><time>2020-09-03T13:45:42Z</time><name>PT4482</name></trkpt>
<trkpt lat="52.927929" lon="-3.405956"><ele>361</ele><time>2020-09-03T13:45:46Z</time><name>PT4483</name></trkpt>
<trkpt lat="52.927923" lon="-3.406061"><ele>361</ele><time>2020-09-03T13:45:50Z</time><name>PT4484</name></trkpt>
<trkpt lat="52.927912" lon="-3.406141"><ele>360</ele><time>2020-09-03T13:45:54Z</time><name>PT4485</name></trkpt>
<trkpt lat="52.927899" lon="-3.406226"><ele>359</ele><time>2020-09-03T13:45:58Z</time><name>PT4486</name></trkpt>
<trkpt lat="52.927898" lon="-3.406316"><ele>358</ele><time>2020-09-03T13:46:02Z</time><name>PT4487</name></trkpt>
<trkpt lat="52.927901" lon="-3.406382"><ele>358</ele><time>2020-09-03T13:46:05Z</time><name>PT4488</name></trkpt>
<trkpt lat="52.927898" lon="-3.406474"><ele>357</ele><time>2020-09-03T13:46:09Z</time><name>PT4489</name></trkpt>
<trkpt lat="52.927897" lon="-3.406571"><ele>356</ele><time>2020-09-03T13:46:13Z</time><name>PT4490</name></trkpt>
<trkpt lat="52.927901" lon="-3.406651"><ele>355</ele><time>2020-09-03T13:46:17Z</time><name>PT4491</name></trkpt>
<trkpt lat="52.927901" lon="-3.406737"><ele>355</ele><time>2020-09-03T13:46:21Z</time><name>PT4492</name></trkpt>
<trkpt lat="52.927906" lon="-3.406828"><ele>356</ele><time>2020-09-03T13:46:25Z</time><name>PT4493</name></trkpt>
<trkpt lat="52.927908" lon="-3.406910"><ele>355</ele><time>2020-09-03T13:46:29Z</time><name>PT4494</name></trkpt>
<trkpt lat="52.927909" lon="-3.406963"><ele>354</ele><time>2020-09-03T13:46:32Z</time><name>PT4495</name></trkpt>
<trkpt lat="52.927904" lon="-3.407037"><ele>353</ele><time>2020-09-03T13:46:36Z</time><name>PT4496</name></trkpt>
<trkpt lat="52.927898" lon="-3.407106"><ele>352</ele><time>2020-09-03T13:46:39Z</time><name>PT4497</name></trkpt>
<trkpt lat="52.927889" lon="-3.407182"><ele>351</ele><time>2020-09-03T13:46:44Z</time><name>PT4498</name></trkpt>
<trkpt lat="52.927891" lon="-3.407258"><ele>348</ele><time>2020-09-03T13:46:48Z</time><name>PT4499</name></trkpt>
<trkpt lat="52.927875" lon="-3.407355"><ele>348</ele><time>2020-09-03T13:46:52Z</time><name>PT4500</name></trkpt>
<trkpt lat="52.927866" lon="-3.407442"><ele>350</ele><time>2020-09-03T13:46:55Z</time><name>PT4501</name></trkpt>
<trkpt lat="52.927856" lon="-3.407512"><ele>351</ele><time>2020-09-03T13:46:59Z</time><name>PT4502</name></trkpt>
<trkpt lat="52.927848" lon="-3.407597"><ele>351</ele><time>2020-09-03T13:47:03Z</time><name>PT4503</name></trkpt>
<trkpt lat="52.927832" lon="-3.407675"><ele>351</ele><time>2020-09-03T13:47:06Z</time><name>PT4504</name></trkpt>
<trkpt lat="52.927839" lon="-3.407757"><ele>352</ele><time>2020-09-03T13:47:10Z</time><name>PT4505</name></trkpt>
<trkpt lat="52.927834" lon="-3.407852"><ele>352</ele><time>2020-09-03T13:47:14Z</time><name>PT4506</name></trkpt>
<trkpt lat="52.927822" lon="-3.407935"><ele>351</ele><time>2020-09-03T13:47:18Z</time><name>PT4507</name></trkpt>
<trkpt lat="52.927811" lon="-3.408009"><ele>351</ele><time>2020-09-03T13:47:22Z</time><name>PT4508</name></trkpt>
<trkpt lat="52.927798" lon="-3.408094"><ele>350</ele><time>2020-09-03T13:47:26Z</time><name>PT4509</name></trkpt>
<trkpt lat="52.927783" lon="-3.408185"><ele>352</ele><time>2020-09-03T13:47:30Z</time><name>PT4510</name></trkpt>
<trkpt lat="52.927770" lon="-3.408257"><ele>352</ele><time>2020-09-03T13:47:34Z</time><name>PT4511</name></trkpt>
<trkpt lat="52.927770" lon="-3.408333"><ele>354</ele><time>2020-09-03T13:47:38Z</time><name>PT4512</name></trkpt>
<trkpt lat="52.927757" lon="-3.408414"><ele>353</ele><time>2020-09-03T13:47:42Z</time><name>PT4513</name></trkpt>
<trkpt lat="52.927745" lon="-3.408482"><ele>353</ele><time>2020-09-03T13:47:45Z</time><name>PT4514</name></trkpt>
<trkpt lat="52.927741" lon="-3.408566"><ele>351</ele><time>2020-09-03T13:47:49Z</time><name>PT4515</name></trkpt>
<trkpt lat="52.927732" lon="-3.408657"><ele>351</ele><time>2020-09-03T13:47:53Z</time><name>PT4516</name></trkpt>
<trkpt lat="52.927723" lon="-3.408720"><ele>352</ele><time>2020-09-03T13:47:56Z</time><name>PT4517</name></trkpt>
<trkpt lat="52.927709" lon="-3.408806"><ele>350</ele><time>2020-09-03T13:48:00Z</time><name>PT4518</name></trkpt>
<trkpt lat="52.927710" lon="-3.408894"><ele>349</ele><time>2020-09-03T13:48:04Z</time><name>PT4519</name></trkpt>
<trkpt lat="52.927703" lon="-3.408979"><ele>348</ele><time>2020-09-03T13:48:08Z</time><name>PT4520</name></trkpt>
<trkpt lat="52.927692" lon="-3.409044"><ele>347</ele><time>2020-09-03T13:48:12Z</time><name>PT4521</name></trkpt>
<trkpt lat="52.927677" lon="-3.409117"><ele>347</ele><time>2020-09-03T13:48:16Z</time><name>PT4522</name></trkpt>
<trkpt lat="52.927662" lon="-3.409205"><ele>349</ele><time>2020-09-03T13:48:20Z</time><name>PT4523</name></trkpt>
<trkpt lat="52.927658" lon="-3.409266"><ele>349</ele><time>2020-09-03T13:48:24Z</time><name>PT4524</name></trkpt>
<trkpt lat="52.927649" lon="-3.409320"><ele>347</ele><time>2020-09-03T13:48:28Z</time><name>PT4525</name></trkpt>
<trkpt lat="52.927636" lon="-3.409370"><ele>346</ele><time>2020-09-03T13:48:32Z</time><name>PT4526</name></trkpt>
<trkpt lat="52.927633" lon="-3.409434"><ele>346</ele><time>2020-09-03T13:48:36Z</time><name>PT4527</name></trkpt>
<trkpt lat="52.927629" lon="-3.409516"><ele>346</ele><time>2020-09-03T13:48:40Z</time><name>PT4528</name></trkpt>
<trkpt lat="52.927644" lon="-3.409598"><ele>348</ele><time>2020-09-03T13:48:44Z</time><name>PT4529</name></trkpt>
<trkpt lat="52.927629" lon="-3.409649"><ele>347</ele><time>2020-09-03T13:48:48Z</time><name>PT4530</name></trkpt>
<trkpt lat="52.927613" lon="-3.409701"><ele>344</ele><time>2020-09-03T13:48:52Z</time><name>PT4531</name></trkpt>
<trkpt lat="52.927606" lon="-3.409762"><ele>343</ele><time>2020-09-03T13:48:56Z</time><name>PT4532</name></trkpt>
<trkpt lat="52.927619" lon="-3.409832"><ele>342</ele><time>2020-09-03T13:49:00Z</time><name>PT4533</name></trkpt>
<trkpt lat="52.927609" lon="-3.409881"><ele>339</ele><time>2020-09-03T13:49:04Z</time><name>PT4534</name></trkpt>
<trkpt lat="52.927607" lon="-3.409936"><ele>338</ele><time>2020-09-03T13:49:08Z</time><name>PT4535</name></trkpt>
<trkpt lat="52.927614" lon="-3.410007"><ele>338</ele><time>2020-09-03T13:49:12Z</time><name>PT4536</name></trkpt>
<trkpt lat="52.927598" lon="-3.410069"><ele>337</ele><time>2020-09-03T13:49:16Z</time><name>PT4537</name></trkpt>
<trkpt lat="52.927591" lon="-3.410133"><ele>336</ele><time>2020-09-03T13:49:20Z</time><name>PT4538</name></trkpt>
<trkpt lat="52.927580" lon="-3.410196"><ele>337</ele><time>2020-09-03T13:49:23Z</time><name>PT4539</name></trkpt>
<trkpt lat="52.927569" lon="-3.410264"><ele>336</ele><time>2020-09-03T13:49:27Z</time><name>PT4540</name></trkpt>
<trkpt lat="52.927562" lon="-3.410370"><ele>338</ele><time>2020-09-03T13:49:31Z</time><name>PT4541</name></trkpt>
<trkpt lat="52.927549" lon="-3.410423"><ele>336</ele><time>2020-09-03T13:49:35Z</time><name>PT4542</name></trkpt>
<trkpt lat="52.927534" lon="-3.410478"><ele>334</ele><time>2020-09-03T13:49:39Z</time><name>PT4543</name></trkpt>
<trkpt lat="52.927510" lon="-3.410549"><ele>335</ele><time>2020-09-03T13:49:43Z</time><name>PT4544</name></trkpt>
<trkpt lat="52.927486" lon="-3.410587"><ele>336</ele><time>2020-09-03T13:49:47Z</time><name>PT4545</name></trkpt>
<trkpt lat="52.927460" lon="-3.410659"><ele>337</ele><time>2020-09-03T13:49:51Z</time><name>PT4546</name></trkpt>
<trkpt lat="52.927431" lon="-3.410717"><ele>332</ele><time>2020-09-03T13:49:55Z</time><name>PT4547</name></trkpt>
<trkpt lat="52.927417" lon="-3.410767"><ele>328</ele><time>2020-09-03T13:49:59Z</time><name>PT4548</name></trkpt>
<trkpt lat="52.927400" lon="-3.410839"><ele>330</ele><time>2020-09-03T13:50:02Z</time><name>PT4549</name></trkpt>
<trkpt lat="52.927385" lon="-3.410934"><ele>330</ele><time>2020-09-03T13:50:05Z</time><name>PT4550</name></trkpt>
<trkpt lat="52.927376" lon="-3.410995"><ele>330</ele><time>2020-09-03T13:50:09Z</time><name>PT4551</name></trkpt>
<trkpt lat="52.927376" lon="-3.411100"><ele>330</ele><time>2020-09-03T13:50:13Z</time><name>PT4552</name></trkpt>
<trkpt lat="52.927373" lon="-3.411187"><ele>331</ele><time>2020-09-03T13:50:16Z</time><name>PT4553</name></trkpt>
<trkpt lat="52.927374" lon="-3.411249"><ele>330</ele><time>2020-09-03T13:50:21Z</time><name>PT4554</name></trkpt>
<trkpt lat="52.927362" lon="-3.411320"><ele>329</ele><time>2020-09-03T13:50:25Z</time><name>PT4555</name></trkpt>
<trkpt lat="52.927347" lon="-3.411391"><ele>330</ele><time>2020-09-03T13:50:29Z</time><name>PT4556</name></trkpt>
<trkpt lat="52.927322" lon="-3.411468"><ele>330</ele><time>2020-09-03T13:50:33Z</time><name>PT4557</name></trkpt>
<trkpt lat="52.927302" lon="-3.411540"><ele>330</ele><time>2020-09-03T13:50:37Z</time><name>PT4558</name></trkpt>
<trkpt lat="52.927291" lon="-3.411616"><ele>329</ele><time>2020-09-03T13:50:41Z</time><name>PT4559</name></trkpt>
<trkpt lat="52.927290" lon="-3.411721"><ele>330</ele><time>2020-09-03T13:50:45Z</time><name>PT4560</name></trkpt>
<trkpt lat="52.927290" lon="-3.411790"><ele>329</ele><time>2020-09-03T13:50:49Z</time><name>PT4561</name></trkpt>
<trkpt lat="52.927286" lon="-3.411874"><ele>329</ele><time>2020-09-03T13:50:53Z</time><name>PT4562</name></trkpt>
<trkpt lat="52.927283" lon="-3.411955"><ele>329</ele><time>2020-09-03T13:50:57Z</time><name>PT4563</name></trkpt>
<trkpt lat="52.927285" lon="-3.412044"><ele>328</ele><time>2020-09-03T13:51:01Z</time><name>PT4564</name></trkpt>
<trkpt lat="52.927278" lon="-3.412139"><ele>327</ele><time>2020-09-03T13:51:05Z</time><name>PT4565</name></trkpt>
<trkpt lat="52.927262" lon="-3.412243"><ele>327</ele><time>2020-09-03T13:51:09Z</time><name>PT4566</name></trkpt>
<trkpt lat="52.927251" lon="-3.412320"><ele>327</ele><time>2020-09-03T13:51:13Z</time><name>PT4567</name></trkpt>
<trkpt lat="52.927238" lon="-3.412402"><ele>327</ele><time>2020-09-03T13:51:17Z</time><name>PT4568</name></trkpt>
<trkpt lat="52.927230" lon="-3.412472"><ele>326</ele><time>2020-09-03T13:51:21Z</time><name>PT4569</name></trkpt>
<trkpt lat="52.927232" lon="-3.412544"><ele>325</ele><time>2020-09-03T13:51:25Z</time><name>PT4570</name></trkpt>
<trkpt lat="52.927230" lon="-3.412644"><ele>326</ele><time>2020-09-03T13:51:29Z</time><name>PT4571</name></trkpt>
<trkpt lat="52.927234" lon="-3.412705"><ele>324</ele><time>2020-09-03T13:51:33Z</time><name>PT4572</name></trkpt>
<trkpt lat="52.927244" lon="-3.412769"><ele>322</ele><time>2020-09-03T13:51:37Z</time><name>PT4573</name></trkpt>
<trkpt lat="52.927260" lon="-3.412815"><ele>321</ele><time>2020-09-03T13:51:41Z</time><name>PT4574</name></trkpt>
<trkpt lat="52.927285" lon="-3.412899"><ele>323</ele><time>2020-09-03T13:51:45Z</time><name>PT4575</name></trkpt>
<trkpt lat="52.927289" lon="-3.412954"><ele>323</ele><time>2020-09-03T13:51:48Z</time><name>PT4576</name></trkpt>
<trkpt lat="52.927302" lon="-3.412956"><ele>324</ele><time>2020-09-03T13:51:51Z</time><name>PT4577</name></trkpt>
<trkpt lat="52.927301" lon="-3.412965"><ele>325</ele><time>2020-09-03T13:51:55Z</time><name>PT4578</name></trkpt>
<trkpt lat="52.927304" lon="-3.412981"><ele>325</ele><time>2020-09-03T13:51:59Z</time><name>PT4579</name></trkpt>
<trkpt lat="52.927313" lon="-3.413014"><ele>325</ele><time>2020-09-03T13:52:03Z</time><name>PT4580</name></trkpt>
<trkpt lat="52.927328" lon="-3.413092"><ele>326</ele><time>2020-09-03T13:52:07Z</time><name>PT4581</name></trkpt>
<trkpt lat="52.927337" lon="-3.413164"><ele>325</ele><time>2020-09-03T13:52:10Z</time><name>PT4582</name></trkpt>
<trkpt lat="52.927357" lon="-3.413243"><ele>324</ele><time>2020-09-03T13:52:15Z</time><name>PT4583</name></trkpt>
<trkpt lat="52.927362" lon="-3.413319"><ele>324</ele><time>2020-09-03T13:52:19Z</time><name>PT4584</name></trkpt>
<trkpt lat="52.927365" lon="-3.413388"><ele>322</ele><time>2020-09-03T13:52:23Z</time><name>PT4585</name></trkpt>
<trkpt lat="52.927366" lon="-3.413476"><ele>323</ele><time>2020-09-03T13:52:27Z</time><name>PT4586</name></trkpt>
<trkpt lat="52.927362" lon="-3.413551"><ele>323</ele><time>2020-09-03T13:52:31Z</time><name>PT4587</name></trkpt>
<trkpt lat="52.927364" lon="-3.413625"><ele>322</ele><time>2020-09-03T13:52:35Z</time><name>PT4588</name></trkpt>
<trkpt lat="52.927363" lon="-3.413701"><ele>321</ele><time>2020-09-03T13:52:39Z</time><name>PT4589</name></trkpt>
<trkpt lat="52.927365" lon="-3.413759"><ele>321</ele><time>2020-09-03T13:52:42Z</time><name>PT4590</name></trkpt>
<trkpt lat="52.927372" lon="-3.413822"><ele>320</ele><time>2020-09-03T13:52:46Z</time><name>PT4591</name></trkpt>
<trkpt lat="52.927379" lon="-3.413896"><ele>319</ele><time>2020-09-03T13:52:50Z</time><name>PT4592</name></trkpt>
<trkpt lat="52.927395" lon="-3.413969"><ele>318</ele><time>2020-09-03T13:52:54Z</time><name>PT4593</name></trkpt>
<trkpt lat="52.927402" lon="-3.414050"><ele>318</ele><time>2020-09-03T13:52:58Z</time><name>PT4594</name></trkpt>
<trkpt lat="52.927406" lon="-3.414130"><ele>318</ele><time>2020-09-03T13:53:02Z</time><name>PT4595</name></trkpt>
<trkpt lat="52.927405" lon="-3.414212"><ele>317</ele><time>2020-09-03T13:53:06Z</time><name>PT4596</name></trkpt>
<trkpt lat="52.927404" lon="-3.414263"><ele>315</ele><time>2020-09-03T13:53:10Z</time><name>PT4597</name></trkpt>
<trkpt lat="52.927396" lon="-3.414311"><ele>314</ele><time>2020-09-03T13:53:13Z</time><name>PT4598</name></trkpt>
<trkpt lat="52.927370" lon="-3.414384"><ele>313</ele><time>2020-09-03T13:53:17Z</time><name>PT4599</name></trkpt>
<trkpt lat="52.927349" lon="-3.414454"><ele>314</ele><time>2020-09-03T13:53:21Z</time><name>PT4600</name></trkpt>
<trkpt lat="52.927331" lon="-3.414530"><ele>314</ele><time>2020-09-03T13:53:25Z</time><name>PT4601</name></trkpt>
<trkpt lat="52.927316" lon="-3.414582"><ele>314</ele><time>2020-09-03T13:53:29Z</time><name>PT4602</name></trkpt>
<trkpt lat="52.927315" lon="-3.414659"><ele>313</ele><time>2020-09-03T13:53:33Z</time><name>PT4603</name></trkpt>
<trkpt lat="52.927313" lon="-3.414725"><ele>312</ele><time>2020-09-03T13:53:37Z</time><name>PT4604</name></trkpt>
<trkpt lat="52.927312" lon="-3.414797"><ele>311</ele><time>2020-09-03T13:53:40Z</time><name>PT4605</name></trkpt>
<trkpt lat="52.927307" lon="-3.414858"><ele>310</ele><time>2020-09-03T13:53:44Z</time><name>PT4606</name></trkpt>
<trkpt lat="52.927302" lon="-3.414934"><ele>311</ele><time>2020-09-03T13:53:48Z</time><name>PT4607</name></trkpt>
<trkpt lat="52.927299" lon="-3.415013"><ele>309</ele><time>2020-09-03T13:53:52Z</time><name>PT4608</name></trkpt>
<trkpt lat="52.927291" lon="-3.415101"><ele>309</ele><time>2020-09-03T13:53:56Z</time><name>PT4609</name></trkpt>
<trkpt lat="52.927278" lon="-3.415172"><ele>308</ele><time>2020-09-03T13:54:00Z</time><name>PT4610</name></trkpt>
<trkpt lat="52.927266" lon="-3.415242"><ele>308</ele><time>2020-09-03T13:54:04Z</time><name>PT4611</name></trkpt>
<trkpt lat="52.927260" lon="-3.415317"><ele>307</ele><time>2020-09-03T13:54:08Z</time><name>PT4612</name></trkpt>
<trkpt lat="52.927260" lon="-3.415386"><ele>305</ele><time>2020-09-03T13:54:12Z</time><name>PT4613</name></trkpt>
<trkpt lat="52.927254" lon="-3.415451"><ele>305</ele><time>2020-09-03T13:54:16Z</time><name>PT4614</name></trkpt>
<trkpt lat="52.927260" lon="-3.415504"><ele>305</ele><time>2020-09-03T13:54:20Z</time><name>PT4615</name></trkpt>
<trkpt lat="52.927257" lon="-3.415559"><ele>305</ele><time>2020-09-03T13:54:24Z</time><name>PT4616</name></trkpt>
<trkpt lat="52.927256" lon="-3.415620"><ele>305</ele><time>2020-09-03T13:54:28Z</time><name>PT4617</name></trkpt>
<trkpt lat="52.927255" lon="-3.415692"><ele>304</ele><time>2020-09-03T13:54:32Z</time><name>PT4618</name></trkpt>
<trkpt lat="52.927250" lon="-3.415761"><ele>303</ele><time>2020-09-03T13:54:36Z</time><name>PT4619</name></trkpt>
<trkpt lat="52.927243" lon="-3.415816"><ele>302</ele><time>2020-09-03T13:54:40Z</time><name>PT4620</name></trkpt>
<trkpt lat="52.927223" lon="-3.415902"><ele>303</ele><time>2020-09-03T13:54:44Z</time><name>PT4621</name></trkpt>
<trkpt lat="52.927209" lon="-3.415968"><ele>303</ele><time>2020-09-03T13:54:48Z</time><name>PT4622</name></trkpt>
<trkpt lat="52.927202" lon="-3.416049"><ele>303</ele><time>2020-09-03T13:54:52Z</time><name>PT4623</name></trkpt>
<trkpt lat="52.927196" lon="-3.416138"><ele>302</ele><time>2020-09-03T13:54:56Z</time><name>PT4624</name></trkpt>
<trkpt lat="52.927194" lon="-3.416212"><ele>301</ele><time>2020-09-03T13:55:00Z</time><name>PT4625</name></trkpt>
<trkpt lat="52.927204" lon="-3.416294"><ele>300</ele><time>2020-09-03T13:55:04Z</time><name>PT4626</name></trkpt>
<trkpt lat="52.927207" lon="-3.416356"><ele>299</ele><time>2020-09-03T13:55:08Z</time><name>PT4627</name></trkpt>
<trkpt lat="52.927215" lon="-3.416428"><ele>297</ele><time>2020-09-03T13:55:12Z</time><name>PT4628</name></trkpt>
<trkpt lat="52.927227" lon="-3.416505"><ele>297</ele><time>2020-09-03T13:55:16Z</time><name>PT4629</name></trkpt>
<trkpt lat="52.927238" lon="-3.416572"><ele>297</ele><time>2020-09-03T13:55:20Z</time><name>PT4630</name></trkpt>
<trkpt lat="52.927249" lon="-3.416642"><ele>297</ele><time>2020-09-03T13:55:24Z</time><name>PT4631</name></trkpt>
<trkpt lat="52.927253" lon="-3.416671"><ele>298</ele><time>2020-09-03T13:55:28Z</time><name>PT4632</name></trkpt>
<trkpt lat="52.927245" lon="-3.416716"><ele>298</ele><time>2020-09-03T13:55:31Z</time><name>PT4633</name></trkpt>
<trkpt lat="52.927253" lon="-3.416765"><ele>298</ele><time>2020-09-03T13:55:36Z</time><name>PT4634</name></trkpt>
<trkpt lat="52.927267" lon="-3.416814"><ele>298</ele><time>2020-09-03T13:55:39Z</time><name>PT4635</name></trkpt>
<trkpt lat="52.927270" lon="-3.416824"><ele>298</ele><time>2020-09-03T13:55:42Z</time><name>PT4636</name></trkpt>
<trkpt lat="52.927271" lon="-3.416871"><ele>297</ele><time>2020-09-03T13:55:53Z</time><name>PT4637</name></trkpt>
<trkpt lat="52.927265" lon="-3.416931"><ele>297</ele><time>2020-09-03T13:55:57Z</time><name>PT4638</name></trkpt>
<trkpt lat="52.927266" lon="-3.416996"><ele>295</ele><time>2020-09-03T13:56:01Z</time><name>PT4639</name></trkpt>
<trkpt lat="52.927266" lon="-3.417073"><ele>296</ele><time>2020-09-03T13:56:05Z</time><name>PT4640</name></trkpt>
<trkpt lat="52.927262" lon="-3.417134"><ele>296</ele><time>2020-09-03T13:56:09Z</time><name>PT4641</name></trkpt>
<trkpt lat="52.927256" lon="-3.417189"><ele>295</ele><time>2020-09-03T13:56:12Z</time><name>PT4642</name></trkpt>
<trkpt lat="52.927240" lon="-3.417257"><ele>295</ele><time>2020-09-03T13:56:16Z</time><name>PT4643</name></trkpt>
<trkpt lat="52.927216" lon="-3.417321"><ele>296</ele><time>2020-09-03T13:56:20Z</time><name>PT4644</name></trkpt>
<trkpt lat="52.927188" lon="-3.417368"><ele>295</ele><time>2020-09-03T13:56:24Z</time><name>PT4645</name></trkpt>
<trkpt lat="52.927162" lon="-3.417432"><ele>296</ele><time>2020-09-03T13:56:28Z</time><name>PT4646</name></trkpt>
<trkpt lat="52.927124" lon="-3.417494"><ele>297</ele><time>2020-09-03T13:56:32Z</time><name>PT4647</name></trkpt>
<trkpt lat="52.927085" lon="-3.417543"><ele>296</ele><time>2020-09-03T13:56:36Z</time><name>PT4648</name></trkpt>
<trkpt lat="52.927055" lon="-3.417553"><ele>294</ele><time>2020-09-03T13:56:39Z</time><name>PT4649</name></trkpt>
<trkpt lat="52.927014" lon="-3.417605"><ele>294</ele><time>2020-09-03T13:56:43Z</time><name>PT4650</name></trkpt>
<trkpt lat="52.926990" lon="-3.417665"><ele>293</ele><time>2020-09-03T13:56:47Z</time><name>PT4651</name></trkpt>
<trkpt lat="52.926999" lon="-3.417724"><ele>292</ele><time>2020-09-03T13:56:50Z</time><name>PT4652</name></trkpt>
<trkpt lat="52.926986" lon="-3.417779"><ele>292</ele><time>2020-09-03T13:56:53Z</time><name>PT4653</name></trkpt>
<trkpt lat="52.926973" lon="-3.417837"><ele>292</ele><time>2020-09-03T13:56:56Z</time><name>PT4654</name></trkpt>
<trkpt lat="52.926969" lon="-3.417918"><ele>292</ele><time>2020-09-03T13:57:01Z</time><name>PT4655</name></trkpt>
<trkpt lat="52.926950" lon="-3.418001"><ele>292</ele><time>2020-09-03T13:57:04Z</time><name>PT4656</name></trkpt>
<trkpt lat="52.926929" lon="-3.418058"><ele>293</ele><time>2020-09-03T13:57:07Z</time><name>PT4657</name></trkpt>
<trkpt lat="52.926913" lon="-3.418125"><ele>292</ele><time>2020-09-03T13:57:11Z</time><name>PT4658</name></trkpt>
<trkpt lat="52.926883" lon="-3.418187"><ele>294</ele><time>2020-09-03T13:57:15Z</time><name>PT4659</name></trkpt>
<trkpt lat="52.926849" lon="-3.418257"><ele>294</ele><time>2020-09-03T13:57:19Z</time><name>PT4660</name></trkpt>
<trkpt lat="52.926826" lon="-3.418299"><ele>294</ele><time>2020-09-03T13:57:22Z</time><name>PT4661</name></trkpt>
<trkpt lat="52.926796" lon="-3.418340"><ele>295</ele><time>2020-09-03T13:57:25Z</time><name>PT4662</name></trkpt>
<trkpt lat="52.926775" lon="-3.418383"><ele>294</ele><time>2020-09-03T13:57:28Z</time><name>PT4663</name></trkpt>
<trkpt lat="52.926755" lon="-3.418427"><ele>293</ele><time>2020-09-03T13:57:31Z</time><name>PT4664</name></trkpt>
<trkpt lat="52.926733" lon="-3.418450"><ele>292</ele><time>2020-09-03T13:57:35Z</time><name>PT4665</name></trkpt>
<trkpt lat="52.926717" lon="-3.418483"><ele>290</ele><time>2020-09-03T13:57:38Z</time><name>PT4666</name></trkpt>
<trkpt lat="52.926687" lon="-3.418511"><ele>289</ele><time>2020-09-03T13:57:41Z</time><name>PT4667</name></trkpt>
<trkpt lat="52.926641" lon="-3.418531"><ele>290</ele><time>2020-09-03T13:57:45Z</time><name>PT4668</name></trkpt>
<trkpt lat="52.926608" lon="-3.418562"><ele>290</ele><time>2020-09-03T13:57:48Z</time><name>PT4669</name></trkpt>
<trkpt lat="52.926596" lon="-3.418586"><ele>293</ele><time>2020-09-03T13:57:51Z</time><name>PT4670</name></trkpt>
<trkpt lat="52.926569" lon="-3.418632"><ele>293</ele><time>2020-09-03T13:57:55Z</time><name>PT4671</name></trkpt>
<trkpt lat="52.926544" lon="-3.418707"><ele>294</ele><time>2020-09-03T13:57:58Z</time><name>PT4672</name></trkpt>
<trkpt lat="52.926518" lon="-3.418771"><ele>294</ele><time>2020-09-03T13:58:02Z</time><name>PT4673</name></trkpt>
<trkpt lat="52.926499" lon="-3.418815"><ele>295</ele><time>2020-09-03T13:58:06Z</time><name>PT4674</name></trkpt>
<trkpt lat="52.926451" lon="-3.418860"><ele>294</ele><time>2020-09-03T13:58:09Z</time><name>PT4675</name></trkpt>
<trkpt lat="52.926422" lon="-3.418902"><ele>294</ele><time>2020-09-03T13:58:12Z</time><name>PT4676</name></trkpt>
<trkpt lat="52.926398" lon="-3.418960"><ele>294</ele><time>2020-09-03T13:58:15Z</time><name>PT4677</name></trkpt>
<trkpt lat="52.926379" lon="-3.419038"><ele>293</ele><time>2020-09-03T13:58:19Z</time><name>PT4678</name></trkpt>
<trkpt lat="52.926357" lon="-3.419104"><ele>292</ele><time>2020-09-03T13:58:23Z</time><name>PT4679</name></trkpt>
<trkpt lat="52.926320" lon="-3.419167"><ele>293</ele><time>2020-09-03T13:58:26Z</time><name>PT4680</name></trkpt>
<trkpt lat="52.926297" lon="-3.419243"><ele>291</ele><time>2020-09-03T13:58:31Z</time><name>PT4681</name></trkpt>
<trkpt lat="52.926279" lon="-3.419313"><ele>289</ele><time>2020-09-03T13:58:34Z</time><name>PT4682</name></trkpt>
<trkpt lat="52.926269" lon="-3.419369"><ele>288</ele><time>2020-09-03T13:58:37Z</time><name>PT4683</name></trkpt>
<trkpt lat="52.926250" lon="-3.419400"><ele>287</ele><time>2020-09-03T13:58:40Z</time><name>PT4684</name></trkpt>
<trkpt lat="52.926233" lon="-3.419447"><ele>288</ele><time>2020-09-03T13:58:43Z</time><name>PT4685</name></trkpt>
<trkpt lat="52.926219" lon="-3.419504"><ele>285</ele><time>2020-09-03T13:58:47Z</time><name>PT4686</name></trkpt>
<trkpt lat="52.926207" lon="-3.419555"><ele>287</ele><time>2020-09-03T13:58:50Z</time><name>PT4687</name></trkpt>
<trkpt lat="52.926195" lon="-3.419599"><ele>287</ele><time>2020-09-03T13:58:53Z</time><name>PT4688</name></trkpt>
<trkpt lat="52.926162" lon="-3.419640"><ele>286</ele><time>2020-09-03T13:58:56Z</time><name>PT4689</name></trkpt>
<trkpt lat="52.926132" lon="-3.419689"><ele>285</ele><time>2020-09-03T13:59:00Z</time><name>PT4690</name></trkpt>
<trkpt lat="52.926119" lon="-3.419722"><ele>284</ele><time>2020-09-03T13:59:03Z</time><name>PT4691</name></trkpt>
<trkpt lat="52.926096" lon="-3.419774"><ele>284</ele><time>2020-09-03T13:59:07Z</time><name>PT4692</name></trkpt>
<trkpt lat="52.926073" lon="-3.419810"><ele>284</ele><time>2020-09-03T13:59:09Z</time><name>PT4693</name></trkpt>
<trkpt lat="52.926062" lon="-3.419839"><ele>282</ele><time>2020-09-03T13:59:13Z</time><name>PT4694</name></trkpt>
<trkpt lat="52.926053" lon="-3.419887"><ele>284</ele><time>2020-09-03T13:59:16Z</time><name>PT4695</name></trkpt>
<trkpt lat="52.926021" lon="-3.419935"><ele>285</ele><time>2020-09-03T13:59:19Z</time><name>PT4696</name></trkpt>
<trkpt lat="52.926011" lon="-3.419990"><ele>284</ele><time>2020-09-03T13:59:24Z</time><name>PT4697</name></trkpt>
<trkpt lat="52.926004" lon="-3.420012"><ele>284</ele><time>2020-09-03T13:59:27Z</time><name>PT4698</name></trkpt>
<trkpt lat="52.926004" lon="-3.420020"><ele>285</ele><time>2020-09-03T13:59:30Z</time><name>PT4699</name></trkpt>
<trkpt lat="52.926006" lon="-3.420024"><ele>286</ele><time>2020-09-03T13:59:33Z</time><name>PT4700</name></trkpt>
<trkpt lat="52.925987" lon="-3.420052"><ele>285</ele><time>2020-09-03T13:59:36Z</time><name>PT4701</name></trkpt>
<trkpt lat="52.925969" lon="-3.420086"><ele>285</ele><time>2020-09-03T13:59:39Z</time><name>PT4702</name></trkpt>
<trkpt lat="52.925955" lon="-3.420119"><ele>286</ele><time>2020-09-03T13:59:42Z</time><name>PT4703</name></trkpt>
<trkpt lat="52.925941" lon="-3.420138"><ele>286</ele><time>2020-09-03T13:59:45Z</time><name>PT4704</name></trkpt>
<trkpt lat="52.925943" lon="-3.420153"><ele>287</ele><time>2020-09-03T13:59:49Z</time><name>PT4705</name></trkpt>
<trkpt lat="52.925939" lon="-3.420164"><ele>286</ele><time>2020-09-03T13:59:52Z</time><name>PT4706</name></trkpt>
<trkpt lat="52.925947" lon="-3.420230"><ele>284</ele><time>2020-09-03T13:59:55Z</time><name>PT4707</name></trkpt>
<trkpt lat="52.925949" lon="-3.420246"><ele>282</ele><time>2020-09-03T13:59:58Z</time><name>PT4708</name></trkpt>
<trkpt lat="52.925957" lon="-3.420257"><ele>281</ele><time>2020-09-03T14:00:02Z</time><name>PT4709</name></trkpt>
<trkpt lat="52.925979" lon="-3.420311"><ele>282</ele><time>2020-09-03T14:00:05Z</time><name>PT4710</name></trkpt>
<trkpt lat="52.926000" lon="-3.420342"><ele>283</ele><time>2020-09-03T14:00:08Z</time><name>PT4711</name></trkpt>
<trkpt lat="52.926019" lon="-3.420396"><ele>281</ele><time>2020-09-03T14:00:13Z</time><name>PT4712</name></trkpt>
<trkpt lat="52.926052" lon="-3.420449"><ele>283</ele><time>2020-09-03T14:00:16Z</time><name>PT4713</name></trkpt>
<trkpt lat="52.926076" lon="-3.420455"><ele>284</ele><time>2020-09-03T14:00:20Z</time><name>PT4714</name></trkpt>
<trkpt lat="52.926083" lon="-3.420455"><ele>282</ele><time>2020-09-03T14:00:23Z</time><name>PT4715</name></trkpt>
<trkpt lat="52.926085" lon="-3.420472"><ele>283</ele><time>2020-09-03T14:00:26Z</time><name>PT4716</name></trkpt>
<trkpt lat="52.926104" lon="-3.420473"><ele>283</ele><time>2020-09-03T14:00:30Z</time><name>PT4717</name></trkpt>
<trkpt lat="52.926103" lon="-3.420480"><ele>282</ele><time>2020-09-03T14:00:33Z</time><name>PT4718</name></trkpt>
<trkpt lat="52.926133" lon="-3.420504"><ele>281</ele><time>2020-09-03T14:00:40Z</time><name>PT4719</name></trkpt>
<trkpt lat="52.926144" lon="-3.420531"><ele>280</ele><time>2020-09-03T14:00:43Z</time><name>PT4720</name></trkpt>
<trkpt lat="52.926121" lon="-3.420569"><ele>281</ele><time>2020-09-03T14:01:11Z</time><name>PT4721</name></trkpt>
<trkpt lat="52.926126" lon="-3.420633"><ele>281</ele><time>2020-09-03T14:01:15Z</time><name>PT4722</name></trkpt>
<trkpt lat="52.926146" lon="-3.420725"><ele>280</ele><time>2020-09-03T14:01:20Z</time><name>PT4723</name></trkpt>
<trkpt lat="52.926155" lon="-3.420803"><ele>279</ele><time>2020-09-03T14:01:23Z</time><name>PT4724</name></trkpt>
<trkpt lat="52.926163" lon="-3.420877"><ele>279</ele><time>2020-09-03T14:01:27Z</time><name>PT4725</name></trkpt>
<trkpt lat="52.926168" lon="-3.420947"><ele>279</ele><time>2020-09-03T14:01:31Z</time><name>PT4726</name></trkpt>
<trkpt lat="52.926157" lon="-3.421006"><ele>278</ele><time>2020-09-03T14:01:34Z</time><name>PT4727</name></trkpt>
<trkpt lat="52.926141" lon="-3.421088"><ele>278</ele><time>2020-09-03T14:01:37Z</time><name>PT4728</name></trkpt>
<trkpt lat="52.926130" lon="-3.421158"><ele>279</ele><time>2020-09-03T14:01:40Z</time><name>PT4729</name></trkpt>
<trkpt lat="52.926115" lon="-3.421249"><ele>277</ele><time>2020-09-03T14:01:44Z</time><name>PT4730</name></trkpt>
<trkpt lat="52.926107" lon="-3.421318"><ele>276</ele><time>2020-09-03T14:01:49Z</time><name>PT4731</name></trkpt>
<trkpt lat="52.926099" lon="-3.421368"><ele>276</ele><time>2020-09-03T14:01:52Z</time><name>PT4732</name></trkpt>
<trkpt lat="52.926097" lon="-3.421381"><ele>276</ele><time>2020-09-03T14:01:56Z</time><name>PT4733</name></trkpt>
<trkpt lat="52.926087" lon="-3.421430"><ele>277</ele><time>2020-09-03T14:01:59Z</time><name>PT4734</name></trkpt>
<trkpt lat="52.926074" lon="-3.421499"><ele>277</ele><time>2020-09-03T14:02:03Z</time><name>PT4735</name></trkpt>
<trkpt lat="52.926065" lon="-3.421561"><ele>277</ele><time>2020-09-03T14:02:08Z</time><name>PT4736</name></trkpt>
<trkpt lat="52.926065" lon="-3.421633"><ele>277</ele><time>2020-09-03T14:02:11Z</time><name>PT4737</name></trkpt>
<trkpt lat="52.926067" lon="-3.421693"><ele>278</ele><time>2020-09-03T14:02:16Z</time><name>PT4738</name></trkpt>
<trkpt lat="52.926073" lon="-3.421736"><ele>276</ele><time>2020-09-03T14:02:19Z</time><name>PT4739</name></trkpt>
<trkpt lat="52.926076" lon="-3.421807"><ele>275</ele><time>2020-09-03T14:02:22Z</time><name>PT4740</name></trkpt>
<trkpt lat="52.926068" lon="-3.421851"><ele>274</ele><time>2020-09-03T14:02:25Z</time><name>PT4741</name></trkpt>
<trkpt lat="52.926063" lon="-3.421894"><ele>273</ele><time>2020-09-03T14:02:28Z</time><name>PT4742</name></trkpt>
<trkpt lat="52.926057" lon="-3.421953"><ele>275</ele><time>2020-09-03T14:02:32Z</time><name>PT4743</name></trkpt>
<trkpt lat="52.926037" lon="-3.422001"><ele>273</ele><time>2020-09-03T14:02:35Z</time><name>PT4744</name></trkpt>
<trkpt lat="52.926027" lon="-3.422037"><ele>273</ele><time>2020-09-03T14:02:38Z</time><name>PT4745</name></trkpt>
<trkpt lat="52.926018" lon="-3.422073"><ele>271</ele><time>2020-09-03T14:02:42Z</time><name>PT4746</name></trkpt>
<trkpt lat="52.926009" lon="-3.422134"><ele>271</ele><time>2020-09-03T14:02:46Z</time><name>PT4747</name></trkpt>
<trkpt lat="52.926011" lon="-3.422190"><ele>270</ele><time>2020-09-03T14:02:50Z</time><name>PT4748</name></trkpt>
<trkpt lat="52.926012" lon="-3.422246"><ele>268</ele><time>2020-09-03T14:02:54Z</time><name>PT4749</name></trkpt>
<trkpt lat="52.926011" lon="-3.422311"><ele>268</ele><time>2020-09-03T14:02:58Z</time><name>PT4750</name></trkpt>
<trkpt lat="52.926011" lon="-3.422384"><ele>267</ele><time>2020-09-03T14:03:02Z</time><name>PT4751</name></trkpt>
<trkpt lat="52.926003" lon="-3.422423"><ele>266</ele><time>2020-09-03T14:03:05Z</time><name>PT4752</name></trkpt>
<trkpt lat="52.925996" lon="-3.422484"><ele>265</ele><time>2020-09-03T14:03:09Z</time><name>PT4753</name></trkpt>
<trkpt lat="52.925991" lon="-3.422554"><ele>264</ele><time>2020-09-03T14:03:12Z</time><name>PT4754</name></trkpt>
<trkpt lat="52.925997" lon="-3.422616"><ele>263</ele><time>2020-09-03T14:03:17Z</time><name>PT4755</name></trkpt>
<trkpt lat="52.925997" lon="-3.422689"><ele>263</ele><time>2020-09-03T14:03:20Z</time><name>PT4756</name></trkpt>
<trkpt lat="52.926011" lon="-3.422742"><ele>262</ele><time>2020-09-03T14:03:25Z</time><name>PT4757</name></trkpt>
<trkpt lat="52.926013" lon="-3.422783"><ele>261</ele><time>2020-09-03T14:03:28Z</time><name>PT4758</name></trkpt>
<trkpt lat="52.926018" lon="-3.422836"><ele>261</ele><time>2020-09-03T14:03:32Z</time><name>PT4759</name></trkpt>
<trkpt lat="52.926023" lon="-3.422877"><ele>260</ele><time>2020-09-03T14:03:35Z</time><name>PT4760</name></trkpt>
<trkpt lat="52.926021" lon="-3.422926"><ele>259</ele><time>2020-09-03T14:03:38Z</time><name>PT4761</name></trkpt>
<trkpt lat="52.926013" lon="-3.422990"><ele>257</ele><time>2020-09-03T14:03:41Z</time><name>PT4762</name></trkpt>
<trkpt lat="52.926005" lon="-3.423021"><ele>256</ele><time>2020-09-03T14:03:45Z</time><name>PT4763</name></trkpt>
<trkpt lat="52.925993" lon="-3.423083"><ele>255</ele><time>2020-09-03T14:03:49Z</time><name>PT4764</name></trkpt>
<trkpt lat="52.925987" lon="-3.423150"><ele>254</ele><time>2020-09-03T14:03:52Z</time><name>PT4765</name></trkpt>
<trkpt lat="52.925978" lon="-3.423187"><ele>252</ele><time>2020-09-03T14:03:56Z</time><name>PT4766</name></trkpt>
<trkpt lat="52.925976" lon="-3.423225"><ele>251</ele><time>2020-09-03T14:03:59Z</time><name>PT4767</name></trkpt>
<trkpt lat="52.925960" lon="-3.423256"><ele>250</ele><time>2020-09-03T14:04:02Z</time><name>PT4768</name></trkpt>
<trkpt lat="52.925930" lon="-3.423299"><ele>248</ele><time>2020-09-03T14:04:05Z</time><name>PT4769</name></trkpt>
<trkpt lat="52.925901" lon="-3.423376"><ele>248</ele><time>2020-09-03T14:04:09Z</time><name>PT4770</name></trkpt>
<trkpt lat="52.925887" lon="-3.423465"><ele>248</ele><time>2020-09-03T14:04:12Z</time><name>PT4771</name></trkpt>
<trkpt lat="52.925870" lon="-3.423529"><ele>250</ele><time>2020-09-03T14:04:16Z</time><name>PT4772</name></trkpt>
<trkpt lat="52.925859" lon="-3.423556"><ele>250</ele><time>2020-09-03T14:04:20Z</time><name>PT4773</name></trkpt>
<trkpt lat="52.925858" lon="-3.423582"><ele>249</ele><time>2020-09-03T14:04:23Z</time><name>PT4774</name></trkpt>
<trkpt lat="52.925853" lon="-3.423600"><ele>250</ele><time>2020-09-03T14:04:26Z</time><name>PT4775</name></trkpt>
<trkpt lat="52.925841" lon="-3.423642"><ele>248</ele><time>2020-09-03T14:04:29Z</time><name>PT4776</name></trkpt>
<trkpt lat="52.925819" lon="-3.423704"><ele>247</ele><time>2020-09-03T14:04:34Z</time><name>PT4777</name></trkpt>
<trkpt lat="52.925802" lon="-3.423741"><ele>246</ele><time>2020-09-03T14:04:37Z</time><name>PT4778</name></trkpt>
<trkpt lat="52.925789" lon="-3.423797"><ele>246</ele><time>2020-09-03T14:04:40Z</time><name>PT4779</name></trkpt>
<trkpt lat="52.925762" lon="-3.423875"><ele>246</ele><time>2020-09-03T14:04:44Z</time><name>PT4780</name></trkpt>
<trkpt lat="52.925728" lon="-3.423940"><ele>244</ele><time>2020-09-03T14:04:48Z</time><name>PT4781</name></trkpt>
<trkpt lat="52.925706" lon="-3.423995"><ele>243</ele><time>2020-09-03T14:04:51Z</time><name>PT4782</name></trkpt>
<trkpt lat="52.925691" lon="-3.424025"><ele>243</ele><time>2020-09-03T14:04:54Z</time><name>PT4783</name></trkpt>
<trkpt lat="52.925676" lon="-3.424066"><ele>242</ele><time>2020-09-03T14:04:58Z</time><name>PT4784</name></trkpt>
<trkpt lat="52.925652" lon="-3.424133"><ele>241</ele><time>2020-09-03T14:05:01Z</time><name>PT4785</name></trkpt>
<trkpt lat="52.925630" lon="-3.424207"><ele>241</ele><time>2020-09-03T14:05:05Z</time><name>PT4786</name></trkpt>
<trkpt lat="52.925615" lon="-3.424277"><ele>242</ele><time>2020-09-03T14:05:08Z</time><name>PT4787</name></trkpt>
<trkpt lat="52.925595" lon="-3.424355"><ele>241</ele><time>2020-09-03T14:05:12Z</time><name>PT4788</name></trkpt>
<trkpt lat="52.925577" lon="-3.424414"><ele>243</ele><time>2020-09-03T14:05:15Z</time><name>PT4789</name></trkpt>
<trkpt lat="52.925556" lon="-3.424454"><ele>242</ele><time>2020-09-03T14:05:20Z</time><name>PT4790</name></trkpt>
<trkpt lat="52.925541" lon="-3.424495"><ele>241</ele><time>2020-09-03T14:05:23Z</time><name>PT4791</name></trkpt>
<trkpt lat="52.925518" lon="-3.424551"><ele>240</ele><time>2020-09-03T14:05:26Z</time><name>PT4792</name></trkpt>
<trkpt lat="52.925520" lon="-3.424585"><ele>240</ele><time>2020-09-03T14:05:29Z</time><name>PT4793</name></trkpt>
<trkpt lat="52.925509" lon="-3.424611"><ele>238</ele><time>2020-09-03T14:05:32Z</time><name>PT4794</name></trkpt>
<trkpt lat="52.925510" lon="-3.424626"><ele>237</ele><time>2020-09-03T14:05:36Z</time><name>PT4795</name></trkpt>
<trkpt lat="52.925492" lon="-3.424698"><ele>238</ele><time>2020-09-03T14:05:39Z</time><name>PT4796</name></trkpt>
<trkpt lat="52.925471" lon="-3.424751"><ele>236</ele><time>2020-09-03T14:05:42Z</time><name>PT4797</name></trkpt>
<trkpt lat="52.925451" lon="-3.424775"><ele>235</ele><time>2020-09-03T14:05:45Z</time><name>PT4798</name></trkpt>
<trkpt lat="52.925422" lon="-3.424822"><ele>233</ele><time>2020-09-03T14:05:49Z</time><name>PT4799</name></trkpt>
<trkpt lat="52.925398" lon="-3.424855"><ele>234</ele><time>2020-09-03T14:05:53Z</time><name>PT4800</name></trkpt>
<trkpt lat="52.925367" lon="-3.424891"><ele>233</ele><time>2020-09-03T14:05:57Z</time><name>PT4801</name></trkpt>
<trkpt lat="52.925333" lon="-3.424914"><ele>232</ele><time>2020-09-03T14:06:00Z</time><name>PT4802</name></trkpt>
<trkpt lat="52.925289" lon="-3.424974"><ele>232</ele><time>2020-09-03T14:06:03Z</time><name>PT4803</name></trkpt>
<trkpt lat="52.925268" lon="-3.425021"><ele>232</ele><time>2020-09-03T14:06:06Z</time><name>PT4804</name></trkpt>
<trkpt lat="52.925239" lon="-3.425039"><ele>230</ele><time>2020-09-03T14:06:09Z</time><name>PT4805</name></trkpt>
<trkpt lat="52.925216" lon="-3.425061"><ele>230</ele><time>2020-09-03T14:06:13Z</time><name>PT4806</name></trkpt>
<trkpt lat="52.925189" lon="-3.425096"><ele>230</ele><time>2020-09-03T14:06:16Z</time><name>PT4807</name></trkpt>
<trkpt lat="52.925168" lon="-3.425119"><ele>230</ele><time>2020-09-03T14:06:20Z</time><name>PT4808</name></trkpt>
<trkpt lat="52.925151" lon="-3.425143"><ele>230</ele><time>2020-09-03T14:06:25Z</time><name>PT4809</name></trkpt>
<trkpt lat="52.925127" lon="-3.425174"><ele>231</ele><time>2020-09-03T14:06:28Z</time><name>PT4810</name></trkpt>
<trkpt lat="52.925105" lon="-3.425236"><ele>233</ele><time>2020-09-03T14:06:31Z</time><name>PT4811</name></trkpt>
<trkpt lat="52.925068" lon="-3.425301"><ele>234</ele><time>2020-09-03T14:06:34Z</time><name>PT4812</name></trkpt>
<trkpt lat="52.925049" lon="-3.425359"><ele>234</ele><time>2020-09-03T14:06:38Z</time><name>PT4813</name></trkpt>
<trkpt lat="52.925015" lon="-3.425429"><ele>231</ele><time>2020-09-03T14:06:43Z</time><name>PT4814</name></trkpt>
<trkpt lat="52.925005" lon="-3.425444"><ele>229</ele><time>2020-09-03T14:06:46Z</time><name>PT4815</name></trkpt>
<trkpt lat="52.924970" lon="-3.425502"><ele>231</ele><time>2020-09-03T14:06:49Z</time><name>PT4816</name></trkpt>
<trkpt lat="52.924950" lon="-3.425551"><ele>230</ele><time>2020-09-03T14:06:53Z</time><name>PT4817</name></trkpt>
<trkpt lat="52.924908" lon="-3.425608"><ele>229</ele><time>2020-09-03T14:06:56Z</time><name>PT4818</name></trkpt>
<trkpt lat="52.924886" lon="-3.425663"><ele>228</ele><time>2020-09-03T14:06:59Z</time><name>PT4819</name></trkpt>
<trkpt lat="52.924867" lon="-3.425676"><ele>224</ele><time>2020-09-03T14:07:02Z</time><name>PT4820</name></trkpt>
<trkpt lat="52.924849" lon="-3.425698"><ele>222</ele><time>2020-09-03T14:07:05Z</time><name>PT4821</name></trkpt>
<trkpt lat="52.924806" lon="-3.425756"><ele>221</ele><time>2020-09-03T14:07:09Z</time><name>PT4822</name></trkpt>
<trkpt lat="52.924775" lon="-3.425800"><ele>220</ele><time>2020-09-03T14:07:12Z</time><name>PT4823</name></trkpt>
<trkpt lat="52.924748" lon="-3.425848"><ele>220</ele><time>2020-09-03T14:07:15Z</time><name>PT4824</name></trkpt>
<trkpt lat="52.924726" lon="-3.425926"><ele>221</ele><time>2020-09-03T14:07:18Z</time><name>PT4825</name></trkpt>
<trkpt lat="52.924723" lon="-3.425967"><ele>223</ele><time>2020-09-03T14:07:21Z</time><name>PT4826</name></trkpt>
<trkpt lat="52.924697" lon="-3.426023"><ele>222</ele><time>2020-09-03T14:07:26Z</time><name>PT4827</name></trkpt>
<trkpt lat="52.924665" lon="-3.426050"><ele>222</ele><time>2020-09-03T14:07:29Z</time><name>PT4828</name></trkpt>
<trkpt lat="52.924629" lon="-3.426092"><ele>222</ele><time>2020-09-03T14:07:32Z</time><name>PT4829</name></trkpt>
<trkpt lat="52.924611" lon="-3.426126"><ele>223</ele><time>2020-09-03T14:07:35Z</time><name>PT4830</name></trkpt>
<trkpt lat="52.924590" lon="-3.426185"><ele>223</ele><time>2020-09-03T14:07:40Z</time><name>PT4831</name></trkpt>
<trkpt lat="52.924567" lon="-3.426241"><ele>223</ele><time>2020-09-03T14:07:43Z</time><name>PT4832</name></trkpt>
<trkpt lat="52.924546" lon="-3.426277"><ele>223</ele><time>2020-09-03T14:07:47Z</time><name>PT4833</name></trkpt>
<trkpt lat="52.924515" lon="-3.426334"><ele>224</ele><time>2020-09-03T14:07:50Z</time><name>PT4834</name></trkpt>
<trkpt lat="52.924489" lon="-3.426375"><ele>224</ele><time>2020-09-03T14:07:53Z</time><name>PT4835</name></trkpt>
<trkpt lat="52.924467" lon="-3.426414"><ele>226</ele><time>2020-09-03T14:07:56Z</time><name>PT4836</name></trkpt>
<trkpt lat="52.924437" lon="-3.426471"><ele>227</ele><time>2020-09-03T14:08:01Z</time><name>PT4837</name></trkpt>
<trkpt lat="52.924411" lon="-3.426516"><ele>226</ele><time>2020-09-03T14:08:04Z</time><name>PT4838</name></trkpt>
<trkpt lat="52.924372" lon="-3.426578"><ele>225</ele><time>2020-09-03T14:08:07Z</time><name>PT4839</name></trkpt>
<trkpt lat="52.924355" lon="-3.426613"><ele>224</ele><time>2020-09-03T14:08:10Z</time><name>PT4840</name></trkpt>
<trkpt lat="52.924330" lon="-3.426647"><ele>222</ele><time>2020-09-03T14:08:14Z</time><name>PT4841</name></trkpt>
<trkpt lat="52.924321" lon="-3.426667"><ele>221</ele><time>2020-09-03T14:08:17Z</time><name>PT4842</name></trkpt>
<trkpt lat="52.924310" lon="-3.426679"><ele>221</ele><time>2020-09-03T14:08:20Z</time><name>PT4843</name></trkpt>
<trkpt lat="52.924301" lon="-3.426686"><ele>219</ele><time>2020-09-03T14:08:24Z</time><name>PT4844</name></trkpt>
<trkpt lat="52.924272" lon="-3.426736"><ele>217</ele><time>2020-09-03T14:08:27Z</time><name>PT4845</name></trkpt>
<trkpt lat="52.924233" lon="-3.426798"><ele>215</ele><time>2020-09-03T14:08:30Z</time><name>PT4846</name></trkpt>
<trkpt lat="52.924212" lon="-3.426827"><ele>214</ele><time>2020-09-03T14:08:33Z</time><name>PT4847</name></trkpt>
<trkpt lat="52.924200" lon="-3.426839"><ele>210</ele><time>2020-09-03T14:08:37Z</time><name>PT4848</name></trkpt>
<trkpt lat="52.924180" lon="-3.426887"><ele>210</ele><time>2020-09-03T14:08:40Z</time><name>PT4849</name></trkpt>
<trkpt lat="52.924149" lon="-3.426930"><ele>207</ele><time>2020-09-03T14:08:43Z</time><name>PT4850</name></trkpt>
<trkpt lat="52.924124" lon="-3.426988"><ele>207</ele><time>2020-09-03T14:08:47Z</time><name>PT4851</name></trkpt>
<trkpt lat="52.924079" lon="-3.427049"><ele>205</ele><time>2020-09-03T14:08:50Z</time><name>PT4852</name></trkpt>
<trkpt lat="52.924049" lon="-3.427084"><ele>204</ele><time>2020-09-03T14:08:53Z</time><name>PT4853</name></trkpt>
<trkpt lat="52.924006" lon="-3.427141"><ele>203</ele><time>2020-09-03T14:08:58Z</time><name>PT4854</name></trkpt>
<trkpt lat="52.923980" lon="-3.427194"><ele>203</ele><time>2020-09-03T14:09:01Z</time><name>PT4855</name></trkpt>
<trkpt lat="52.923952" lon="-3.427261"><ele>204</ele><time>2020-09-03T14:09:04Z</time><name>PT4856</name></trkpt>
<trkpt lat="52.923934" lon="-3.427328"><ele>205</ele><time>2020-09-03T14:09:07Z</time><name>PT4857</name></trkpt>
<trkpt lat="52.923925" lon="-3.427355"><ele>205</ele><time>2020-09-03T14:09:10Z</time><name>PT4858</name></trkpt>
<trkpt lat="52.923909" lon="-3.427405"><ele>206</ele><time>2020-09-03T14:09:13Z</time><name>PT4859</name></trkpt>
<trkpt lat="52.923892" lon="-3.427460"><ele>207</ele><time>2020-09-03T14:09:16Z</time><name>PT4860</name></trkpt>
<trkpt lat="52.923875" lon="-3.427547"><ele>210</ele><time>2020-09-03T14:09:21Z</time><name>PT4861</name></trkpt>
<trkpt lat="52.923848" lon="-3.427635"><ele>210</ele><time>2020-09-03T14:09:24Z</time><name>PT4862</name></trkpt>
<trkpt lat="52.923832" lon="-3.427660"><ele>208</ele><time>2020-09-03T14:09:27Z</time><name>PT4863</name></trkpt>
<trkpt lat="52.923813" lon="-3.427673"><ele>206</ele><time>2020-09-03T14:09:30Z</time><name>PT4864</name></trkpt>
<trkpt lat="52.923786" lon="-3.427712"><ele>202</ele><time>2020-09-03T14:09:34Z</time><name>PT4865</name></trkpt>
<trkpt lat="52.923777" lon="-3.427742"><ele>202</ele><time>2020-09-03T14:09:37Z</time><name>PT4866</name></trkpt>
<trkpt lat="52.923763" lon="-3.427795"><ele>201</ele><time>2020-09-03T14:09:41Z</time><name>PT4867</name></trkpt>
<trkpt lat="52.923760" lon="-3.427829"><ele>200</ele><time>2020-09-03T14:09:44Z</time><name>PT4868</name></trkpt>
<trkpt lat="52.923759" lon="-3.427872"><ele>200</ele><time>2020-09-03T14:09:48Z</time><name>PT4869</name></trkpt>
<trkpt lat="52.923762" lon="-3.427905"><ele>200</ele><time>2020-09-03T14:09:53Z</time><name>PT4870</name></trkpt>
<trkpt lat="52.923761" lon="-3.427934"><ele>199</ele><time>2020-09-03T14:09:56Z</time><name>PT4871</name></trkpt>
<trkpt lat="52.923771" lon="-3.427999"><ele>199</ele><time>2020-09-03T14:09:59Z</time><name>PT4872</name></trkpt>
<trkpt lat="52.923780" lon="-3.428034"><ele>198</ele><time>2020-09-03T14:10:02Z</time><name>PT4873</name></trkpt>
<trkpt lat="52.923785" lon="-3.428067"><ele>196</ele><time>2020-09-03T14:10:06Z</time><name>PT4874</name></trkpt>
<trkpt lat="52.923804" lon="-3.428125"><ele>195</ele><time>2020-09-03T14:10:09Z</time><name>PT4875</name></trkpt>
<trkpt lat="52.923808" lon="-3.428174"><ele>192</ele><time>2020-09-03T14:10:13Z</time><name>PT4876</name></trkpt>
<trkpt lat="52.923818" lon="-3.428211"><ele>191</ele><time>2020-09-03T14:10:17Z</time><name>PT4877</name></trkpt>
<trkpt lat="52.923832" lon="-3.428218"><ele>192</ele><time>2020-09-03T14:10:20Z</time><name>PT4878</name></trkpt>
<trkpt lat="52.923833" lon="-3.428221"><ele>192</ele><time>2020-09-03T14:10:23Z</time><name>PT4879</name></trkpt>
<trkpt lat="52.923848" lon="-3.428272"><ele>190</ele><time>2020-09-03T14:10:26Z</time><name>PT4880</name></trkpt>
<trkpt lat="52.923841" lon="-3.428347"><ele>189</ele><time>2020-09-03T14:10:30Z</time><name>PT4881</name></trkpt>
<trkpt lat="52.923841" lon="-3.428425"><ele>188</ele><time>2020-09-03T14:10:34Z</time><name>PT4882</name></trkpt>
<trkpt lat="52.923848" lon="-3.428480"><ele>188</ele><time>2020-09-03T14:10:38Z</time><name>PT4883</name></trkpt>
<trkpt lat="52.923859" lon="-3.428523"><ele>186</ele><time>2020-09-03T14:10:42Z</time><name>PT4884</name></trkpt>
<trkpt lat="52.923880" lon="-3.428583"><ele>185</ele><time>2020-09-03T14:10:45Z</time><name>PT4885</name></trkpt>
<trkpt lat="52.923894" lon="-3.428622"><ele>184</ele><time>2020-09-03T14:10:48Z</time><name>PT4886</name></trkpt>
<trkpt lat="52.923898" lon="-3.428672"><ele>182</ele><time>2020-09-03T14:10:52Z</time><name>PT4887</name></trkpt>
<trkpt lat="52.923904" lon="-3.428720"><ele>181</ele><time>2020-09-03T14:10:55Z</time><name>PT4888</name></trkpt>
<trkpt lat="52.923915" lon="-3.428758"><ele>181</ele><time>2020-09-03T14:10:59Z</time><name>PT4889</name></trkpt>
<trkpt lat="52.923933" lon="-3.428823"><ele>179</ele><time>2020-09-03T14:11:02Z</time><name>PT4890</name></trkpt>
<trkpt lat="52.923945" lon="-3.428868"><ele>178</ele><time>2020-09-03T14:11:05Z</time><name>PT4891</name></trkpt>
<trkpt lat="52.923943" lon="-3.428918"><ele>178</ele><time>2020-09-03T14:11:09Z</time><name>PT4892</name></trkpt>
<trkpt lat="52.923940" lon="-3.429000"><ele>177</ele><time>2020-09-03T14:11:12Z</time><name>PT4893</name></trkpt>
<trkpt lat="52.923939" lon="-3.429074"><ele>175</ele><time>2020-09-03T14:11:16Z</time><name>PT4894</name></trkpt>
<trkpt lat="52.923926" lon="-3.429120"><ele>173</ele><time>2020-09-03T14:11:19Z</time><name>PT4895</name></trkpt>
<trkpt lat="52.923910" lon="-3.429199"><ele>171</ele><time>2020-09-03T14:11:23Z</time><name>PT4896</name></trkpt>
<trkpt lat="52.923897" lon="-3.429262"><ele>170</ele><time>2020-09-03T14:11:26Z</time><name>PT4897</name></trkpt>
<trkpt lat="52.923877" lon="-3.429339"><ele>170</ele><time>2020-09-03T14:11:30Z</time><name>PT4898</name></trkpt>
<trkpt lat="52.923876" lon="-3.429410"><ele>172</ele><time>2020-09-03T14:11:33Z</time><name>PT4899</name></trkpt>
<trkpt lat="52.923882" lon="-3.429471"><ele>175</ele><time>2020-09-03T14:11:36Z</time><name>PT4900</name></trkpt>
<trkpt lat="52.923898" lon="-3.429483"><ele>178</ele><time>2020-09-03T14:11:40Z</time><name>PT4901</name></trkpt>
<trkpt lat="52.923897" lon="-3.429538"><ele>177</ele><time>2020-09-03T14:11:43Z</time><name>PT4902</name></trkpt>
<trkpt lat="52.923888" lon="-3.429579"><ele>177</ele><time>2020-09-03T14:11:46Z</time><name>PT4903</name></trkpt>
<trkpt lat="52.923876" lon="-3.429613"><ele>177</ele><time>2020-09-03T14:11:49Z</time><name>PT4904</name></trkpt>
<trkpt lat="52.923856" lon="-3.429671"><ele>175</ele><time>2020-09-03T14:11:54Z</time><name>PT4905</name></trkpt>
<trkpt lat="52.923856" lon="-3.429738"><ele>175</ele><time>2020-09-03T14:11:57Z</time><name>PT4906</name></trkpt>
<trkpt lat="52.923848" lon="-3.429813"><ele>175</ele><time>2020-09-03T14:12:00Z</time><name>PT4907</name></trkpt>
<trkpt lat="52.923837" lon="-3.429894"><ele>174</ele><time>2020-09-03T14:12:04Z</time><name>PT4908</name></trkpt>
<trkpt lat="52.923839" lon="-3.429957"><ele>172</ele><time>2020-09-03T14:12:07Z</time><name>PT4909</name></trkpt>
<trkpt lat="52.923845" lon="-3.430023"><ele>167</ele><time>2020-09-03T14:12:10Z</time><name>PT4910</name></trkpt>
<trkpt lat="52.923848" lon="-3.430076"><ele>164</ele><time>2020-09-03T14:12:13Z</time><name>PT4911</name></trkpt>
<trkpt lat="52.923874" lon="-3.430156"><ele>163</ele><time>2020-09-03T14:12:17Z</time><name>PT4912</name></trkpt>
<trkpt lat="52.923878" lon="-3.430237"><ele>163</ele><time>2020-09-03T14:12:20Z</time><name>PT4913</name></trkpt>
<trkpt lat="52.923885" lon="-3.430317"><ele>161</ele><time>2020-09-03T14:12:25Z</time><name>PT4914</name></trkpt>
<trkpt lat="52.923904" lon="-3.430387"><ele>160</ele><time>2020-09-03T14:12:28Z</time><name>PT4915</name></trkpt>
<trkpt lat="52.923915" lon="-3.430467"><ele>159</ele><time>2020-09-03T14:12:33Z</time><name>PT4916</name></trkpt>
<trkpt lat="52.923925" lon="-3.430520"><ele>158</ele><time>2020-09-03T14:12:36Z</time><name>PT4917</name></trkpt>
<trkpt lat="52.923935" lon="-3.430586"><ele>157</ele><time>2020-09-03T14:12:39Z</time><name>PT4918</name></trkpt>
<trkpt lat="52.923942" lon="-3.430659"><ele>156</ele><time>2020-09-03T14:12:42Z</time><name>PT4919</name></trkpt>
<trkpt lat="52.923949" lon="-3.430719"><ele>155</ele><time>2020-09-03T14:12:45Z</time><name>PT4920</name></trkpt>
<trkpt lat="52.923968" lon="-3.430800"><ele>155</ele><time>2020-09-03T14:12:49Z</time><name>PT4921</name></trkpt>
<trkpt lat="52.923985" lon="-3.430871"><ele>155</ele><time>2020-09-03T14:12:52Z</time><name>PT4922</name></trkpt>
<trkpt lat="52.924007" lon="-3.430952"><ele>156</ele><time>2020-09-03T14:12:57Z</time><name>PT4923</name></trkpt>
<trkpt lat="52.924009" lon="-3.431023"><ele>156</ele><time>2020-09-03T14:13:00Z</time><name>PT4924</name></trkpt>
<trkpt lat="52.924011" lon="-3.431104"><ele>155</ele><time>2020-09-03T14:13:03Z</time><name>PT4925</name></trkpt>
<trkpt lat="52.924021" lon="-3.431165"><ele>157</ele><time>2020-09-03T14:13:06Z</time><name>PT4926</name></trkpt>
<trkpt lat="52.924029" lon="-3.431211"><ele>157</ele><time>2020-09-03T14:13:09Z</time><name>PT4927</name></trkpt>
<trkpt lat="52.924012" lon="-3.431270"><ele>157</ele><time>2020-09-03T14:13:12Z</time><name>PT4928</name></trkpt>
<trkpt lat="52.923988" lon="-3.431326"><ele>156</ele><time>2020-09-03T14:13:16Z</time><name>PT4929</name></trkpt>
<trkpt lat="52.923955" lon="-3.431405"><ele>156</ele><time>2020-09-03T14:13:19Z</time><name>PT4930</name></trkpt>
<trkpt lat="52.923931" lon="-3.431441"><ele>157</ele><time>2020-09-03T14:13:23Z</time><name>PT4931</name></trkpt>
<trkpt lat="52.923885" lon="-3.431502"><ele>158</ele><time>2020-09-03T14:13:26Z</time><name>PT4932</name></trkpt>
<trkpt lat="52.923838" lon="-3.431560"><ele>159</ele><time>2020-09-03T14:13:30Z</time><name>PT4933</name></trkpt>
<trkpt lat="52.923815" lon="-3.431623"><ele>161</ele><time>2020-09-03T14:13:33Z</time><name>PT4934</name></trkpt>
<trkpt lat="52.923786" lon="-3.431694"><ele>162</ele><time>2020-09-03T14:13:36Z</time><name>PT4935</name></trkpt>
<trkpt lat="52.923777" lon="-3.431714"><ele>162</ele><time>2020-09-03T14:13:37Z</time><name>PT4936</name></trkpt>
<trkpt lat="52.923770" lon="-3.431733"><ele>162</ele><time>2020-09-03T14:13:39Z</time><name>PT4937</name></trkpt>
<trkpt lat="52.923768" lon="-3.431751"><ele>162</ele><time>2020-09-03T14:13:39Z</time><name>PT4938</name></trkpt>
<trkpt lat="52.923764" lon="-3.431767"><ele>161</ele><time>2020-09-03T14:13:41Z</time><name>PT4939</name></trkpt>
<trkpt lat="52.923762" lon="-3.431787"><ele>161</ele><time>2020-09-03T14:13:42Z</time><name>PT4940</name></trkpt>
<trkpt lat="52.923759" lon="-3.431809"><ele>161</ele><time>2020-09-03T14:13:42Z</time><name>PT4941</name></trkpt>
<trkpt lat="52.923757" lon="-3.431830"><ele>161</ele><time>2020-09-03T14:13:43Z</time><name>PT4942</name></trkpt>
<trkpt lat="52.923755" lon="-3.431849"><ele>161</ele><time>2020-09-03T14:13:44Z</time><name>PT4943</name></trkpt>
<trkpt lat="52.923751" lon="-3.431868"><ele>161</ele><time>2020-09-03T14:13:45Z</time><name>PT4944</name></trkpt>
<trkpt lat="52.923749" lon="-3.431889"><ele>161</ele><time>2020-09-03T14:13:47Z</time><name>PT4945</name></trkpt>
<trkpt lat="52.923748" lon="-3.431911"><ele>161</ele><time>2020-09-03T14:13:47Z</time><name>PT4946</name></trkpt>
<trkpt lat="52.923746" lon="-3.431930"><ele>161</ele><time>2020-09-03T14:13:48Z</time><name>PT4947</name></trkpt>
<trkpt lat="52.923745" lon="-3.431951"><ele>161</ele><time>2020-09-03T14:13:49Z</time><name>PT4948</name></trkpt>
<trkpt lat="52.923742" lon="-3.431970"><ele>161</ele><time>2020-09-03T14:13:51Z</time><name>PT4949</name></trkpt>
<trkpt lat="52.923741" lon="-3.431990"><ele>161</ele><time>2020-09-03T14:13:52Z</time><name>PT4950</name></trkpt>
<trkpt lat="52.923739" lon="-3.432014"><ele>161</ele><time>2020-09-03T14:13:52Z</time><name>PT4951</name></trkpt>
<trkpt lat="52.923736" lon="-3.432036"><ele>161</ele><time>2020-09-03T14:13:54Z</time><name>PT4952</name></trkpt>
<trkpt lat="52.923733" lon="-3.432058"><ele>162</ele><time>2020-09-03T14:13:55Z</time><name>PT4953</name></trkpt>
<trkpt lat="52.923731" lon="-3.432077"><ele>162</ele><time>2020-09-03T14:13:55Z</time><name>PT4954</name></trkpt>
<trkpt lat="52.923731" lon="-3.432098"><ele>162</ele><time>2020-09-03T14:13:57Z</time><name>PT4955</name></trkpt>
<trkpt lat="52.923730" lon="-3.432116"><ele>162</ele><time>2020-09-03T14:13:57Z</time><name>PT4956</name></trkpt>
<trkpt lat="52.923726" lon="-3.432133"><ele>162</ele><time>2020-09-03T14:13:58Z</time><name>PT4957</name></trkpt>
<trkpt lat="52.923721" lon="-3.432151"><ele>162</ele><time>2020-09-03T14:13:59Z</time><name>PT4958</name></trkpt>
<trkpt lat="52.923719" lon="-3.432166"><ele>162</ele><time>2020-09-03T14:14:00Z</time><name>PT4959</name></trkpt>
<trkpt lat="52.923714" lon="-3.432180"><ele>162</ele><time>2020-09-03T14:14:02Z</time><name>PT4960</name></trkpt>
<trkpt lat="52.923708" lon="-3.432197"><ele>162</ele><time>2020-09-03T14:14:02Z</time><name>PT4961</name></trkpt>
<trkpt lat="52.923703" lon="-3.432213"><ele>161</ele><time>2020-09-03T14:14:03Z</time><name>PT4962</name></trkpt>
<trkpt lat="52.923700" lon="-3.432225"><ele>161</ele><time>2020-09-03T14:14:05Z</time><name>PT4963</name></trkpt>
<trkpt lat="52.923695" lon="-3.432245"><ele>161</ele><time>2020-09-03T14:14:05Z</time><name>PT4964</name></trkpt>
<trkpt lat="52.923690" lon="-3.432265"><ele>161</ele><time>2020-09-03T14:14:06Z</time><name>PT4965</name></trkpt>
<trkpt lat="52.923685" lon="-3.432279"><ele>161</ele><time>2020-09-03T14:14:08Z</time><name>PT4966</name></trkpt>
<trkpt lat="52.923679" lon="-3.432299"><ele>161</ele><time>2020-09-03T14:14:08Z</time><name>PT4967</name></trkpt>
<trkpt lat="52.923675" lon="-3.432317"><ele>161</ele><time>2020-09-03T14:14:09Z</time><name>PT4968</name></trkpt>
<trkpt lat="52.923674" lon="-3.432333"><ele>161</ele><time>2020-09-03T14:14:10Z</time><name>PT4969</name></trkpt>
<trkpt lat="52.923672" lon="-3.432352"><ele>161</ele><time>2020-09-03T14:14:11Z</time><name>PT4970</name></trkpt>
<trkpt lat="52.923668" lon="-3.432374"><ele>161</ele><time>2020-09-03T14:14:12Z</time><name>PT4971</name></trkpt>
<trkpt lat="52.923662" lon="-3.432392"><ele>161</ele><time>2020-09-03T14:14:13Z</time><name>PT4972</name></trkpt>
<trkpt lat="52.923657" lon="-3.432408"><ele>161</ele><time>2020-09-03T14:14:14Z</time><name>PT4973</name></trkpt>
<trkpt lat="52.923652" lon="-3.432429"><ele>160</ele><time>2020-09-03T14:14:15Z</time><name>PT4974</name></trkpt>
<trkpt lat="52.923647" lon="-3.432442"><ele>160</ele><time>2020-09-03T14:14:16Z</time><name>PT4975</name></trkpt>
<trkpt lat="52.923646" lon="-3.432453"><ele>160</ele><time>2020-09-03T14:14:17Z</time><name>PT4976</name></trkpt>
<trkpt lat="52.923650" lon="-3.432480"><ele>160</ele><time>2020-09-03T14:14:18Z</time><name>PT4977</name></trkpt>
<trkpt lat="52.923646" lon="-3.432499"><ele>160</ele><time>2020-09-03T14:14:19Z</time><name>PT4978</name></trkpt>
<trkpt lat="52.923642" lon="-3.432514"><ele>160</ele><time>2020-09-03T14:14:21Z</time><name>PT4979</name></trkpt>
<trkpt lat="52.923634" lon="-3.432528"><ele>160</ele><time>2020-09-03T14:14:21Z</time><name>PT4980</name></trkpt>
<trkpt lat="52.923628" lon="-3.432551"><ele>160</ele><time>2020-09-03T14:14:23Z</time><name>PT4981</name></trkpt>
<trkpt lat="52.923627" lon="-3.432570"><ele>160</ele><time>2020-09-03T14:14:23Z</time><name>PT4982</name></trkpt>
<trkpt lat="52.923624" lon="-3.432598"><ele>160</ele><time>2020-09-03T14:14:24Z</time><name>PT4983</name></trkpt>
<trkpt lat="52.923626" lon="-3.432622"><ele>161</ele><time>2020-09-03T14:14:26Z</time><name>PT4984</name></trkpt>
<trkpt lat="52.923624" lon="-3.432643"><ele>161</ele><time>2020-09-03T14:14:26Z</time><name>PT4985</name></trkpt>
<trkpt lat="52.923620" lon="-3.432660"><ele>161</ele><time>2020-09-03T14:14:27Z</time><name>PT4986</name></trkpt>
<trkpt lat="52.923613" lon="-3.432686"><ele>160</ele><time>2020-09-03T14:14:29Z</time><name>PT4987</name></trkpt>
<trkpt lat="52.923609" lon="-3.432710"><ele>160</ele><time>2020-09-03T14:14:29Z</time><name>PT4988</name></trkpt>
<trkpt lat="52.923606" lon="-3.432728"><ele>160</ele><time>2020-09-03T14:14:30Z</time><name>PT4989</name></trkpt>
<trkpt lat="52.923603" lon="-3.432751"><ele>160</ele><time>2020-09-03T14:14:32Z</time><name>PT4990</name></trkpt>
<trkpt lat="52.923600" lon="-3.432780"><ele>159</ele><time>2020-09-03T14:14:32Z</time><name>PT4991</name></trkpt>
<trkpt lat="52.923598" lon="-3.432798"><ele>159</ele><time>2020-09-03T14:14:33Z</time><name>PT4992</name></trkpt>
<trkpt lat="52.923594" lon="-3.432818"><ele>158</ele><time>2020-09-03T14:14:34Z</time><name>PT4993</name></trkpt>
<trkpt lat="52.923584" lon="-3.432845"><ele>158</ele><time>2020-09-03T14:14:35Z</time><name>PT4994</name></trkpt>
<trkpt lat="52.923580" lon="-3.432872"><ele>158</ele><time>2020-09-03T14:14:36Z</time><name>PT4995</name></trkpt>
<trkpt lat="52.923577" lon="-3.432893"><ele>158</ele><time>2020-09-03T14:14:37Z</time><name>PT4996</name></trkpt>
<trkpt lat="52.923575" lon="-3.432923"><ele>159</ele><time>2020-09-03T14:14:39Z</time><name>PT4997</name></trkpt>
<trkpt lat="52.923573" lon="-3.432945"><ele>159</ele><time>2020-09-03T14:14:39Z</time><name>PT4998</name></trkpt>
<trkpt lat="52.923569" lon="-3.432954"><ele>159</ele><time>2020-09-03T14:14:40Z</time><name>PT4999</name></trkpt>
<trkpt lat="52.923561" lon="-3.432972"><ele>158</ele><time>2020-09-03T14:14:42Z</time><name>PT5000</name></trkpt>
<trkpt lat="52.923557" lon="-3.432989"><ele>158</ele><time>2020-09-03T14:14:42Z</time><name>PT5001</name></trkpt>
<trkpt lat="52.923555" lon="-3.433005"><ele>158</ele><time>2020-09-03T14:14:43Z</time><name>PT5002</name></trkpt>
<trkpt lat="52.923553" lon="-3.433017"><ele>158</ele><time>2020-09-03T14:14:45Z</time><name>PT5003</name></trkpt>
<trkpt lat="52.923551" lon="-3.433034"><ele>158</ele><time>2020-09-03T14:14:45Z</time><name>PT5004</name></trkpt>
<trkpt lat="52.923548" lon="-3.433051"><ele>158</ele><time>2020-09-03T14:14:46Z</time><name>PT5005</name></trkpt>
<trkpt lat="52.923548" lon="-3.433072"><ele>158</ele><time>2020-09-03T14:14:47Z</time><name>PT5006</name></trkpt>
<trkpt lat="52.923544" lon="-3.433090"><ele>158</ele><time>2020-09-03T14:14:48Z</time><name>PT5007</name></trkpt>
<trkpt lat="52.923539" lon="-3.433103"><ele>158</ele><time>2020-09-03T14:14:49Z</time><name>PT5008</name></trkpt>
<trkpt lat="52.923533" lon="-3.433123"><ele>158</ele><time>2020-09-03T14:14:50Z</time><name>PT5009</name></trkpt>
<trkpt lat="52.923525" lon="-3.433142"><ele>158</ele><time>2020-09-03T14:14:52Z</time><name>PT5010</name></trkpt>
<trkpt lat="52.923520" lon="-3.433162"><ele>157</ele><time>2020-09-03T14:14:52Z</time><name>PT5011</name></trkpt>
<trkpt lat="52.923512" lon="-3.433188"><ele>158</ele><time>2020-09-03T14:14:53Z</time><name>PT5012</name></trkpt>
<trkpt lat="52.923507" lon="-3.433216"><ele>158</ele><time>2020-09-03T14:14:55Z</time><name>PT5013</name></trkpt>
<trkpt lat="52.923508" lon="-3.433234"><ele>158</ele><time>2020-09-03T14:14:55Z</time><name>PT5014</name></trkpt>
<trkpt lat="52.923502" lon="-3.433256"><ele>157</ele><time>2020-09-03T14:14:56Z</time><name>PT5015</name></trkpt>
<trkpt lat="52.923498" lon="-3.433277"><ele>157</ele><time>2020-09-03T14:14:58Z</time><name>PT5016</name></trkpt>
<trkpt lat="52.923492" lon="-3.433291"><ele>157</ele><time>2020-09-03T14:14:58Z</time><name>PT5017</name></trkpt>
<trkpt lat="52.923484" lon="-3.433308"><ele>157</ele><time>2020-09-03T14:14:59Z</time><name>PT5018</name></trkpt>
<trkpt lat="52.923475" lon="-3.433327"><ele>156</ele><time>2020-09-03T14:15:00Z</time><name>PT5019</name></trkpt>
<trkpt lat="52.923468" lon="-3.433344"><ele>156</ele><time>2020-09-03T14:15:01Z</time><name>PT5020</name></trkpt>
<trkpt lat="52.923457" lon="-3.433358"><ele>156</ele><time>2020-09-03T14:15:02Z</time><name>PT5021</name></trkpt>
<trkpt lat="52.923451" lon="-3.433383"><ele>156</ele><time>2020-09-03T14:15:03Z</time><name>PT5022</name></trkpt>
<trkpt lat="52.923447" lon="-3.433399"><ele>156</ele><time>2020-09-03T14:15:04Z</time><name>PT5023</name></trkpt>
<trkpt lat="52.923435" lon="-3.433418"><ele>155</ele><time>2020-09-03T14:15:05Z</time><name>PT5024</name></trkpt>
<trkpt lat="52.923426" lon="-3.433444"><ele>154</ele><time>2020-09-03T14:15:07Z</time><name>PT5025</name></trkpt>
<trkpt lat="52.923426" lon="-3.433463"><ele>155</ele><time>2020-09-03T14:15:07Z</time><name>PT5026</name></trkpt>
<trkpt lat="52.923425" lon="-3.433482"><ele>156</ele><time>2020-09-03T14:15:08Z</time><name>PT5027</name></trkpt>
<trkpt lat="52.923424" lon="-3.433499"><ele>156</ele><time>2020-09-03T14:15:10Z</time><name>PT5028</name></trkpt>
<trkpt lat="52.923423" lon="-3.433512"><ele>156</ele><time>2020-09-03T14:15:10Z</time><name>PT5029</name></trkpt>
<trkpt lat="52.923421" lon="-3.433527"><ele>157</ele><time>2020-09-03T14:15:11Z</time><name>PT5030</name></trkpt>
<trkpt lat="52.923418" lon="-3.433558"><ele>157</ele><time>2020-09-03T14:15:12Z</time><name>PT5031</name></trkpt>
<trkpt lat="52.923416" lon="-3.433577"><ele>156</ele><time>2020-09-03T14:15:13Z</time><name>PT5032</name></trkpt>
<trkpt lat="52.923414" lon="-3.433596"><ele>156</ele><time>2020-09-03T14:15:15Z</time><name>PT5033</name></trkpt>
<trkpt lat="52.923412" lon="-3.433613"><ele>156</ele><time>2020-09-03T14:15:15Z</time><name>PT5034</name></trkpt>
<trkpt lat="52.923406" lon="-3.433629"><ele>157</ele><time>2020-09-03T14:15:16Z</time><name>PT5035</name></trkpt>
<trkpt lat="52.923397" lon="-3.433652"><ele>157</ele><time>2020-09-03T14:15:18Z</time><name>PT5036</name></trkpt>
<trkpt lat="52.923396" lon="-3.433671"><ele>157</ele><time>2020-09-03T14:15:18Z</time><name>PT5037</name></trkpt>
<trkpt lat="52.923392" lon="-3.433693"><ele>157</ele><time>2020-09-03T14:15:19Z</time><name>PT5038</name></trkpt>
<trkpt lat="52.923385" lon="-3.433727"><ele>158</ele><time>2020-09-03T14:15:21Z</time><name>PT5039</name></trkpt>
<trkpt lat="52.923380" lon="-3.433749"><ele>159</ele><time>2020-09-03T14:15:21Z</time><name>PT5040</name></trkpt>
<trkpt lat="52.923374" lon="-3.433764"><ele>159</ele><time>2020-09-03T14:15:22Z</time><name>PT5041</name></trkpt>
<trkpt lat="52.923367" lon="-3.433781"><ele>158</ele><time>2020-09-03T14:15:24Z</time><name>PT5042</name></trkpt>
<trkpt lat="52.923362" lon="-3.433800"><ele>158</ele><time>2020-09-03T14:15:24Z</time><name>PT5043</name></trkpt>
<trkpt lat="52.923358" lon="-3.433822"><ele>158</ele><time>2020-09-03T14:15:25Z</time><name>PT5044</name></trkpt>
<trkpt lat="52.923353" lon="-3.433847"><ele>159</ele><time>2020-09-03T14:15:27Z</time><name>PT5045</name></trkpt>
<trkpt lat="52.923351" lon="-3.433875"><ele>159</ele><time>2020-09-03T14:15:27Z</time><name>PT5046</name></trkpt>
<trkpt lat="52.923347" lon="-3.433893"><ele>159</ele><time>2020-09-03T14:15:28Z</time><name>PT5047</name></trkpt>
<trkpt lat="52.923342" lon="-3.433916"><ele>160</ele><time>2020-09-03T14:15:29Z</time><name>PT5048</name></trkpt>
<trkpt lat="52.923340" lon="-3.433936"><ele>160</ele><time>2020-09-03T14:15:30Z</time><name>PT5049</name></trkpt>
<trkpt lat="52.923336" lon="-3.433950"><ele>160</ele><time>2020-09-03T14:15:32Z</time><name>PT5050</name></trkpt>
<trkpt lat="52.923330" lon="-3.433969"><ele>160</ele><time>2020-09-03T14:15:32Z</time><name>PT5051</name></trkpt>
<trkpt lat="52.923322" lon="-3.433993"><ele>160</ele><time>2020-09-03T14:15:33Z</time><name>PT5052</name></trkpt>
<trkpt lat="52.923313" lon="-3.434017"><ele>160</ele><time>2020-09-03T14:15:35Z</time><name>PT5053</name></trkpt>
<trkpt lat="52.923306" lon="-3.434037"><ele>161</ele><time>2020-09-03T14:15:35Z</time><name>PT5054</name></trkpt>
<trkpt lat="52.923301" lon="-3.434056"><ele>162</ele><time>2020-09-03T14:15:36Z</time><name>PT5055</name></trkpt>
<trkpt lat="52.923295" lon="-3.434073"><ele>162</ele><time>2020-09-03T14:15:38Z</time><name>PT5056</name></trkpt>
<trkpt lat="52.923296" lon="-3.434089"><ele>161</ele><time>2020-09-03T14:15:38Z</time><name>PT5057</name></trkpt>
<trkpt lat="52.923293" lon="-3.434116"><ele>162</ele><time>2020-09-03T14:15:39Z</time><name>PT5058</name></trkpt>
<trkpt lat="52.923287" lon="-3.434141"><ele>162</ele><time>2020-09-03T14:15:40Z</time><name>PT5059</name></trkpt>
<trkpt lat="52.923285" lon="-3.434160"><ele>161</ele><time>2020-09-03T14:15:42Z</time><name>PT5060</name></trkpt>
<trkpt lat="52.923277" lon="-3.434182"><ele>159</ele><time>2020-09-03T14:15:43Z</time><name>PT5061</name></trkpt>
<trkpt lat="52.923278" lon="-3.434201"><ele>159</ele><time>2020-09-03T14:15:43Z</time><name>PT5062</name></trkpt>
<trkpt lat="52.923275" lon="-3.434219"><ele>159</ele><time>2020-09-03T14:15:45Z</time><name>PT5063</name></trkpt>
<trkpt lat="52.923269" lon="-3.434240"><ele>159</ele><time>2020-09-03T14:15:46Z</time><name>PT5064</name></trkpt>
<trkpt lat="52.923261" lon="-3.434261"><ele>159</ele><time>2020-09-03T14:15:46Z</time><name>PT5065</name></trkpt>
<trkpt lat="52.923252" lon="-3.434282"><ele>159</ele><time>2020-09-03T14:15:47Z</time><name>PT5066</name></trkpt>
<trkpt lat="52.923251" lon="-3.434297"><ele>159</ele><time>2020-09-03T14:15:49Z</time><name>PT5067</name></trkpt>
<trkpt lat="52.923246" lon="-3.434319"><ele>157</ele><time>2020-09-03T14:15:49Z</time><name>PT5068</name></trkpt>
<trkpt lat="52.923245" lon="-3.434341"><ele>157</ele><time>2020-09-03T14:15:50Z</time><name>PT5069</name></trkpt>
<trkpt lat="52.923244" lon="-3.434359"><ele>157</ele><time>2020-09-03T14:15:52Z</time><name>PT5070</name></trkpt>
<trkpt lat="52.923239" lon="-3.434380"><ele>157</ele><time>2020-09-03T14:15:52Z</time><name>PT5071</name></trkpt>
<trkpt lat="52.923224" lon="-3.434408"><ele>153</ele><time>2020-09-03T14:15:53Z</time><name>PT5072</name></trkpt>
<trkpt lat="52.923222" lon="-3.434425"><ele>152</ele><time>2020-09-03T14:15:54Z</time><name>PT5073</name></trkpt>
<trkpt lat="52.923223" lon="-3.434441"><ele>152</ele><time>2020-09-03T14:15:55Z</time><name>PT5074</name></trkpt>
<trkpt lat="52.923213" lon="-3.434458"><ele>151</ele><time>2020-09-03T14:15:57Z</time><name>PT5075</name></trkpt>
<trkpt lat="52.923203" lon="-3.434475"><ele>150</ele><time>2020-09-03T14:15:57Z</time><name>PT5076</name></trkpt>
<trkpt lat="52.923204" lon="-3.434496"><ele>152</ele><time>2020-09-03T14:15:58Z</time><name>PT5077</name></trkpt>
<trkpt lat="52.923201" lon="-3.434517"><ele>151</ele><time>2020-09-03T14:16:00Z</time><name>PT5078</name></trkpt>
<trkpt lat="52.923199" lon="-3.434534"><ele>151</ele><time>2020-09-03T14:16:00Z</time><name>PT5079</name></trkpt>
<trkpt lat="52.923188" lon="-3.434554"><ele>151</ele><time>2020-09-03T14:16:01Z</time><name>PT5080</name></trkpt>
<trkpt lat="52.923180" lon="-3.434577"><ele>150</ele><time>2020-09-03T14:16:02Z</time><name>PT5081</name></trkpt>
<trkpt lat="52.923173" lon="-3.434605"><ele>150</ele><time>2020-09-03T14:16:03Z</time><name>PT5082</name></trkpt>
<trkpt lat="52.923174" lon="-3.434623"><ele>150</ele><time>2020-09-03T14:16:05Z</time><name>PT5083</name></trkpt>
<trkpt lat="52.923172" lon="-3.434646"><ele>149</ele><time>2020-09-03T14:16:05Z</time><name>PT5084</name></trkpt>
<trkpt lat="52.923173" lon="-3.434665"><ele>149</ele><time>2020-09-03T14:16:06Z</time><name>PT5085</name></trkpt>
<trkpt lat="52.923178" lon="-3.434685"><ele>150</ele><time>2020-09-03T14:16:07Z</time><name>PT5086</name></trkpt>
<trkpt lat="52.923182" lon="-3.434712"><ele>152</ele><time>2020-09-03T14:16:08Z</time><name>PT5087</name></trkpt>
<trkpt lat="52.923181" lon="-3.434731"><ele>152</ele><time>2020-09-03T14:16:10Z</time><name>PT5088</name></trkpt>
<trkpt lat="52.923183" lon="-3.434748"><ele>153</ele><time>2020-09-03T14:16:10Z</time><name>PT5089</name></trkpt>
<trkpt lat="52.923187" lon="-3.434779"><ele>153</ele><time>2020-09-03T14:16:11Z</time><name>PT5090</name></trkpt>
<trkpt lat="52.923189" lon="-3.434799"><ele>153</ele><time>2020-09-03T14:16:13Z</time><name>PT5091</name></trkpt>
<trkpt lat="52.923190" lon="-3.434821"><ele>153</ele><time>2020-09-03T14:16:13Z</time><name>PT5092</name></trkpt>
<trkpt lat="52.923190" lon="-3.434843"><ele>154</ele><time>2020-09-03T14:16:14Z</time><name>PT5093</name></trkpt>
<trkpt lat="52.923181" lon="-3.434873"><ele>153</ele><time>2020-09-03T14:16:16Z</time><name>PT5094</name></trkpt>
<trkpt lat="52.923183" lon="-3.434890"><ele>153</ele><time>2020-09-03T14:16:16Z</time><name>PT5095</name></trkpt>
<trkpt lat="52.923186" lon="-3.434910"><ele>153</ele><time>2020-09-03T14:16:17Z</time><name>PT5096</name></trkpt>
<trkpt lat="52.923182" lon="-3.434936"><ele>153</ele><time>2020-09-03T14:16:19Z</time><name>PT5097</name></trkpt>
<trkpt lat="52.923183" lon="-3.434960"><ele>153</ele><time>2020-09-03T14:16:19Z</time><name>PT5098</name></trkpt>
<trkpt lat="52.923180" lon="-3.434983"><ele>153</ele><time>2020-09-03T14:16:20Z</time><name>PT5099</name></trkpt>
<trkpt lat="52.923178" lon="-3.435003"><ele>153</ele><time>2020-09-03T14:16:22Z</time><name>PT5100</name></trkpt>
<trkpt lat="52.923173" lon="-3.435028"><ele>153</ele><time>2020-09-03T14:16:22Z</time><name>PT5101</name></trkpt>
<trkpt lat="52.923173" lon="-3.435049"><ele>153</ele><time>2020-09-03T14:16:23Z</time><name>PT5102</name></trkpt>
<trkpt lat="52.923171" lon="-3.435074"><ele>154</ele><time>2020-09-03T14:16:24Z</time><name>PT5103</name></trkpt>
<trkpt lat="52.923169" lon="-3.435094"><ele>155</ele><time>2020-09-03T14:16:25Z</time><name>PT5104</name></trkpt>
<trkpt lat="52.923165" lon="-3.435118"><ele>156</ele><time>2020-09-03T14:16:26Z</time><name>PT5105</name></trkpt>
<trkpt lat="52.923160" lon="-3.435134"><ele>157</ele><time>2020-09-03T14:16:27Z</time><name>PT5106</name></trkpt>
<trkpt lat="52.923173" lon="-3.435156"><ele>160</ele><time>2020-09-03T14:16:29Z</time><name>PT5107</name></trkpt>
<trkpt lat="52.923174" lon="-3.435180"><ele>160</ele><time>2020-09-03T14:16:29Z</time><name>PT5108</name></trkpt>
<trkpt lat="52.923166" lon="-3.435201"><ele>161</ele><time>2020-09-03T14:16:30Z</time><name>PT5109</name></trkpt>
<trkpt lat="52.923164" lon="-3.435214"><ele>160</ele><time>2020-09-03T14:16:32Z</time><name>PT5110</name></trkpt>
<trkpt lat="52.923158" lon="-3.435228"><ele>160</ele><time>2020-09-03T14:16:32Z</time><name>PT5111</name></trkpt>
<trkpt lat="52.923151" lon="-3.435247"><ele>159</ele><time>2020-09-03T14:16:33Z</time><name>PT5112</name></trkpt>
<trkpt lat="52.923144" lon="-3.435270"><ele>158</ele><time>2020-09-03T14:16:34Z</time><name>PT5113</name></trkpt>
<trkpt lat="52.923142" lon="-3.435288"><ele>157</ele><time>2020-09-03T14:16:35Z</time><name>PT5114</name></trkpt>
<trkpt lat="52.923138" lon="-3.435308"><ele>158</ele><time>2020-09-03T14:16:37Z</time><name>PT5115</name></trkpt>
<trkpt lat="52.923132" lon="-3.435333"><ele>158</ele><time>2020-09-03T14:16:37Z</time><name>PT5116</name></trkpt>
<trkpt lat="52.923128" lon="-3.435351"><ele>158</ele><time>2020-09-03T14:16:38Z</time><name>PT5117</name></trkpt>
<trkpt lat="52.923123" lon="-3.435369"><ele>158</ele><time>2020-09-03T14:16:40Z</time><name>PT5118</name></trkpt>
<trkpt lat="52.923111" lon="-3.435390"><ele>157</ele><time>2020-09-03T14:16:40Z</time><name>PT5119</name></trkpt>
<trkpt lat="52.923104" lon="-3.435415"><ele>157</ele><time>2020-09-03T14:16:41Z</time><name>PT5120</name></trkpt>
<trkpt lat="52.923100" lon="-3.435436"><ele>157</ele><time>2020-09-03T14:16:43Z</time><name>PT5121</name></trkpt>
<trkpt lat="52.923097" lon="-3.435457"><ele>157</ele><time>2020-09-03T14:16:43Z</time><name>PT5122</name></trkpt>
<trkpt lat="52.923092" lon="-3.435479"><ele>157</ele><time>2020-09-03T14:16:44Z</time><name>PT5123</name></trkpt>
<trkpt lat="52.923087" lon="-3.435498"><ele>157</ele><time>2020-09-03T14:16:45Z</time><name>PT5124</name></trkpt>
<trkpt lat="52.923076" lon="-3.435528"><ele>157</ele><time>2020-09-03T14:16:46Z</time><name>PT5125</name></trkpt>
<trkpt lat="52.923067" lon="-3.435553"><ele>157</ele><time>2020-09-03T14:16:47Z</time><name>PT5126</name></trkpt>
<trkpt lat="52.923067" lon="-3.435570"><ele>156</ele><time>2020-09-03T14:16:48Z</time><name>PT5127</name></trkpt>
<trkpt lat="52.923062" lon="-3.435595"><ele>156</ele><time>2020-09-03T14:16:49Z</time><name>PT5128</name></trkpt>
<trkpt lat="52.923057" lon="-3.435615"><ele>156</ele><time>2020-09-03T14:16:50Z</time><name>PT5129</name></trkpt>
<trkpt lat="52.923053" lon="-3.435635"><ele>156</ele><time>2020-09-03T14:16:52Z</time><name>PT5130</name></trkpt>
<trkpt lat="52.923044" lon="-3.435659"><ele>156</ele><time>2020-09-03T14:16:52Z</time><name>PT5131</name></trkpt>
<trkpt lat="52.923027" lon="-3.435721"><ele>155</ele><time>2020-09-03T14:16:55Z</time><name>PT5132</name></trkpt>
<trkpt lat="52.923012" lon="-3.435797"><ele>156</ele><time>2020-09-03T14:16:59Z</time><name>PT5133</name></trkpt>
<trkpt lat="52.923000" lon="-3.435894"><ele>157</ele><time>2020-09-03T14:17:03Z</time><name>PT5134</name></trkpt>
<trkpt lat="52.922984" lon="-3.435973"><ele>156</ele><time>2020-09-03T14:17:07Z</time><name>PT5135</name></trkpt>
<trkpt lat="52.922976" lon="-3.436046"><ele>159</ele><time>2020-09-03T14:17:10Z</time><name>PT5136</name></trkpt>
<trkpt lat="52.922964" lon="-3.436122"><ele>160</ele><time>2020-09-03T14:17:14Z</time><name>PT5137</name></trkpt>
<trkpt lat="52.922958" lon="-3.436194"><ele>157</ele><time>2020-09-03T14:17:19Z</time><name>PT5138</name></trkpt>
<trkpt lat="52.922971" lon="-3.436236"><ele>155</ele><time>2020-09-03T14:17:22Z</time><name>PT5139</name></trkpt>
<trkpt lat="52.922987" lon="-3.436280"><ele>156</ele><time>2020-09-03T14:17:25Z</time><name>PT5140</name></trkpt>
<trkpt lat="52.923011" lon="-3.436326"><ele>156</ele><time>2020-09-03T14:17:28Z</time><name>PT5141</name></trkpt>
<trkpt lat="52.923023" lon="-3.436333"><ele>156</ele><time>2020-09-03T14:17:28Z</time><name>PT5142</name></trkpt>
<trkpt lat="52.923035" lon="-3.436340"><ele>156</ele><time>2020-09-03T14:17:29Z</time><name>PT5143</name></trkpt></trkseg></trk></gpx>